Wetterdaten: Donnerstag, 31.10.2019
Datum Zeit Temp. A. Feuchte A. Luftdruck Regen Wind Richtung Richtung Sonnenschein ET UV Solar Taupunkt Windchill Windböen
31.10.2019 00:00 2,9 °C 96 % 1022,0 hPa 0,0 mm 0,3 km/h (0 Bft) O-NO 61 ° 0 min 0,000 mm 0,0 UV-I 0 W/m² 2,3 °C 2,9 °C 1,6 km/h (1 Bft)
31.10.2019 00:01 2,8 °C 96 % 1021,9 hPa 0,0 mm 0,0 km/h (0 Bft) O-NO 61 ° 0 min 0,000 mm 0,0 UV-I 0 W/m² 2,2 °C 2,8 °C 0,0 km/h (0 Bft)
31.10.2019 00:02 2,8 °C 96 % 1022,0 hPa 0,0 mm 0,0 km/h (0 Bft) O-NO 61 ° 0 min 0,000 mm 0,0 UV-I 0 W/m² 2,2 °C 2,8 °C 0,0 km/h (0 Bft)
31.10.2019 00:03 2,8 °C 96 % 1022,0 hPa 0,0 mm 2,7 km/h (1 Bft) O-NO 61 ° 0 min 0,000 mm 0,0 UV-I 0 W/m² 2,2 °C 2,8 °C 4,8 km/h (1 Bft)
31.10.2019 00:04 2,8 °C 96 % 1022,0 hPa 0,0 mm 2,1 km/h (1 Bft) O-NO 61 ° 0 min 0,000 mm 0,0 UV-I 0 W/m² 2,2 °C 2,8 °C 4,8 km/h (1 Bft)
31.10.2019 00:05 2,8 °C 96 % 1022,0 hPa 0,0 mm 1,1 km/h (1 Bft) O-NO 61 ° 0 min 0,000 mm 0,0 UV-I 0 W/m² 2,2 °C 2,8 °C 4,8 km/h (1 Bft)
31.10.2019 00:06 2,8 °C 96 % 1022,0 hPa 0,0 mm 0,2 km/h (0 Bft) O-NO 61 ° 0 min 0,000 mm 0,0 UV-I 0 W/m² 2,2 °C 2,8 °C 1,6 km/h (1 Bft)
31.10.2019 00:07 2,8 °C 96 % 1022,1 hPa 0,0 mm 0,0 km/h (0 Bft) O-NO 61 ° 0 min 0,000 mm 0,0 UV-I 0 W/m² 2,2 °C 2,8 °C 0,0 km/h (0 Bft)
31.10.2019 00:08 2,8 °C 96 % 1022,1 hPa 0,0 mm 0,0 km/h (0 Bft) O-NO 61 ° 0 min 0,000 mm 0,0 UV-I 0 W/m² 2,2 °C 2,8 °C 0,0 km/h (0 Bft)
31.10.2019 00:09 2,8 °C 96 % 1022,1 hPa 0,0 mm 1,9 km/h (1 Bft) O-NO 61 ° 0 min 0,000 mm 0,0 UV-I 0 W/m² 2,2 °C 2,8 °C 3,2 km/h (1 Bft)
31.10.2019 00:10 2,8 °C 96 % 1022,1 hPa 0,0 mm 1,7 km/h (1 Bft) O-NO 61 ° 0 min 0,000 mm 0,0 UV-I 0 W/m² 2,2 °C 2,8 °C 4,8 km/h (1 Bft)
31.10.2019 00:11 2,8 °C 96 % 1022,0 hPa 0,0 mm 0,0 km/h (0 Bft) O-NO 61 ° 0 min 0,000 mm 0,0 UV-I 0 W/m² 2,2 °C 2,8 °C 0,0 km/h (0 Bft)
31.10.2019 00:12 2,8 °C 96 % 1022,1 hPa 0,0 mm 0,0 km/h (0 Bft) O-NO 61 ° 0 min 0,000 mm 0,0 UV-I 0 W/m² 2,2 °C 2,8 °C 0,0 km/h (0 Bft)
31.10.2019 00:13 2,8 °C 96 % 1022,0 hPa 0,0 mm 0,1 km/h (0 Bft) O-NO 61 ° 0 min 0,000 mm 0,0 UV-I 0 W/m² 2,2 °C 2,8 °C 3,2 km/h (1 Bft)
31.10.2019 00:14 2,8 °C 96 % 1022,0 hPa 0,0 mm 2,8 km/h (1 Bft) O-NO 61 ° 0 min 0,000 mm 0,0 UV-I 0 W/m² 2,2 °C 2,8 °C 4,8 km/h (1 Bft)
31.10.2019 00:15 2,8 °C 96 % 1022,1 hPa 0,0 mm 3,3 km/h (1 Bft) O-NO 61 ° 0 min 0,000 mm 0,0 UV-I 0 W/m² 2,2 °C 2,8 °C 4,8 km/h (1 Bft)
31.10.2019 00:16 2,8 °C 96 % 1022,1 hPa 0,0 mm 1,2 km/h (1 Bft) O-NO 61 ° 0 min 0,000 mm 0,0 UV-I 0 W/m² 2,2 °C 2,8 °C 3,2 km/h (1 Bft)
31.10.2019 00:17 2,8 °C 96 % 1022,1 hPa 0,0 mm 1,9 km/h (1 Bft) O-NO 61 ° 0 min 0,000 mm 0,0 UV-I 0 W/m² 2,2 °C 2,8 °C 3,2 km/h (1 Bft)
31.10.2019 00:18 2,8 °C 96 % 1022,1 hPa 0,0 mm 3,6 km/h (1 Bft) O-NO 61 ° 0 min 0,000 mm 0,0 UV-I 0 W/m² 2,2 °C 2,8 °C 4,8 km/h (1 Bft)
31.10.2019 00:19 2,8 °C 95 % 1022,1 hPa 0,0 mm 2,0 km/h (1 Bft) O-NO 61 ° 0 min 0,000 mm 0,0 UV-I 0 W/m² 2,1 °C 2,8 °C 3,2 km/h (1 Bft)
31.10.2019 00:20 2,8 °C 95 % 1021,9 hPa 0,0 mm 0,3 km/h (0 Bft) O-NO 61 ° 0 min 0,000 mm 0,0 UV-I 0 W/m² 2,1 °C 2,8 °C 1,6 km/h (1 Bft)
31.10.2019 00:21 2,8 °C 96 % 1021,9 hPa 0,0 mm 1,0 km/h (0 Bft) O-NO 61 ° 0 min 0,000 mm 0,0 UV-I 0 W/m² 2,2 °C 2,8 °C 3,2 km/h (1 Bft)
31.10.2019 00:22 2,8 °C 95 % 1022,0 hPa 0,0 mm 2,7 km/h (1 Bft) O-NO 61 ° 0 min 0,000 mm 0,0 UV-I 0 W/m² 2,1 °C 2,8 °C 4,8 km/h (1 Bft)
31.10.2019 00:23 2,8 °C 95 % 1021,9 hPa 0,0 mm 3,1 km/h (1 Bft) O-NO 61 ° 0 min 0,000 mm 0,0 UV-I 0 W/m² 2,1 °C 2,8 °C 4,8 km/h (1 Bft)
31.10.2019 00:24 2,8 °C 95 % 1022,0 hPa 0,0 mm 2,1 km/h (1 Bft) O-NO 61 ° 0 min 0,000 mm 0,0 UV-I 0 W/m² 2,1 °C 2,8 °C 4,8 km/h (1 Bft)
31.10.2019 00:25 2,8 °C 95 % 1022,0 hPa 0,0 mm 2,1 km/h (1 Bft) O-NO 61 ° 0 min 0,000 mm 0,0 UV-I 0 W/m² 2,1 °C 2,8 °C 4,8 km/h (1 Bft)
31.10.2019 00:26 2,8 °C 95 % 1021,9 hPa 0,0 mm 3,0 km/h (1 Bft) O-NO 61 ° 0 min 0,000 mm 0,0 UV-I 0 W/m² 2,1 °C 2,8 °C 4,8 km/h (1 Bft)
31.10.2019 00:27 2,8 °C 95 % 1021,9 hPa 0,0 mm 3,9 km/h (1 Bft) O-NO 61 ° 0 min 0,000 mm 0,0 UV-I 0 W/m² 2,1 °C 2,8 °C 6,4 km/h (2 Bft)
31.10.2019 00:28 2,8 °C 95 % 1021,9 hPa 0,0 mm 2,7 km/h (1 Bft) O-NO 61 ° 0 min 0,000 mm 0,0 UV-I 0 W/m² 2,1 °C 2,8 °C 4,8 km/h (1 Bft)
31.10.2019 00:29 2,8 °C 95 % 1022,0 hPa 0,0 mm 2,2 km/h (1 Bft) O-NO 61 ° 0 min 0,000 mm 0,0 UV-I 0 W/m² 2,1 °C 2,8 °C 3,2 km/h (1 Bft)
31.10.2019 00:30 2,8 °C 95 % 1022,0 hPa 0,0 mm 0,3 km/h (0 Bft) O-NO 61 ° 0 min 0,000 mm 0,0 UV-I 0 W/m² 2,1 °C 2,8 °C 1,6 km/h (1 Bft)
31.10.2019 00:31 2,8 °C 95 % 1021,9 hPa 0,0 mm 1,6 km/h (1 Bft) O-NO 61 ° 0 min 0,000 mm 0,0 UV-I 0 W/m² 2,1 °C 2,8 °C 4,8 km/h (1 Bft)
31.10.2019 00:32 2,8 °C 95 % 1021,9 hPa 0,0 mm 2,3 km/h (1 Bft) O-NO 61 ° 0 min 0,000 mm 0,0 UV-I 0 W/m² 2,1 °C 2,8 °C 3,2 km/h (1 Bft)
31.10.2019 00:33 2,8 °C 95 % 1022,0 hPa 0,0 mm 3,5 km/h (1 Bft) O-NO 61 ° 0 min 0,000 mm 0,0 UV-I 0 W/m² 2,1 °C 2,8 °C 4,8 km/h (1 Bft)
31.10.2019 00:34 2,7 °C 95 % 1021,9 hPa 0,0 mm 1,3 km/h (1 Bft) O-NO 61 ° 0 min 0,000 mm 0,0 UV-I 0 W/m² 2,0 °C 2,7 °C 4,8 km/h (1 Bft)
31.10.2019 00:35 2,7 °C 95 % 1021,9 hPa 0,0 mm 1,2 km/h (1 Bft) O-NO 61 ° 0 min 0,000 mm 0,0 UV-I 0 W/m² 2,0 °C 2,7 °C 4,8 km/h (1 Bft)
31.10.2019 00:36 2,7 °C 95 % 1021,9 hPa 0,0 mm 1,4 km/h (1 Bft) O-NO 61 ° 0 min 0,000 mm 0,0 UV-I 0 W/m² 2,0 °C 2,7 °C 3,2 km/h (1 Bft)
31.10.2019 00:37 2,7 °C 95 % 1022,0 hPa 0,0 mm 3,3 km/h (1 Bft) NO 51 ° 0 min 0,000 mm 0,0 UV-I 0 W/m² 2,0 °C 2,7 °C 6,4 km/h (2 Bft)
31.10.2019 00:38 2,7 °C 95 % 1022,0 hPa 0,0 mm 4,4 km/h (1 Bft) NO 51 ° 0 min 0,000 mm 0,0 UV-I 0 W/m² 2,0 °C 2,7 °C 6,4 km/h (2 Bft)
31.10.2019 00:39 2,7 °C 95 % 1022,0 hPa 0,0 mm 4,4 km/h (1 Bft) NO 51 ° 0 min 0,000 mm 0,0 UV-I 0 W/m² 2,0 °C 2,7 °C 6,4 km/h (2 Bft)
31.10.2019 00:40 2,7 °C 96 % 1022,0 hPa 0,0 mm 3,5 km/h (1 Bft) NO 51 ° 0 min 0,000 mm 0,0 UV-I 0 W/m² 2,1 °C 2,7 °C 6,4 km/h (2 Bft)
31.10.2019 00:41 2,7 °C 95 % 1022,0 hPa 0,0 mm 4,4 km/h (1 Bft) NO 51 ° 0 min 0,000 mm 0,0 UV-I 0 W/m² 2,0 °C 2,7 °C 4,8 km/h (1 Bft)
31.10.2019 00:42 2,7 °C 96 % 1021,9 hPa 0,0 mm 2,1 km/h (1 Bft) NO 51 ° 0 min 0,000 mm 0,0 UV-I 0 W/m² 2,1 °C 2,7 °C 3,2 km/h (1 Bft)
31.10.2019 00:43 2,7 °C 95 % 1021,9 hPa 0,0 mm 2,3 km/h (1 Bft) NO 51 ° 0 min 0,000 mm 0,0 UV-I 0 W/m² 2,0 °C 2,7 °C 4,8 km/h (1 Bft)
31.10.2019 00:44 2,7 °C 96 % 1021,9 hPa 0,0 mm 1,5 km/h (1 Bft) NO 51 ° 0 min 0,000 mm 0,0 UV-I 0 W/m² 2,1 °C 2,7 °C 3,2 km/h (1 Bft)
31.10.2019 00:45 2,7 °C 96 % 1021,9 hPa 0,0 mm 1,0 km/h (0 Bft) NO 51 ° 0 min 0,000 mm 0,0 UV-I 0 W/m² 2,1 °C 2,7 °C 3,2 km/h (1 Bft)
31.10.2019 00:46 2,7 °C 96 % 1022,0 hPa 0,0 mm 1,1 km/h (1 Bft) NO 51 ° 0 min 0,000 mm 0,0 UV-I 0 W/m² 2,1 °C 2,7 °C 3,2 km/h (1 Bft)
31.10.2019 00:47 2,7 °C 96 % 1021,9 hPa 0,0 mm 0,3 km/h (0 Bft) NO 51 ° 0 min 0,000 mm 0,0 UV-I 0 W/m² 2,1 °C 2,7 °C 1,6 km/h (1 Bft)
31.10.2019 00:48 2,7 °C 96 % 1022,0 hPa 0,0 mm 0,2 km/h (0 Bft) NO 51 ° 0 min 0,000 mm 0,0 UV-I 0 W/m² 2,1 °C 2,7 °C 1,6 km/h (1 Bft)
31.10.2019 00:49 2,7 °C 96 % 1022,0 hPa 0,0 mm 0,0 km/h (0 Bft) NO 51 ° 0 min 0,000 mm 0,0 UV-I 0 W/m² 2,1 °C 2,7 °C 0,0 km/h (0 Bft)
31.10.2019 00:50 2,7 °C 96 % 1021,9 hPa 0,0 mm 0,7 km/h (0 Bft) NO 51 ° 0 min 0,000 mm 0,0 UV-I 0 W/m² 2,1 °C 2,7 °C 3,2 km/h (1 Bft)
31.10.2019 00:51 2,7 °C 96 % 1022,0 hPa 0,0 mm 2,2 km/h (1 Bft) NO 51 ° 0 min 0,000 mm 0,0 UV-I 0 W/m² 2,1 °C 2,7 °C 3,2 km/h (1 Bft)
31.10.2019 00:52 2,7 °C 96 % 1021,9 hPa 0,0 mm 1,4 km/h (1 Bft) NO 51 ° 0 min 0,000 mm 0,0 UV-I 0 W/m² 2,1 °C 2,7 °C 4,8 km/h (1 Bft)
31.10.2019 00:53 2,7 °C 96 % 1022,0 hPa 0,0 mm 2,9 km/h (1 Bft) NO 51 ° 0 min 0,000 mm 0,0 UV-I 0 W/m² 2,1 °C 2,7 °C 4,8 km/h (1 Bft)
31.10.2019 00:54 2,7 °C 96 % 1022,0 hPa 0,0 mm 2,2 km/h (1 Bft) NO 51 ° 0 min 0,000 mm 0,0 UV-I 0 W/m² 2,1 °C 2,7 °C 3,2 km/h (1 Bft)
31.10.2019 00:55 2,7 °C 96 % 1022,0 hPa 0,0 mm 1,8 km/h (1 Bft) NO 51 ° 0 min 0,000 mm 0,0 UV-I 0 W/m² 2,1 °C 2,7 °C 3,2 km/h (1 Bft)
31.10.2019 00:56 2,7 °C 96 % 1022,0 hPa 0,0 mm 0,0 km/h (0 Bft) NO 51 ° 0 min 0,000 mm 0,0 UV-I 0 W/m² 2,1 °C 2,7 °C 0,0 km/h (0 Bft)
31.10.2019 00:57 2,7 °C 96 % 1022,0 hPa 0,0 mm 0,0 km/h (0 Bft) NO 51 ° 0 min 0,000 mm 0,0 UV-I 0 W/m² 2,1 °C 2,7 °C 0,0 km/h (0 Bft)
31.10.2019 00:58 2,7 °C 96 % 1022,0 hPa 0,0 mm 0,0 km/h (0 Bft) NO 51 ° 0 min 0,000 mm 0,0 UV-I 0 W/m² 2,1 °C 2,7 °C 0,0 km/h (0 Bft)
31.10.2019 00:59 2,7 °C 96 % 1022,0 hPa 0,0 mm 0,0 km/h (0 Bft) NO 51 ° 0 min 0,000 mm 0,0 UV-I 0 W/m² 2,1 °C 2,7 °C 0,0 km/h (0 Bft)
31.10.2019 01:00 2,7 °C 96 % 1022,0 hPa 0,0 mm 0,7 km/h (0 Bft) NO 51 ° 0 min 0,000 mm 0,0 UV-I 0 W/m² 2,1 °C 2,7 °C 1,6 km/h (1 Bft)
31.10.2019 01:01 2,7 °C 96 % 1022,0 hPa 0,0 mm 3,1 km/h (1 Bft) NO 51 ° 0 min 0,000 mm 0,0 UV-I 0 W/m² 2,1 °C 2,7 °C 4,8 km/h (1 Bft)
31.10.2019 01:02 2,7 °C 96 % 1022,0 hPa 0,0 mm 0,1 km/h (0 Bft) NO 51 ° 0 min 0,000 mm 0,0 UV-I 0 W/m² 2,1 °C 2,7 °C 1,6 km/h (1 Bft)
31.10.2019 01:03 2,7 °C 96 % 1022,0 hPa 0,0 mm 0,0 km/h (0 Bft) NO 51 ° 0 min 0,000 mm 0,0 UV-I 0 W/m² 2,1 °C 2,7 °C 0,0 km/h (0 Bft)
31.10.2019 01:04 2,8 °C 96 % 1022,0 hPa 0,0 mm 0,0 km/h (0 Bft) NO 51 ° 0 min 0,000 mm 0,0 UV-I 0 W/m² 2,2 °C 2,8 °C 0,0 km/h (0 Bft)
31.10.2019 01:05 2,7 °C 96 % 1022,0 hPa 0,0 mm 3,2 km/h (1 Bft) NO 51 ° 0 min 0,000 mm 0,0 UV-I 0 W/m² 2,1 °C 2,7 °C 6,4 km/h (2 Bft)
31.10.2019 01:06 2,8 °C 96 % 1022,0 hPa 0,0 mm 2,9 km/h (1 Bft) NO 51 ° 0 min 0,000 mm 0,0 UV-I 0 W/m² 2,2 °C 2,8 °C 4,8 km/h (1 Bft)
31.10.2019 01:07 2,8 °C 96 % 1021,9 hPa 0,0 mm 2,3 km/h (1 Bft) NO 51 ° 0 min 0,000 mm 0,0 UV-I 0 W/m² 2,2 °C 2,8 °C 4,8 km/h (1 Bft)
31.10.2019 01:08 2,8 °C 96 % 1021,9 hPa 0,0 mm 4,4 km/h (1 Bft) NO 51 ° 0 min 0,000 mm 0,0 UV-I 0 W/m² 2,2 °C 2,8 °C 6,4 km/h (2 Bft)
31.10.2019 01:09 2,8 °C 96 % 1021,9 hPa 0,0 mm 2,3 km/h (1 Bft) NO 51 ° 0 min 0,000 mm 0,0 UV-I 0 W/m² 2,2 °C 2,8 °C 3,2 km/h (1 Bft)
31.10.2019 01:10 2,7 °C 96 % 1021,9 hPa 0,0 mm 1,3 km/h (1 Bft) NO 51 ° 0 min 0,000 mm 0,0 UV-I 0 W/m² 2,1 °C 2,7 °C 3,2 km/h (1 Bft)
31.10.2019 01:11 2,7 °C 96 % 1021,9 hPa 0,0 mm 2,4 km/h (1 Bft) NO 51 ° 0 min 0,000 mm 0,0 UV-I 0 W/m² 2,1 °C 2,7 °C 3,2 km/h (1 Bft)
31.10.2019 01:12 2,7 °C 96 % 1021,9 hPa 0,0 mm 3,4 km/h (1 Bft) NO 51 ° 0 min 0,000 mm 0,0 UV-I 0 W/m² 2,1 °C 2,7 °C 6,4 km/h (2 Bft)
31.10.2019 01:13 2,7 °C 96 % 1021,9 hPa 0,0 mm 2,1 km/h (1 Bft) NO 51 ° 0 min 0,000 mm 0,0 UV-I 0 W/m² 2,1 °C 2,7 °C 4,8 km/h (1 Bft)
31.10.2019 01:14 2,7 °C 96 % 1021,9 hPa 0,0 mm 4,6 km/h (1 Bft) NO 51 ° 0 min 0,000 mm 0,0 UV-I 0 W/m² 2,1 °C 1,7 °C 6,4 km/h (2 Bft)
31.10.2019 01:15 2,8 °C 96 % 1021,9 hPa 0,0 mm 3,6 km/h (1 Bft) NO 51 ° 0 min 0,000 mm 0,0 UV-I 0 W/m² 2,2 °C 2,8 °C 4,8 km/h (1 Bft)
31.10.2019 01:16 2,7 °C 96 % 1021,9 hPa 0,0 mm 4,4 km/h (1 Bft) NO 51 ° 0 min 0,000 mm 0,0 UV-I 0 W/m² 2,1 °C 2,7 °C 6,4 km/h (2 Bft)
31.10.2019 01:17 2,7 °C 96 % 1021,8 hPa 0,0 mm 3,6 km/h (1 Bft) O-NO 72 ° 0 min 0,000 mm 0,0 UV-I 0 W/m² 2,1 °C 2,7 °C 6,4 km/h (2 Bft)
31.10.2019 01:18 2,7 °C 96 % 1021,8 hPa 0,0 mm 4,6 km/h (1 Bft) O-NO 62 ° 0 min 0,000 mm 0,0 UV-I 0 W/m² 2,1 °C 1,7 °C 6,4 km/h (2 Bft)
31.10.2019 01:19 2,7 °C 96 % 1021,9 hPa 0,0 mm 3,1 km/h (1 Bft) O-NO 62 ° 0 min 0,000 mm 0,0 UV-I 0 W/m² 2,1 °C 2,7 °C 4,8 km/h (1 Bft)
31.10.2019 01:20 2,7 °C 96 % 1021,9 hPa 0,0 mm 2,5 km/h (1 Bft) O-NO 62 ° 0 min 0,000 mm 0,0 UV-I 0 W/m² 2,1 °C 2,7 °C 3,2 km/h (1 Bft)
31.10.2019 01:21 2,7 °C 96 % 1021,9 hPa 0,0 mm 4,5 km/h (1 Bft) O-NO 57 ° 0 min 0,000 mm 0,0 UV-I 0 W/m² 2,1 °C 2,7 °C 6,4 km/h (2 Bft)
31.10.2019 01:22 2,7 °C 96 % 1021,9 hPa 0,0 mm 3,2 km/h (1 Bft) O-NO 57 ° 0 min 0,000 mm 0,0 UV-I 0 W/m² 2,1 °C 2,7 °C 4,8 km/h (1 Bft)
31.10.2019 01:23 2,7 °C 96 % 1021,9 hPa 0,0 mm 1,7 km/h (1 Bft) O-NO 57 ° 0 min 0,000 mm 0,0 UV-I 0 W/m² 2,1 °C 2,7 °C 3,2 km/h (1 Bft)
31.10.2019 01:24 2,7 °C 96 % 1021,9 hPa 0,0 mm 0,0 km/h (0 Bft) O-NO 57 ° 0 min 0,000 mm 0,0 UV-I 0 W/m² 2,1 °C 2,7 °C 0,0 km/h (0 Bft)
31.10.2019 01:25 2,7 °C 96 % 1021,8 hPa 0,0 mm 3,2 km/h (1 Bft) O-NO 78 ° 0 min 0,000 mm 0,0 UV-I 0 W/m² 2,1 °C 2,7 °C 6,4 km/h (2 Bft)
31.10.2019 01:26 2,7 °C 96 % 1021,8 hPa 0,0 mm 5,8 km/h (2 Bft) O-NO 71 ° 0 min 0,000 mm 0,0 UV-I 0 W/m² 2,1 °C 1,2 °C 8,0 km/h (2 Bft)
31.10.2019 01:27 2,7 °C 96 % 1021,8 hPa 0,0 mm 5,7 km/h (1 Bft) NO 55 ° 0 min 0,000 mm 0,0 UV-I 0 W/m² 2,1 °C 1,2 °C 8,0 km/h (2 Bft)
31.10.2019 01:28 2,7 °C 96 % 1021,8 hPa 0,0 mm 6,8 km/h (2 Bft) O-NO 66 ° 0 min 0,000 mm 0,0 UV-I 0 W/m² 2,1 °C 0,8 °C 8,0 km/h (2 Bft)
31.10.2019 01:29 2,7 °C 96 % 1021,8 hPa 0,0 mm 4,9 km/h (1 Bft) O-NO 76 ° 0 min 0,000 mm 0,0 UV-I 0 W/m² 2,1 °C 1,5 °C 8,0 km/h (2 Bft)
31.10.2019 01:30 2,7 °C 96 % 1021,8 hPa 0,0 mm 1,3 km/h (1 Bft) O-NO 76 ° 0 min 0,000 mm 0,0 UV-I 0 W/m² 2,1 °C 2,7 °C 4,8 km/h (1 Bft)
31.10.2019 01:31 2,7 °C 96 % 1021,8 hPa 0,0 mm 1,7 km/h (1 Bft) O-NO 76 ° 0 min 0,000 mm 0,0 UV-I 0 W/m² 2,1 °C 2,7 °C 4,8 km/h (1 Bft)
31.10.2019 01:32 2,7 °C 96 % 1021,8 hPa 0,0 mm 1,9 km/h (1 Bft) O-NO 76 ° 0 min 0,000 mm 0,0 UV-I 0 W/m² 2,1 °C 2,7 °C 3,2 km/h (1 Bft)
31.10.2019 01:33 2,7 °C 96 % 1021,8 hPa 0,0 mm 2,0 km/h (1 Bft) O-NO 76 ° 0 min 0,000 mm 0,0 UV-I 0 W/m² 2,1 °C 2,7 °C 3,2 km/h (1 Bft)
31.10.2019 01:34 2,7 °C 96 % 1021,8 hPa 0,0 mm 3,1 km/h (1 Bft) O-NO 76 ° 0 min 0,000 mm 0,0 UV-I 0 W/m² 2,1 °C 2,7 °C 4,8 km/h (1 Bft)
31.10.2019 01:35 2,7 °C 96 % 1021,8 hPa 0,0 mm 4,2 km/h (1 Bft) O-NO 76 ° 0 min 0,000 mm 0,0 UV-I 0 W/m² 2,1 °C 2,7 °C 4,8 km/h (1 Bft)
31.10.2019 01:36 2,7 °C 96 % 1021,8 hPa 0,0 mm 2,2 km/h (1 Bft) O-NO 76 ° 0 min 0,000 mm 0,0 UV-I 0 W/m² 2,1 °C 2,7 °C 3,2 km/h (1 Bft)
31.10.2019 01:37 2,7 °C 96 % 1021,8 hPa 0,0 mm 2,2 km/h (1 Bft) O-NO 76 ° 0 min 0,000 mm 0,0 UV-I 0 W/m² 2,1 °C 2,7 °C 3,2 km/h (1 Bft)
31.10.2019 01:38 2,7 °C 96 % 1021,8 hPa 0,0 mm 0,1 km/h (0 Bft) O-NO 76 ° 0 min 0,000 mm 0,0 UV-I 0 W/m² 2,1 °C 2,7 °C 1,6 km/h (1 Bft)
31.10.2019 01:39 2,7 °C 96 % 1021,8 hPa 0,0 mm 2,5 km/h (1 Bft) N-NO 32 ° 0 min 0,000 mm 0,0 UV-I 0 W/m² 2,1 °C 2,7 °C 6,4 km/h (2 Bft)
31.10.2019 01:40 2,7 °C 96 % 1021,7 hPa 0,0 mm 3,4 km/h (1 Bft) NO 48 ° 0 min 0,000 mm 0,0 UV-I 0 W/m² 2,1 °C 2,7 °C 4,8 km/h (1 Bft)
31.10.2019 01:41 2,7 °C 96 % 1021,7 hPa 0,0 mm 4,0 km/h (1 Bft) NO 48 ° 0 min 0,000 mm 0,0 UV-I 0 W/m² 2,1 °C 2,7 °C 4,8 km/h (1 Bft)
31.10.2019 01:42 2,7 °C 96 % 1021,7 hPa 0,0 mm 3,2 km/h (1 Bft) NO 48 ° 0 min 0,000 mm 0,0 UV-I 0 W/m² 2,1 °C 2,7 °C 4,8 km/h (1 Bft)
31.10.2019 01:43 2,7 °C 96 % 1021,7 hPa 0,0 mm 3,8 km/h (1 Bft) NO 48 ° 0 min 0,000 mm 0,0 UV-I 0 W/m² 2,1 °C 2,7 °C 4,8 km/h (1 Bft)
31.10.2019 01:44 2,7 °C 96 % 1021,6 hPa 0,0 mm 4,4 km/h (1 Bft) NO 48 ° 0 min 0,000 mm 0,0 UV-I 0 W/m² 2,1 °C 2,7 °C 8,0 km/h (2 Bft)
31.10.2019 01:45 2,7 °C 96 % 1021,6 hPa 0,0 mm 4,4 km/h (1 Bft) O-NO 58 ° 0 min 0,000 mm 0,0 UV-I 0 W/m² 2,1 °C 2,7 °C 6,4 km/h (2 Bft)
31.10.2019 01:46 2,7 °C 96 % 1021,6 hPa 0,0 mm 2,6 km/h (1 Bft) O-NO 58 ° 0 min 0,000 mm 0,0 UV-I 0 W/m² 2,1 °C 2,7 °C 6,4 km/h (2 Bft)
31.10.2019 01:47 2,6 °C 96 % 1021,6 hPa 0,0 mm 3,3 km/h (1 Bft) O-NO 58 ° 0 min 0,000 mm 0,0 UV-I 0 W/m² 2,0 °C 2,6 °C 6,4 km/h (2 Bft)
31.10.2019 01:48 2,6 °C 96 % 1021,6 hPa 0,0 mm 2,0 km/h (1 Bft) O-NO 58 ° 0 min 0,000 mm 0,0 UV-I 0 W/m² 2,0 °C 2,6 °C 4,8 km/h (1 Bft)
31.10.2019 01:49 2,7 °C 96 % 1021,6 hPa 0,0 mm 1,9 km/h (1 Bft) O-NO 58 ° 0 min 0,000 mm 0,0 UV-I 0 W/m² 2,1 °C 2,7 °C 3,2 km/h (1 Bft)
31.10.2019 01:50 2,7 °C 96 % 1021,5 hPa 0,0 mm 3,7 km/h (1 Bft) O-NO 58 ° 0 min 0,000 mm 0,0 UV-I 0 W/m² 2,1 °C 2,7 °C 4,8 km/h (1 Bft)
31.10.2019 01:51 2,6 °C 96 % 1021,6 hPa 0,0 mm 3,4 km/h (1 Bft) O-NO 58 ° 0 min 0,000 mm 0,0 UV-I 0 W/m² 2,0 °C 2,6 °C 4,8 km/h (1 Bft)
31.10.2019 01:52 2,7 °C 96 % 1021,5 hPa 0,0 mm 3,7 km/h (1 Bft) O-NO 58 ° 0 min 0,000 mm 0,0 UV-I 0 W/m² 2,1 °C 2,7 °C 6,4 km/h (2 Bft)
31.10.2019 01:53 2,6 °C 96 % 1021,5 hPa 0,0 mm 3,0 km/h (1 Bft) O-NO 58 ° 0 min 0,000 mm 0,0 UV-I 0 W/m² 2,0 °C 2,6 °C 4,8 km/h (1 Bft)
31.10.2019 01:54 2,6 °C 96 % 1021,5 hPa 0,0 mm 2,7 km/h (1 Bft) O-NO 58 ° 0 min 0,000 mm 0,0 UV-I 0 W/m² 2,0 °C 2,6 °C 3,2 km/h (1 Bft)
31.10.2019 01:55 2,6 °C 96 % 1021,5 hPa 0,0 mm 0,3 km/h (0 Bft) O-NO 58 ° 0 min 0,000 mm 0,0 UV-I 0 W/m² 2,0 °C 2,6 °C 1,6 km/h (1 Bft)
31.10.2019 01:56 2,6 °C 96 % 1021,5 hPa 0,0 mm 1,7 km/h (1 Bft) O-NO 58 ° 0 min 0,000 mm 0,0 UV-I 0 W/m² 2,0 °C 2,6 °C 4,8 km/h (1 Bft)
31.10.2019 01:57 2,6 °C 96 % 1021,5 hPa 0,0 mm 2,3 km/h (1 Bft) O-NO 58 ° 0 min 0,000 mm 0,0 UV-I 0 W/m² 2,0 °C 2,6 °C 4,8 km/h (1 Bft)
31.10.2019 01:58 2,6 °C 96 % 1021,5 hPa 0,0 mm 2,6 km/h (1 Bft) O-NO 58 ° 0 min 0,000 mm 0,0 UV-I 0 W/m² 2,0 °C 2,6 °C 3,2 km/h (1 Bft)
31.10.2019 01:59 2,6 °C 96 % 1021,5 hPa 0,0 mm 2,6 km/h (1 Bft) O-NO 58 ° 0 min 0,000 mm 0,0 UV-I 0 W/m² 2,0 °C 2,6 °C 4,8 km/h (1 Bft)
31.10.2019 02:00 2,6 °C 96 % 1021,5 hPa 0,0 mm 2,9 km/h (1 Bft) O-NO 58 ° 0 min 0,000 mm 0,0 UV-I 0 W/m² 2,0 °C 2,6 °C 4,8 km/h (1 Bft)
31.10.2019 02:01 2,6 °C 96 % 1021,4 hPa 0,0 mm 3,6 km/h (1 Bft) O-NO 58 ° 0 min 0,000 mm 0,0 UV-I 0 W/m² 2,0 °C 2,6 °C 4,8 km/h (1 Bft)
31.10.2019 02:02 2,6 °C 96 % 1021,5 hPa 0,0 mm 3,6 km/h (1 Bft) O-NO 58 ° 0 min 0,000 mm 0,0 UV-I 0 W/m² 2,0 °C 2,6 °C 4,8 km/h (1 Bft)
31.10.2019 02:03 2,6 °C 96 % 1021,4 hPa 0,0 mm 4,2 km/h (1 Bft) O-NO 59 ° 0 min 0,000 mm 0,0 UV-I 0 W/m² 2,0 °C 2,6 °C 6,4 km/h (2 Bft)
31.10.2019 02:04 2,6 °C 96 % 1021,4 hPa 0,0 mm 5,1 km/h (1 Bft) O-NO 59 ° 0 min 0,000 mm 0,0 UV-I 0 W/m² 2,0 °C 1,3 °C 8,0 km/h (2 Bft)
31.10.2019 02:05 2,6 °C 96 % 1021,4 hPa 0,0 mm 4,3 km/h (1 Bft) O-NO 59 ° 0 min 0,000 mm 0,0 UV-I 0 W/m² 2,0 °C 2,6 °C 6,4 km/h (2 Bft)
31.10.2019 02:06 2,6 °C 96 % 1021,3 hPa 0,0 mm 4,5 km/h (1 Bft) O-NO 59 ° 0 min 0,000 mm 0,0 UV-I 0 W/m² 2,0 °C 2,6 °C 6,4 km/h (2 Bft)
31.10.2019 02:07 2,6 °C 96 % 1021,3 hPa 0,0 mm 4,3 km/h (1 Bft) O-NO 59 ° 0 min 0,000 mm 0,0 UV-I 0 W/m² 2,0 °C 2,6 °C 4,8 km/h (1 Bft)
31.10.2019 02:08 2,6 °C 96 % 1021,3 hPa 0,0 mm 4,4 km/h (1 Bft) O-NO 59 ° 0 min 0,000 mm 0,0 UV-I 0 W/m² 2,0 °C 2,6 °C 4,8 km/h (1 Bft)
31.10.2019 02:09 2,6 °C 96 % 1021,3 hPa 0,0 mm 3,6 km/h (1 Bft) O-NO 59 ° 0 min 0,000 mm 0,0 UV-I 0 W/m² 2,0 °C 2,6 °C 4,8 km/h (1 Bft)
31.10.2019 02:10 2,6 °C 96 % 1021,3 hPa 0,0 mm 3,0 km/h (1 Bft) O-NO 59 ° 0 min 0,000 mm 0,0 UV-I 0 W/m² 2,0 °C 2,6 °C 4,8 km/h (1 Bft)
31.10.2019 02:11 2,6 °C 96 % 1021,3 hPa 0,0 mm 3,5 km/h (1 Bft) O-NO 59 ° 0 min 0,000 mm 0,0 UV-I 0 W/m² 2,0 °C 2,6 °C 4,8 km/h (1 Bft)
31.10.2019 02:12 2,6 °C 96 % 1021,3 hPa 0,0 mm 3,4 km/h (1 Bft) O-NO 59 ° 0 min 0,000 mm 0,0 UV-I 0 W/m² 2,0 °C 2,6 °C 4,8 km/h (1 Bft)
31.10.2019 02:13 2,6 °C 96 % 1021,3 hPa 0,0 mm 2,9 km/h (1 Bft) O-NO 59 ° 0 min 0,000 mm 0,0 UV-I 0 W/m² 2,0 °C 2,6 °C 4,8 km/h (1 Bft)
31.10.2019 02:14 2,6 °C 96 % 1021,3 hPa 0,0 mm 4,4 km/h (1 Bft) O-NO 59 ° 0 min 0,000 mm 0,0 UV-I 0 W/m² 2,0 °C 2,6 °C 6,4 km/h (2 Bft)
31.10.2019 02:15 2,6 °C 96 % 1021,2 hPa 0,0 mm 3,6 km/h (1 Bft) O-NO 59 ° 0 min 0,000 mm 0,0 UV-I 0 W/m² 2,0 °C 2,6 °C 4,8 km/h (1 Bft)
31.10.2019 02:16 2,6 °C 96 % 1021,3 hPa 0,0 mm 3,3 km/h (1 Bft) O-NO 59 ° 0 min 0,000 mm 0,0 UV-I 0 W/m² 2,0 °C 2,6 °C 4,8 km/h (1 Bft)
31.10.2019 02:17 2,6 °C 96 % 1021,2 hPa 0,0 mm 3,1 km/h (1 Bft) O-NO 59 ° 0 min 0,000 mm 0,0 UV-I 0 W/m² 2,0 °C 2,6 °C 4,8 km/h (1 Bft)
31.10.2019 02:18 2,6 °C 96 % 1021,2 hPa 0,0 mm 3,8 km/h (1 Bft) O-NO 59 ° 0 min 0,000 mm 0,0 UV-I 0 W/m² 2,0 °C 2,6 °C 4,8 km/h (1 Bft)
31.10.2019 02:19 2,6 °C 96 % 1021,2 hPa 0,0 mm 3,8 km/h (1 Bft) O-NO 59 ° 0 min 0,000 mm 0,0 UV-I 0 W/m² 2,0 °C 2,6 °C 4,8 km/h (1 Bft)
31.10.2019 02:20 2,5 °C 96 % 1021,2 hPa 0,0 mm 4,8 km/h (1 Bft) O-NO 59 ° 0 min 0,000 mm 0,0 UV-I 0 W/m² 1,9 °C 1,3 °C 6,4 km/h (2 Bft)
31.10.2019 02:21 2,6 °C 96 % 1021,2 hPa 0,0 mm 2,7 km/h (1 Bft) O-NO 59 ° 0 min 0,000 mm 0,0 UV-I 0 W/m² 2,0 °C 2,6 °C 4,8 km/h (1 Bft)
31.10.2019 02:22 2,6 °C 96 % 1021,2 hPa 0,0 mm 2,5 km/h (1 Bft) O-NO 59 ° 0 min 0,000 mm 0,0 UV-I 0 W/m² 2,0 °C 2,6 °C 3,2 km/h (1 Bft)
31.10.2019 02:23 2,5 °C 96 % 1021,2 hPa 0,0 mm 3,2 km/h (1 Bft) O-NO 59 ° 0 min 0,000 mm 0,0 UV-I 0 W/m² 1,9 °C 2,5 °C 4,8 km/h (1 Bft)
31.10.2019 02:24 2,6 °C 96 % 1021,2 hPa 0,0 mm 4,0 km/h (1 Bft) O-NO 59 ° 0 min 0,000 mm 0,0 UV-I 0 W/m² 2,0 °C 2,6 °C 6,4 km/h (2 Bft)
31.10.2019 02:25 2,6 °C 96 % 1021,2 hPa 0,0 mm 3,8 km/h (1 Bft) O-NO 59 ° 0 min 0,000 mm 0,0 UV-I 0 W/m² 2,0 °C 2,6 °C 4,8 km/h (1 Bft)
31.10.2019 02:26 2,5 °C 96 % 1021,2 hPa 0,0 mm 3,8 km/h (1 Bft) O-NO 59 ° 0 min 0,000 mm 0,0 UV-I 0 W/m² 1,9 °C 2,5 °C 4,8 km/h (1 Bft)
31.10.2019 02:27 2,5 °C 96 % 1021,2 hPa 0,0 mm 2,6 km/h (1 Bft) O-NO 59 ° 0 min 0,000 mm 0,0 UV-I 0 W/m² 1,9 °C 2,5 °C 3,2 km/h (1 Bft)
31.10.2019 02:28 2,6 °C 96 % 1021,2 hPa 0,0 mm 3,7 km/h (1 Bft) O-NO 59 ° 0 min 0,000 mm 0,0 UV-I 0 W/m² 2,0 °C 2,6 °C 4,8 km/h (1 Bft)
31.10.2019 02:29 2,6 °C 96 % 1021,2 hPa 0,0 mm 3,4 km/h (1 Bft) O-NO 59 ° 0 min 0,000 mm 0,0 UV-I 0 W/m² 2,0 °C 2,6 °C 4,8 km/h (1 Bft)
31.10.2019 02:30 2,5 °C 96 % 1021,2 hPa 0,0 mm 4,7 km/h (1 Bft) O-NO 59 ° 0 min 0,000 mm 0,0 UV-I 0 W/m² 1,9 °C 1,4 °C 6,4 km/h (2 Bft)
31.10.2019 02:31 2,6 °C 96 % 1021,2 hPa 0,0 mm 3,6 km/h (1 Bft) O-NO 59 ° 0 min 0,000 mm 0,0 UV-I 0 W/m² 2,0 °C 2,6 °C 4,8 km/h (1 Bft)
31.10.2019 02:32 2,5 °C 96 % 1021,2 hPa 0,0 mm 3,0 km/h (1 Bft) O-NO 59 ° 0 min 0,000 mm 0,0 UV-I 0 W/m² 1,9 °C 2,5 °C 3,2 km/h (1 Bft)
31.10.2019 02:33 2,6 °C 96 % 1021,2 hPa 0,0 mm 3,0 km/h (1 Bft) O-NO 59 ° 0 min 0,000 mm 0,0 UV-I 0 W/m² 2,0 °C 2,6 °C 6,4 km/h (2 Bft)
31.10.2019 02:34 2,6 °C 96 % 1021,2 hPa 0,0 mm 2,5 km/h (1 Bft) O-NO 59 ° 0 min 0,000 mm 0,0 UV-I 0 W/m² 2,0 °C 2,6 °C 4,8 km/h (1 Bft)
31.10.2019 02:35 2,6 °C 96 % 1021,2 hPa 0,0 mm 2,8 km/h (1 Bft) O-NO 59 ° 0 min 0,000 mm 0,0 UV-I 0 W/m² 2,0 °C 2,6 °C 3,2 km/h (1 Bft)
31.10.2019 02:36 2,6 °C 96 % 1021,2 hPa 0,0 mm 3,4 km/h (1 Bft) O-NO 59 ° 0 min 0,000 mm 0,0 UV-I 0 W/m² 2,0 °C 2,6 °C 4,8 km/h (1 Bft)
31.10.2019 02:37 2,5 °C 96 % 1021,2 hPa 0,0 mm 3,6 km/h (1 Bft) O-NO 59 ° 0 min 0,000 mm 0,0 UV-I 0 W/m² 1,9 °C 2,5 °C 4,8 km/h (1 Bft)
31.10.2019 02:38 2,6 °C 96 % 1021,1 hPa 0,0 mm 2,7 km/h (1 Bft) O-NO 59 ° 0 min 0,000 mm 0,0 UV-I 0 W/m² 2,0 °C 2,6 °C 4,8 km/h (1 Bft)
31.10.2019 02:39 2,6 °C 96 % 1021,1 hPa 0,0 mm 4,0 km/h (1 Bft) O-NO 59 ° 0 min 0,000 mm 0,0 UV-I 0 W/m² 2,0 °C 2,6 °C 4,8 km/h (1 Bft)
31.10.2019 02:40 2,6 °C 96 % 1021,1 hPa 0,0 mm 4,4 km/h (1 Bft) O-NO 59 ° 0 min 0,000 mm 0,0 UV-I 0 W/m² 2,0 °C 2,6 °C 6,4 km/h (2 Bft)
31.10.2019 02:41 2,6 °C 96 % 1021,1 hPa 0,0 mm 2,9 km/h (1 Bft) O-NO 59 ° 0 min 0,000 mm 0,0 UV-I 0 W/m² 2,0 °C 2,6 °C 4,8 km/h (1 Bft)
31.10.2019 02:42 2,6 °C 96 % 1021,1 hPa 0,0 mm 4,7 km/h (1 Bft) O-NO 59 ° 0 min 0,000 mm 0,0 UV-I 0 W/m² 2,0 °C 1,5 °C 6,4 km/h (2 Bft)
31.10.2019 02:43 2,6 °C 96 % 1021,2 hPa 0,0 mm 2,8 km/h (1 Bft) O-NO 59 ° 0 min 0,000 mm 0,0 UV-I 0 W/m² 2,0 °C 2,6 °C 3,2 km/h (1 Bft)
31.10.2019 02:44 2,6 °C 96 % 1021,2 hPa 0,0 mm 4,2 km/h (1 Bft) O-NO 59 ° 0 min 0,000 mm 0,0 UV-I 0 W/m² 2,0 °C 2,6 °C 4,8 km/h (1 Bft)
31.10.2019 02:45 2,6 °C 96 % 1021,1 hPa 0,0 mm 4,1 km/h (1 Bft) O-NO 58 ° 0 min 0,000 mm 0,0 UV-I 0 W/m² 2,0 °C 2,6 °C 6,4 km/h (2 Bft)
31.10.2019 02:46 2,6 °C 96 % 1021,1 hPa 0,0 mm 3,5 km/h (1 Bft) O-NO 59 ° 0 min 0,000 mm 0,0 UV-I 0 W/m² 2,0 °C 2,6 °C 4,8 km/h (1 Bft)
31.10.2019 02:47 2,6 °C 96 % 1021,1 hPa 0,0 mm 4,4 km/h (1 Bft) O-NO 59 ° 0 min 0,000 mm 0,0 UV-I 0 W/m² 2,0 °C 2,6 °C 6,4 km/h (2 Bft)
31.10.2019 02:48 2,6 °C 96 % 1021,1 hPa 0,0 mm 2,5 km/h (1 Bft) O-NO 59 ° 0 min 0,000 mm 0,0 UV-I 0 W/m² 2,0 °C 2,6 °C 3,2 km/h (1 Bft)
31.10.2019 02:49 2,6 °C 96 % 1021,1 hPa 0,0 mm 1,5 km/h (1 Bft) O-NO 59 ° 0 min 0,000 mm 0,0 UV-I 0 W/m² 2,0 °C 2,6 °C 3,2 km/h (1 Bft)
31.10.2019 02:50 2,6 °C 96 % 1021,1 hPa 0,0 mm 2,4 km/h (1 Bft) O-NO 58 ° 0 min 0,000 mm 0,0 UV-I 0 W/m² 2,0 °C 2,6 °C 3,2 km/h (1 Bft)
31.10.2019 02:51 2,6 °C 96 % 1021,1 hPa 0,0 mm 3,7 km/h (1 Bft) O-NO 58 ° 0 min 0,000 mm 0,0 UV-I 0 W/m² 2,0 °C 2,6 °C 4,8 km/h (1 Bft)
31.10.2019 02:52 2,6 °C 96 % 1021,1 hPa 0,0 mm 1,9 km/h (1 Bft) O-NO 58 ° 0 min 0,000 mm 0,0 UV-I 0 W/m² 2,0 °C 2,6 °C 3,2 km/h (1 Bft)
31.10.2019 02:53 2,6 °C 96 % 1021,1 hPa 0,0 mm 2,7 km/h (1 Bft) O-NO 59 ° 0 min 0,000 mm 0,0 UV-I 0 W/m² 2,0 °C 2,6 °C 4,8 km/h (1 Bft)
31.10.2019 02:54 2,6 °C 96 % 1021,1 hPa 0,0 mm 3,6 km/h (1 Bft) O-NO 59 ° 0 min 0,000 mm 0,0 UV-I 0 W/m² 2,0 °C 2,6 °C 4,8 km/h (1 Bft)
31.10.2019 02:55 2,6 °C 96 % 1021,0 hPa 0,0 mm 2,8 km/h (1 Bft) O-NO 59 ° 0 min 0,000 mm 0,0 UV-I 0 W/m² 2,0 °C 2,6 °C 4,8 km/h (1 Bft)
31.10.2019 02:56 2,6 °C 96 % 1021,0 hPa 0,0 mm 2,5 km/h (1 Bft) O-NO 59 ° 0 min 0,000 mm 0,0 UV-I 0 W/m² 2,0 °C 2,6 °C 4,8 km/h (1 Bft)
31.10.2019 02:57 2,6 °C 96 % 1021,0 hPa 0,0 mm 3,4 km/h (1 Bft) O-NO 59 ° 0 min 0,000 mm 0,0 UV-I 0 W/m² 2,0 °C 2,6 °C 4,8 km/h (1 Bft)
31.10.2019 02:58 2,6 °C 96 % 1021,0 hPa 0,0 mm 4,0 km/h (1 Bft) O-NO 58 ° 0 min 0,000 mm 0,0 UV-I 0 W/m² 2,0 °C 2,6 °C 8,0 km/h (2 Bft)
31.10.2019 02:59 2,6 °C 96 % 1020,9 hPa 0,0 mm 3,0 km/h (1 Bft) O-NO 58 ° 0 min 0,000 mm 0,0 UV-I 0 W/m² 2,0 °C 2,6 °C 4,8 km/h (1 Bft)
31.10.2019 03:00 2,6 °C 96 % 1020,9 hPa 0,0 mm 3,6 km/h (1 Bft) O-NO 58 ° 0 min 0,000 mm 0,0 UV-I 0 W/m² 2,0 °C 2,6 °C 4,8 km/h (1 Bft)
31.10.2019 03:01 2,6 °C 96 % 1020,8 hPa 0,0 mm 3,1 km/h (1 Bft) O-NO 58 ° 0 min 0,000 mm 0,0 UV-I 0 W/m² 2,0 °C 2,6 °C 4,8 km/h (1 Bft)
31.10.2019 03:02 2,6 °C 96 % 1020,8 hPa 0,0 mm 1,8 km/h (1 Bft) O-NO 58 ° 0 min 0,000 mm 0,0 UV-I 0 W/m² 2,0 °C 2,6 °C 3,2 km/h (1 Bft)
31.10.2019 03:03 2,6 °C 96 % 1020,8 hPa 0,0 mm 1,0 km/h (0 Bft) O-NO 58 ° 0 min 0,000 mm 0,0 UV-I 0 W/m² 2,0 °C 2,6 °C 4,8 km/h (1 Bft)
31.10.2019 03:04 2,6 °C 96 % 1020,8 hPa 0,0 mm 2,9 km/h (1 Bft) O-NO 58 ° 0 min 0,000 mm 0,0 UV-I 0 W/m² 2,0 °C 2,6 °C 4,8 km/h (1 Bft)
31.10.2019 03:05 2,6 °C 96 % 1020,8 hPa 0,0 mm 3,5 km/h (1 Bft) O-NO 59 ° 0 min 0,000 mm 0,0 UV-I 0 W/m² 2,0 °C 2,6 °C 6,4 km/h (2 Bft)
31.10.2019 03:06 2,6 °C 96 % 1020,8 hPa 0,0 mm 4,0 km/h (1 Bft) O-NO 59 ° 0 min 0,000 mm 0,0 UV-I 0 W/m² 2,0 °C 2,6 °C 6,4 km/h (2 Bft)
31.10.2019 03:07 2,6 °C 96 % 1020,8 hPa 0,0 mm 2,9 km/h (1 Bft) O-NO 58 ° 0 min 0,000 mm 0,0 UV-I 0 W/m² 2,0 °C 2,6 °C 4,8 km/h (1 Bft)
31.10.2019 03:08 2,6 °C 96 % 1020,7 hPa 0,0 mm 2,6 km/h (1 Bft) O-NO 58 ° 0 min 0,000 mm 0,0 UV-I 0 W/m² 2,0 °C 2,6 °C 4,8 km/h (1 Bft)
31.10.2019 03:09 2,6 °C 96 % 1020,7 hPa 0,0 mm 4,8 km/h (1 Bft) O-NO 58 ° 0 min 0,000 mm 0,0 UV-I 0 W/m² 2,0 °C 1,4 °C 4,8 km/h (1 Bft)
31.10.2019 03:10 2,6 °C 96 % 1020,7 hPa 0,0 mm 2,3 km/h (1 Bft) O-NO 58 ° 0 min 0,000 mm 0,0 UV-I 0 W/m² 2,0 °C 2,6 °C 3,2 km/h (1 Bft)
31.10.2019 03:11 2,6 °C 96 % 1020,7 hPa 0,0 mm 3,5 km/h (1 Bft) O-NO 58 ° 0 min 0,000 mm 0,0 UV-I 0 W/m² 2,0 °C 2,6 °C 4,8 km/h (1 Bft)
31.10.2019 03:12 2,6 °C 96 % 1020,7 hPa 0,0 mm 2,8 km/h (1 Bft) O-NO 59 ° 0 min 0,000 mm 0,0 UV-I 0 W/m² 2,0 °C 2,6 °C 4,8 km/h (1 Bft)
31.10.2019 03:13 2,6 °C 96 % 1020,8 hPa 0,0 mm 3,1 km/h (1 Bft) O-NO 58 ° 0 min 0,000 mm 0,0 UV-I 0 W/m² 2,0 °C 2,6 °C 4,8 km/h (1 Bft)
31.10.2019 03:14 2,6 °C 96 % 1020,8 hPa 0,0 mm 2,4 km/h (1 Bft) O-NO 59 ° 0 min 0,000 mm 0,0 UV-I 0 W/m² 2,0 °C 2,6 °C 3,2 km/h (1 Bft)
31.10.2019 03:15 2,6 °C 96 % 1020,8 hPa 0,0 mm 3,0 km/h (1 Bft) O-NO 58 ° 0 min 0,000 mm 0,0 UV-I 0 W/m² 2,0 °C 2,6 °C 4,8 km/h (1 Bft)
31.10.2019 03:16 2,5 °C 96 % 1020,8 hPa 0,0 mm 1,3 km/h (1 Bft) O-NO 58 ° 0 min 0,000 mm 0,0 UV-I 0 W/m² 1,9 °C 2,5 °C 1,6 km/h (1 Bft)
31.10.2019 03:17 2,5 °C 96 % 1020,9 hPa 0,0 mm 2,7 km/h (1 Bft) O-NO 58 ° 0 min 0,000 mm 0,0 UV-I 0 W/m² 1,9 °C 2,5 °C 4,8 km/h (1 Bft)
31.10.2019 03:18 2,5 °C 96 % 1020,8 hPa 0,0 mm 2,1 km/h (1 Bft) O-NO 58 ° 0 min 0,000 mm 0,0 UV-I 0 W/m² 1,9 °C 2,5 °C 4,8 km/h (1 Bft)
31.10.2019 03:19 2,4 °C 96 % 1020,8 hPa 0,0 mm 3,5 km/h (1 Bft) O-NO 58 ° 0 min 0,000 mm 0,0 UV-I 0 W/m² 1,8 °C 2,4 °C 6,4 km/h (2 Bft)
31.10.2019 03:20 2,5 °C 96 % 1020,9 hPa 0,0 mm 5,0 km/h (1 Bft) O-NO 58 ° 0 min 0,000 mm 0,0 UV-I 0 W/m² 1,9 °C 1,2 °C 6,4 km/h (2 Bft)
31.10.2019 03:21 2,5 °C 96 % 1020,9 hPa 0,0 mm 3,9 km/h (1 Bft) O-NO 58 ° 0 min 0,000 mm 0,0 UV-I 0 W/m² 1,9 °C 2,5 °C 4,8 km/h (1 Bft)
31.10.2019 03:22 2,5 °C 96 % 1020,9 hPa 0,0 mm 3,3 km/h (1 Bft) O-NO 58 ° 0 min 0,000 mm 0,0 UV-I 0 W/m² 1,9 °C 2,5 °C 4,8 km/h (1 Bft)
31.10.2019 03:23 2,5 °C 96 % 1020,8 hPa 0,0 mm 2,3 km/h (1 Bft) O-NO 58 ° 0 min 0,000 mm 0,0 UV-I 0 W/m² 1,9 °C 2,5 °C 3,2 km/h (1 Bft)
31.10.2019 03:24 2,4 °C 96 % 1020,8 hPa 0,0 mm 1,9 km/h (1 Bft) O-NO 58 ° 0 min 0,000 mm 0,0 UV-I 0 W/m² 1,8 °C 2,4 °C 3,2 km/h (1 Bft)
31.10.2019 03:25 2,4 °C 96 % 1020,8 hPa 0,0 mm 3,1 km/h (1 Bft) O-NO 58 ° 0 min 0,000 mm 0,0 UV-I 0 W/m² 1,8 °C 2,4 °C 4,8 km/h (1 Bft)
31.10.2019 03:26 2,4 °C 96 % 1020,8 hPa 0,0 mm 4,2 km/h (1 Bft) O-NO 58 ° 0 min 0,000 mm 0,0 UV-I 0 W/m² 1,8 °C 2,4 °C 4,8 km/h (1 Bft)
31.10.2019 03:27 2,4 °C 96 % 1020,8 hPa 0,0 mm 2,0 km/h (1 Bft) O-NO 58 ° 0 min 0,000 mm 0,0 UV-I 0 W/m² 1,8 °C 2,4 °C 3,2 km/h (1 Bft)
31.10.2019 03:28 2,5 °C 96 % 1020,8 hPa 0,0 mm 2,2 km/h (1 Bft) O-NO 58 ° 0 min 0,000 mm 0,0 UV-I 0 W/m² 1,9 °C 2,5 °C 4,8 km/h (1 Bft)
31.10.2019 03:29 2,4 °C 96 % 1020,8 hPa 0,0 mm 0,0 km/h (0 Bft) O-NO 58 ° 0 min 0,000 mm 0,0 UV-I 0 W/m² 1,8 °C 2,4 °C 0,0 km/h (0 Bft)
31.10.2019 03:30 2,4 °C 96 % 1020,7 hPa 0,0 mm 1,2 km/h (1 Bft) O-NO 58 ° 0 min 0,000 mm 0,0 UV-I 0 W/m² 1,8 °C 2,4 °C 3,2 km/h (1 Bft)
31.10.2019 03:31 2,4 °C 96 % 1020,7 hPa 0,0 mm 2,1 km/h (1 Bft) O-NO 58 ° 0 min 0,000 mm 0,0 UV-I 0 W/m² 1,8 °C 2,4 °C 3,2 km/h (1 Bft)
31.10.2019 03:32 2,4 °C 96 % 1020,7 hPa 0,0 mm 2,7 km/h (1 Bft) O-NO 58 ° 0 min 0,000 mm 0,0 UV-I 0 W/m² 1,8 °C 2,4 °C 4,8 km/h (1 Bft)
31.10.2019 03:33 2,4 °C 96 % 1020,7 hPa 0,0 mm 2,4 km/h (1 Bft) O-NO 59 ° 0 min 0,000 mm 0,0 UV-I 0 W/m² 1,8 °C 2,4 °C 3,2 km/h (1 Bft)
31.10.2019 03:34 2,4 °C 96 % 1020,7 hPa 0,0 mm 1,3 km/h (1 Bft) O-NO 58 ° 0 min 0,000 mm 0,0 UV-I 0 W/m² 1,8 °C 2,4 °C 3,2 km/h (1 Bft)
31.10.2019 03:35 2,4 °C 96 % 1020,7 hPa 0,0 mm 3,7 km/h (1 Bft) O-NO 58 ° 0 min 0,000 mm 0,0 UV-I 0 W/m² 1,8 °C 2,4 °C 6,4 km/h (2 Bft)
31.10.2019 03:36 2,4 °C 96 % 1020,7 hPa 0,0 mm 3,4 km/h (1 Bft) O-NO 58 ° 0 min 0,000 mm 0,0 UV-I 0 W/m² 1,8 °C 2,4 °C 4,8 km/h (1 Bft)
31.10.2019 03:37 2,4 °C 96 % 1020,6 hPa 0,0 mm 2,2 km/h (1 Bft) O-NO 58 ° 0 min 0,000 mm 0,0 UV-I 0 W/m² 1,8 °C 2,4 °C 3,2 km/h (1 Bft)
31.10.2019 03:38 2,4 °C 96 % 1020,6 hPa 0,0 mm 3,0 km/h (1 Bft) O-NO 58 ° 0 min 0,000 mm 0,0 UV-I 0 W/m² 1,8 °C 2,4 °C 4,8 km/h (1 Bft)
31.10.2019 03:39 2,4 °C 96 % 1020,6 hPa 0,0 mm 1,4 km/h (1 Bft) O-NO 58 ° 0 min 0,000 mm 0,0 UV-I 0 W/m² 1,8 °C 2,4 °C 3,2 km/h (1 Bft)
31.10.2019 03:40 2,4 °C 96 % 1020,7 hPa 0,0 mm 0,7 km/h (0 Bft) O-NO 58 ° 0 min 0,000 mm 0,0 UV-I 0 W/m² 1,8 °C 2,4 °C 1,6 km/h (1 Bft)
31.10.2019 03:41 2,4 °C 96 % 1020,7 hPa 0,0 mm 0,1 km/h (0 Bft) O-NO 58 ° 0 min 0,000 mm 0,0 UV-I 0 W/m² 1,8 °C 2,4 °C 1,6 km/h (1 Bft)
31.10.2019 03:42 2,4 °C 96 % 1020,7 hPa 0,0 mm 0,0 km/h (0 Bft) O-NO 58 ° 0 min 0,000 mm 0,0 UV-I 0 W/m² 1,8 °C 2,4 °C 0,0 km/h (0 Bft)
31.10.2019 03:43 2,4 °C 96 % 1020,6 hPa 0,0 mm 0,0 km/h (0 Bft) O-NO 58 ° 0 min 0,000 mm 0,0 UV-I 0 W/m² 1,8 °C 2,4 °C 0,0 km/h (0 Bft)
31.10.2019 03:44 2,4 °C 96 % 1020,6 hPa 0,0 mm 0,0 km/h (0 Bft) O-NO 58 ° 0 min 0,000 mm 0,0 UV-I 0 W/m² 1,8 °C 2,4 °C 0,0 km/h (0 Bft)
31.10.2019 03:45 2,4 °C 96 % 1020,6 hPa 0,0 mm 0,0 km/h (0 Bft) O-NO 58 ° 0 min 0,000 mm 0,0 UV-I 0 W/m² 1,8 °C 2,4 °C 0,0 km/h (0 Bft)
31.10.2019 03:46 2,4 °C 96 % 1020,6 hPa 0,0 mm 0,0 km/h (0 Bft) O-NO 58 ° 0 min 0,000 mm 0,0 UV-I 0 W/m² 1,8 °C 2,4 °C 0,0 km/h (0 Bft)
31.10.2019 03:47 2,4 °C 96 % 1020,6 hPa 0,0 mm 1,3 km/h (1 Bft) O-NO 58 ° 0 min 0,000 mm 0,0 UV-I 0 W/m² 1,8 °C 2,4 °C 3,2 km/h (1 Bft)
31.10.2019 03:48 2,4 °C 96 % 1020,6 hPa 0,0 mm 0,9 km/h (0 Bft) O-NO 58 ° 0 min 0,000 mm 0,0 UV-I 0 W/m² 1,8 °C 2,4 °C 3,2 km/h (1 Bft)
31.10.2019 03:49 2,4 °C 96 % 1020,6 hPa 0,0 mm 1,1 km/h (1 Bft) O-NO 58 ° 0 min 0,000 mm 0,0 UV-I 0 W/m² 1,8 °C 2,4 °C 3,2 km/h (1 Bft)
31.10.2019 03:50 2,4 °C 96 % 1020,6 hPa 0,0 mm 1,2 km/h (1 Bft) O-NO 58 ° 0 min 0,000 mm 0,0 UV-I 0 W/m² 1,8 °C 2,4 °C 3,2 km/h (1 Bft)
31.10.2019 03:51 2,4 °C 96 % 1020,6 hPa 0,2 mm 2,0 km/h (1 Bft) O-NO 58 ° 0 min 0,000 mm 0,0 UV-I 0 W/m² 1,8 °C 2,4 °C 3,2 km/h (1 Bft)
31.10.2019 03:52 2,4 °C 96 % 1020,7 hPa 0,0 mm 2,4 km/h (1 Bft) O-NO 58 ° 0 min 0,000 mm 0,0 UV-I 0 W/m² 1,8 °C 2,4 °C 4,8 km/h (1 Bft)
31.10.2019 03:53 2,4 °C 96 % 1020,7 hPa 0,0 mm 2,7 km/h (1 Bft) O-NO 58 ° 0 min 0,000 mm 0,0 UV-I 0 W/m² 1,8 °C 2,4 °C 4,8 km/h (1 Bft)
31.10.2019 03:54 2,4 °C 96 % 1020,7 hPa 0,0 mm 2,1 km/h (1 Bft) O-NO 58 ° 0 min 0,000 mm 0,0 UV-I 0 W/m² 1,8 °C 2,4 °C 3,2 km/h (1 Bft)
31.10.2019 03:55 2,4 °C 96 % 1020,7 hPa 0,0 mm 1,3 km/h (1 Bft) O-NO 58 ° 0 min 0,000 mm 0,0 UV-I 0 W/m² 1,8 °C 2,4 °C 3,2 km/h (1 Bft)
31.10.2019 03:56 2,4 °C 96 % 1020,7 hPa 0,0 mm 1,8 km/h (1 Bft) O-NO 58 ° 0 min 0,000 mm 0,0 UV-I 0 W/m² 1,8 °C 2,4 °C 3,2 km/h (1 Bft)
31.10.2019 03:57 2,4 °C 96 % 1020,7 hPa 0,0 mm 0,7 km/h (0 Bft) O-NO 58 ° 0 min 0,000 mm 0,0 UV-I 0 W/m² 1,8 °C 2,4 °C 1,6 km/h (1 Bft)
31.10.2019 03:58 2,4 °C 96 % 1020,6 hPa 0,0 mm 0,0 km/h (0 Bft) O-NO 58 ° 0 min 0,000 mm 0,0 UV-I 0 W/m² 1,8 °C 2,4 °C 0,0 km/h (0 Bft)
31.10.2019 03:59 2,4 °C 96 % 1020,7 hPa 0,0 mm 1,2 km/h (1 Bft) O-NO 58 ° 0 min 0,000 mm 0,0 UV-I 0 W/m² 1,8 °C 2,4 °C 3,2 km/h (1 Bft)
31.10.2019 04:00 2,4 °C 96 % 1020,6 hPa 0,0 mm 2,3 km/h (1 Bft) O-NO 58 ° 0 min 0,000 mm 0,0 UV-I 0 W/m² 1,8 °C 2,4 °C 3,2 km/h (1 Bft)
31.10.2019 04:01 2,4 °C 96 % 1020,7 hPa 0,0 mm 1,4 km/h (1 Bft) O-NO 58 ° 0 min 0,000 mm 0,0 UV-I 0 W/m² 1,8 °C 2,4 °C 3,2 km/h (1 Bft)
31.10.2019 04:02 2,4 °C 96 % 1020,6 hPa 0,0 mm 1,7 km/h (1 Bft) O-NO 58 ° 0 min 0,000 mm 0,0 UV-I 0 W/m² 1,8 °C 2,4 °C 3,2 km/h (1 Bft)
31.10.2019 04:03 2,4 °C 96 % 1020,6 hPa 0,0 mm 2,6 km/h (1 Bft) O-NO 58 ° 0 min 0,000 mm 0,0 UV-I 0 W/m² 1,8 °C 2,4 °C 3,2 km/h (1 Bft)
31.10.2019 04:04 2,4 °C 96 % 1020,6 hPa 0,0 mm 4,3 km/h (1 Bft) O-NO 58 ° 0 min 0,000 mm 0,0 UV-I 0 W/m² 1,8 °C 2,4 °C 6,4 km/h (2 Bft)
31.10.2019 04:05 2,4 °C 96 % 1020,7 hPa 0,0 mm 4,9 km/h (1 Bft) O-NO 58 ° 0 min 0,000 mm 0,0 UV-I 0 W/m² 1,8 °C 1,2 °C 6,4 km/h (2 Bft)
31.10.2019 04:06 2,4 °C 96 % 1020,7 hPa 0,0 mm 4,1 km/h (1 Bft) O-NO 58 ° 0 min 0,000 mm 0,0 UV-I 0 W/m² 1,8 °C 2,4 °C 6,4 km/h (2 Bft)
31.10.2019 04:07 2,4 °C 96 % 1020,7 hPa 0,0 mm 3,7 km/h (1 Bft) O-NO 58 ° 0 min 0,000 mm 0,0 UV-I 0 W/m² 1,8 °C 2,4 °C 4,8 km/h (1 Bft)
31.10.2019 04:08 2,4 °C 96 % 1020,7 hPa 0,0 mm 3,7 km/h (1 Bft) O-NO 58 ° 0 min 0,000 mm 0,0 UV-I 0 W/m² 1,8 °C 2,4 °C 6,4 km/h (2 Bft)
31.10.2019 04:09 2,4 °C 96 % 1020,8 hPa 0,0 mm 2,1 km/h (1 Bft) O-NO 58 ° 0 min 0,000 mm 0,0 UV-I 0 W/m² 1,8 °C 2,4 °C 3,2 km/h (1 Bft)
31.10.2019 04:10 2,4 °C 96 % 1020,8 hPa 0,0 mm 0,9 km/h (0 Bft) O-NO 58 ° 0 min 0,000 mm 0,0 UV-I 0 W/m² 1,8 °C 2,4 °C 3,2 km/h (1 Bft)
31.10.2019 04:11 2,4 °C 96 % 1020,8 hPa 0,0 mm 1,8 km/h (1 Bft) O-NO 58 ° 0 min 0,000 mm 0,0 UV-I 0 W/m² 1,8 °C 2,4 °C 3,2 km/h (1 Bft)
31.10.2019 04:12 2,4 °C 96 % 1020,8 hPa 0,0 mm 3,5 km/h (1 Bft) O-NO 58 ° 0 min 0,000 mm 0,0 UV-I 0 W/m² 1,8 °C 2,4 °C 6,4 km/h (2 Bft)
31.10.2019 04:13 2,4 °C 96 % 1020,7 hPa 0,0 mm 3,8 km/h (1 Bft) O-NO 58 ° 0 min 0,000 mm 0,0 UV-I 0 W/m² 1,8 °C 2,4 °C 6,4 km/h (2 Bft)
31.10.2019 04:14 2,4 °C 96 % 1020,8 hPa 0,0 mm 4,5 km/h (1 Bft) O-NO 58 ° 0 min 0,000 mm 0,0 UV-I 0 W/m² 1,8 °C 2,4 °C 6,4 km/h (2 Bft)
31.10.2019 04:15 2,4 °C 96 % 1020,8 hPa 0,0 mm 4,0 km/h (1 Bft) O-NO 58 ° 0 min 0,000 mm 0,0 UV-I 0 W/m² 1,8 °C 2,4 °C 6,4 km/h (2 Bft)
31.10.2019 04:16 2,4 °C 96 % 1020,8 hPa 0,0 mm 1,8 km/h (1 Bft) O-NO 58 ° 0 min 0,000 mm 0,0 UV-I 0 W/m² 1,8 °C 2,4 °C 6,4 km/h (2 Bft)
31.10.2019 04:17 2,4 °C 96 % 1020,8 hPa 0,0 mm 0,8 km/h (0 Bft) O-NO 58 ° 0 min 0,000 mm 0,0 UV-I 0 W/m² 1,8 °C 2,4 °C 1,6 km/h (1 Bft)
31.10.2019 04:18 2,4 °C 96 % 1020,8 hPa 0,0 mm 0,1 km/h (0 Bft) O-NO 58 ° 0 min 0,000 mm 0,0 UV-I 0 W/m² 1,8 °C 2,4 °C 1,6 km/h (1 Bft)
31.10.2019 04:19 2,4 °C 96 % 1020,8 hPa 0,0 mm 1,6 km/h (1 Bft) O-NO 58 ° 0 min 0,000 mm 0,0 UV-I 0 W/m² 1,8 °C 2,4 °C 4,8 km/h (1 Bft)
31.10.2019 04:20 2,4 °C 96 % 1020,8 hPa 0,0 mm 3,8 km/h (1 Bft) O-NO 58 ° 0 min 0,000 mm 0,0 UV-I 0 W/m² 1,8 °C 2,4 °C 4,8 km/h (1 Bft)
31.10.2019 04:21 2,4 °C 96 % 1020,8 hPa 0,0 mm 4,6 km/h (1 Bft) O-NO 58 ° 0 min 0,000 mm 0,0 UV-I 0 W/m² 1,8 °C 1,3 °C 6,4 km/h (2 Bft)
31.10.2019 04:22 2,4 °C 96 % 1020,8 hPa 0,0 mm 3,0 km/h (1 Bft) O-NO 58 ° 0 min 0,000 mm 0,0 UV-I 0 W/m² 1,8 °C 2,4 °C 4,8 km/h (1 Bft)
31.10.2019 04:23 2,4 °C 96 % 1020,8 hPa 0,0 mm 3,4 km/h (1 Bft) O-NO 59 ° 0 min 0,000 mm 0,0 UV-I 0 W/m² 1,8 °C 2,4 °C 4,8 km/h (1 Bft)
31.10.2019 04:24 2,4 °C 96 % 1020,8 hPa 0,0 mm 2,7 km/h (1 Bft) O-NO 59 ° 0 min 0,000 mm 0,0 UV-I 0 W/m² 1,8 °C 2,4 °C 6,4 km/h (2 Bft)
31.10.2019 04:25 2,4 °C 96 % 1020,8 hPa 0,0 mm 1,7 km/h (1 Bft) O-NO 59 ° 0 min 0,000 mm 0,0 UV-I 0 W/m² 1,8 °C 2,4 °C 3,2 km/h (1 Bft)
31.10.2019 04:26 2,4 °C 96 % 1020,8 hPa 0,0 mm 2,8 km/h (1 Bft) O-NO 59 ° 0 min 0,000 mm 0,0 UV-I 0 W/m² 1,8 °C 2,4 °C 4,8 km/h (1 Bft)
31.10.2019 04:27 2,4 °C 96 % 1020,8 hPa 0,0 mm 3,5 km/h (1 Bft) O-NO 58 ° 0 min 0,000 mm 0,0 UV-I 0 W/m² 1,8 °C 2,4 °C 4,8 km/h (1 Bft)
31.10.2019 04:28 2,4 °C 96 % 1020,8 hPa 0,0 mm 0,7 km/h (0 Bft) O-NO 59 ° 0 min 0,000 mm 0,0 UV-I 0 W/m² 1,8 °C 2,4 °C 3,2 km/h (1 Bft)
31.10.2019 04:29 2,4 °C 96 % 1020,9 hPa 0,0 mm 0,0 km/h (0 Bft) O-NO 59 ° 0 min 0,000 mm 0,0 UV-I 0 W/m² 1,8 °C 2,4 °C 0,0 km/h (0 Bft)
31.10.2019 04:30 2,4 °C 96 % 1020,8 hPa 0,0 mm 0,0 km/h (0 Bft) O-NO 59 ° 0 min 0,000 mm 0,0 UV-I 0 W/m² 1,8 °C 2,4 °C 0,0 km/h (0 Bft)
31.10.2019 04:31 2,4 °C 96 % 1020,8 hPa 0,0 mm 0,8 km/h (0 Bft) O-NO 59 ° 0 min 0,000 mm 0,0 UV-I 0 W/m² 1,8 °C 2,4 °C 3,2 km/h (1 Bft)
31.10.2019 04:32 2,4 °C 96 % 1020,8 hPa 0,0 mm 2,3 km/h (1 Bft) O-NO 59 ° 0 min 0,000 mm 0,0 UV-I 0 W/m² 1,8 °C 2,4 °C 3,2 km/h (1 Bft)
31.10.2019 04:33 2,4 °C 96 % 1020,8 hPa 0,0 mm 1,5 km/h (1 Bft) O-NO 59 ° 0 min 0,000 mm 0,0 UV-I 0 W/m² 1,8 °C 2,4 °C 3,2 km/h (1 Bft)
31.10.2019 04:34 2,4 °C 96 % 1020,8 hPa 0,0 mm 0,9 km/h (0 Bft) O-NO 59 ° 0 min 0,000 mm 0,0 UV-I 0 W/m² 1,8 °C 2,4 °C 1,6 km/h (1 Bft)
31.10.2019 04:35 2,4 °C 96 % 1020,8 hPa 0,0 mm 0,3 km/h (0 Bft) O-NO 59 ° 0 min 0,000 mm 0,0 UV-I 0 W/m² 1,8 °C 2,4 °C 1,6 km/h (1 Bft)
31.10.2019 04:36 2,4 °C 96 % 1020,8 hPa 0,0 mm 0,0 km/h (0 Bft) O-NO 59 ° 0 min 0,000 mm 0,0 UV-I 0 W/m² 1,8 °C 2,4 °C 0,0 km/h (0 Bft)
31.10.2019 04:37 2,4 °C 96 % 1020,8 hPa 0,0 mm 0,0 km/h (0 Bft) O-NO 59 ° 0 min 0,000 mm 0,0 UV-I 0 W/m² 1,8 °C 2,4 °C 0,0 km/h (0 Bft)
31.10.2019 04:38 2,4 °C 96 % 1020,8 hPa 0,0 mm 0,9 km/h (0 Bft) O-NO 59 ° 0 min 0,000 mm 0,0 UV-I 0 W/m² 1,8 °C 2,4 °C 3,2 km/h (1 Bft)
31.10.2019 04:39 2,4 °C 96 % 1020,8 hPa 0,0 mm 1,6 km/h (1 Bft) O-NO 59 ° 0 min 0,000 mm 0,0 UV-I 0 W/m² 1,8 °C 2,4 °C 3,2 km/h (1 Bft)
31.10.2019 04:40 2,4 °C 96 % 1020,8 hPa 0,0 mm 3,2 km/h (1 Bft) O-NO 59 ° 0 min 0,000 mm 0,0 UV-I 0 W/m² 1,8 °C 2,4 °C 4,8 km/h (1 Bft)
31.10.2019 04:41 2,3 °C 96 % 1020,8 hPa 0,0 mm 2,0 km/h (1 Bft) O-NO 59 ° 0 min 0,000 mm 0,0 UV-I 0 W/m² 1,7 °C 2,3 °C 3,2 km/h (1 Bft)
31.10.2019 04:42 2,3 °C 96 % 1020,8 hPa 0,0 mm 0,5 km/h (0 Bft) O-NO 59 ° 0 min 0,000 mm 0,0 UV-I 0 W/m² 1,7 °C 2,3 °C 1,6 km/h (1 Bft)
31.10.2019 04:43 2,3 °C 96 % 1020,8 hPa 0,0 mm 0,0 km/h (0 Bft) O-NO 59 ° 0 min 0,000 mm 0,0 UV-I 0 W/m² 1,7 °C 2,3 °C 0,0 km/h (0 Bft)
31.10.2019 04:44 2,3 °C 96 % 1020,8 hPa 0,0 mm 0,6 km/h (0 Bft) O-NO 59 ° 0 min 0,000 mm 0,0 UV-I 0 W/m² 1,7 °C 2,3 °C 1,6 km/h (1 Bft)
31.10.2019 04:45 2,4 °C 96 % 1020,8 hPa 0,0 mm 1,5 km/h (1 Bft) O-NO 59 ° 0 min 0,000 mm 0,0 UV-I 0 W/m² 1,8 °C 2,4 °C 3,2 km/h (1 Bft)
31.10.2019 04:46 2,3 °C 96 % 1020,8 hPa 0,0 mm 1,9 km/h (1 Bft) O-NO 59 ° 0 min 0,000 mm 0,0 UV-I 0 W/m² 1,7 °C 2,3 °C 3,2 km/h (1 Bft)
31.10.2019 04:47 2,3 °C 96 % 1020,9 hPa 0,0 mm 1,9 km/h (1 Bft) O-NO 59 ° 0 min 0,000 mm 0,0 UV-I 0 W/m² 1,7 °C 2,3 °C 3,2 km/h (1 Bft)
31.10.2019 04:48 2,3 °C 96 % 1020,9 hPa 0,0 mm 1,9 km/h (1 Bft) O-NO 59 ° 0 min 0,000 mm 0,0 UV-I 0 W/m² 1,7 °C 2,3 °C 4,8 km/h (1 Bft)
31.10.2019 04:49 2,3 °C 96 % 1020,8 hPa 0,0 mm 2,3 km/h (1 Bft) O-NO 59 ° 0 min 0,000 mm 0,0 UV-I 0 W/m² 1,7 °C 2,3 °C 4,8 km/h (1 Bft)
31.10.2019 04:50 2,3 °C 96 % 1020,8 hPa 0,0 mm 3,0 km/h (1 Bft) O-NO 59 ° 0 min 0,000 mm 0,0 UV-I 0 W/m² 1,7 °C 2,3 °C 4,8 km/h (1 Bft)
31.10.2019 04:51 2,3 °C 96 % 1020,8 hPa 0,0 mm 2,3 km/h (1 Bft) O-NO 59 ° 0 min 0,000 mm 0,0 UV-I 0 W/m² 1,7 °C 2,3 °C 4,8 km/h (1 Bft)
31.10.2019 04:52 2,3 °C 96 % 1020,8 hPa 0,0 mm 0,1 km/h (0 Bft) O-NO 59 ° 0 min 0,000 mm 0,0 UV-I 0 W/m² 1,7 °C 2,3 °C 1,6 km/h (1 Bft)
31.10.2019 04:53 2,3 °C 96 % 1020,8 hPa 0,0 mm 0,5 km/h (0 Bft) O-NO 58 ° 0 min 0,000 mm 0,0 UV-I 0 W/m² 1,7 °C 2,3 °C 1,6 km/h (1 Bft)
31.10.2019 04:54 2,3 °C 96 % 1020,8 hPa 0,0 mm 0,0 km/h (0 Bft) O-NO 59 ° 0 min 0,000 mm 0,0 UV-I 0 W/m² 1,7 °C 2,3 °C 0,0 km/h (0 Bft)
31.10.2019 04:55 2,3 °C 96 % 1020,8 hPa 0,0 mm 1,7 km/h (1 Bft) O-NO 59 ° 0 min 0,000 mm 0,0 UV-I 0 W/m² 1,7 °C 2,3 °C 3,2 km/h (1 Bft)
31.10.2019 04:56 2,3 °C 96 % 1020,8 hPa 0,0 mm 1,1 km/h (1 Bft) O-NO 59 ° 0 min 0,000 mm 0,0 UV-I 0 W/m² 1,7 °C 2,3 °C 3,2 km/h (1 Bft)
31.10.2019 04:57 2,3 °C 96 % 1020,8 hPa 0,0 mm 1,7 km/h (1 Bft) O-NO 59 ° 0 min 0,000 mm 0,0 UV-I 0 W/m² 1,7 °C 2,3 °C 3,2 km/h (1 Bft)
31.10.2019 04:58 2,3 °C 96 % 1020,8 hPa 0,0 mm 3,2 km/h (1 Bft) O-NO 59 ° 0 min 0,000 mm 0,0 UV-I 0 W/m² 1,7 °C 2,3 °C 4,8 km/h (1 Bft)
31.10.2019 04:59 2,3 °C 96 % 1020,8 hPa 0,0 mm 2,7 km/h (1 Bft) O-NO 59 ° 0 min 0,000 mm 0,0 UV-I 0 W/m² 1,7 °C 2,3 °C 4,8 km/h (1 Bft)
31.10.2019 05:00 2,3 °C 96 % 1020,8 hPa 0,0 mm 3,1 km/h (1 Bft) O-NO 59 ° 0 min 0,000 mm 0,0 UV-I 0 W/m² 1,7 °C 2,3 °C 4,8 km/h (1 Bft)
31.10.2019 05:01 2,3 °C 96 % 1020,8 hPa 0,0 mm 2,7 km/h (1 Bft) O-NO 59 ° 0 min 0,000 mm 0,0 UV-I 0 W/m² 1,7 °C 2,3 °C 3,2 km/h (1 Bft)
31.10.2019 05:02 2,3 °C 96 % 1020,7 hPa 0,0 mm 3,2 km/h (1 Bft) O-NO 59 ° 0 min 0,000 mm 0,0 UV-I 0 W/m² 1,7 °C 2,3 °C 4,8 km/h (1 Bft)
31.10.2019 05:03 2,3 °C 96 % 1020,7 hPa 0,0 mm 1,7 km/h (1 Bft) O-NO 58 ° 0 min 0,000 mm 0,0 UV-I 0 W/m² 1,7 °C 2,3 °C 4,8 km/h (1 Bft)
31.10.2019 05:04 2,3 °C 96 % 1020,7 hPa 0,0 mm 1,0 km/h (0 Bft) O-NO 59 ° 0 min 0,000 mm 0,0 UV-I 0 W/m² 1,7 °C 2,3 °C 3,2 km/h (1 Bft)
31.10.2019 05:05 2,3 °C 96 % 1020,7 hPa 0,0 mm 0,0 km/h (0 Bft) O-NO 59 ° 0 min 0,000 mm 0,0 UV-I 0 W/m² 1,7 °C 2,3 °C 0,0 km/h (0 Bft)
31.10.2019 05:06 2,3 °C 96 % 1020,7 hPa 0,0 mm 0,0 km/h (0 Bft) O-NO 59 ° 0 min 0,000 mm 0,0 UV-I 0 W/m² 1,7 °C 2,3 °C 0,0 km/h (0 Bft)
31.10.2019 05:07 2,3 °C 96 % 1020,7 hPa 0,0 mm 0,0 km/h (0 Bft) O-NO 59 ° 0 min 0,000 mm 0,0 UV-I 0 W/m² 1,7 °C 2,3 °C 0,0 km/h (0 Bft)
31.10.2019 05:08 2,3 °C 96 % 1020,7 hPa 0,0 mm 0,0 km/h (0 Bft) O-NO 59 ° 0 min 0,000 mm 0,0 UV-I 0 W/m² 1,7 °C 2,3 °C 0,0 km/h (0 Bft)
31.10.2019 05:09 2,3 °C 96 % 1020,7 hPa 0,0 mm 0,0 km/h (0 Bft) O-NO 59 ° 0 min 0,000 mm 0,0 UV-I 0 W/m² 1,7 °C 2,3 °C 0,0 km/h (0 Bft)
31.10.2019 05:10 2,3 °C 96 % 1020,7 hPa 0,0 mm 0,0 km/h (0 Bft) O-NO 59 ° 0 min 0,000 mm 0,0 UV-I 0 W/m² 1,7 °C 2,3 °C 0,0 km/h (0 Bft)
31.10.2019 05:11 2,3 °C 96 % 1020,7 hPa 0,0 mm 0,0 km/h (0 Bft) O-NO 58 ° 0 min 0,000 mm 0,0 UV-I 0 W/m² 1,7 °C 2,3 °C 0,0 km/h (0 Bft)
31.10.2019 05:12 2,3 °C 96 % 1020,7 hPa 0,0 mm 0,0 km/h (0 Bft) O-NO 59 ° 0 min 0,000 mm 0,0 UV-I 0 W/m² 1,7 °C 2,3 °C 0,0 km/h (0 Bft)
31.10.2019 05:13 2,3 °C 96 % 1020,7 hPa 0,0 mm 0,0 km/h (0 Bft) O-NO 59 ° 0 min 0,000 mm 0,0 UV-I 0 W/m² 1,7 °C 2,3 °C 0,0 km/h (0 Bft)
31.10.2019 05:14 2,3 °C 96 % 1020,7 hPa 0,0 mm 0,0 km/h (0 Bft) O-NO 59 ° 0 min 0,000 mm 0,0 UV-I 0 W/m² 1,7 °C 2,3 °C 0,0 km/h (0 Bft)
31.10.2019 05:15 2,3 °C 96 % 1020,7 hPa 0,0 mm 0,0 km/h (0 Bft) O-NO 59 ° 0 min 0,000 mm 0,0 UV-I 0 W/m² 1,7 °C 2,3 °C 0,0 km/h (0 Bft)
31.10.2019 05:16 2,3 °C 96 % 1020,7 hPa 0,0 mm 0,0 km/h (0 Bft) O-NO 59 ° 0 min 0,000 mm 0,0 UV-I 0 W/m² 1,7 °C 2,3 °C 0,0 km/h (0 Bft)
31.10.2019 05:17 2,3 °C 96 % 1020,7 hPa 0,0 mm 0,0 km/h (0 Bft) O-NO 59 ° 0 min 0,000 mm 0,0 UV-I 0 W/m² 1,7 °C 2,3 °C 0,0 km/h (0 Bft)
31.10.2019 05:18 2,3 °C 96 % 1020,7 hPa 0,0 mm 0,0 km/h (0 Bft) O-NO 59 ° 0 min 0,000 mm 0,0 UV-I 0 W/m² 1,7 °C 2,3 °C 0,0 km/h (0 Bft)
31.10.2019 05:19 2,3 °C 96 % 1020,7 hPa 0,0 mm 0,0 km/h (0 Bft) O-NO 59 ° 0 min 0,000 mm 0,0 UV-I 0 W/m² 1,7 °C 2,3 °C 0,0 km/h (0 Bft)
31.10.2019 05:20 2,3 °C 96 % 1020,7 hPa 0,0 mm 0,0 km/h (0 Bft) O-NO 59 ° 0 min 0,000 mm 0,0 UV-I 0 W/m² 1,7 °C 2,3 °C 0,0 km/h (0 Bft)
31.10.2019 05:21 2,3 °C 96 % 1020,7 hPa 0,0 mm 0,0 km/h (0 Bft) O-NO 59 ° 0 min 0,000 mm 0,0 UV-I 0 W/m² 1,7 °C 2,3 °C 0,0 km/h (0 Bft)
31.10.2019 05:22 2,3 °C 96 % 1020,7 hPa 0,0 mm 0,0 km/h (0 Bft) O-NO 59 ° 0 min 0,000 mm 0,0 UV-I 0 W/m² 1,7 °C 2,3 °C 0,0 km/h (0 Bft)
31.10.2019 05:23 2,3 °C 96 % 1020,6 hPa 0,0 mm 0,0 km/h (0 Bft) O-NO 59 ° 0 min 0,000 mm 0,0 UV-I 0 W/m² 1,7 °C 2,3 °C 0,0 km/h (0 Bft)
31.10.2019 05:24 2,3 °C 96 % 1020,6 hPa 0,0 mm 2,0 km/h (1 Bft) O-NO 59 ° 0 min 0,000 mm 0,0 UV-I 0 W/m² 1,7 °C 2,3 °C 4,8 km/h (1 Bft)
31.10.2019 05:25 2,3 °C 96 % 1020,7 hPa 0,0 mm 1,7 km/h (1 Bft) O-NO 59 ° 0 min 0,000 mm 0,0 UV-I 0 W/m² 1,7 °C 2,3 °C 3,2 km/h (1 Bft)
31.10.2019 05:26 2,3 °C 96 % 1020,7 hPa 0,0 mm 0,0 km/h (0 Bft) O-NO 59 ° 0 min 0,000 mm 0,0 UV-I 0 W/m² 1,7 °C 2,3 °C 0,0 km/h (0 Bft)
31.10.2019 05:27 2,3 °C 96 % 1020,6 hPa 0,0 mm 0,7 km/h (0 Bft) O-NO 59 ° 0 min 0,000 mm 0,0 UV-I 0 W/m² 1,7 °C 2,3 °C 3,2 km/h (1 Bft)
31.10.2019 05:28 2,3 °C 96 % 1020,7 hPa 0,0 mm 2,6 km/h (1 Bft) O-NO 59 ° 0 min 0,000 mm 0,0 UV-I 0 W/m² 1,7 °C 2,3 °C 4,8 km/h (1 Bft)
31.10.2019 05:29 2,3 °C 96 % 1020,6 hPa 0,0 mm 2,1 km/h (1 Bft) O-NO 58 ° 0 min 0,000 mm 0,0 UV-I 0 W/m² 1,7 °C 2,3 °C 3,2 km/h (1 Bft)
31.10.2019 05:30 2,3 °C 96 % 1020,6 hPa 0,0 mm 1,7 km/h (1 Bft) O-NO 59 ° 0 min 0,000 mm 0,0 UV-I 0 W/m² 1,7 °C 2,3 °C 3,2 km/h (1 Bft)
31.10.2019 05:31 2,3 °C 96 % 1020,6 hPa 0,0 mm 3,0 km/h (1 Bft) O-NO 59 ° 0 min 0,000 mm 0,0 UV-I 0 W/m² 1,7 °C 2,3 °C 3,2 km/h (1 Bft)
31.10.2019 05:32 2,2 °C 96 % 1020,6 hPa 0,0 mm 2,6 km/h (1 Bft) O-NO 59 ° 0 min 0,000 mm 0,0 UV-I 0 W/m² 1,6 °C 2,2 °C 3,2 km/h (1 Bft)
31.10.2019 05:33 2,2 °C 96 % 1020,6 hPa 0,0 mm 1,2 km/h (1 Bft) O-NO 59 ° 0 min 0,000 mm 0,0 UV-I 0 W/m² 1,6 °C 2,2 °C 3,2 km/h (1 Bft)
31.10.2019 05:34 2,2 °C 96 % 1020,5 hPa 0,0 mm 0,0 km/h (0 Bft) O-NO 58 ° 0 min 0,000 mm 0,0 UV-I 0 W/m² 1,6 °C 2,2 °C 0,0 km/h (0 Bft)
31.10.2019 05:35 2,2 °C 96 % 1020,5 hPa 0,0 mm 2,3 km/h (1 Bft) O-NO 59 ° 0 min 0,000 mm 0,0 UV-I 0 W/m² 1,6 °C 2,2 °C 3,2 km/h (1 Bft)
31.10.2019 05:36 2,3 °C 96 % 1020,5 hPa 0,0 mm 2,0 km/h (1 Bft) O-NO 58 ° 0 min 0,000 mm 0,0 UV-I 0 W/m² 1,7 °C 2,3 °C 3,2 km/h (1 Bft)
31.10.2019 05:37 2,2 °C 96 % 1020,5 hPa 0,0 mm 2,9 km/h (1 Bft) O-NO 59 ° 0 min 0,000 mm 0,0 UV-I 0 W/m² 1,6 °C 2,2 °C 4,8 km/h (1 Bft)
31.10.2019 05:38 2,3 °C 96 % 1020,6 hPa 0,0 mm 2,1 km/h (1 Bft) O-NO 59 ° 0 min 0,000 mm 0,0 UV-I 0 W/m² 1,7 °C 2,3 °C 4,8 km/h (1 Bft)
31.10.2019 05:39 2,2 °C 96 % 1020,6 hPa 0,0 mm 1,6 km/h (1 Bft) O-NO 59 ° 0 min 0,000 mm 0,0 UV-I 0 W/m² 1,6 °C 2,2 °C 3,2 km/h (1 Bft)
31.10.2019 05:40 2,2 °C 96 % 1020,5 hPa 0,0 mm 0,2 km/h (0 Bft) O-NO 59 ° 0 min 0,000 mm 0,0 UV-I 0 W/m² 1,6 °C 2,2 °C 1,6 km/h (1 Bft)
31.10.2019 05:41 2,2 °C 96 % 1020,5 hPa 0,0 mm 0,0 km/h (0 Bft) O-NO 58 ° 0 min 0,000 mm 0,0 UV-I 0 W/m² 1,6 °C 2,2 °C 0,0 km/h (0 Bft)
31.10.2019 05:42 2,2 °C 96 % 1020,5 hPa 0,0 mm 0,0 km/h (0 Bft) O-NO 59 ° 0 min 0,000 mm 0,0 UV-I 0 W/m² 1,6 °C 2,2 °C 0,0 km/h (0 Bft)
31.10.2019 05:43 2,3 °C 96 % 1020,5 hPa 0,0 mm 0,0 km/h (0 Bft) O-NO 59 ° 0 min 0,000 mm 0,0 UV-I 0 W/m² 1,7 °C 2,3 °C 0,0 km/h (0 Bft)
31.10.2019 05:44 2,2 °C 96 % 1020,5 hPa 0,0 mm 2,5 km/h (1 Bft) O-NO 59 ° 0 min 0,000 mm 0,0 UV-I 0 W/m² 1,6 °C 2,2 °C 3,2 km/h (1 Bft)
31.10.2019 05:45 2,2 °C 96 % 1020,5 hPa 0,0 mm 2,3 km/h (1 Bft) O-NO 59 ° 0 min 0,000 mm 0,0 UV-I 0 W/m² 1,6 °C 2,2 °C 3,2 km/h (1 Bft)
31.10.2019 05:46 2,2 °C 96 % 1020,5 hPa 0,0 mm 2,3 km/h (1 Bft) O-NO 59 ° 0 min 0,000 mm 0,0 UV-I 0 W/m² 1,6 °C 2,2 °C 3,2 km/h (1 Bft)
31.10.2019 05:47 2,2 °C 96 % 1020,5 hPa 0,0 mm 1,7 km/h (1 Bft) O-NO 59 ° 0 min 0,000 mm 0,0 UV-I 0 W/m² 1,6 °C 2,2 °C 3,2 km/h (1 Bft)
31.10.2019 05:48 2,2 °C 96 % 1020,5 hPa 0,0 mm 2,4 km/h (1 Bft) O-NO 59 ° 0 min 0,000 mm 0,0 UV-I 0 W/m² 1,6 °C 2,2 °C 3,2 km/h (1 Bft)
31.10.2019 05:49 2,2 °C 96 % 1020,5 hPa 0,0 mm 1,7 km/h (1 Bft) O-NO 59 ° 0 min 0,000 mm 0,0 UV-I 0 W/m² 1,6 °C 2,2 °C 3,2 km/h (1 Bft)
31.10.2019 05:50 2,2 °C 96 % 1020,5 hPa 0,0 mm 2,1 km/h (1 Bft) O-NO 59 ° 0 min 0,000 mm 0,0 UV-I 0 W/m² 1,6 °C 2,2 °C 3,2 km/h (1 Bft)
31.10.2019 05:51 2,2 °C 96 % 1020,4 hPa 0,0 mm 2,2 km/h (1 Bft) O-NO 59 ° 0 min 0,000 mm 0,0 UV-I 0 W/m² 1,6 °C 2,2 °C 3,2 km/h (1 Bft)
31.10.2019 05:52 2,3 °C 96 % 1020,5 hPa 0,0 mm 1,1 km/h (1 Bft) O-NO 59 ° 0 min 0,000 mm 0,0 UV-I 0 W/m² 1,7 °C 2,3 °C 1,6 km/h (1 Bft)
31.10.2019 05:53 2,2 °C 96 % 1020,5 hPa 0,0 mm 2,3 km/h (1 Bft) O-NO 59 ° 0 min 0,000 mm 0,0 UV-I 0 W/m² 1,6 °C 2,2 °C 3,2 km/h (1 Bft)
31.10.2019 05:54 2,3 °C 96 % 1020,4 hPa 0,0 mm 0,9 km/h (0 Bft) O-NO 59 ° 0 min 0,000 mm 0,0 UV-I 0 W/m² 1,7 °C 2,3 °C 3,2 km/h (1 Bft)
31.10.2019 05:55 2,3 °C 96 % 1020,4 hPa 0,0 mm 3,2 km/h (1 Bft) O-NO 59 ° 0 min 0,000 mm 0,0 UV-I 0 W/m² 1,7 °C 2,3 °C 4,8 km/h (1 Bft)
31.10.2019 05:56 2,3 °C 96 % 1020,5 hPa 0,0 mm 2,2 km/h (1 Bft) O-NO 59 ° 0 min 0,000 mm 0,0 UV-I 0 W/m² 1,7 °C 2,3 °C 4,8 km/h (1 Bft)
31.10.2019 05:57 2,3 °C 96 % 1020,5 hPa 0,0 mm 2,6 km/h (1 Bft) O-NO 59 ° 0 min 0,000 mm 0,0 UV-I 0 W/m² 1,7 °C 2,3 °C 4,8 km/h (1 Bft)
31.10.2019 05:58 2,3 °C 96 % 1020,5 hPa 0,0 mm 2,9 km/h (1 Bft) O-NO 59 ° 0 min 0,000 mm 0,0 UV-I 0 W/m² 1,7 °C 2,3 °C 3,2 km/h (1 Bft)
31.10.2019 05:59 2,2 °C 96 % 1020,6 hPa 0,0 mm 1,5 km/h (1 Bft) O-NO 58 ° 0 min 0,000 mm 0,0 UV-I 0 W/m² 1,6 °C 2,2 °C 1,6 km/h (1 Bft)
31.10.2019 06:00 2,3 °C 96 % 1020,6 hPa 0,0 mm 1,3 km/h (1 Bft) O-NO 59 ° 0 min 0,000 mm 0,0 UV-I 0 W/m² 1,7 °C 2,3 °C 3,2 km/h (1 Bft)
31.10.2019 06:01 2,3 °C 96 % 1020,6 hPa 0,0 mm 1,3 km/h (1 Bft) O-NO 59 ° 0 min 0,000 mm 0,0 UV-I 0 W/m² 1,7 °C 2,3 °C 3,2 km/h (1 Bft)
31.10.2019 06:02 2,3 °C 96 % 1020,6 hPa 0,0 mm 1,1 km/h (1 Bft) O-NO 59 ° 0 min 0,000 mm 0,0 UV-I 0 W/m² 1,7 °C 2,3 °C 3,2 km/h (1 Bft)
31.10.2019 06:03 2,3 °C 96 % 1020,6 hPa 0,0 mm 1,9 km/h (1 Bft) O-NO 59 ° 0 min 0,000 mm 0,0 UV-I 0 W/m² 1,7 °C 2,3 °C 3,2 km/h (1 Bft)
31.10.2019 06:04 2,3 °C 96 % 1020,6 hPa 0,0 mm 1,9 km/h (1 Bft) O-NO 58 ° 0 min 0,000 mm 0,0 UV-I 0 W/m² 1,7 °C 2,3 °C 3,2 km/h (1 Bft)
31.10.2019 06:05 2,2 °C 96 % 1020,5 hPa 0,0 mm 1,9 km/h (1 Bft) O-NO 59 ° 0 min 0,000 mm 0,0 UV-I 0 W/m² 1,6 °C 2,2 °C 3,2 km/h (1 Bft)
31.10.2019 06:06 2,2 °C 96 % 1020,5 hPa 0,0 mm 2,2 km/h (1 Bft) O-NO 59 ° 0 min 0,000 mm 0,0 UV-I 0 W/m² 1,6 °C 2,2 °C 3,2 km/h (1 Bft)
31.10.2019 06:07 2,3 °C 96 % 1020,5 hPa 0,0 mm 1,5 km/h (1 Bft) O-NO 59 ° 0 min 0,000 mm 0,0 UV-I 0 W/m² 1,7 °C 2,3 °C 3,2 km/h (1 Bft)
31.10.2019 06:08 2,2 °C 96 % 1020,5 hPa 0,0 mm 2,6 km/h (1 Bft) O-NO 59 ° 0 min 0,000 mm 0,0 UV-I 0 W/m² 1,6 °C 2,2 °C 4,8 km/h (1 Bft)
31.10.2019 06:09 2,2 °C 96 % 1020,5 hPa 0,0 mm 2,9 km/h (1 Bft) O-NO 59 ° 0 min 0,000 mm 0,0 UV-I 0 W/m² 1,6 °C 2,2 °C 4,8 km/h (1 Bft)
31.10.2019 06:10 2,2 °C 96 % 1020,5 hPa 0,0 mm 3,1 km/h (1 Bft) O-NO 59 ° 0 min 0,000 mm 0,0 UV-I 0 W/m² 1,6 °C 2,2 °C 4,8 km/h (1 Bft)
31.10.2019 06:11 2,2 °C 96 % 1020,5 hPa 0,0 mm 0,5 km/h (0 Bft) O-NO 59 ° 0 min 0,000 mm 0,0 UV-I 0 W/m² 1,6 °C 2,2 °C 1,6 km/h (1 Bft)
31.10.2019 06:12 2,2 °C 96 % 1020,5 hPa 0,0 mm 0,2 km/h (0 Bft) O-NO 58 ° 0 min 0,000 mm 0,0 UV-I 0 W/m² 1,6 °C 2,2 °C 1,6 km/h (1 Bft)
31.10.2019 06:13 2,2 °C 96 % 1020,5 hPa 0,0 mm 3,5 km/h (1 Bft) O-NO 59 ° 0 min 0,000 mm 0,0 UV-I 0 W/m² 1,6 °C 2,2 °C 4,8 km/h (1 Bft)
31.10.2019 06:14 2,2 °C 96 % 1020,5 hPa 0,0 mm 2,7 km/h (1 Bft) O-NO 59 ° 0 min 0,000 mm 0,0 UV-I 0 W/m² 1,6 °C 2,2 °C 4,8 km/h (1 Bft)
31.10.2019 06:15 2,2 °C 96 % 1020,5 hPa 0,0 mm 2,9 km/h (1 Bft) O-NO 58 ° 0 min 0,000 mm 0,0 UV-I 0 W/m² 1,6 °C 2,2 °C 4,8 km/h (1 Bft)
31.10.2019 06:16 2,2 °C 96 % 1020,4 hPa 0,0 mm 0,1 km/h (0 Bft) O-NO 59 ° 0 min 0,000 mm 0,0 UV-I 0 W/m² 1,6 °C 2,2 °C 1,6 km/h (1 Bft)
31.10.2019 06:17 2,2 °C 96 % 1020,4 hPa 0,0 mm 0,0 km/h (0 Bft) O-NO 58 ° 0 min 0,000 mm 0,0 UV-I 0 W/m² 1,6 °C 2,2 °C 0,0 km/h (0 Bft)
31.10.2019 06:18 2,2 °C 96 % 1020,5 hPa 0,0 mm 0,0 km/h (0 Bft) O-NO 58 ° 0 min 0,000 mm 0,0 UV-I 0 W/m² 1,6 °C 2,2 °C 0,0 km/h (0 Bft)
31.10.2019 06:19 2,2 °C 96 % 1020,4 hPa 0,0 mm 0,0 km/h (0 Bft) O-NO 59 ° 0 min 0,000 mm 0,0 UV-I 0 W/m² 1,6 °C 2,2 °C 0,0 km/h (0 Bft)
31.10.2019 06:20 2,2 °C 96 % 1020,4 hPa 0,0 mm 0,5 km/h (0 Bft) O-NO 59 ° 0 min 0,000 mm 0,0 UV-I 0 W/m² 1,6 °C 2,2 °C 3,2 km/h (1 Bft)
31.10.2019 06:21 2,2 °C 96 % 1020,4 hPa 0,0 mm 3,0 km/h (1 Bft) O-NO 59 ° 0 min 0,000 mm 0,0 UV-I 0 W/m² 1,6 °C 2,2 °C 4,8 km/h (1 Bft)
31.10.2019 06:22 2,2 °C 96 % 1020,4 hPa 0,0 mm 1,7 km/h (1 Bft) O-NO 59 ° 0 min 0,000 mm 0,0 UV-I 0 W/m² 1,6 °C 2,2 °C 3,2 km/h (1 Bft)
31.10.2019 06:23 2,2 °C 96 % 1020,5 hPa 0,0 mm 0,1 km/h (0 Bft) O-NO 59 ° 0 min 0,000 mm 0,0 UV-I 0 W/m² 1,6 °C 2,2 °C 1,6 km/h (1 Bft)
31.10.2019 06:24 2,2 °C 96 % 1020,4 hPa 0,0 mm 1,2 km/h (1 Bft) O-NO 58 ° 0 min 0,000 mm 0,0 UV-I 0 W/m² 1,6 °C 2,2 °C 1,6 km/h (1 Bft)
31.10.2019 06:25 2,2 °C 96 % 1020,5 hPa 0,0 mm 1,9 km/h (1 Bft) O-NO 59 ° 0 min 0,000 mm 0,0 UV-I 0 W/m² 1,6 °C 2,2 °C 3,2 km/h (1 Bft)
31.10.2019 06:26 2,2 °C 96 % 1020,5 hPa 0,0 mm 0,0 km/h (0 Bft) O-NO 59 ° 0 min 0,000 mm 0,0 UV-I 0 W/m² 1,6 °C 2,2 °C 0,0 km/h (0 Bft)
31.10.2019 06:27 2,2 °C 96 % 1020,5 hPa 0,0 mm 0,0 km/h (0 Bft) O-NO 59 ° 0 min 0,000 mm 0,0 UV-I 0 W/m² 1,6 °C 2,2 °C 0,0 km/h (0 Bft)
31.10.2019 06:28 2,2 °C 96 % 1020,5 hPa 0,0 mm 0,2 km/h (0 Bft) O-NO 59 ° 0 min 0,000 mm 0,0 UV-I 0 W/m² 1,6 °C 2,2 °C 1,6 km/h (1 Bft)
31.10.2019 06:29 2,2 °C 96 % 1020,5 hPa 0,0 mm 1,5 km/h (1 Bft) O-NO 59 ° 0 min 0,000 mm 0,0 UV-I 0 W/m² 1,6 °C 2,2 °C 3,2 km/h (1 Bft)
31.10.2019 06:30 2,2 °C 96 % 1020,5 hPa 0,0 mm 2,3 km/h (1 Bft) O-NO 59 ° 0 min 0,000 mm 0,0 UV-I 0 W/m² 1,6 °C 2,2 °C 3,2 km/h (1 Bft)
31.10.2019 06:31 2,2 °C 96 % 1020,5 hPa 0,0 mm 2,3 km/h (1 Bft) O-NO 59 ° 0 min 0,000 mm 0,0 UV-I 0 W/m² 1,6 °C 2,2 °C 3,2 km/h (1 Bft)
31.10.2019 06:32 2,2 °C 96 % 1020,4 hPa 0,0 mm 1,7 km/h (1 Bft) O-NO 59 ° 0 min 0,000 mm 0,0 UV-I 0 W/m² 1,6 °C 2,2 °C 3,2 km/h (1 Bft)
31.10.2019 06:33 2,2 °C 96 % 1020,4 hPa 0,0 mm 1,7 km/h (1 Bft) O-NO 59 ° 0 min 0,000 mm 0,0 UV-I 0 W/m² 1,6 °C 2,2 °C 3,2 km/h (1 Bft)
31.10.2019 06:34 2,2 °C 96 % 1020,4 hPa 0,0 mm 1,2 km/h (1 Bft) O-NO 59 ° 0 min 0,000 mm 0,0 UV-I 0 W/m² 1,6 °C 2,2 °C 3,2 km/h (1 Bft)
31.10.2019 06:35 2,2 °C 96 % 1020,4 hPa 0,0 mm 0,6 km/h (0 Bft) O-NO 59 ° 0 min 0,000 mm 0,0 UV-I 0 W/m² 1,6 °C 2,2 °C 1,6 km/h (1 Bft)
31.10.2019 06:36 2,2 °C 96 % 1020,5 hPa 0,0 mm 0,0 km/h (0 Bft) O-NO 59 ° 0 min 0,000 mm 0,0 UV-I 0 W/m² 1,6 °C 2,2 °C 0,0 km/h (0 Bft)
31.10.2019 06:37 2,2 °C 96 % 1020,5 hPa 0,0 mm 0,1 km/h (0 Bft) O-NO 59 ° 0 min 0,000 mm 0,0 UV-I 0 W/m² 1,6 °C 2,2 °C 1,6 km/h (1 Bft)
31.10.2019 06:38 2,2 °C 96 % 1020,5 hPa 0,0 mm 0,0 km/h (0 Bft) O-NO 59 ° 0 min 0,000 mm 0,0 UV-I 0 W/m² 1,6 °C 2,2 °C 0,0 km/h (0 Bft)
31.10.2019 06:39 2,2 °C 96 % 1020,6 hPa 0,0 mm 0,5 km/h (0 Bft) O-NO 59 ° 0 min 0,000 mm 0,0 UV-I 0 W/m² 1,6 °C 2,2 °C 1,6 km/h (1 Bft)
31.10.2019 06:40 2,2 °C 96 % 1020,6 hPa 0,0 mm 1,9 km/h (1 Bft) O-NO 59 ° 0 min 0,000 mm 0,0 UV-I 0 W/m² 1,6 °C 2,2 °C 3,2 km/h (1 Bft)
31.10.2019 06:41 2,2 °C 96 % 1020,6 hPa 0,0 mm 1,7 km/h (1 Bft) O-NO 58 ° 0 min 0,000 mm 0,0 UV-I 0 W/m² 1,6 °C 2,2 °C 3,2 km/h (1 Bft)
31.10.2019 06:42 2,2 °C 96 % 1020,6 hPa 0,0 mm 1,7 km/h (1 Bft) O-NO 59 ° 0 min 0,000 mm 0,0 UV-I 0 W/m² 1,6 °C 2,2 °C 3,2 km/h (1 Bft)
31.10.2019 06:43 2,2 °C 96 % 1020,6 hPa 0,0 mm 2,2 km/h (1 Bft) O-NO 59 ° 0 min 0,000 mm 0,0 UV-I 0 W/m² 1,6 °C 2,2 °C 3,2 km/h (1 Bft)
31.10.2019 06:44 2,2 °C 96 % 1020,7 hPa 0,0 mm 2,5 km/h (1 Bft) O-NO 59 ° 0 min 0,000 mm 0,0 UV-I 0 W/m² 1,6 °C 2,2 °C 4,8 km/h (1 Bft)
31.10.2019 06:45 2,2 °C 96 % 1020,6 hPa 0,0 mm 3,0 km/h (1 Bft) O-NO 58 ° 0 min 0,000 mm 0,0 UV-I 0 W/m² 1,6 °C 2,2 °C 3,2 km/h (1 Bft)
31.10.2019 06:46 2,2 °C 96 % 1020,6 hPa 0,0 mm 0,9 km/h (0 Bft) O-NO 59 ° 0 min 0,000 mm 0,0 UV-I 0 W/m² 1,6 °C 2,2 °C 3,2 km/h (1 Bft)
31.10.2019 06:47 2,2 °C 96 % 1020,6 hPa 0,0 mm 0,8 km/h (0 Bft) O-NO 59 ° 0 min 0,000 mm 0,0 UV-I 0 W/m² 1,6 °C 2,2 °C 1,6 km/h (1 Bft)
31.10.2019 06:48 2,2 °C 96 % 1020,7 hPa 0,0 mm 0,5 km/h (0 Bft) O-NO 59 ° 0 min 0,000 mm 0,0 UV-I 0 W/m² 1,6 °C 2,2 °C 1,6 km/h (1 Bft)
31.10.2019 06:49 2,2 °C 96 % 1020,7 hPa 0,0 mm 0,0 km/h (0 Bft) O-NO 59 ° 0 min 0,000 mm 0,0 UV-I 0 W/m² 1,6 °C 2,2 °C 0,0 km/h (0 Bft)
31.10.2019 06:50 2,2 °C 96 % 1020,6 hPa 0,0 mm 1,6 km/h (1 Bft) O-NO 58 ° 0 min 0,000 mm 0,0 UV-I 0 W/m² 1,6 °C 2,2 °C 3,2 km/h (1 Bft)
31.10.2019 06:51 2,2 °C 96 % 1020,6 hPa 0,0 mm 2,7 km/h (1 Bft) O-NO 59 ° 0 min 0,000 mm 0,0 UV-I 0 W/m² 1,6 °C 2,2 °C 4,8 km/h (1 Bft)
31.10.2019 06:52 2,2 °C 96 % 1020,6 hPa 0,0 mm 2,1 km/h (1 Bft) O-NO 59 ° 0 min 0,000 mm 0,0 UV-I 0 W/m² 1,6 °C 2,2 °C 3,2 km/h (1 Bft)
31.10.2019 06:53 2,2 °C 96 % 1020,6 hPa 0,0 mm 3,6 km/h (1 Bft) O-NO 58 ° 0 min 0,000 mm 0,0 UV-I 0 W/m² 1,6 °C 2,2 °C 4,8 km/h (1 Bft)
31.10.2019 06:54 2,2 °C 96 % 1020,6 hPa 0,0 mm 2,6 km/h (1 Bft) O-NO 59 ° 0 min 0,000 mm 0,0 UV-I 0 W/m² 1,6 °C 2,2 °C 3,2 km/h (1 Bft)
31.10.2019 06:55 2,2 °C 96 % 1020,6 hPa 0,0 mm 4,0 km/h (1 Bft) O-NO 59 ° 0 min 0,000 mm 0,0 UV-I 0 W/m² 1,6 °C 2,2 °C 4,8 km/h (1 Bft)
31.10.2019 06:56 2,2 °C 96 % 1020,6 hPa 0,0 mm 5,2 km/h (1 Bft) O-NO 59 ° 0 min 0,000 mm 0,0 UV-I 0 W/m² 1,6 °C 0,8 °C 6,4 km/h (2 Bft)
31.10.2019 06:57 2,2 °C 96 % 1020,6 hPa 0,0 mm 3,4 km/h (1 Bft) O-NO 59 ° 0 min 0,000 mm 0,0 UV-I 0 W/m² 1,6 °C 2,2 °C 4,8 km/h (1 Bft)
31.10.2019 06:58 2,2 °C 96 % 1020,6 hPa 0,0 mm 1,5 km/h (1 Bft) O-NO 59 ° 0 min 0,000 mm 0,0 UV-I 0 W/m² 1,6 °C 2,2 °C 3,2 km/h (1 Bft)
31.10.2019 06:59 2,2 °C 96 % 1020,7 hPa 0,0 mm 1,0 km/h (0 Bft) O-NO 59 ° 0 min 0,000 mm 0,0 UV-I 0 W/m² 1,6 °C 2,2 °C 1,6 km/h (1 Bft)
31.10.2019 07:00 2,2 °C 96 % 1020,7 hPa 0,0 mm 1,8 km/h (1 Bft) O-NO 59 ° 0 min 0,000 mm 0,0 UV-I 0 W/m² 1,6 °C 2,2 °C 3,2 km/h (1 Bft)
31.10.2019 07:01 2,2 °C 96 % 1020,7 hPa 0,0 mm 2,4 km/h (1 Bft) O-NO 58 ° 0 min 0,000 mm 0,0 UV-I 0 W/m² 1,6 °C 2,2 °C 4,8 km/h (1 Bft)
31.10.2019 07:02 2,2 °C 96 % 1020,7 hPa 0,0 mm 2,2 km/h (1 Bft) O-NO 59 ° 0 min 0,000 mm 0,0 UV-I 0 W/m² 1,6 °C 2,2 °C 4,8 km/h (1 Bft)
31.10.2019 07:03 2,2 °C 96 % 1020,7 hPa 0,0 mm 0,0 km/h (0 Bft) O-NO 59 ° 0 min 0,000 mm 0,0 UV-I 0 W/m² 1,6 °C 2,2 °C 0,0 km/h (0 Bft)
31.10.2019 07:04 2,2 °C 96 % 1020,7 hPa 0,0 mm 3,1 km/h (1 Bft) O-NO 59 ° 0 min 0,000 mm 0,0 UV-I 0 W/m² 1,6 °C 2,2 °C 4,8 km/h (1 Bft)
31.10.2019 07:05 2,2 °C 96 % 1020,8 hPa 0,0 mm 2,7 km/h (1 Bft) O-NO 58 ° 0 min 0,000 mm 0,0 UV-I 0 W/m² 1,6 °C 2,2 °C 4,8 km/h (1 Bft)
31.10.2019 07:06 2,2 °C 96 % 1020,8 hPa 0,0 mm 2,7 km/h (1 Bft) O-NO 58 ° 0 min 0,000 mm 0,0 UV-I 0 W/m² 1,6 °C 2,2 °C 4,8 km/h (1 Bft)
31.10.2019 07:07 2,2 °C 96 % 1020,9 hPa 0,0 mm 4,0 km/h (1 Bft) O-NO 59 ° 0 min 0,000 mm 0,0 UV-I 0 W/m² 1,6 °C 2,2 °C 4,8 km/h (1 Bft)
31.10.2019 07:08 2,2 °C 96 % 1020,9 hPa 0,0 mm 2,5 km/h (1 Bft) O-NO 59 ° 0 min 0,000 mm 0,0 UV-I 0 W/m² 1,6 °C 2,2 °C 4,8 km/h (1 Bft)
31.10.2019 07:09 2,2 °C 96 % 1020,9 hPa 0,0 mm 3,1 km/h (1 Bft) O-NO 59 ° 0 min 0,000 mm 0,0 UV-I 0 W/m² 1,6 °C 2,2 °C 4,8 km/h (1 Bft)
31.10.2019 07:10 2,2 °C 96 % 1021,0 hPa 0,0 mm 1,9 km/h (1 Bft) O-NO 59 ° 0 min 0,000 mm 0,0 UV-I 0 W/m² 1,6 °C 2,2 °C 3,2 km/h (1 Bft)
31.10.2019 07:11 2,2 °C 96 % 1021,0 hPa 0,0 mm 0,5 km/h (0 Bft) O-NO 59 ° 0 min 0,000 mm 0,0 UV-I 0 W/m² 1,6 °C 2,2 °C 1,6 km/h (1 Bft)
31.10.2019 07:12 2,2 °C 96 % 1020,9 hPa 0,0 mm 1,6 km/h (1 Bft) O-NO 59 ° 0 min 0,000 mm 0,0 UV-I 0 W/m² 1,6 °C 2,2 °C 3,2 km/h (1 Bft)
31.10.2019 07:13 2,2 °C 96 % 1021,0 hPa 0,0 mm 0,5 km/h (0 Bft) O-NO 59 ° 0 min 0,000 mm 0,0 UV-I 0 W/m² 1,6 °C 2,2 °C 1,6 km/h (1 Bft)
31.10.2019 07:14 2,2 °C 96 % 1020,9 hPa 0,0 mm 3,7 km/h (1 Bft) O-NO 59 ° 0 min 0,000 mm 0,0 UV-I 5 W/m² 1,6 °C 2,2 °C 4,8 km/h (1 Bft)
31.10.2019 07:15 2,2 °C 96 % 1020,9 hPa 0,0 mm 3,2 km/h (1 Bft) O-NO 59 ° 0 min 0,000 mm 0,0 UV-I 5 W/m² 1,6 °C 2,2 °C 4,8 km/h (1 Bft)
31.10.2019 07:16 2,2 °C 96 % 1020,9 hPa 0,0 mm 2,7 km/h (1 Bft) O-NO 59 ° 0 min 0,000 mm 0,0 UV-I 5 W/m² 1,6 °C 2,2 °C 4,8 km/h (1 Bft)
31.10.2019 07:17 2,2 °C 96 % 1020,9 hPa 0,0 mm 4,0 km/h (1 Bft) O-NO 59 ° 0 min 0,000 mm 0,0 UV-I 5 W/m² 1,6 °C 2,2 °C 4,8 km/h (1 Bft)
31.10.2019 07:18 2,2 °C 96 % 1020,9 hPa 0,0 mm 3,4 km/h (1 Bft) O-NO 59 ° 0 min 0,000 mm 0,0 UV-I 7 W/m² 1,6 °C 2,2 °C 4,8 km/h (1 Bft)
31.10.2019 07:19 2,2 °C 96 % 1020,9 hPa 0,0 mm 2,0 km/h (1 Bft) O-NO 58 ° 0 min 0,000 mm 0,0 UV-I 7 W/m² 1,6 °C 2,2 °C 3,2 km/h (1 Bft)
31.10.2019 07:20 2,2 °C 96 % 1020,8 hPa 0,0 mm 4,1 km/h (1 Bft) O-NO 59 ° 0 min 0,000 mm 0,0 UV-I 9 W/m² 1,6 °C 2,2 °C 6,4 km/h (2 Bft)
31.10.2019 07:21 2,2 °C 96 % 1020,9 hPa 0,0 mm 3,5 km/h (1 Bft) O-NO 59 ° 0 min 0,000 mm 0,0 UV-I 9 W/m² 1,6 °C 2,2 °C 4,8 km/h (1 Bft)
31.10.2019 07:22 2,2 °C 96 % 1020,9 hPa 0,0 mm 2,6 km/h (1 Bft) O-NO 59 ° 0 min 0,000 mm 0,0 UV-I 9 W/m² 1,6 °C 2,2 °C 4,8 km/h (1 Bft)
31.10.2019 07:23 2,2 °C 96 % 1021,0 hPa 0,0 mm 3,0 km/h (1 Bft) O-NO 59 ° 0 min 0,000 mm 0,0 UV-I 9 W/m² 1,6 °C 2,2 °C 4,8 km/h (1 Bft)
31.10.2019 07:24 2,2 °C 96 % 1021,1 hPa 0,0 mm 5,1 km/h (1 Bft) O-NO 59 ° 0 min 0,000 mm 0,0 UV-I 9 W/m² 1,6 °C 0,9 °C 8,0 km/h (2 Bft)
31.10.2019 07:25 2,2 °C 96 % 1021,1 hPa 0,0 mm 4,1 km/h (1 Bft) O-NO 58 ° 0 min 0,000 mm 0,0 UV-I 7 W/m² 1,6 °C 2,2 °C 6,4 km/h (2 Bft)
31.10.2019 07:26 2,2 °C 96 % 1021,1 hPa 0,0 mm 4,3 km/h (1 Bft) O-NO 59 ° 0 min 0,000 mm 0,0 UV-I 7 W/m² 1,6 °C 2,2 °C 6,4 km/h (2 Bft)
31.10.2019 07:27 2,2 °C 96 % 1021,0 hPa 0,0 mm 3,4 km/h (1 Bft) O-NO 59 ° 0 min 0,000 mm 0,0 UV-I 7 W/m² 1,6 °C 2,2 °C 4,8 km/h (1 Bft)
31.10.2019 07:28 2,2 °C 96 % 1021,0 hPa 0,0 mm 4,7 km/h (1 Bft) O-NO 59 ° 0 min 0,000 mm 0,0 UV-I 7 W/m² 1,6 °C 1,0 °C 6,4 km/h (2 Bft)
31.10.2019 07:29 2,2 °C 96 % 1021,1 hPa 0,0 mm 4,0 km/h (1 Bft) O-NO 59 ° 0 min 0,000 mm 0,0 UV-I 7 W/m² 1,6 °C 2,2 °C 4,8 km/h (1 Bft)
31.10.2019 07:30 2,2 °C 96 % 1021,0 hPa 0,0 mm 2,1 km/h (1 Bft) O-NO 59 ° 0 min 0,000 mm 0,0 UV-I 7 W/m² 1,6 °C 2,2 °C 3,2 km/h (1 Bft)
31.10.2019 07:31 2,2 °C 96 % 1021,0 hPa 0,0 mm 2,6 km/h (1 Bft) O-NO 59 ° 0 min 0,000 mm 0,0 UV-I 9 W/m² 1,6 °C 2,2 °C 4,8 km/h (1 Bft)
31.10.2019 07:32 2,2 °C 96 % 1021,0 hPa 0,0 mm 3,2 km/h (1 Bft) O-NO 59 ° 0 min 0,000 mm 0,0 UV-I 9 W/m² 1,6 °C 2,2 °C 4,8 km/h (1 Bft)
31.10.2019 07:33 2,2 °C 96 % 1021,0 hPa 0,0 mm 4,0 km/h (1 Bft) O-NO 59 ° 0 min 0,000 mm 0,0 UV-I 11 W/m² 1,6 °C 2,2 °C 8,0 km/h (2 Bft)
31.10.2019 07:34 2,2 °C 96 % 1021,0 hPa 0,0 mm 4,2 km/h (1 Bft) O-NO 59 ° 0 min 0,000 mm 0,0 UV-I 11 W/m² 1,6 °C 2,2 °C 6,4 km/h (2 Bft)
31.10.2019 07:35 2,2 °C 96 % 1021,0 hPa 0,0 mm 2,1 km/h (1 Bft) O-NO 59 ° 0 min 0,000 mm 0,0 UV-I 11 W/m² 1,6 °C 2,2 °C 4,8 km/h (1 Bft)
31.10.2019 07:36 2,2 °C 96 % 1021,0 hPa 0,0 mm 2,5 km/h (1 Bft) O-NO 59 ° 0 min 0,000 mm 0,0 UV-I 12 W/m² 1,6 °C 2,2 °C 4,8 km/h (1 Bft)
31.10.2019 07:37 2,2 °C 96 % 1020,9 hPa 0,0 mm 5,2 km/h (1 Bft) O-NO 59 ° 0 min 0,000 mm 0,0 UV-I 12 W/m² 1,6 °C 0,8 °C 6,4 km/h (2 Bft)
31.10.2019 07:38 2,2 °C 96 % 1021,0 hPa 0,0 mm 4,6 km/h (1 Bft) O-NO 59 ° 0 min 0,000 mm 0,0 UV-I 12 W/m² 1,6 °C 1,1 °C 6,4 km/h (2 Bft)
31.10.2019 07:39 2,2 °C 96 % 1021,0 hPa 0,0 mm 4,5 km/h (1 Bft) O-NO 59 ° 0 min 0,000 mm 0,0 UV-I 12 W/m² 1,6 °C 2,2 °C 6,4 km/h (2 Bft)
31.10.2019 07:40 2,2 °C 96 % 1021,0 hPa 0,0 mm 2,9 km/h (1 Bft) O-NO 59 ° 0 min 0,000 mm 0,0 UV-I 12 W/m² 1,6 °C 2,2 °C 4,8 km/h (1 Bft)
31.10.2019 07:41 2,2 °C 96 % 1021,0 hPa 0,0 mm 4,5 km/h (1 Bft) NO 55 ° 0 min 0,000 mm 0,0 UV-I 14 W/m² 1,6 °C 2,2 °C 9,7 km/h (2 Bft)
31.10.2019 07:42 2,2 °C 96 % 1021,0 hPa 0,0 mm 6,1 km/h (2 Bft) O 80 ° 0 min 0,000 mm 0,0 UV-I 14 W/m² 1,6 °C 0,5 °C 8,0 km/h (2 Bft)
31.10.2019 07:43 2,2 °C 96 % 1021,1 hPa 0,0 mm 5,1 km/h (1 Bft) NO 56 ° 0 min 0,000 mm 0,0 UV-I 14 W/m² 1,6 °C 0,9 °C 8,0 km/h (2 Bft)
31.10.2019 07:44 2,2 °C 96 % 1021,1 hPa 0,0 mm 5,0 km/h (1 Bft) O 94 ° 0 min 0,000 mm 0,0 UV-I 14 W/m² 1,6 °C 0,9 °C 9,7 km/h (2 Bft)
31.10.2019 07:45 2,2 °C 96 % 1021,1 hPa 0,0 mm 3,6 km/h (1 Bft) O 81 ° 0 min 0,000 mm 0,0 UV-I 16 W/m² 1,6 °C 2,2 °C 6,4 km/h (2 Bft)
31.10.2019 07:46 2,2 °C 96 % 1021,1 hPa 0,0 mm 5,3 km/h (1 Bft) O-NO 70 ° 0 min 0,000 mm 0,0 UV-I 16 W/m² 1,6 °C 0,8 °C 6,4 km/h (2 Bft)
31.10.2019 07:47 2,2 °C 96 % 1021,0 hPa 0,0 mm 6,9 km/h (2 Bft) O-NO 57 ° 0 min 0,000 mm 0,0 UV-I 16 W/m² 1,6 °C 0,2 °C 9,7 km/h (2 Bft)
31.10.2019 07:48 2,2 °C 96 % 1021,0 hPa 0,0 mm 3,4 km/h (1 Bft) O-NO 57 ° 0 min 0,000 mm 0,0 UV-I 18 W/m² 1,6 °C 2,2 °C 6,4 km/h (2 Bft)
31.10.2019 07:49 2,2 °C 96 % 1021,1 hPa 0,0 mm 3,1 km/h (1 Bft) O-NO 57 ° 0 min 0,000 mm 0,0 UV-I 18 W/m² 1,6 °C 2,2 °C 4,8 km/h (1 Bft)
31.10.2019 07:50 2,2 °C 96 % 1021,1 hPa 0,0 mm 2,3 km/h (1 Bft) N-NO 13 ° 0 min 0,000 mm 0,0 UV-I 19 W/m² 1,6 °C 2,2 °C 4,8 km/h (1 Bft)
31.10.2019 07:51 2,2 °C 96 % 1021,1 hPa 0,0 mm 3,5 km/h (1 Bft) O-NO 59 ° 0 min 0,000 mm 0,0 UV-I 19 W/m² 1,6 °C 2,2 °C 6,4 km/h (2 Bft)
31.10.2019 07:52 2,2 °C 96 % 1021,1 hPa 0,0 mm 5,2 km/h (1 Bft) O-NO 67 ° 0 min 0,000 mm 0,0 UV-I 19 W/m² 1,6 °C 0,8 °C 8,0 km/h (2 Bft)
31.10.2019 07:53 2,2 °C 96 % 1021,1 hPa 0,0 mm 2,7 km/h (1 Bft) NO 40 ° 0 min 0,000 mm 0,0 UV-I 21 W/m² 1,6 °C 2,2 °C 6,4 km/h (2 Bft)
31.10.2019 07:54 2,2 °C 96 % 1021,1 hPa 0,0 mm 3,4 km/h (1 Bft) O 89 ° 0 min 0,000 mm 0,0 UV-I 21 W/m² 1,6 °C 2,2 °C 11,3 km/h (2 Bft)
31.10.2019 07:55 2,2 °C 96 % 1021,1 hPa 0,0 mm 9,1 km/h (2 Bft) O-NO 61 ° 0 min 0,000 mm 0,0 UV-I 21 W/m² 1,6 °C -0,5 °C 12,9 km/h (3 Bft)
31.10.2019 07:56 2,2 °C 96 % 1021,1 hPa 0,0 mm 6,9 km/h (2 Bft) O-NO 63 ° 0 min 0,000 mm 0,0 UV-I 21 W/m² 1,6 °C 0,2 °C 9,7 km/h (2 Bft)
31.10.2019 07:57 2,2 °C 96 % 1021,2 hPa 0,0 mm 5,0 km/h (1 Bft) O-NO 71 ° 0 min 0,000 mm 0,0 UV-I 21 W/m² 1,6 °C 0,9 °C 8,0 km/h (2 Bft)
31.10.2019 07:58 2,2 °C 96 % 1021,1 hPa 0,0 mm 6,0 km/h (2 Bft) NO 53 ° 0 min 0,000 mm 0,0 UV-I 25 W/m² 1,6 °C 0,5 °C 9,7 km/h (2 Bft)
31.10.2019 07:59 2,2 °C 96 % 1021,1 hPa 0,0 mm 4,2 km/h (1 Bft) O-NO 73 ° 0 min 0,000 mm 0,0 UV-I 26 W/m² 1,6 °C 2,2 °C 6,4 km/h (2 Bft)
31.10.2019 08:00 2,2 °C 96 % 1021,1 hPa 0,0 mm 3,4 km/h (1 Bft) O-NO 73 ° 0 min 0,000 mm 0,0 UV-I 30 W/m² 1,6 °C 2,2 °C 6,4 km/h (2 Bft)
31.10.2019 08:01 2,2 °C 96 % 1021,1 hPa 0,0 mm 3,6 km/h (1 Bft) NO 48 ° 0 min 0,000 mm 0,0 UV-I 30 W/m² 1,6 °C 2,2 °C 6,4 km/h (2 Bft)
31.10.2019 08:02 2,2 °C 96 % 1021,2 hPa 0,0 mm 7,3 km/h (2 Bft) O-NO 73 ° 0 min 0,000 mm 0,0 UV-I 26 W/m² 1,6 °C 0,1 °C 9,7 km/h (2 Bft)
31.10.2019 08:03 2,2 °C 96 % 1021,2 hPa 0,0 mm 3,8 km/h (1 Bft) O 80 ° 0 min 0,000 mm 0,0 UV-I 21 W/m² 1,6 °C 2,2 °C 4,8 km/h (1 Bft)
31.10.2019 08:04 2,2 °C 96 % 1021,2 hPa 0,0 mm 4,9 km/h (1 Bft) N-NO 17 ° 0 min 0,000 mm 0,0 UV-I 21 W/m² 1,6 °C 1,0 °C 6,4 km/h (2 Bft)
31.10.2019 08:05 2,2 °C 96 % 1021,2 hPa 0,0 mm 6,0 km/h (2 Bft) NO 46 ° 0 min 0,000 mm 0,0 UV-I 19 W/m² 1,6 °C 0,5 °C 8,0 km/h (2 Bft)
31.10.2019 08:06 2,2 °C 96 % 1021,2 hPa 0,0 mm 1,3 km/h (1 Bft) NO 46 ° 0 min 0,000 mm 0,0 UV-I 19 W/m² 1,6 °C 2,2 °C 3,2 km/h (1 Bft)
31.10.2019 08:07 2,2 °C 96 % 1021,3 hPa 0,0 mm 1,8 km/h (1 Bft) NO 46 ° 0 min 0,000 mm 0,0 UV-I 19 W/m² 1,6 °C 2,2 °C 3,2 km/h (1 Bft)
31.10.2019 08:08 2,2 °C 96 % 1021,4 hPa 0,0 mm 5,0 km/h (1 Bft) NO 54 ° 0 min 0,000 mm 0,0 UV-I 16 W/m² 1,6 °C 0,9 °C 8,0 km/h (2 Bft)
31.10.2019 08:09 2,2 °C 96 % 1021,4 hPa 0,0 mm 3,5 km/h (1 Bft) NO 53 ° 0 min 0,000 mm 0,0 UV-I 16 W/m² 1,6 °C 2,2 °C 4,8 km/h (1 Bft)
31.10.2019 08:10 2,2 °C 96 % 1021,3 hPa 0,0 mm 0,9 km/h (0 Bft) NO 53 ° 0 min 0,000 mm 0,0 UV-I 14 W/m² 1,6 °C 2,2 °C 1,6 km/h (1 Bft)
31.10.2019 08:11 2,2 °C 96 % 1021,3 hPa 0,0 mm 2,9 km/h (1 Bft) NO 40 ° 0 min 0,000 mm 0,0 UV-I 14 W/m² 1,6 °C 2,2 °C 6,4 km/h (2 Bft)
31.10.2019 08:12 2,2 °C 96 % 1021,4 hPa 0,0 mm 3,2 km/h (1 Bft) NO 40 ° 0 min 0,000 mm 0,0 UV-I 14 W/m² 1,6 °C 2,2 °C 4,8 km/h (1 Bft)
31.10.2019 08:13 2,2 °C 96 % 1021,4 hPa 0,0 mm 5,6 km/h (1 Bft) NO 54 ° 0 min 0,000 mm 0,0 UV-I 16 W/m² 1,6 °C 0,7 °C 8,0 km/h (2 Bft)
31.10.2019 08:14 2,2 °C 96 % 1021,3 hPa 0,0 mm 4,7 km/h (1 Bft) O 88 ° 0 min 0,000 mm 0,0 UV-I 21 W/m² 1,6 °C 1,0 °C 8,0 km/h (2 Bft)
31.10.2019 08:15 2,2 °C 96 % 1021,2 hPa 0,0 mm 4,2 km/h (1 Bft) NO 49 ° 0 min 0,000 mm 0,0 UV-I 23 W/m² 1,6 °C 2,2 °C 8,0 km/h (2 Bft)
31.10.2019 08:16 2,2 °C 96 % 1021,3 hPa 0,0 mm 5,2 km/h (1 Bft) N-NO 32 ° 0 min 0,000 mm 0,0 UV-I 25 W/m² 1,6 °C 0,8 °C 8,0 km/h (2 Bft)
31.10.2019 08:17 2,2 °C 96 % 1021,2 hPa 0,0 mm 4,1 km/h (1 Bft) NO 44 ° 0 min 0,000 mm 0,0 UV-I 25 W/m² 1,6 °C 2,2 °C 6,4 km/h (2 Bft)
31.10.2019 08:18 2,2 °C 96 % 1021,3 hPa 0,0 mm 3,8 km/h (1 Bft) O-NO 63 ° 0 min 0,000 mm 0,0 UV-I 26 W/m² 1,6 °C 2,2 °C 4,8 km/h (1 Bft)
31.10.2019 08:19 2,2 °C 96 % 1021,3 hPa 0,0 mm 4,2 km/h (1 Bft) NO 48 ° 0 min 0,000 mm 0,0 UV-I 26 W/m² 1,6 °C 2,2 °C 6,4 km/h (2 Bft)
31.10.2019 08:20 2,2 °C 96 % 1021,3 hPa 0,0 mm 4,8 km/h (1 Bft) NO 50 ° 0 min 0,000 mm 0,0 UV-I 25 W/m² 1,6 °C 1,0 °C 6,4 km/h (2 Bft)
31.10.2019 08:21 2,2 °C 96 % 1021,2 hPa 0,0 mm 2,9 km/h (1 Bft) NO 53 ° 0 min 0,000 mm 0,0 UV-I 25 W/m² 1,6 °C 2,2 °C 4,8 km/h (1 Bft)
31.10.2019 08:22 2,2 °C 96 % 1021,2 hPa 0,0 mm 4,2 km/h (1 Bft) NO 47 ° 0 min 0,000 mm 0,0 UV-I 25 W/m² 1,6 °C 2,2 °C 6,4 km/h (2 Bft)
31.10.2019 08:23 2,2 °C 96 % 1021,2 hPa 0,0 mm 3,5 km/h (1 Bft) NO 47 ° 0 min 0,000 mm 0,0 UV-I 26 W/m² 1,6 °C 2,2 °C 4,8 km/h (1 Bft)
31.10.2019 08:24 2,2 °C 96 % 1021,2 hPa 0,0 mm 1,3 km/h (1 Bft) NO 47 ° 0 min 0,000 mm 0,0 UV-I 25 W/m² 1,6 °C 2,2 °C 4,8 km/h (1 Bft)
31.10.2019 08:25 2,2 °C 96 % 1021,2 hPa 0,0 mm 1,6 km/h (1 Bft) NO 47 ° 0 min 0,000 mm 0,0 UV-I 23 W/m² 1,6 °C 2,2 °C 4,8 km/h (1 Bft)
31.10.2019 08:26 2,3 °C 96 % 1021,2 hPa 0,0 mm 2,1 km/h (1 Bft) NO 47 ° 0 min 0,000 mm 0,0 UV-I 25 W/m² 1,7 °C 2,3 °C 3,2 km/h (1 Bft)
31.10.2019 08:27 2,2 °C 96 % 1021,2 hPa 0,0 mm 1,6 km/h (1 Bft) NO 47 ° 0 min 0,000 mm 0,0 UV-I 26 W/m² 1,6 °C 2,2 °C 3,2 km/h (1 Bft)
31.10.2019 08:28 2,3 °C 96 % 1021,3 hPa 0,0 mm 4,0 km/h (1 Bft) NO 47 ° 0 min 0,000 mm 0,0 UV-I 26 W/m² 1,7 °C 2,3 °C 6,4 km/h (2 Bft)
31.10.2019 08:29 2,3 °C 96 % 1021,3 hPa 0,0 mm 5,0 km/h (1 Bft) NO 47 ° 0 min 0,000 mm 0,0 UV-I 26 W/m² 1,7 °C 1,0 °C 6,4 km/h (2 Bft)
31.10.2019 08:30 2,3 °C 96 % 1021,3 hPa 0,0 mm 7,4 km/h (2 Bft) NO 46 ° 0 min 0,000 mm 0,0 UV-I 25 W/m² 1,7 °C 0,1 °C 9,7 km/h (2 Bft)
31.10.2019 08:31 2,2 °C 96 % 1021,3 hPa 0,0 mm 5,8 km/h (2 Bft) NO 42 ° 0 min 0,000 mm 0,0 UV-I 25 W/m² 1,6 °C 0,6 °C 9,7 km/h (2 Bft)
31.10.2019 08:32 2,2 °C 96 % 1021,3 hPa 0,0 mm 5,1 km/h (1 Bft) NO 53 ° 0 min 0,000 mm 0,0 UV-I 25 W/m² 1,6 °C 0,9 °C 8,0 km/h (2 Bft)
31.10.2019 08:33 2,2 °C 96 % 1021,3 hPa 0,0 mm 3,9 km/h (1 Bft) O-NO 74 ° 0 min 0,000 mm 0,0 UV-I 25 W/m² 1,6 °C 2,2 °C 8,0 km/h (2 Bft)
31.10.2019 08:34 2,2 °C 96 % 1021,3 hPa 0,0 mm 4,6 km/h (1 Bft) N-NO 28 ° 0 min 0,000 mm 0,0 UV-I 25 W/m² 1,6 °C 1,1 °C 6,4 km/h (2 Bft)
31.10.2019 08:35 2,2 °C 96 % 1021,3 hPa 0,0 mm 3,5 km/h (1 Bft) NO 44 ° 0 min 0,000 mm 0,0 UV-I 26 W/m² 1,6 °C 2,2 °C 4,8 km/h (1 Bft)
31.10.2019 08:36 2,2 °C 96 % 1021,3 hPa 0,0 mm 5,0 km/h (1 Bft) NO 43 ° 0 min 0,000 mm 0,0 UV-I 26 W/m² 1,6 °C 0,9 °C 6,4 km/h (2 Bft)
31.10.2019 08:37 2,2 °C 96 % 1021,3 hPa 0,0 mm 5,1 km/h (1 Bft) NO 44 ° 0 min 0,000 mm 0,0 UV-I 32 W/m² 1,6 °C 0,9 °C 6,4 km/h (2 Bft)
31.10.2019 08:38 2,2 °C 96 % 1021,3 hPa 0,0 mm 4,8 km/h (1 Bft) NO 44 ° 0 min 0,000 mm 0,0 UV-I 33 W/m² 1,6 °C 1,0 °C 8,0 km/h (2 Bft)
31.10.2019 08:39 2,2 °C 96 % 1021,3 hPa 0,0 mm 2,0 km/h (1 Bft) NO 44 ° 0 min 0,000 mm 0,0 UV-I 35 W/m² 1,6 °C 2,2 °C 3,2 km/h (1 Bft)
31.10.2019 08:40 2,2 °C 96 % 1021,3 hPa 0,0 mm 4,8 km/h (1 Bft) NO 46 ° 0 min 0,000 mm 0,0 UV-I 35 W/m² 1,6 °C 1,0 °C 6,4 km/h (2 Bft)
31.10.2019 08:41 2,2 °C 96 % 1021,3 hPa 0,0 mm 3,8 km/h (1 Bft) N-NO 19 ° 0 min 0,000 mm 0,0 UV-I 35 W/m² 1,6 °C 2,2 °C 8,0 km/h (2 Bft)
31.10.2019 08:42 2,2 °C 96 % 1021,2 hPa 0,0 mm 6,1 km/h (2 Bft) O-NO 61 ° 0 min 0,000 mm 0,0 UV-I 37 W/m² 1,6 °C 0,5 °C 8,0 km/h (2 Bft)
31.10.2019 08:43 2,2 °C 96 % 1021,2 hPa 0,0 mm 3,9 km/h (1 Bft) O 88 ° 0 min 0,000 mm 0,0 UV-I 40 W/m² 1,6 °C 2,2 °C 4,8 km/h (1 Bft)
31.10.2019 08:44 2,3 °C 96 % 1021,2 hPa 0,0 mm 4,2 km/h (1 Bft) O-NO 73 ° 0 min 0,000 mm 0,0 UV-I 40 W/m² 1,7 °C 2,3 °C 6,4 km/h (2 Bft)
31.10.2019 08:45 2,2 °C 96 % 1021,2 hPa 0,0 mm 3,8 km/h (1 Bft) O-NO 70 ° 0 min 0,000 mm 0,0 UV-I 40 W/m² 1,6 °C 2,2 °C 6,4 km/h (2 Bft)
31.10.2019 08:46 2,2 °C 96 % 1021,2 hPa 0,0 mm 5,3 km/h (1 Bft) O-NO 70 ° 0 min 0,000 mm 0,0 UV-I 42 W/m² 1,6 °C 0,8 °C 6,4 km/h (2 Bft)
31.10.2019 08:47 2,3 °C 96 % 1021,2 hPa 0,0 mm 5,3 km/h (1 Bft) O 91 ° 0 min 0,000 mm 0,0 UV-I 40 W/m² 1,7 °C 0,9 °C 6,4 km/h (2 Bft)
31.10.2019 08:48 2,2 °C 96 % 1021,2 hPa 0,0 mm 4,4 km/h (1 Bft) O-NO 63 ° 0 min 0,000 mm 0,0 UV-I 40 W/m² 1,6 °C 2,2 °C 6,4 km/h (2 Bft)
31.10.2019 08:49 2,2 °C 96 % 1021,2 hPa 0,0 mm 4,5 km/h (1 Bft) O-NO 63 ° 0 min 0,000 mm 0,0 UV-I 35 W/m² 1,6 °C 2,2 °C 6,4 km/h (2 Bft)
31.10.2019 08:50 2,3 °C 96 % 1021,2 hPa 0,0 mm 2,7 km/h (1 Bft) O-NO 62 ° 0 min 0,000 mm 0,0 UV-I 35 W/m² 1,7 °C 2,3 °C 4,8 km/h (1 Bft)
31.10.2019 08:51 2,3 °C 96 % 1021,3 hPa 0,0 mm 6,0 km/h (2 Bft) O-NO 62 ° 0 min 0,000 mm 0,0 UV-I 33 W/m² 1,7 °C 0,6 °C 8,0 km/h (2 Bft)
31.10.2019 08:52 2,3 °C 96 % 1021,3 hPa 0,0 mm 5,9 km/h (2 Bft) NO 43 ° 0 min 0,000 mm 0,0 UV-I 35 W/m² 1,7 °C 0,7 °C 8,0 km/h (2 Bft)
31.10.2019 08:53 2,3 °C 96 % 1021,2 hPa 0,0 mm 6,2 km/h (2 Bft) NO 44 ° 0 min 0,000 mm 0,0 UV-I 37 W/m² 1,7 °C 0,5 °C 8,0 km/h (2 Bft)
31.10.2019 08:54 2,3 °C 96 % 1021,2 hPa 0,0 mm 4,4 km/h (1 Bft) NO 44 ° 0 min 0,000 mm 0,0 UV-I 37 W/m² 1,7 °C 2,3 °C 6,4 km/h (2 Bft)
31.10.2019 08:55 2,3 °C 96 % 1021,2 hPa 0,0 mm 3,6 km/h (1 Bft) O-NO 70 ° 0 min 0,000 mm 0,0 UV-I 40 W/m² 1,7 °C 2,3 °C 4,8 km/h (1 Bft)
31.10.2019 08:56 2,3 °C 96 % 1021,2 hPa 0,0 mm 2,6 km/h (1 Bft) O-NO 70 ° 0 min 0,000 mm 0,0 UV-I 40 W/m² 1,7 °C 2,3 °C 4,8 km/h (1 Bft)
31.10.2019 08:57 2,3 °C 96 % 1021,2 hPa 0,0 mm 1,7 km/h (1 Bft) O-NO 70 ° 0 min 0,000 mm 0,0 UV-I 42 W/m² 1,7 °C 2,3 °C 3,2 km/h (1 Bft)
31.10.2019 08:58 2,3 °C 96 % 1021,2 hPa 0,0 mm 2,9 km/h (1 Bft) O 86 ° 0 min 0,000 mm 0,0 UV-I 46 W/m² 1,7 °C 2,3 °C 4,8 km/h (1 Bft)
31.10.2019 08:59 2,3 °C 96 % 1021,1 hPa 0,0 mm 3,6 km/h (1 Bft) O-NO 69 ° 0 min 0,000 mm 0,0 UV-I 47 W/m² 1,7 °C 2,3 °C 6,4 km/h (2 Bft)
31.10.2019 09:00 2,3 °C 96 % 1021,1 hPa 0,0 mm 3,3 km/h (1 Bft) O-NO 69 ° 0 min 0,000 mm 0,0 UV-I 49 W/m² 1,7 °C 2,3 °C 4,8 km/h (1 Bft)
31.10.2019 09:01 2,3 °C 96 % 1021,1 hPa 0,0 mm 3,0 km/h (1 Bft) O-NO 69 ° 0 min 0,000 mm 0,0 UV-I 46 W/m² 1,7 °C 2,3 °C 4,8 km/h (1 Bft)
31.10.2019 09:02 2,3 °C 96 % 1021,1 hPa 0,0 mm 3,0 km/h (1 Bft) O-NO 69 ° 0 min 0,000 mm 0,0 UV-I 47 W/m² 1,7 °C 2,3 °C 4,8 km/h (1 Bft)
31.10.2019 09:03 2,3 °C 96 % 1021,1 hPa 0,0 mm 1,5 km/h (1 Bft) O-NO 69 ° 0 min 0,000 mm 0,0 UV-I 49 W/m² 1,7 °C 2,3 °C 3,2 km/h (1 Bft)
31.10.2019 09:04 2,3 °C 96 % 1021,1 hPa 0,0 mm 0,9 km/h (0 Bft) O-NO 69 ° 0 min 0,000 mm 0,0 UV-I 53 W/m² 1,7 °C 2,3 °C 3,2 km/h (1 Bft)
31.10.2019 09:05 2,3 °C 96 % 1021,1 hPa 0,0 mm 2,7 km/h (1 Bft) NO 47 ° 0 min 0,000 mm 0,0 UV-I 56 W/m² 1,7 °C 2,3 °C 4,8 km/h (1 Bft)
31.10.2019 09:06 2,3 °C 96 % 1021,1 hPa 0,0 mm 5,2 km/h (1 Bft) O-NO 71 ° 0 min 0,000 mm 0,0 UV-I 60 W/m² 1,7 °C 0,9 °C 6,4 km/h (2 Bft)
31.10.2019 09:07 2,3 °C 96 % 1021,1 hPa 0,0 mm 4,2 km/h (1 Bft) O-NO 71 ° 0 min 0,000 mm 0,0 UV-I 63 W/m² 1,7 °C 2,3 °C 4,8 km/h (1 Bft)
31.10.2019 09:08 2,4 °C 96 % 1021,2 hPa 0,0 mm 4,2 km/h (1 Bft) O-NO 75 ° 0 min 0,000 mm 0,0 UV-I 63 W/m² 1,8 °C 2,4 °C 8,0 km/h (2 Bft)
31.10.2019 09:09 2,4 °C 96 % 1021,2 hPa 0,0 mm 3,2 km/h (1 Bft) O-NO 76 ° 0 min 0,000 mm 0,0 UV-I 62 W/m² 1,8 °C 2,4 °C 4,8 km/h (1 Bft)
31.10.2019 09:10 2,4 °C 96 % 1021,2 hPa 0,0 mm 4,0 km/h (1 Bft) O-NO 76 ° 0 min 0,000 mm 0,0 UV-I 60 W/m² 1,8 °C 2,4 °C 4,8 km/h (1 Bft)
31.10.2019 09:11 2,4 °C 96 % 1021,2 hPa 0,0 mm 4,0 km/h (1 Bft) O-NO 76 ° 0 min 0,000 mm 0,0 UV-I 58 W/m² 1,8 °C 2,4 °C 4,8 km/h (1 Bft)
31.10.2019 09:12 2,4 °C 96 % 1021,2 hPa 0,0 mm 3,6 km/h (1 Bft) O-NO 76 ° 0 min 0,000 mm 0,0 UV-I 58 W/m² 1,8 °C 2,4 °C 4,8 km/h (1 Bft)
31.10.2019 09:13 2,4 °C 96 % 1021,2 hPa 0,0 mm 2,7 km/h (1 Bft) O-NO 76 ° 0 min 0,000 mm 0,0 UV-I 58 W/m² 1,8 °C 2,4 °C 4,8 km/h (1 Bft)
31.10.2019 09:14 2,4 °C 96 % 1021,1 hPa 0,0 mm 3,3 km/h (1 Bft) O-NO 76 ° 0 min 0,000 mm 0,5 UV-I 60 W/m² 1,8 °C 2,4 °C 4,8 km/h (1 Bft)
31.10.2019 09:15 2,4 °C 96 % 1021,2 hPa 0,0 mm 3,7 km/h (1 Bft) O-NO 76 ° 0 min 0,000 mm 0,5 UV-I 63 W/m² 1,8 °C 2,4 °C 6,4 km/h (2 Bft)
31.10.2019 09:16 2,5 °C 96 % 1021,1 hPa 0,0 mm 3,8 km/h (1 Bft) O-NO 76 ° 0 min 0,000 mm 0,5 UV-I 65 W/m² 1,9 °C 2,5 °C 4,8 km/h (1 Bft)
31.10.2019 09:17 2,4 °C 96 % 1021,1 hPa 0,0 mm 3,1 km/h (1 Bft) O-NO 76 ° 0 min 0,000 mm 0,5 UV-I 67 W/m² 1,8 °C 2,4 °C 4,8 km/h (1 Bft)
31.10.2019 09:18 2,5 °C 96 % 1021,0 hPa 0,0 mm 3,2 km/h (1 Bft) O-NO 76 ° 0 min 0,000 mm 0,5 UV-I 72 W/m² 1,9 °C 2,5 °C 4,8 km/h (1 Bft)
31.10.2019 09:19 2,4 °C 96 % 1021,0 hPa 0,0 mm 6,1 km/h (2 Bft) O-NO 64 ° 0 min 0,000 mm 0,5 UV-I 79 W/m² 1,8 °C 0,7 °C 8,0 km/h (2 Bft)
31.10.2019 09:20 2,5 °C 96 % 1021,0 hPa 0,0 mm 4,4 km/h (1 Bft) O-NO 64 ° 0 min 0,000 mm 0,6 UV-I 93 W/m² 1,9 °C 2,5 °C 6,4 km/h (2 Bft)
31.10.2019 09:21 2,6 °C 96 % 1021,0 hPa 0,0 mm 6,2 km/h (2 Bft) O-NO 66 ° 0 min 0,000 mm 0,6 UV-I 109 W/m² 2,0 °C 0,9 °C 8,0 km/h (2 Bft)
31.10.2019 09:22 2,6 °C 96 % 1021,0 hPa 0,0 mm 4,2 km/h (1 Bft) O-NO 66 ° 0 min 0,000 mm 0,6 UV-I 118 W/m² 2,0 °C 2,6 °C 6,4 km/h (2 Bft)
31.10.2019 09:23 2,6 °C 96 % 1021,0 hPa 0,0 mm 4,9 km/h (1 Bft) O-NO 66 ° 0 min 0,000 mm 0,6 UV-I 121 W/m² 2,0 °C 1,4 °C 8,0 km/h (2 Bft)
31.10.2019 09:24 2,6 °C 96 % 1021,0 hPa 0,0 mm 4,9 km/h (1 Bft) O-NO 66 ° 0 min 0,000 mm 0,7 UV-I 128 W/m² 2,0 °C 1,4 °C 6,4 km/h (2 Bft)
31.10.2019 09:25 2,6 °C 96 % 1021,0 hPa 0,0 mm 4,5 km/h (1 Bft) O-NO 66 ° 0 min 0,000 mm 0,7 UV-I 135 W/m² 2,0 °C 2,6 °C 6,4 km/h (2 Bft)
31.10.2019 09:26 2,6 °C 96 % 1021,0 hPa 0,0 mm 3,3 km/h (1 Bft) O-NO 66 ° 0 min 0,000 mm 0,7 UV-I 141 W/m² 2,0 °C 2,6 °C 4,8 km/h (1 Bft)
31.10.2019 09:27 2,6 °C 96 % 1021,0 hPa 0,0 mm 3,7 km/h (1 Bft) O-NO 66 ° 0 min 0,000 mm 0,7 UV-I 146 W/m² 2,0 °C 2,6 °C 4,8 km/h (1 Bft)
31.10.2019 09:28 2,7 °C 96 % 1020,9 hPa 0,0 mm 5,6 km/h (1 Bft) O-NO 57 ° 0 min 0,000 mm 0,7 UV-I 153 W/m² 2,1 °C 1,2 °C 6,4 km/h (2 Bft)
31.10.2019 09:29 2,7 °C 96 % 1021,0 hPa 0,0 mm 5,1 km/h (1 Bft) O-NO 78 ° 0 min 0,000 mm 0,7 UV-I 153 W/m² 2,1 °C 1,4 °C 8,0 km/h (2 Bft)
31.10.2019 09:30 2,8 °C 96 % 1021,0 hPa 0,0 mm 5,0 km/h (1 Bft) O-NO 60 ° 0 min 0,000 mm 0,7 UV-I 130 W/m² 2,2 °C 1,6 °C 6,4 km/h (2 Bft)
31.10.2019 09:31 2,8 °C 96 % 1021,0 hPa 0,0 mm 6,6 km/h (2 Bft) O-NO 75 ° 0 min 0,000 mm 0,7 UV-I 123 W/m² 2,2 °C 1,0 °C 8,0 km/h (2 Bft)
31.10.2019 09:32 2,8 °C 96 % 1021,0 hPa 0,0 mm 4,6 km/h (1 Bft) O-NO 74 ° 0 min 0,000 mm 0,7 UV-I 109 W/m² 2,2 °C 1,8 °C 6,4 km/h (2 Bft)
31.10.2019 09:33 2,8 °C 96 % 1021,0 hPa 0,0 mm 5,2 km/h (1 Bft) O-NO 57 ° 0 min 0,000 mm 0,6 UV-I 98 W/m² 2,2 °C 1,5 °C 6,4 km/h (2 Bft)
31.10.2019 09:34 2,8 °C 96 % 1021,0 hPa 0,0 mm 5,6 km/h (1 Bft) O-NO 57 ° 0 min 0,000 mm 0,6 UV-I 98 W/m² 2,2 °C 1,3 °C 8,0 km/h (2 Bft)
31.10.2019 09:35 2,8 °C 96 % 1021,0 hPa 0,0 mm 3,4 km/h (1 Bft) O-NO 57 ° 0 min 0,000 mm 0,6 UV-I 97 W/m² 2,2 °C 2,8 °C 4,8 km/h (1 Bft)
31.10.2019 09:36 2,8 °C 96 % 1021,0 hPa 0,0 mm 5,4 km/h (1 Bft) O-NO 57 ° 0 min 0,000 mm 0,6 UV-I 100 W/m² 2,2 °C 1,4 °C 8,0 km/h (2 Bft)
31.10.2019 09:37 2,8 °C 96 % 1021,0 hPa 0,0 mm 4,7 km/h (1 Bft) NO 34 ° 0 min 0,000 mm 0,6 UV-I 100 W/m² 2,2 °C 1,7 °C 6,4 km/h (2 Bft)
31.10.2019 09:38 2,8 °C 96 % 1021,0 hPa 0,0 mm 4,0 km/h (1 Bft) NO 55 ° 0 min 0,000 mm 0,6 UV-I 98 W/m² 2,2 °C 2,8 °C 4,8 km/h (1 Bft)
31.10.2019 09:39 2,8 °C 96 % 1021,0 hPa 0,0 mm 2,8 km/h (1 Bft) NO 55 ° 0 min 0,000 mm 0,6 UV-I 97 W/m² 2,2 °C 2,8 °C 4,8 km/h (1 Bft)
31.10.2019 09:40 2,8 °C 96 % 1021,0 hPa 0,0 mm 4,1 km/h (1 Bft) NO 55 ° 0 min 0,000 mm 0,6 UV-I 104 W/m² 2,2 °C 2,8 °C 4,8 km/h (1 Bft)
31.10.2019 09:41 2,8 °C 96 % 1021,1 hPa 0,0 mm 3,8 km/h (1 Bft) NO 55 ° 0 min 0,000 mm 0,6 UV-I 104 W/m² 2,2 °C 2,8 °C 4,8 km/h (1 Bft)
31.10.2019 09:42 2,9 °C 96 % 1021,0 hPa 0,0 mm 1,1 km/h (1 Bft) NO 55 ° 0 min 0,000 mm 0,6 UV-I 93 W/m² 2,3 °C 2,9 °C 3,2 km/h (1 Bft)
31.10.2019 09:43 3,0 °C 96 % 1021,0 hPa 0,0 mm 1,3 km/h (1 Bft) NO 55 ° 0 min 0,000 mm 0,6 UV-I 93 W/m² 2,4 °C 3,0 °C 4,8 km/h (1 Bft)
31.10.2019 09:44 3,0 °C 96 % 1021,0 hPa 0,0 mm 3,9 km/h (1 Bft) NO 55 ° 0 min 0,000 mm 0,6 UV-I 88 W/m² 2,4 °C 3,0 °C 6,4 km/h (2 Bft)
31.10.2019 09:45 3,0 °C 96 % 1021,0 hPa 0,0 mm 2,8 km/h (1 Bft) NO 55 ° 0 min 0,000 mm 0,6 UV-I 83 W/m² 2,4 °C 3,0 °C 6,4 km/h (2 Bft)
31.10.2019 09:46 3,0 °C 96 % 1021,0 hPa 0,0 mm 1,4 km/h (1 Bft) NO 55 ° 0 min 0,000 mm 0,6 UV-I 86 W/m² 2,4 °C 3,0 °C 3,2 km/h (1 Bft)
31.10.2019 09:47 3,1 °C 96 % 1020,9 hPa 0,0 mm 0,0 km/h (0 Bft) NO 55 ° 0 min 0,000 mm 0,7 UV-I 91 W/m² 2,5 °C 3,1 °C 0,0 km/h (0 Bft)
31.10.2019 09:48 3,0 °C 96 % 1020,9 hPa 0,0 mm 4,8 km/h (1 Bft) NO 41 ° 0 min 0,000 mm 0,7 UV-I 97 W/m² 2,4 °C 1,9 °C 6,4 km/h (2 Bft)
31.10.2019 09:49 2,9 °C 96 % 1020,9 hPa 0,0 mm 6,0 km/h (2 Bft) NO 44 ° 0 min 0,000 mm 0,7 UV-I 98 W/m² 2,3 °C 1,3 °C 8,0 km/h (2 Bft)
31.10.2019 09:50 3,0 °C 96 % 1020,9 hPa 0,0 mm 3,8 km/h (1 Bft) NO 44 ° 0 min 0,000 mm 0,7 UV-I 102 W/m² 2,4 °C 3,0 °C 4,8 km/h (1 Bft)
31.10.2019 09:51 2,9 °C 96 % 1020,9 hPa 0,0 mm 2,5 km/h (1 Bft) NO 44 ° 0 min 0,000 mm 0,8 UV-I 104 W/m² 2,3 °C 2,9 °C 3,2 km/h (1 Bft)
31.10.2019 09:52 3,0 °C 96 % 1020,8 hPa 0,0 mm 1,4 km/h (1 Bft) NO 44 ° 0 min 0,000 mm 0,8 UV-I 102 W/m² 2,4 °C 3,0 °C 3,2 km/h (1 Bft)
31.10.2019 09:53 3,0 °C 96 % 1020,9 hPa 0,0 mm 4,3 km/h (1 Bft) NO 44 ° 0 min 0,000 mm 0,7 UV-I 98 W/m² 2,4 °C 3,0 °C 6,4 km/h (2 Bft)
31.10.2019 09:54 3,0 °C 96 % 1020,9 hPa 0,0 mm 3,6 km/h (1 Bft) NO 44 ° 0 min 0,000 mm 0,7 UV-I 95 W/m² 2,4 °C 3,0 °C 4,8 km/h (1 Bft)
31.10.2019 09:55 3,1 °C 96 % 1020,9 hPa 0,0 mm 0,9 km/h (0 Bft) NO 44 ° 0 min 0,000 mm 0,7 UV-I 95 W/m² 2,5 °C 3,1 °C 3,2 km/h (1 Bft)
31.10.2019 09:56 3,1 °C 96 % 1020,9 hPa 0,0 mm 4,0 km/h (1 Bft) NO 44 ° 0 min 0,000 mm 0,7 UV-I 95 W/m² 2,5 °C 3,1 °C 4,8 km/h (1 Bft)
31.10.2019 09:57 3,1 °C 96 % 1020,9 hPa 0,0 mm 3,4 km/h (1 Bft) NO 44 ° 0 min 0,000 mm 0,7 UV-I 95 W/m² 2,5 °C 3,1 °C 4,8 km/h (1 Bft)
31.10.2019 09:58 3,1 °C 96 % 1020,9 hPa 0,0 mm 3,1 km/h (1 Bft) NO 44 ° 0 min 0,000 mm 0,7 UV-I 93 W/m² 2,5 °C 3,1 °C 4,8 km/h (1 Bft)
31.10.2019 09:59 3,1 °C 96 % 1021,0 hPa 0,0 mm 4,6 km/h (1 Bft) NO 56 ° 0 min 0,000 mm 0,7 UV-I 91 W/m² 2,5 °C 2,1 °C 6,4 km/h (2 Bft)
31.10.2019 10:00 3,2 °C 96 % 1021,0 hPa 0,0 mm 3,8 km/h (1 Bft) NO 56 ° 0 min 0,025 mm 0,7 UV-I 88 W/m² 2,6 °C 3,2 °C 4,8 km/h (1 Bft)
31.10.2019 10:01 3,2 °C 96 % 1021,0 hPa 0,0 mm 2,9 km/h (1 Bft) O-NO 78 ° 0 min 0,000 mm 0,7 UV-I 84 W/m² 2,6 °C 3,2 °C 4,8 km/h (1 Bft)
31.10.2019 10:02 3,2 °C 96 % 1021,0 hPa 0,0 mm 3,4 km/h (1 Bft) O-NO 78 ° 0 min 0,000 mm 0,7 UV-I 81 W/m² 2,6 °C 3,2 °C 4,8 km/h (1 Bft)
31.10.2019 10:03 3,2 °C 96 % 1021,0 hPa 0,0 mm 3,2 km/h (1 Bft) O-NO 78 ° 0 min 0,000 mm 0,7 UV-I 77 W/m² 2,6 °C 3,2 °C 4,8 km/h (1 Bft)
31.10.2019 10:04 3,2 °C 96 % 1021,0 hPa 0,0 mm 3,6 km/h (1 Bft) NO 47 ° 0 min 0,000 mm 0,7 UV-I 79 W/m² 2,6 °C 3,2 °C 4,8 km/h (1 Bft)
31.10.2019 10:05 3,2 °C 96 % 1021,0 hPa 0,0 mm 6,5 km/h (2 Bft) NO 40 ° 0 min 0,000 mm 0,7 UV-I 95 W/m² 2,6 °C 1,5 °C 8,0 km/h (2 Bft)
31.10.2019 10:06 3,2 °C 96 % 1020,9 hPa 0,0 mm 5,3 km/h (1 Bft) O 82 ° 0 min 0,000 mm 0,8 UV-I 100 W/m² 2,6 °C 1,9 °C 8,0 km/h (2 Bft)
31.10.2019 10:07 3,2 °C 96 % 1021,0 hPa 0,0 mm 4,1 km/h (1 Bft) NO 51 ° 0 min 0,000 mm 0,8 UV-I 113 W/m² 2,6 °C 3,2 °C 6,4 km/h (2 Bft)
31.10.2019 10:08 3,2 °C 96 % 1021,0 hPa 0,0 mm 3,6 km/h (1 Bft) O-NO 64 ° 0 min 0,000 mm 0,8 UV-I 125 W/m² 2,6 °C 3,2 °C 4,8 km/h (1 Bft)
31.10.2019 10:09 3,2 °C 96 % 1020,9 hPa 0,0 mm 4,2 km/h (1 Bft) O-NO 64 ° 0 min 0,000 mm 0,9 UV-I 125 W/m² 2,6 °C 3,2 °C 6,4 km/h (2 Bft)
31.10.2019 10:10 3,2 °C 96 % 1021,0 hPa 0,0 mm 5,6 km/h (1 Bft) O 80 ° 0 min 0,000 mm 0,9 UV-I 128 W/m² 2,6 °C 1,8 °C 8,0 km/h (2 Bft)
31.10.2019 10:11 3,3 °C 96 % 1021,0 hPa 0,0 mm 3,9 km/h (1 Bft) O 80 ° 0 min 0,000 mm 0,9 UV-I 118 W/m² 2,7 °C 3,3 °C 4,8 km/h (1 Bft)
31.10.2019 10:12 3,3 °C 96 % 1021,0 hPa 0,0 mm 3,4 km/h (1 Bft) O 81 ° 0 min 0,000 mm 0,8 UV-I 111 W/m² 2,7 °C 3,3 °C 4,8 km/h (1 Bft)
31.10.2019 10:13 3,3 °C 96 % 1020,9 hPa 0,0 mm 3,3 km/h (1 Bft) O 81 ° 0 min 0,000 mm 0,8 UV-I 109 W/m² 2,7 °C 3,3 °C 4,8 km/h (1 Bft)
31.10.2019 10:14 3,4 °C 96 % 1020,9 hPa 0,0 mm 2,4 km/h (1 Bft) O 81 ° 0 min 0,000 mm 0,9 UV-I 111 W/m² 2,8 °C 3,4 °C 4,8 km/h (1 Bft)
31.10.2019 10:15 3,5 °C 96 % 1021,0 hPa 0,0 mm 2,5 km/h (1 Bft) O 81 ° 0 min 0,000 mm 0,9 UV-I 118 W/m² 2,9 °C 3,5 °C 4,8 km/h (1 Bft)
31.10.2019 10:16 3,5 °C 96 % 1020,9 hPa 0,0 mm 3,0 km/h (1 Bft) O 81 ° 0 min 0,000 mm 0,9 UV-I 123 W/m² 2,9 °C 3,5 °C 4,8 km/h (1 Bft)
31.10.2019 10:17 3,5 °C 96 % 1020,9 hPa 0,0 mm 2,6 km/h (1 Bft) O 81 ° 0 min 0,000 mm 1,0 UV-I 146 W/m² 2,9 °C 3,5 °C 4,8 km/h (1 Bft)
31.10.2019 10:18 3,5 °C 96 % 1020,9 hPa 0,0 mm 4,8 km/h (1 Bft) NO 39 ° 0 min 0,000 mm 1,0 UV-I 139 W/m² 2,9 °C 2,5 °C 6,4 km/h (2 Bft)
31.10.2019 10:19 3,6 °C 96 % 1020,9 hPa 0,0 mm 5,4 km/h (1 Bft) NO 42 ° 0 min 0,000 mm 1,0 UV-I 137 W/m² 3,0 °C 2,3 °C 8,0 km/h (2 Bft)
31.10.2019 10:20 3,6 °C 96 % 1020,8 hPa 0,0 mm 7,5 km/h (2 Bft) NO 40 ° 0 min 0,000 mm 1,0 UV-I 130 W/m² 3,0 °C 1,6 °C 12,9 km/h (3 Bft)
31.10.2019 10:21 3,6 °C 96 % 1020,8 hPa 0,0 mm 5,4 km/h (1 Bft) O-NO 65 ° 0 min 0,000 mm 1,0 UV-I 120 W/m² 3,0 °C 2,3 °C 8,0 km/h (2 Bft)
31.10.2019 10:22 3,6 °C 96 % 1020,9 hPa 0,0 mm 4,1 km/h (1 Bft) O-NO 78 ° 0 min 0,000 mm 1,0 UV-I 109 W/m² 3,0 °C 3,6 °C 6,4 km/h (2 Bft)
31.10.2019 10:23 3,6 °C 96 % 1020,9 hPa 0,0 mm 5,3 km/h (1 Bft) O 84 ° 0 min 0,000 mm 0,9 UV-I 93 W/m² 3,0 °C 2,4 °C 9,7 km/h (2 Bft)
31.10.2019 10:24 3,6 °C 96 % 1020,9 hPa 0,0 mm 5,4 km/h (1 Bft) O-NO 66 ° 0 min 0,000 mm 0,8 UV-I 90 W/m² 3,0 °C 2,3 °C 9,7 km/h (2 Bft)
31.10.2019 10:25 3,6 °C 96 % 1020,9 hPa 0,0 mm 7,3 km/h (2 Bft) NO 54 ° 0 min 0,000 mm 0,8 UV-I 86 W/m² 3,0 °C 1,7 °C 9,7 km/h (2 Bft)
31.10.2019 10:26 3,6 °C 96 % 1020,9 hPa 0,0 mm 4,8 km/h (1 Bft) O 92 ° 0 min 0,000 mm 0,7 UV-I 81 W/m² 3,0 °C 2,6 °C 6,4 km/h (2 Bft)
31.10.2019 10:27 3,6 °C 96 % 1020,9 hPa 0,0 mm 4,8 km/h (1 Bft) NO 44 ° 0 min 0,000 mm 0,7 UV-I 83 W/m² 3,0 °C 2,6 °C 8,0 km/h (2 Bft)
31.10.2019 10:28 3,6 °C 96 % 1020,9 hPa 0,0 mm 5,4 km/h (1 Bft) NO 44 ° 0 min 0,000 mm 0,8 UV-I 95 W/m² 3,0 °C 2,3 °C 8,0 km/h (2 Bft)
31.10.2019 10:29 3,6 °C 96 % 1020,9 hPa 0,0 mm 4,0 km/h (1 Bft) NO 44 ° 0 min 0,000 mm 0,8 UV-I 97 W/m² 3,0 °C 3,6 °C 6,4 km/h (2 Bft)
31.10.2019 10:30 3,6 °C 96 % 1020,9 hPa 0,0 mm 0,8 km/h (0 Bft) NO 44 ° 0 min 0,000 mm 0,9 UV-I 104 W/m² 3,0 °C 3,6 °C 1,6 km/h (1 Bft)
31.10.2019 10:31 3,6 °C 96 % 1020,9 hPa 0,0 mm 1,4 km/h (1 Bft) NO 44 ° 0 min 0,000 mm 0,9 UV-I 104 W/m² 3,0 °C 3,6 °C 3,2 km/h (1 Bft)
31.10.2019 10:32 3,6 °C 96 % 1020,9 hPa 0,0 mm 2,7 km/h (1 Bft) NO 44 ° 0 min 0,000 mm 1,0 UV-I 116 W/m² 3,0 °C 3,6 °C 4,8 km/h (1 Bft)
31.10.2019 10:33 3,7 °C 96 % 1020,9 hPa 0,0 mm 0,6 km/h (0 Bft) NO 44 ° 0 min 0,000 mm 1,1 UV-I 121 W/m² 3,1 °C 3,7 °C 3,2 km/h (1 Bft)
31.10.2019 10:34 3,7 °C 96 % 1020,8 hPa 0,0 mm 0,3 km/h (0 Bft) NO 44 ° 0 min 0,000 mm 1,1 UV-I 134 W/m² 3,1 °C 3,7 °C 1,6 km/h (1 Bft)
31.10.2019 10:35 3,7 °C 96 % 1020,8 hPa 0,0 mm 0,0 km/h (0 Bft) NO 44 ° 0 min 0,000 mm 1,2 UV-I 141 W/m² 3,1 °C 3,7 °C 0,0 km/h (0 Bft)
31.10.2019 10:36 3,7 °C 96 % 1020,8 hPa 0,0 mm 0,0 km/h (0 Bft) NO 44 ° 0 min 0,000 mm 1,2 UV-I 139 W/m² 3,1 °C 3,7 °C 0,0 km/h (0 Bft)
31.10.2019 10:37 3,7 °C 96 % 1020,8 hPa 0,0 mm 0,5 km/h (0 Bft) NO 44 ° 0 min 0,000 mm 1,2 UV-I 137 W/m² 3,1 °C 3,7 °C 1,6 km/h (1 Bft)
31.10.2019 10:38 3,8 °C 96 % 1020,8 hPa 0,0 mm 3,9 km/h (1 Bft) O-SO 118 ° 0 min 0,000 mm 1,2 UV-I 141 W/m² 3,2 °C 3,8 °C 4,8 km/h (1 Bft)
31.10.2019 10:39 3,9 °C 96 % 1020,8 hPa 0,0 mm 2,5 km/h (1 Bft) O-SO 118 ° 0 min 0,000 mm 1,2 UV-I 141 W/m² 3,3 °C 3,9 °C 3,2 km/h (1 Bft)
31.10.2019 10:40 3,9 °C 96 % 1020,8 hPa 0,0 mm 3,2 km/h (1 Bft) O 82 ° 0 min 0,000 mm 1,2 UV-I 149 W/m² 3,3 °C 3,9 °C 4,8 km/h (1 Bft)
31.10.2019 10:41 3,9 °C 96 % 1020,8 hPa 0,0 mm 5,8 km/h (2 Bft) O 96 ° 0 min 0,000 mm 1,2 UV-I 153 W/m² 3,3 °C 2,5 °C 8,0 km/h (2 Bft)
31.10.2019 10:42 3,9 °C 96 % 1020,9 hPa 0,0 mm 2,8 km/h (1 Bft) O-NO 57 ° 0 min 0,000 mm 1,2 UV-I 153 W/m² 3,3 °C 3,9 °C 4,8 km/h (1 Bft)
31.10.2019 10:43 3,9 °C 96 % 1020,9 hPa 0,0 mm 4,5 km/h (1 Bft) O 84 ° 0 min 0,000 mm 1,2 UV-I 151 W/m² 3,3 °C 3,9 °C 4,8 km/h (1 Bft)
31.10.2019 10:44 4,0 °C 96 % 1020,9 hPa 0,0 mm 4,2 km/h (1 Bft) O 79 ° 0 min 0,000 mm 1,2 UV-I 149 W/m² 3,4 °C 4,0 °C 6,4 km/h (2 Bft)
31.10.2019 10:45 3,9 °C 96 % 1020,9 hPa 0,0 mm 4,9 km/h (1 Bft) NO 53 ° 0 min 0,000 mm 1,2 UV-I 142 W/m² 3,3 °C 2,9 °C 6,4 km/h (2 Bft)
31.10.2019 10:46 3,9 °C 96 % 1020,9 hPa 0,0 mm 2,6 km/h (1 Bft) NO 53 ° 0 min 0,000 mm 1,1 UV-I 142 W/m² 3,3 °C 3,9 °C 4,8 km/h (1 Bft)
31.10.2019 10:47 3,9 °C 96 % 1020,9 hPa 0,0 mm 4,8 km/h (1 Bft) O-SO 119 ° 0 min 0,000 mm 1,2 UV-I 142 W/m² 3,3 °C 2,9 °C 6,4 km/h (2 Bft)
31.10.2019 10:48 3,9 °C 96 % 1020,9 hPa 0,0 mm 3,9 km/h (1 Bft) O-NO 59 ° 0 min 0,000 mm 1,2 UV-I 142 W/m² 3,3 °C 3,9 °C 4,8 km/h (1 Bft)
31.10.2019 10:49 3,9 °C 96 % 1020,9 hPa 0,0 mm 3,9 km/h (1 Bft) O-NO 59 ° 0 min 0,000 mm 1,1 UV-I 144 W/m² 3,3 °C 3,9 °C 4,8 km/h (1 Bft)
31.10.2019 10:50 3,9 °C 96 % 1020,9 hPa 0,0 mm 4,3 km/h (1 Bft) O-NO 59 ° 0 min 0,000 mm 1,1 UV-I 141 W/m² 3,3 °C 3,9 °C 6,4 km/h (2 Bft)
31.10.2019 10:51 3,9 °C 96 % 1020,9 hPa 0,0 mm 5,0 km/h (1 Bft) O-NO 59 ° 0 min 0,000 mm 1,1 UV-I 130 W/m² 3,3 °C 2,8 °C 6,4 km/h (2 Bft)
31.10.2019 10:52 3,9 °C 96 % 1020,9 hPa 0,0 mm 3,0 km/h (1 Bft) O-NO 59 ° 0 min 0,000 mm 1,0 UV-I 111 W/m² 3,3 °C 3,9 °C 4,8 km/h (1 Bft)
31.10.2019 10:53 3,9 °C 96 % 1020,9 hPa 0,0 mm 3,2 km/h (1 Bft) O-NO 59 ° 0 min 0,000 mm 1,0 UV-I 102 W/m² 3,3 °C 3,9 °C 6,4 km/h (2 Bft)
31.10.2019 10:54 3,9 °C 96 % 1020,9 hPa 0,0 mm 2,2 km/h (1 Bft) O 81 ° 0 min 0,000 mm 1,0 UV-I 100 W/m² 3,3 °C 3,9 °C 4,8 km/h (1 Bft)
31.10.2019 10:55 3,9 °C 96 % 1020,9 hPa 0,0 mm 4,6 km/h (1 Bft) O-NO 78 ° 0 min 0,000 mm 1,0 UV-I 98 W/m² 3,3 °C 3,0 °C 6,4 km/h (2 Bft)
31.10.2019 10:56 3,9 °C 96 % 1020,9 hPa 0,0 mm 3,2 km/h (1 Bft) O-NO 78 ° 0 min 0,000 mm 0,9 UV-I 95 W/m² 3,3 °C 3,9 °C 6,4 km/h (2 Bft)
31.10.2019 10:57 3,9 °C 96 % 1020,9 hPa 0,0 mm 5,2 km/h (1 Bft) NO 44 ° 0 min 0,000 mm 1,0 UV-I 95 W/m² 3,3 °C 2,8 °C 6,4 km/h (2 Bft)
31.10.2019 10:58 3,9 °C 96 % 1020,9 hPa 0,0 mm 5,0 km/h (1 Bft) O-NO 59 ° 0 min 0,000 mm 1,0 UV-I 95 W/m² 3,3 °C 2,8 °C 8,0 km/h (2 Bft)
31.10.2019 10:59 3,9 °C 96 % 1020,9 hPa 0,0 mm 6,0 km/h (2 Bft) O 84 ° 0 min 0,000 mm 1,0 UV-I 97 W/m² 3,3 °C 2,5 °C 8,0 km/h (2 Bft)
31.10.2019 11:00 4,0 °C 96 % 1020,9 hPa 0,0 mm 5,4 km/h (1 Bft) NO 46 ° 0 min 0,000 mm 1,0 UV-I 102 W/m² 3,4 °C 2,8 °C 11,3 km/h (2 Bft)
31.10.2019 11:01 4,0 °C 96 % 1020,9 hPa 0,0 mm 3,7 km/h (1 Bft) O-NO 59 ° 0 min 0,051 mm 1,0 UV-I 107 W/m² 3,4 °C 4,0 °C 6,4 km/h (2 Bft)
31.10.2019 11:02 4,1 °C 96 % 1020,9 hPa 0,0 mm 2,6 km/h (1 Bft) N-NO 33 ° 0 min 0,000 mm 1,0 UV-I 107 W/m² 3,5 °C 4,1 °C 6,4 km/h (2 Bft)
31.10.2019 11:03 4,1 °C 96 % 1020,9 hPa 0,0 mm 6,3 km/h (2 Bft) N-NO 15 ° 0 min 0,000 mm 1,0 UV-I 105 W/m² 3,5 °C 2,6 °C 8,0 km/h (2 Bft)
31.10.2019 11:04 4,1 °C 96 % 1020,9 hPa 0,0 mm 4,7 km/h (1 Bft) NO 52 ° 0 min 0,000 mm 0,9 UV-I 105 W/m² 3,5 °C 3,2 °C 6,4 km/h (2 Bft)
31.10.2019 11:05 4,1 °C 96 % 1020,9 hPa 0,0 mm 5,0 km/h (1 Bft) N-NO 25 ° 0 min 0,000 mm 0,9 UV-I 102 W/m² 3,5 °C 3,1 °C 8,0 km/h (2 Bft)
31.10.2019 11:06 4,1 °C 96 % 1020,9 hPa 0,0 mm 2,6 km/h (1 Bft) N-NW 336 ° 0 min 0,000 mm 0,9 UV-I 104 W/m² 3,5 °C 4,1 °C 4,8 km/h (1 Bft)
31.10.2019 11:07 4,1 °C 96 % 1020,9 hPa 0,0 mm 3,2 km/h (1 Bft) N-NO 26 ° 0 min 0,000 mm 0,9 UV-I 105 W/m² 3,5 °C 4,1 °C 6,4 km/h (2 Bft)
31.10.2019 11:08 4,1 °C 96 % 1020,9 hPa 0,0 mm 4,7 km/h (1 Bft) NO 51 ° 0 min 0,000 mm 0,9 UV-I 105 W/m² 3,5 °C 3,2 °C 6,4 km/h (2 Bft)
31.10.2019 11:09 4,2 °C 96 % 1020,9 hPa 0,0 mm 7,6 km/h (2 Bft) NO 48 ° 0 min 0,000 mm 0,9 UV-I 109 W/m² 3,6 °C 2,3 °C 9,7 km/h (2 Bft)
31.10.2019 11:10 4,2 °C 96 % 1020,9 hPa 0,0 mm 5,7 km/h (1 Bft) O 90 ° 0 min 0,000 mm 0,9 UV-I 102 W/m² 3,6 °C 2,9 °C 9,7 km/h (2 Bft)
31.10.2019 11:11 4,1 °C 96 % 1020,9 hPa 0,0 mm 6,2 km/h (2 Bft) NO 55 ° 0 min 0,000 mm 0,8 UV-I 100 W/m² 3,5 °C 2,6 °C 9,7 km/h (2 Bft)
31.10.2019 11:12 4,1 °C 96 % 1021,0 hPa 0,0 mm 6,0 km/h (2 Bft) O-NO 69 ° 0 min 0,000 mm 0,8 UV-I 95 W/m² 3,5 °C 2,7 °C 9,7 km/h (2 Bft)
31.10.2019 11:13 4,1 °C 96 % 1021,0 hPa 0,0 mm 3,1 km/h (1 Bft) O 80 ° 0 min 0,000 mm 0,8 UV-I 95 W/m² 3,5 °C 4,1 °C 6,4 km/h (2 Bft)
31.10.2019 11:14 4,1 °C 96 % 1020,9 hPa 0,0 mm 4,7 km/h (1 Bft) N-NO 21 ° 0 min 0,000 mm 0,8 UV-I 97 W/m² 3,5 °C 3,2 °C 6,4 km/h (2 Bft)
31.10.2019 11:15 4,1 °C 96 % 1021,0 hPa 0,0 mm 4,1 km/h (1 Bft) O-NO 59 ° 0 min 0,000 mm 0,8 UV-I 97 W/m² 3,5 °C 4,1 °C 6,4 km/h (2 Bft)
31.10.2019 11:16 4,1 °C 96 % 1020,9 hPa 0,0 mm 3,6 km/h (1 Bft) O-NO 71 ° 0 min 0,000 mm 0,8 UV-I 93 W/m² 3,5 °C 4,1 °C 6,4 km/h (2 Bft)
31.10.2019 11:17 4,1 °C 96 % 1020,9 hPa 0,0 mm 5,3 km/h (1 Bft) O 84 ° 0 min 0,000 mm 0,8 UV-I 90 W/m² 3,5 °C 2,9 °C 8,0 km/h (2 Bft)
31.10.2019 11:18 4,1 °C 96 % 1020,9 hPa 0,0 mm 5,7 km/h (1 Bft) O-NO 78 ° 0 min 0,000 mm 0,7 UV-I 90 W/m² 3,5 °C 2,8 °C 6,4 km/h (2 Bft)
31.10.2019 11:19 4,1 °C 96 % 1021,0 hPa 0,0 mm 4,8 km/h (1 Bft) O-NO 74 ° 0 min 0,000 mm 0,8 UV-I 91 W/m² 3,5 °C 3,1 °C 6,4 km/h (2 Bft)
31.10.2019 11:20 4,1 °C 96 % 1020,9 hPa 0,0 mm 4,9 km/h (1 Bft) O-NO 72 ° 0 min 0,000 mm 0,8 UV-I 90 W/m² 3,5 °C 3,1 °C 6,4 km/h (2 Bft)
31.10.2019 11:21 4,1 °C 96 % 1020,9 hPa 0,0 mm 4,2 km/h (1 Bft) O-NO 67 ° 0 min 0,000 mm 0,8 UV-I 90 W/m² 3,5 °C 4,1 °C 8,0 km/h (2 Bft)
31.10.2019 11:22 4,0 °C 96 % 1020,9 hPa 0,0 mm 6,2 km/h (2 Bft) O-NO 59 ° 0 min 0,000 mm 0,7 UV-I 88 W/m² 3,4 °C 2,5 °C 9,7 km/h (2 Bft)
31.10.2019 11:23 3,9 °C 96 % 1020,9 hPa 0,0 mm 4,4 km/h (1 Bft) NO 40 ° 0 min 0,000 mm 0,7 UV-I 88 W/m² 3,3 °C 3,9 °C 9,7 km/h (2 Bft)
31.10.2019 11:24 3,9 °C 96 % 1020,9 hPa 0,0 mm 7,6 km/h (2 Bft) N-NO 30 ° 0 min 0,000 mm 0,7 UV-I 88 W/m² 3,3 °C 2,0 °C 12,9 km/h (3 Bft)
31.10.2019 11:25 3,9 °C 96 % 1020,9 hPa 0,0 mm 6,1 km/h (2 Bft) O-NO 60 ° 0 min 0,000 mm 0,7 UV-I 88 W/m² 3,3 °C 2,4 °C 9,7 km/h (2 Bft)
31.10.2019 11:26 3,9 °C 96 % 1021,0 hPa 0,0 mm 5,2 km/h (1 Bft) O-NO 61 ° 0 min 0,000 mm 0,7 UV-I 86 W/m² 3,3 °C 2,8 °C 8,0 km/h (2 Bft)
31.10.2019 11:27 3,9 °C 96 % 1020,9 hPa 0,0 mm 4,5 km/h (1 Bft) O 80 ° 0 min 0,000 mm 0,7 UV-I 83 W/m² 3,3 °C 3,9 °C 8,0 km/h (2 Bft)
31.10.2019 11:28 3,9 °C 96 % 1020,9 hPa 0,0 mm 7,6 km/h (2 Bft) NO 44 ° 0 min 0,000 mm 0,6 UV-I 79 W/m² 3,3 °C 2,0 °C 12,9 km/h (3 Bft)
31.10.2019 11:29 3,9 °C 96 % 1020,9 hPa 0,0 mm 6,4 km/h (2 Bft) N-NO 13 ° 0 min 0,000 mm 0,6 UV-I 77 W/m² 3,3 °C 2,3 °C 9,7 km/h (2 Bft)
31.10.2019 11:30 3,9 °C 96 % 1020,9 hPa 0,0 mm 5,9 km/h (2 Bft) NO 38 ° 0 min 0,000 mm 0,6 UV-I 77 W/m² 3,3 °C 2,5 °C 8,0 km/h (2 Bft)
31.10.2019 11:31 3,9 °C 96 % 1020,9 hPa 0,0 mm 6,6 km/h (2 Bft) NO 47 ° 0 min 0,000 mm 0,6 UV-I 77 W/m² 3,3 °C 2,3 °C 9,7 km/h (2 Bft)
31.10.2019 11:32 3,9 °C 96 % 1020,9 hPa 0,0 mm 6,6 km/h (2 Bft) NO 41 ° 0 min 0,000 mm 0,6 UV-I 77 W/m² 3,3 °C 2,3 °C 9,7 km/h (2 Bft)
31.10.2019 11:33 3,9 °C 96 % 1020,9 hPa 0,0 mm 3,2 km/h (1 Bft) NO 52 ° 0 min 0,000 mm 0,6 UV-I 83 W/m² 3,3 °C 3,9 °C 4,8 km/h (1 Bft)
31.10.2019 11:34 3,9 °C 96 % 1020,8 hPa 0,0 mm 4,7 km/h (1 Bft) NO 42 ° 0 min 0,000 mm 0,6 UV-I 83 W/m² 3,3 °C 3,0 °C 6,4 km/h (2 Bft)
31.10.2019 11:35 3,9 °C 96 % 1020,8 hPa 0,0 mm 3,5 km/h (1 Bft) O-NO 61 ° 0 min 0,000 mm 0,6 UV-I 83 W/m² 3,3 °C 3,9 °C 6,4 km/h (2 Bft)
31.10.2019 11:36 4,0 °C 96 % 1020,8 hPa 0,0 mm 6,9 km/h (2 Bft) NO 51 ° 0 min 0,000 mm 0,7 UV-I 83 W/m² 3,4 °C 2,3 °C 8,0 km/h (2 Bft)
31.10.2019 11:37 3,9 °C 96 % 1020,8 hPa 0,0 mm 4,0 km/h (1 Bft) NO 46 ° 0 min 0,000 mm 0,7 UV-I 86 W/m² 3,3 °C 3,9 °C 4,8 km/h (1 Bft)
31.10.2019 11:38 4,0 °C 96 % 1020,8 hPa 0,0 mm 4,2 km/h (1 Bft) O-NO 76 ° 0 min 0,000 mm 0,6 UV-I 81 W/m² 3,4 °C 4,0 °C 6,4 km/h (2 Bft)
31.10.2019 11:39 3,9 °C 96 % 1020,9 hPa 0,0 mm 6,8 km/h (2 Bft) O-NO 78 ° 0 min 0,000 mm 0,6 UV-I 74 W/m² 3,3 °C 2,2 °C 11,3 km/h (2 Bft)
31.10.2019 11:40 3,9 °C 96 % 1020,9 hPa 0,0 mm 5,9 km/h (2 Bft) O-NO 78 ° 0 min 0,000 mm 0,6 UV-I 74 W/m² 3,3 °C 2,5 °C 8,0 km/h (2 Bft)
31.10.2019 11:41 3,8 °C 96 % 1020,8 hPa 0,0 mm 4,6 km/h (1 Bft) N-NO 29 ° 0 min 0,000 mm 0,6 UV-I 76 W/m² 3,2 °C 2,9 °C 8,0 km/h (2 Bft)
31.10.2019 11:42 3,8 °C 96 % 1020,9 hPa 0,0 mm 5,1 km/h (1 Bft) NO 40 ° 0 min 0,000 mm 0,6 UV-I 77 W/m² 3,2 °C 2,7 °C 6,4 km/h (2 Bft)
31.10.2019 11:43 3,8 °C 96 % 1020,9 hPa 0,0 mm 4,7 km/h (1 Bft) NO 46 ° 0 min 0,000 mm 0,6 UV-I 77 W/m² 3,2 °C 2,8 °C 6,4 km/h (2 Bft)
31.10.2019 11:44 3,8 °C 96 % 1020,8 hPa 0,0 mm 5,3 km/h (1 Bft) NO 38 ° 0 min 0,000 mm 0,6 UV-I 77 W/m² 3,2 °C 2,6 °C 8,0 km/h (2 Bft)
31.10.2019 11:45 3,8 °C 96 % 1020,8 hPa 0,0 mm 5,8 km/h (2 Bft) O-NO 62 ° 0 min 0,000 mm 0,6 UV-I 72 W/m² 3,2 °C 2,4 °C 8,0 km/h (2 Bft)
31.10.2019 11:46 3,8 °C 96 % 1020,8 hPa 0,0 mm 4,7 km/h (1 Bft) O 84 ° 0 min 0,000 mm 0,6 UV-I 69 W/m² 3,2 °C 2,8 °C 6,4 km/h (2 Bft)
31.10.2019 11:47 3,8 °C 96 % 1020,7 hPa 0,0 mm 4,4 km/h (1 Bft) O-NO 78 ° 0 min 0,000 mm 0,6 UV-I 65 W/m² 3,2 °C 3,8 °C 11,3 km/h (2 Bft)
31.10.2019 11:48 3,8 °C 96 % 1020,7 hPa 0,0 mm 4,3 km/h (1 Bft) O 101 ° 0 min 0,000 mm 0,6 UV-I 63 W/m² 3,2 °C 3,8 °C 8,0 km/h (2 Bft)
31.10.2019 11:49 3,8 °C 96 % 1020,7 hPa 0,0 mm 5,6 km/h (1 Bft) NO 36 ° 0 min 0,000 mm 0,5 UV-I 60 W/m² 3,2 °C 2,5 °C 8,0 km/h (2 Bft)
31.10.2019 11:50 3,8 °C 96 % 1020,7 hPa 0,0 mm 7,5 km/h (2 Bft) O 86 ° 0 min 0,000 mm 0,5 UV-I 56 W/m² 3,2 °C 1,9 °C 11,3 km/h (2 Bft)
31.10.2019 11:51 3,7 °C 96 % 1020,7 hPa 0,0 mm 7,2 km/h (2 Bft) O 84 ° 0 min 0,000 mm 0,0 UV-I 54 W/m² 3,1 °C 1,8 °C 12,9 km/h (3 Bft)
31.10.2019 11:52 3,7 °C 96 % 1020,7 hPa 0,0 mm 4,2 km/h (1 Bft) O 84 ° 0 min 0,000 mm 0,0 UV-I 54 W/m² 3,1 °C 3,7 °C 6,4 km/h (2 Bft)
31.10.2019 11:53 3,6 °C 96 % 1020,7 hPa 0,0 mm 3,9 km/h (1 Bft) O 80 ° 0 min 0,000 mm 0,5 UV-I 56 W/m² 3,0 °C 3,6 °C 4,8 km/h (1 Bft)
31.10.2019 11:54 3,6 °C 96 % 1020,6 hPa 0,0 mm 3,2 km/h (1 Bft) O-NO 58 ° 0 min 0,000 mm 0,5 UV-I 56 W/m² 3,0 °C 3,6 °C 4,8 km/h (1 Bft)
31.10.2019 11:55 3,6 °C 96 % 1020,6 hPa 0,0 mm 4,2 km/h (1 Bft) NO 42 ° 0 min 0,000 mm 0,5 UV-I 56 W/m² 3,0 °C 3,6 °C 6,4 km/h (2 Bft)
31.10.2019 11:56 3,6 °C 96 % 1020,6 hPa 0,0 mm 3,8 km/h (1 Bft) NO 37 ° 0 min 0,000 mm 0,5 UV-I 62 W/m² 3,0 °C 3,6 °C 6,4 km/h (2 Bft)
31.10.2019 11:57 3,6 °C 96 % 1020,6 hPa 0,0 mm 4,2 km/h (1 Bft) NO 47 ° 0 min 0,000 mm 0,6 UV-I 63 W/m² 3,0 °C 3,6 °C 6,4 km/h (2 Bft)
31.10.2019 11:58 3,6 °C 96 % 1020,6 hPa 0,0 mm 3,6 km/h (1 Bft) NO 47 ° 0 min 0,000 mm 0,6 UV-I 67 W/m² 3,0 °C 3,6 °C 4,8 km/h (1 Bft)
31.10.2019 11:59 3,6 °C 96 % 1020,6 hPa 0,0 mm 4,4 km/h (1 Bft) NO 40 ° 0 min 0,000 mm 0,6 UV-I 70 W/m² 3,0 °C 3,6 °C 8,0 km/h (2 Bft)
31.10.2019 12:00 3,6 °C 96 % 1020,6 hPa 0,0 mm 5,1 km/h (1 Bft) O-NO 74 ° 0 min 0,026 mm 0,6 UV-I 74 W/m² 3,0 °C 2,5 °C 6,4 km/h (2 Bft)
31.10.2019 12:01 3,6 °C 96 % 1020,5 hPa 0,0 mm 5,2 km/h (1 Bft) O-NO 57 ° 0 min 0,000 mm 0,6 UV-I 76 W/m² 3,0 °C 2,4 °C 6,4 km/h (2 Bft)
31.10.2019 12:02 3,7 °C 96 % 1020,6 hPa 0,0 mm 4,2 km/h (1 Bft) NO 49 ° 0 min 0,000 mm 0,6 UV-I 76 W/m² 3,1 °C 3,7 °C 6,4 km/h (2 Bft)
31.10.2019 12:03 3,7 °C 96 % 1020,6 hPa 0,0 mm 6,4 km/h (2 Bft) NO 42 ° 0 min 0,000 mm 0,6 UV-I 76 W/m² 3,1 °C 2,1 °C 9,7 km/h (2 Bft)
31.10.2019 12:04 3,7 °C 96 % 1020,6 hPa 0,0 mm 3,6 km/h (1 Bft) NO 42 ° 0 min 0,000 mm 0,6 UV-I 74 W/m² 3,1 °C 3,7 °C 6,4 km/h (2 Bft)
31.10.2019 12:05 3,7 °C 96 % 1020,6 hPa 0,0 mm 4,6 km/h (1 Bft) O 79 ° 0 min 0,000 mm 0,6 UV-I 77 W/m² 3,1 °C 2,8 °C 6,4 km/h (2 Bft)
31.10.2019 12:06 3,7 °C 96 % 1020,6 hPa 0,0 mm 4,4 km/h (1 Bft) NO 55 ° 0 min 0,000 mm 0,6 UV-I 79 W/m² 3,1 °C 3,7 °C 6,4 km/h (2 Bft)
31.10.2019 12:07 3,7 °C 96 % 1020,5 hPa 0,0 mm 4,2 km/h (1 Bft) NO 54 ° 0 min 0,000 mm 0,7 UV-I 83 W/m² 3,1 °C 3,7 °C 4,8 km/h (1 Bft)
31.10.2019 12:08 3,7 °C 96 % 1020,5 hPa 0,0 mm 2,0 km/h (1 Bft) NO 54 ° 0 min 0,000 mm 0,7 UV-I 84 W/m² 3,1 °C 3,7 °C 3,2 km/h (1 Bft)
31.10.2019 12:09 3,8 °C 96 % 1020,5 hPa 0,0 mm 3,3 km/h (1 Bft) NO 54 ° 0 min 0,000 mm 0,7 UV-I 81 W/m² 3,2 °C 3,8 °C 4,8 km/h (1 Bft)
31.10.2019 12:10 3,8 °C 96 % 1020,5 hPa 0,0 mm 5,0 km/h (1 Bft) NO 48 ° 0 min 0,000 mm 0,7 UV-I 77 W/m² 3,2 °C 2,7 °C 6,4 km/h (2 Bft)
31.10.2019 12:11 3,7 °C 96 % 1020,5 hPa 0,0 mm 5,3 km/h (1 Bft) NO 40 ° 0 min 0,000 mm 0,7 UV-I 79 W/m² 3,1 °C 2,5 °C 8,0 km/h (2 Bft)
31.10.2019 12:12 3,7 °C 96 % 1020,5 hPa 0,0 mm 2,2 km/h (1 Bft) O-NO 70 ° 0 min 0,000 mm 0,7 UV-I 86 W/m² 3,1 °C 3,7 °C 4,8 km/h (1 Bft)
31.10.2019 12:13 3,7 °C 96 % 1020,5 hPa 0,0 mm 4,8 km/h (1 Bft) NO 37 ° 0 min 0,000 mm 0,7 UV-I 84 W/m² 3,1 °C 2,7 °C 6,4 km/h (2 Bft)
31.10.2019 12:14 3,7 °C 96 % 1020,5 hPa 0,0 mm 3,3 km/h (1 Bft) NO 37 ° 0 min 0,000 mm 0,7 UV-I 84 W/m² 3,1 °C 3,7 °C 4,8 km/h (1 Bft)
31.10.2019 12:15 3,8 °C 96 % 1020,5 hPa 0,0 mm 2,7 km/h (1 Bft) NO 37 ° 0 min 0,000 mm 0,7 UV-I 105 W/m² 3,2 °C 3,8 °C 3,2 km/h (1 Bft)
31.10.2019 12:16 3,8 °C 96 % 1020,5 hPa 0,0 mm 1,5 km/h (1 Bft) O-NO 71 ° 0 min 0,000 mm 0,8 UV-I 120 W/m² 3,2 °C 3,8 °C 6,4 km/h (2 Bft)
31.10.2019 12:17 3,8 °C 96 % 1020,5 hPa 0,0 mm 5,3 km/h (1 Bft) O 80 ° 0 min 0,000 mm 0,8 UV-I 109 W/m² 3,2 °C 2,6 °C 6,4 km/h (2 Bft)
31.10.2019 12:18 3,8 °C 96 % 1020,5 hPa 0,0 mm 5,0 km/h (1 Bft) NO 41 ° 0 min 0,000 mm 0,8 UV-I 111 W/m² 3,2 °C 2,7 °C 6,4 km/h (2 Bft)
31.10.2019 12:19 3,8 °C 96 % 1020,4 hPa 0,0 mm 4,6 km/h (1 Bft) NO 40 ° 0 min 0,000 mm 0,8 UV-I 105 W/m² 3,2 °C 2,9 °C 6,4 km/h (2 Bft)
31.10.2019 12:20 3,8 °C 96 % 1020,4 hPa 0,0 mm 6,6 km/h (2 Bft) N-NO 25 ° 0 min 0,000 mm 0,8 UV-I 128 W/m² 3,2 °C 2,1 °C 8,0 km/h (2 Bft)
31.10.2019 12:21 3,8 °C 96 % 1020,4 hPa 0,0 mm 5,9 km/h (2 Bft) NO 56 ° 0 min 0,000 mm 0,9 UV-I 155 W/m² 3,2 °C 2,4 °C 8,0 km/h (2 Bft)
31.10.2019 12:22 3,8 °C 96 % 1020,4 hPa 0,0 mm 6,6 km/h (2 Bft) O-NO 67 ° 0 min 0,000 mm 0,9 UV-I 155 W/m² 3,2 °C 2,1 °C 8,0 km/h (2 Bft)
31.10.2019 12:23 3,8 °C 96 % 1020,4 hPa 0,0 mm 2,7 km/h (1 Bft) O-NO 67 ° 0 min 0,000 mm 0,9 UV-I 162 W/m² 3,2 °C 3,8 °C 4,8 km/h (1 Bft)
31.10.2019 12:24 3,8 °C 96 % 1020,4 hPa 0,0 mm 4,8 km/h (1 Bft) NO 52 ° 0 min 0,000 mm 0,8 UV-I 146 W/m² 3,2 °C 2,8 °C 9,7 km/h (2 Bft)
31.10.2019 12:25 3,8 °C 96 % 1020,4 hPa 0,0 mm 4,8 km/h (1 Bft) NO 38 ° 0 min 0,000 mm 0,8 UV-I 137 W/m² 3,2 °C 2,8 °C 6,4 km/h (2 Bft)
31.10.2019 12:26 3,8 °C 96 % 1020,4 hPa 0,0 mm 3,8 km/h (1 Bft) O-NO 59 ° 0 min 0,000 mm 0,8 UV-I 149 W/m² 3,2 °C 3,8 °C 4,8 km/h (1 Bft)
31.10.2019 12:27 3,8 °C 96 % 1020,4 hPa 0,0 mm 6,1 km/h (2 Bft) N-NO 33 ° 0 min 0,000 mm 0,8 UV-I 146 W/m² 3,2 °C 2,3 °C 9,7 km/h (2 Bft)
31.10.2019 12:28 3,8 °C 96 % 1020,4 hPa 0,0 mm 6,0 km/h (2 Bft) NO 41 ° 0 min 0,000 mm 0,8 UV-I 134 W/m² 3,2 °C 2,3 °C 9,7 km/h (2 Bft)
31.10.2019 12:29 3,8 °C 96 % 1020,4 hPa 0,0 mm 5,4 km/h (1 Bft) O-NO 61 ° 0 min 0,000 mm 0,8 UV-I 125 W/m² 3,2 °C 2,6 °C 8,0 km/h (2 Bft)
31.10.2019 12:30 3,8 °C 96 % 1020,3 hPa 0,0 mm 4,0 km/h (1 Bft) O-NO 63 ° 0 min 0,000 mm 0,8 UV-I 132 W/m² 3,2 °C 3,8 °C 6,4 km/h (2 Bft)
31.10.2019 12:31 3,8 °C 96 % 1020,3 hPa 0,0 mm 3,8 km/h (1 Bft) O-NO 65 ° 0 min 0,000 mm 0,9 UV-I 149 W/m² 3,2 °C 3,8 °C 4,8 km/h (1 Bft)
31.10.2019 12:32 3,8 °C 96 % 1020,3 hPa 0,0 mm 3,2 km/h (1 Bft) NO 54 ° 0 min 0,000 mm 0,9 UV-I 149 W/m² 3,2 °C 3,8 °C 6,4 km/h (2 Bft)
31.10.2019 12:33 3,8 °C 96 % 1020,3 hPa 0,0 mm 6,7 km/h (2 Bft) N-NO 28 ° 0 min 0,000 mm 0,9 UV-I 149 W/m² 3,2 °C 2,1 °C 8,0 km/h (2 Bft)
31.10.2019 12:34 3,8 °C 96 % 1020,3 hPa 0,0 mm 3,8 km/h (1 Bft) NO 37 ° 0 min 0,000 mm 0,9 UV-I 146 W/m² 3,2 °C 3,8 °C 6,4 km/h (2 Bft)
31.10.2019 12:35 3,8 °C 96 % 1020,3 hPa 0,0 mm 5,0 km/h (1 Bft) NO 45 ° 0 min 0,000 mm 0,9 UV-I 141 W/m² 3,2 °C 2,7 °C 8,0 km/h (2 Bft)
31.10.2019 12:36 3,8 °C 96 % 1020,3 hPa 0,0 mm 1,6 km/h (1 Bft) NO 45 ° 0 min 0,000 mm 0,9 UV-I 141 W/m² 3,2 °C 3,8 °C 4,8 km/h (1 Bft)
31.10.2019 12:37 3,8 °C 96 % 1020,2 hPa 0,0 mm 6,6 km/h (2 Bft) O-NO 62 ° 0 min 0,000 mm 0,9 UV-I 142 W/m² 3,2 °C 2,1 °C 8,0 km/h (2 Bft)
31.10.2019 12:38 3,8 °C 96 % 1020,3 hPa 0,0 mm 1,9 km/h (1 Bft) O-NO 62 ° 0 min 0,000 mm 0,9 UV-I 144 W/m² 3,2 °C 3,8 °C 4,8 km/h (1 Bft)
31.10.2019 12:39 3,8 °C 96 % 1020,3 hPa 0,0 mm 1,2 km/h (1 Bft) O-NO 62 ° 0 min 0,000 mm 0,9 UV-I 146 W/m² 3,2 °C 3,8 °C 1,6 km/h (1 Bft)
31.10.2019 12:40 3,9 °C 96 % 1020,3 hPa 0,0 mm 2,7 km/h (1 Bft) O 92 ° 0 min 0,000 mm 1,0 UV-I 149 W/m² 3,3 °C 3,9 °C 6,4 km/h (2 Bft)
31.10.2019 12:41 4,0 °C 96 % 1020,3 hPa 0,0 mm 3,3 km/h (1 Bft) O 87 ° 0 min 0,000 mm 1,0 UV-I 156 W/m² 3,4 °C 4,0 °C 4,8 km/h (1 Bft)
31.10.2019 12:42 4,0 °C 96 % 1020,3 hPa 0,0 mm 2,0 km/h (1 Bft) O-NO 70 ° 0 min 0,000 mm 0,9 UV-I 158 W/m² 3,4 °C 4,0 °C 6,4 km/h (2 Bft)
31.10.2019 12:43 4,0 °C 96 % 1020,1 hPa 0,0 mm 0,0 km/h (0 Bft) O-NO 70 ° 0 min 0,000 mm 0,9 UV-I 142 W/m² 3,4 °C 4,0 °C 0,0 km/h (0 Bft)
31.10.2019 12:44 4,0 °C 96 % 1020,1 hPa 0,0 mm 1,6 km/h (1 Bft) O-NO 70 ° 0 min 0,000 mm 0,9 UV-I 146 W/m² 3,4 °C 4,0 °C 3,2 km/h (1 Bft)
31.10.2019 12:45 4,1 °C 96 % 1020,1 hPa 0,0 mm 2,3 km/h (1 Bft) O-NO 70 ° 0 min 0,000 mm 0,9 UV-I 132 W/m² 3,5 °C 4,1 °C 3,2 km/h (1 Bft)
31.10.2019 12:46 4,1 °C 96 % 1020,1 hPa 0,0 mm 0,3 km/h (0 Bft) O-NO 70 ° 0 min 0,000 mm 0,8 UV-I 88 W/m² 3,5 °C 4,1 °C 1,6 km/h (1 Bft)
31.10.2019 12:47 4,1 °C 96 % 1020,1 hPa 0,0 mm 3,4 km/h (1 Bft) O-NO 70 ° 0 min 0,000 mm 0,8 UV-I 84 W/m² 3,5 °C 4,1 °C 6,4 km/h (2 Bft)
31.10.2019 12:48 4,2 °C 96 % 1020,1 hPa 0,0 mm 3,6 km/h (1 Bft) SO 138 ° 0 min 0,000 mm 0,8 UV-I 97 W/m² 3,6 °C 4,2 °C 6,4 km/h (2 Bft)
31.10.2019 12:49 4,2 °C 96 % 1020,1 hPa 0,0 mm 3,1 km/h (1 Bft) O-SO 117 ° 0 min 0,000 mm 0,8 UV-I 102 W/m² 3,6 °C 4,2 °C 4,8 km/h (1 Bft)
31.10.2019 12:50 4,2 °C 96 % 1020,1 hPa 0,0 mm 5,0 km/h (1 Bft) O-NO 63 ° 0 min 0,000 mm 0,9 UV-I 132 W/m² 3,6 °C 3,2 °C 8,0 km/h (2 Bft)
31.10.2019 12:51 4,2 °C 96 % 1020,1 hPa 0,0 mm 3,6 km/h (1 Bft) O-NO 63 ° 0 min 0,000 mm 0,9 UV-I 130 W/m² 3,6 °C 4,2 °C 4,8 km/h (1 Bft)
31.10.2019 12:52 4,2 °C 96 % 1020,1 hPa 0,0 mm 4,4 km/h (1 Bft) O-NO 78 ° 0 min 0,000 mm 0,9 UV-I 130 W/m² 3,6 °C 4,2 °C 8,0 km/h (2 Bft)
31.10.2019 12:53 4,3 °C 96 % 1020,0 hPa 0,0 mm 3,2 km/h (1 Bft) NO 47 ° 0 min 0,000 mm 0,9 UV-I 135 W/m² 3,7 °C 4,3 °C 6,4 km/h (2 Bft)
31.10.2019 12:54 4,3 °C 96 % 1020,0 hPa 0,0 mm 5,9 km/h (2 Bft) NO 55 ° 0 min 0,000 mm 0,9 UV-I 135 W/m² 3,7 °C 3,0 °C 8,0 km/h (2 Bft)
31.10.2019 12:55 4,2 °C 96 % 1020,1 hPa 0,0 mm 7,6 km/h (2 Bft) O-NO 65 ° 0 min 0,000 mm 0,9 UV-I 130 W/m² 3,6 °C 2,3 °C 9,7 km/h (2 Bft)
31.10.2019 12:56 4,2 °C 96 % 1020,1 hPa 0,0 mm 6,4 km/h (2 Bft) O-NO 71 ° 0 min 0,000 mm 0,9 UV-I 128 W/m² 3,6 °C 2,7 °C 8,0 km/h (2 Bft)
31.10.2019 12:57 4,1 °C 96 % 1020,0 hPa 0,0 mm 6,5 km/h (2 Bft) NO 52 ° 0 min 0,000 mm 0,8 UV-I 130 W/m² 3,5 °C 2,5 °C 8,0 km/h (2 Bft)
31.10.2019 12:58 4,0 °C 96 % 1020,0 hPa 0,0 mm 4,2 km/h (1 Bft) O-NO 60 ° 0 min 0,000 mm 0,8 UV-I 134 W/m² 3,4 °C 4,0 °C 6,4 km/h (2 Bft)
31.10.2019 12:59 4,1 °C 96 % 1020,0 hPa 0,0 mm 6,0 km/h (2 Bft) O-NO 59 ° 0 min 0,000 mm 0,8 UV-I 134 W/m² 3,5 °C 2,7 °C 8,0 km/h (2 Bft)
31.10.2019 13:00 4,1 °C 96 % 1020,0 hPa 0,0 mm 6,2 km/h (2 Bft) NO 49 ° 0 min 0,050 mm 0,8 UV-I 134 W/m² 3,5 °C 2,6 °C 9,7 km/h (2 Bft)
31.10.2019 13:01 4,1 °C 96 % 1020,0 hPa 0,0 mm 4,8 km/h (1 Bft) NO 51 ° 0 min 0,000 mm 0,8 UV-I 134 W/m² 3,5 °C 3,1 °C 6,4 km/h (2 Bft)
31.10.2019 13:02 4,1 °C 96 % 1020,0 hPa 0,0 mm 3,2 km/h (1 Bft) O-NO 61 ° 0 min 0,000 mm 0,8 UV-I 125 W/m² 3,5 °C 4,1 °C 6,4 km/h (2 Bft)
31.10.2019 13:03 4,1 °C 96 % 1020,1 hPa 0,0 mm 3,4 km/h (1 Bft) NO 42 ° 0 min 0,000 mm 0,7 UV-I 81 W/m² 3,5 °C 4,1 °C 4,8 km/h (1 Bft)
31.10.2019 13:04 4,1 °C 96 % 1020,1 hPa 0,0 mm 4,0 km/h (1 Bft) NO 42 ° 0 min 0,000 mm 0,8 UV-I 111 W/m² 3,5 °C 4,1 °C 8,0 km/h (2 Bft)
31.10.2019 13:05 4,2 °C 96 % 1020,1 hPa 0,0 mm 5,7 km/h (1 Bft) NO 46 ° 0 min 0,000 mm 0,8 UV-I 144 W/m² 3,6 °C 2,9 °C 8,0 km/h (2 Bft)
31.10.2019 13:06 4,2 °C 96 % 1020,1 hPa 0,0 mm 5,3 km/h (1 Bft) NO 38 ° 0 min 0,000 mm 0,8 UV-I 144 W/m² 3,6 °C 3,1 °C 9,7 km/h (2 Bft)
31.10.2019 13:07 4,1 °C 96 % 1020,1 hPa 0,0 mm 5,9 km/h (2 Bft) O-NO 74 ° 0 min 0,000 mm 0,8 UV-I 153 W/m² 3,5 °C 2,7 °C 6,4 km/h (2 Bft)
31.10.2019 13:08 4,1 °C 96 % 1020,1 hPa 0,0 mm 4,4 km/h (1 Bft) O 93 ° 0 min 0,000 mm 0,8 UV-I 153 W/m² 3,5 °C 4,1 °C 9,7 km/h (2 Bft)
31.10.2019 13:09 4,1 °C 96 % 1020,1 hPa 0,0 mm 5,2 km/h (1 Bft) NO 45 ° 0 min 0,000 mm 0,8 UV-I 151 W/m² 3,5 °C 3,0 °C 8,0 km/h (2 Bft)
31.10.2019 13:10 4,1 °C 96 % 1020,1 hPa 0,0 mm 7,2 km/h (2 Bft) O-NO 65 ° 0 min 0,000 mm 0,8 UV-I 144 W/m² 3,5 °C 2,3 °C 9,7 km/h (2 Bft)
31.10.2019 13:11 4,1 °C 96 % 1020,1 hPa 0,0 mm 5,2 km/h (1 Bft) NO 40 ° 0 min 0,000 mm 0,8 UV-I 137 W/m² 3,5 °C 3,0 °C 8,0 km/h (2 Bft)
31.10.2019 13:12 4,1 °C 96 % 1020,0 hPa 0,0 mm 5,4 km/h (1 Bft) O-NO 57 ° 0 min 0,000 mm 0,8 UV-I 134 W/m² 3,5 °C 2,9 °C 9,7 km/h (2 Bft)
31.10.2019 13:13 4,1 °C 96 % 1020,0 hPa 0,0 mm 7,0 km/h (2 Bft) O-NO 63 ° 0 min 0,000 mm 0,8 UV-I 134 W/m² 3,5 °C 2,4 °C 9,7 km/h (2 Bft)
31.10.2019 13:14 4,1 °C 96 % 1020,0 hPa 0,0 mm 6,2 km/h (2 Bft) NO 38 ° 0 min 0,000 mm 0,8 UV-I 135 W/m² 3,5 °C 2,6 °C 8,0 km/h (2 Bft)
31.10.2019 13:15 4,0 °C 96 % 1020,0 hPa 0,0 mm 7,7 km/h (2 Bft) NO 56 ° 0 min 0,000 mm 0,8 UV-I 134 W/m² 3,4 °C 2,0 °C 14,5 km/h (3 Bft)
31.10.2019 13:16 4,1 °C 96 % 1020,0 hPa 0,0 mm 6,9 km/h (2 Bft) O-NO 62 ° 0 min 0,000 mm 0,8 UV-I 125 W/m² 3,5 °C 2,4 °C 8,0 km/h (2 Bft)
31.10.2019 13:17 4,1 °C 96 % 1020,0 hPa 0,0 mm 5,1 km/h (1 Bft) O-NO 76 ° 0 min 0,000 mm 0,7 UV-I 121 W/m² 3,5 °C 3,0 °C 6,4 km/h (2 Bft)
31.10.2019 13:18 4,0 °C 96 % 1020,0 hPa 0,0 mm 6,9 km/h (2 Bft) O-NO 59 ° 0 min 0,000 mm 0,7 UV-I 109 W/m² 3,4 °C 2,3 °C 11,3 km/h (2 Bft)
31.10.2019 13:19 4,0 °C 96 % 1020,0 hPa 0,0 mm 7,0 km/h (2 Bft) O-NO 61 ° 0 min 0,000 mm 0,7 UV-I 113 W/m² 3,4 °C 2,2 °C 11,3 km/h (2 Bft)
31.10.2019 13:20 4,0 °C 96 % 1020,0 hPa 0,0 mm 7,0 km/h (2 Bft) O 82 ° 0 min 0,000 mm 0,7 UV-I 109 W/m² 3,4 °C 2,2 °C 9,7 km/h (2 Bft)
31.10.2019 13:21 4,0 °C 96 % 1020,0 hPa 0,0 mm 5,6 km/h (1 Bft) O-NO 78 ° 0 min 0,000 mm 0,7 UV-I 113 W/m² 3,4 °C 2,7 °C 11,3 km/h (2 Bft)
31.10.2019 13:22 4,0 °C 96 % 1019,9 hPa 0,0 mm 6,3 km/h (2 Bft) N 9 ° 0 min 0,000 mm 0,7 UV-I 114 W/m² 3,4 °C 2,5 °C 9,7 km/h (2 Bft)
31.10.2019 13:23 4,1 °C 96 % 1019,9 hPa 0,0 mm 7,3 km/h (2 Bft) N-NO 23 ° 0 min 0,000 mm 0,7 UV-I 114 W/m² 3,5 °C 2,3 °C 9,7 km/h (2 Bft)
31.10.2019 13:24 4,1 °C 96 % 1019,9 hPa 0,0 mm 3,0 km/h (1 Bft) N-NO 24 ° 0 min 0,000 mm 0,7 UV-I 114 W/m² 3,5 °C 4,1 °C 4,8 km/h (1 Bft)
31.10.2019 13:25 4,1 °C 96 % 1019,9 hPa 0,0 mm 5,2 km/h (1 Bft) NO 40 ° 0 min 0,000 mm 0,7 UV-I 107 W/m² 3,5 °C 3,0 °C 8,0 km/h (2 Bft)
31.10.2019 13:26 4,1 °C 96 % 1019,9 hPa 0,0 mm 4,5 km/h (1 Bft) O-NO 67 ° 0 min 0,000 mm 0,7 UV-I 105 W/m² 3,5 °C 4,1 °C 8,0 km/h (2 Bft)
31.10.2019 13:27 4,0 °C 96 % 1020,0 hPa 0,0 mm 6,5 km/h (2 Bft) NO 42 ° 0 min 0,000 mm 0,7 UV-I 105 W/m² 3,4 °C 2,4 °C 9,7 km/h (2 Bft)
31.10.2019 13:28 3,9 °C 96 % 1020,0 hPa 0,0 mm 4,9 km/h (1 Bft) O-NO 78 ° 0 min 0,000 mm 0,6 UV-I 100 W/m² 3,3 °C 2,9 °C 8,0 km/h (2 Bft)
31.10.2019 13:29 3,9 °C 96 % 1020,0 hPa 0,0 mm 4,1 km/h (1 Bft) O-NO 75 ° 0 min 0,000 mm 0,6 UV-I 98 W/m² 3,3 °C 3,9 °C 4,8 km/h (1 Bft)
31.10.2019 13:30 3,9 °C 96 % 1020,0 hPa 0,0 mm 4,2 km/h (1 Bft) NO 54 ° 0 min 0,000 mm 0,6 UV-I 98 W/m² 3,3 °C 3,9 °C 4,8 km/h (1 Bft)
31.10.2019 13:31 3,9 °C 96 % 1020,0 hPa 0,0 mm 4,6 km/h (1 Bft) O 86 ° 0 min 0,000 mm 0,6 UV-I 95 W/m² 3,3 °C 3,0 °C 8,0 km/h (2 Bft)
31.10.2019 13:32 4,0 °C 96 % 1019,9 hPa 0,0 mm 6,7 km/h (2 Bft) NO 55 ° 0 min 0,000 mm 0,6 UV-I 97 W/m² 3,4 °C 2,3 °C 12,9 km/h (3 Bft)
31.10.2019 13:33 4,0 °C 96 % 1019,9 hPa 0,0 mm 7,0 km/h (2 Bft) NO 52 ° 0 min 0,000 mm 0,6 UV-I 95 W/m² 3,4 °C 2,2 °C 12,9 km/h (3 Bft)
31.10.2019 13:34 4,0 °C 96 % 1020,0 hPa 0,0 mm 6,0 km/h (2 Bft) NO 44 ° 0 min 0,000 mm 0,6 UV-I 95 W/m² 3,4 °C 2,6 °C 9,7 km/h (2 Bft)
31.10.2019 13:35 4,0 °C 96 % 1020,0 hPa 0,0 mm 7,0 km/h (2 Bft) NO 55 ° 0 min 0,000 mm 0,6 UV-I 90 W/m² 3,4 °C 2,2 °C 9,7 km/h (2 Bft)
31.10.2019 13:36 3,9 °C 96 % 1020,0 hPa 0,0 mm 4,2 km/h (1 Bft) NO 38 ° 0 min 0,000 mm 0,6 UV-I 86 W/m² 3,3 °C 3,9 °C 8,0 km/h (2 Bft)
31.10.2019 13:37 4,0 °C 96 % 1019,9 hPa 0,0 mm 4,2 km/h (1 Bft) O-NO 75 ° 0 min 0,000 mm 0,6 UV-I 90 W/m² 3,4 °C 4,0 °C 8,0 km/h (2 Bft)
31.10.2019 13:38 3,9 °C 96 % 1020,0 hPa 0,0 mm 9,1 km/h (2 Bft) O 90 ° 0 min 0,000 mm 0,5 UV-I 86 W/m² 3,3 °C 1,6 °C 14,5 km/h (3 Bft)
31.10.2019 13:39 3,9 °C 96 % 1020,0 hPa 0,0 mm 6,8 km/h (2 Bft) O-NO 74 ° 0 min 0,000 mm 0,5 UV-I 83 W/m² 3,3 °C 2,2 °C 11,3 km/h (2 Bft)
31.10.2019 13:40 3,9 °C 96 % 1020,0 hPa 0,0 mm 4,6 km/h (1 Bft) NO 56 ° 0 min 0,000 mm 0,5 UV-I 81 W/m² 3,3 °C 3,0 °C 9,7 km/h (2 Bft)
31.10.2019 13:41 3,9 °C 96 % 1020,0 hPa 0,0 mm 2,7 km/h (1 Bft) O-NO 58 ° 0 min 0,000 mm 0,5 UV-I 81 W/m² 3,3 °C 3,9 °C 4,8 km/h (1 Bft)
31.10.2019 13:42 3,8 °C 96 % 1020,1 hPa 0,0 mm 6,0 km/h (2 Bft) SO 130 ° 0 min 0,000 mm 0,5 UV-I 83 W/m² 3,2 °C 2,3 °C 11,3 km/h (2 Bft)
31.10.2019 13:43 3,8 °C 96 % 1020,0 hPa 0,0 mm 6,8 km/h (2 Bft) O-NO 61 ° 0 min 0,000 mm 0,5 UV-I 83 W/m² 3,2 °C 2,1 °C 12,9 km/h (3 Bft)
31.10.2019 13:44 3,8 °C 96 % 1020,1 hPa 0,0 mm 8,1 km/h (2 Bft) O 90 ° 0 min 0,000 mm 0,5 UV-I 83 W/m² 3,2 °C 1,7 °C 11,3 km/h (2 Bft)
31.10.2019 13:45 3,8 °C 96 % 1020,1 hPa 0,0 mm 5,7 km/h (1 Bft) O 91 ° 0 min 0,000 mm 0,5 UV-I 81 W/m² 3,2 °C 2,5 °C 9,7 km/h (2 Bft)
31.10.2019 13:46 3,8 °C 96 % 1020,1 hPa 0,0 mm 5,0 km/h (1 Bft) O-NO 77 ° 0 min 0,000 mm 0,5 UV-I 77 W/m² 3,2 °C 2,7 °C 8,0 km/h (2 Bft)
31.10.2019 13:47 3,8 °C 96 % 1020,0 hPa 0,0 mm 4,9 km/h (1 Bft) O-NO 73 ° 0 min 0,000 mm 0,5 UV-I 77 W/m² 3,2 °C 2,8 °C 6,4 km/h (2 Bft)
31.10.2019 13:48 3,8 °C 96 % 1020,0 hPa 0,0 mm 5,8 km/h (2 Bft) O-NO 69 ° 0 min 0,000 mm 0,5 UV-I 76 W/m² 3,2 °C 2,4 °C 8,0 km/h (2 Bft)
31.10.2019 13:49 3,8 °C 96 % 1020,0 hPa 0,0 mm 4,1 km/h (1 Bft) O-NO 65 ° 0 min 0,000 mm 0,5 UV-I 74 W/m² 3,2 °C 3,8 °C 4,8 km/h (1 Bft)
31.10.2019 13:50 3,8 °C 96 % 1020,0 hPa 0,0 mm 4,2 km/h (1 Bft) O-NO 67 ° 0 min 0,000 mm 0,0 UV-I 70 W/m² 3,2 °C 3,8 °C 6,4 km/h (2 Bft)
31.10.2019 13:51 3,8 °C 96 % 1020,0 hPa 0,0 mm 3,8 km/h (1 Bft) O-NO 66 ° 0 min 0,000 mm 0,0 UV-I 69 W/m² 3,2 °C 3,8 °C 4,8 km/h (1 Bft)
31.10.2019 13:52 3,8 °C 96 % 1019,9 hPa 0,0 mm 4,0 km/h (1 Bft) O 93 ° 0 min 0,000 mm 0,0 UV-I 67 W/m² 3,2 °C 3,8 °C 4,8 km/h (1 Bft)
31.10.2019 13:53 3,9 °C 96 % 1019,9 hPa 0,0 mm 4,8 km/h (1 Bft) O-NO 74 ° 0 min 0,000 mm 0,0 UV-I 67 W/m² 3,3 °C 2,9 °C 9,7 km/h (2 Bft)
31.10.2019 13:54 3,9 °C 96 % 1019,9 hPa 0,0 mm 6,0 km/h (2 Bft) NO 53 ° 0 min 0,000 mm 0,0 UV-I 65 W/m² 3,3 °C 2,5 °C 11,3 km/h (2 Bft)
31.10.2019 13:55 3,9 °C 96 % 1019,9 hPa 0,0 mm 8,9 km/h (2 Bft) NO 34 ° 0 min 0,000 mm 0,0 UV-I 65 W/m² 3,3 °C 1,6 °C 14,5 km/h (3 Bft)
31.10.2019 13:56 3,8 °C 96 % 1020,0 hPa 0,0 mm 6,7 km/h (2 Bft) NO 51 ° 0 min 0,000 mm 0,0 UV-I 65 W/m² 3,2 °C 2,1 °C 11,3 km/h (2 Bft)
31.10.2019 13:57 3,8 °C 96 % 1020,0 hPa 0,0 mm 5,3 km/h (1 Bft) O-NO 67 ° 0 min 0,000 mm 0,0 UV-I 65 W/m² 3,2 °C 2,6 °C 8,0 km/h (2 Bft)
31.10.2019 13:58 3,8 °C 96 % 1020,0 hPa 0,0 mm 7,6 km/h (2 Bft) O 89 ° 0 min 0,000 mm 0,0 UV-I 63 W/m² 3,2 °C 1,8 °C 11,3 km/h (2 Bft)
31.10.2019 13:59 3,8 °C 96 % 1020,0 hPa 0,0 mm 5,9 km/h (2 Bft) O-NO 77 ° 0 min 0,000 mm 0,0 UV-I 65 W/m² 3,2 °C 2,4 °C 11,3 km/h (2 Bft)
31.10.2019 14:00 3,7 °C 96 % 1020,0 hPa 0,0 mm 7,0 km/h (2 Bft) NO 54 ° 0 min 0,051 mm 0,0 UV-I 65 W/m² 3,1 °C 1,9 °C 11,3 km/h (2 Bft)
31.10.2019 14:01 3,7 °C 96 % 1019,9 hPa 0,0 mm 6,0 km/h (2 Bft) O-NO 78 ° 0 min 0,000 mm 0,0 UV-I 62 W/m² 3,1 °C 2,2 °C 8,0 km/h (2 Bft)
31.10.2019 14:02 3,7 °C 96 % 1019,9 hPa 0,0 mm 4,7 km/h (1 Bft) O-NO 74 ° 0 min 0,000 mm 0,0 UV-I 62 W/m² 3,1 °C 2,7 °C 6,4 km/h (2 Bft)
31.10.2019 14:03 3,7 °C 96 % 1019,9 hPa 0,0 mm 7,0 km/h (2 Bft) O-NO 71 ° 0 min 0,000 mm 0,0 UV-I 62 W/m² 3,1 °C 1,9 °C 12,9 km/h (3 Bft)
31.10.2019 14:04 3,7 °C 96 % 1019,9 hPa 0,0 mm 7,3 km/h (2 Bft) NO 49 ° 0 min 0,000 mm 0,0 UV-I 62 W/m² 3,1 °C 1,8 °C 14,5 km/h (3 Bft)
31.10.2019 14:05 3,7 °C 96 % 1019,9 hPa 0,0 mm 6,8 km/h (2 Bft) NO 56 ° 0 min 0,000 mm 0,0 UV-I 56 W/m² 3,1 °C 2,0 °C 11,3 km/h (2 Bft)
31.10.2019 14:06 3,7 °C 96 % 1019,9 hPa 0,0 mm 8,3 km/h (2 Bft) N-NO 22 ° 0 min 0,000 mm 0,0 UV-I 54 W/m² 3,1 °C 1,5 °C 12,9 km/h (3 Bft)
31.10.2019 14:07 3,7 °C 96 % 1019,8 hPa 0,0 mm 8,0 km/h (2 Bft) NO 47 ° 0 min 0,000 mm 0,0 UV-I 56 W/m² 3,1 °C 1,6 °C 12,9 km/h (3 Bft)
31.10.2019 14:08 3,7 °C 96 % 1019,9 hPa 0,0 mm 6,9 km/h (2 Bft) O-NO 67 ° 0 min 0,000 mm 0,0 UV-I 56 W/m² 3,1 °C 1,9 °C 9,7 km/h (2 Bft)
31.10.2019 14:09 3,7 °C 96 % 1019,9 hPa 0,0 mm 7,6 km/h (2 Bft) N-NO 33 ° 0 min 0,000 mm 0,0 UV-I 56 W/m² 3,1 °C 1,7 °C 11,3 km/h (2 Bft)
31.10.2019 14:10 3,6 °C 96 % 1019,9 hPa 0,0 mm 6,4 km/h (2 Bft) O-NO 58 ° 0 min 0,000 mm 0,0 UV-I 56 W/m² 3,0 °C 2,0 °C 8,0 km/h (2 Bft)
31.10.2019 14:11 3,6 °C 96 % 1019,9 hPa 0,0 mm 5,7 km/h (1 Bft) NO 54 ° 0 min 0,000 mm 0,0 UV-I 56 W/m² 3,0 °C 2,2 °C 8,0 km/h (2 Bft)
31.10.2019 14:12 3,6 °C 96 % 1019,9 hPa 0,0 mm 5,6 km/h (1 Bft) NO 48 ° 0 min 0,000 mm 0,0 UV-I 58 W/m² 3,0 °C 2,3 °C 9,7 km/h (2 Bft)
31.10.2019 14:13 3,6 °C 96 % 1019,9 hPa 0,0 mm 3,1 km/h (1 Bft) O-NO 64 ° 0 min 0,000 mm 0,0 UV-I 56 W/m² 3,0 °C 3,6 °C 6,4 km/h (2 Bft)
31.10.2019 14:14 3,6 °C 96 % 1019,9 hPa 0,0 mm 4,3 km/h (1 Bft) O 82 ° 0 min 0,000 mm 0,0 UV-I 58 W/m² 3,0 °C 3,6 °C 6,4 km/h (2 Bft)
31.10.2019 14:15 3,6 °C 96 % 1019,9 hPa 0,0 mm 5,4 km/h (1 Bft) NO 35 ° 0 min 0,000 mm 0,0 UV-I 58 W/m² 3,0 °C 2,3 °C 8,0 km/h (2 Bft)
31.10.2019 14:16 3,6 °C 96 % 1019,9 hPa 0,0 mm 6,7 km/h (2 Bft) O-NO 64 ° 0 min 0,000 mm 0,0 UV-I 58 W/m² 3,0 °C 1,9 °C 9,7 km/h (2 Bft)
31.10.2019 14:17 3,7 °C 96 % 1019,9 hPa 0,0 mm 6,8 km/h (2 Bft) O 87 ° 0 min 0,000 mm 0,0 UV-I 58 W/m² 3,1 °C 2,0 °C 9,7 km/h (2 Bft)
31.10.2019 14:18 3,7 °C 96 % 1019,9 hPa 0,0 mm 3,6 km/h (1 Bft) O-NO 71 ° 0 min 0,000 mm 0,0 UV-I 58 W/m² 3,1 °C 3,7 °C 6,4 km/h (2 Bft)
31.10.2019 14:19 3,7 °C 96 % 1019,8 hPa 0,0 mm 6,8 km/h (2 Bft) O 88 ° 0 min 0,000 mm 0,0 UV-I 56 W/m² 3,1 °C 2,0 °C 9,7 km/h (2 Bft)
31.10.2019 14:20 3,7 °C 96 % 1019,8 hPa 0,0 mm 6,9 km/h (2 Bft) O-NO 66 ° 0 min 0,000 mm 0,0 UV-I 54 W/m² 3,1 °C 1,9 °C 9,7 km/h (2 Bft)
31.10.2019 14:21 3,7 °C 96 % 1019,9 hPa 0,0 mm 5,6 km/h (1 Bft) O-NO 78 ° 0 min 0,000 mm 0,0 UV-I 53 W/m² 3,1 °C 2,4 °C 8,0 km/h (2 Bft)
31.10.2019 14:22 3,7 °C 96 % 1019,8 hPa 0,0 mm 4,8 km/h (1 Bft) O 100 ° 0 min 0,000 mm 0,0 UV-I 54 W/m² 3,1 °C 2,7 °C 6,4 km/h (2 Bft)
31.10.2019 14:23 3,6 °C 96 % 1019,8 hPa 0,0 mm 4,2 km/h (1 Bft) O-NO 71 ° 0 min 0,000 mm 0,0 UV-I 54 W/m² 3,0 °C 3,6 °C 6,4 km/h (2 Bft)
31.10.2019 14:24 3,7 °C 96 % 1019,9 hPa 0,0 mm 6,9 km/h (2 Bft) O-NO 63 ° 0 min 0,000 mm 0,0 UV-I 54 W/m² 3,1 °C 1,9 °C 12,9 km/h (3 Bft)
31.10.2019 14:25 3,7 °C 96 % 1019,8 hPa 0,0 mm 3,8 km/h (1 Bft) NO 39 ° 0 min 0,000 mm 0,0 UV-I 54 W/m² 3,1 °C 3,7 °C 8,0 km/h (2 Bft)
31.10.2019 14:26 3,7 °C 96 % 1019,8 hPa 0,0 mm 3,8 km/h (1 Bft) NO 44 ° 0 min 0,000 mm 0,0 UV-I 54 W/m² 3,1 °C 3,7 °C 6,4 km/h (2 Bft)
31.10.2019 14:27 3,7 °C 97 % 1019,8 hPa 0,0 mm 5,5 km/h (1 Bft) N-NO 23 ° 0 min 0,000 mm 0,0 UV-I 54 W/m² 3,3 °C 2,4 °C 6,4 km/h (2 Bft)
31.10.2019 14:28 3,7 °C 97 % 1019,9 hPa 0,0 mm 6,2 km/h (2 Bft) O 82 ° 0 min 0,000 mm 0,0 UV-I 53 W/m² 3,3 °C 2,2 °C 8,0 km/h (2 Bft)
31.10.2019 14:29 3,7 °C 97 % 1019,8 hPa 0,0 mm 3,1 km/h (1 Bft) O-NO 70 ° 0 min 0,000 mm 0,0 UV-I 51 W/m² 3,3 °C 3,7 °C 6,4 km/h (2 Bft)
31.10.2019 14:30 3,7 °C 97 % 1019,8 hPa 0,0 mm 5,5 km/h (1 Bft) NO 52 ° 0 min 0,000 mm 0,0 UV-I 51 W/m² 3,3 °C 2,4 °C 8,0 km/h (2 Bft)
31.10.2019 14:31 3,7 °C 97 % 1019,8 hPa 0,0 mm 8,0 km/h (2 Bft) O-NO 68 ° 0 min 0,000 mm 0,0 UV-I 53 W/m² 3,3 °C 1,6 °C 12,9 km/h (3 Bft)
31.10.2019 14:32 3,7 °C 97 % 1019,9 hPa 0,0 mm 4,3 km/h (1 Bft) N-NO 33 ° 0 min 0,000 mm 0,0 UV-I 53 W/m² 3,3 °C 3,7 °C 8,0 km/h (2 Bft)
31.10.2019 14:33 3,7 °C 97 % 1019,8 hPa 0,0 mm 4,8 km/h (1 Bft) N-NO 33 ° 0 min 0,000 mm 0,0 UV-I 53 W/m² 3,3 °C 2,7 °C 6,4 km/h (2 Bft)
31.10.2019 14:34 3,8 °C 96 % 1019,8 hPa 0,0 mm 3,8 km/h (1 Bft) NO 38 ° 0 min 0,000 mm 0,0 UV-I 54 W/m² 3,2 °C 3,8 °C 4,8 km/h (1 Bft)
31.10.2019 14:35 3,8 °C 97 % 1019,8 hPa 0,0 mm 3,9 km/h (1 Bft) NO 47 ° 0 min 0,000 mm 0,0 UV-I 54 W/m² 3,4 °C 3,8 °C 6,4 km/h (2 Bft)
31.10.2019 14:36 3,8 °C 97 % 1019,8 hPa 0,0 mm 5,4 km/h (1 Bft) O-NO 59 ° 0 min 0,000 mm 0,0 UV-I 54 W/m² 3,4 °C 2,6 °C 6,4 km/h (2 Bft)
31.10.2019 14:37 3,7 °C 97 % 1019,9 hPa 0,0 mm 3,0 km/h (1 Bft) O-NO 59 ° 0 min 0,000 mm 0,0 UV-I 51 W/m² 3,3 °C 3,7 °C 4,8 km/h (1 Bft)
31.10.2019 14:38 3,7 °C 97 % 1019,9 hPa 0,0 mm 5,7 km/h (1 Bft) NO 44 ° 0 min 0,000 mm 0,0 UV-I 51 W/m² 3,3 °C 2,3 °C 6,4 km/h (2 Bft)
31.10.2019 14:39 3,8 °C 96 % 1019,9 hPa 0,0 mm 4,7 km/h (1 Bft) NO 35 ° 0 min 0,000 mm 0,0 UV-I 51 W/m² 3,2 °C 2,8 °C 6,4 km/h (2 Bft)
31.10.2019 14:40 3,8 °C 97 % 1019,9 hPa 0,0 mm 4,6 km/h (1 Bft) O-NO 61 ° 0 min 0,000 mm 0,0 UV-I 53 W/m² 3,4 °C 2,9 °C 9,7 km/h (2 Bft)
31.10.2019 14:41 3,8 °C 97 % 1019,9 hPa 0,0 mm 4,9 km/h (1 Bft) O-NO 61 ° 0 min 0,000 mm 0,0 UV-I 51 W/m² 3,4 °C 2,8 °C 6,4 km/h (2 Bft)
31.10.2019 14:42 3,8 °C 97 % 1019,9 hPa 0,0 mm 4,3 km/h (1 Bft) NO 46 ° 0 min 0,000 mm 0,0 UV-I 51 W/m² 3,4 °C 3,8 °C 8,0 km/h (2 Bft)
31.10.2019 14:43 3,8 °C 96 % 1019,9 hPa 0,0 mm 6,6 km/h (2 Bft) NO 56 ° 0 min 0,000 mm 0,0 UV-I 49 W/m² 3,2 °C 2,1 °C 11,3 km/h (2 Bft)
31.10.2019 14:44 3,8 °C 97 % 1019,9 hPa 0,0 mm 8,3 km/h (2 Bft) NO 43 ° 0 min 0,000 mm 0,0 UV-I 47 W/m² 3,4 °C 1,6 °C 11,3 km/h (2 Bft)
31.10.2019 14:45 3,8 °C 97 % 1019,9 hPa 0,0 mm 7,2 km/h (2 Bft) O-NO 59 ° 0 min 0,000 mm 0,0 UV-I 49 W/m² 3,4 °C 2,0 °C 11,3 km/h (2 Bft)
31.10.2019 14:46 3,8 °C 97 % 1019,9 hPa 0,0 mm 6,0 km/h (2 Bft) O 90 ° 0 min 0,000 mm 0,0 UV-I 53 W/m² 3,4 °C 2,3 °C 8,0 km/h (2 Bft)
31.10.2019 14:47 3,8 °C 97 % 1019,8 hPa 0,0 mm 7,7 km/h (2 Bft) O 84 ° 0 min 0,000 mm 0,0 UV-I 51 W/m² 3,4 °C 1,8 °C 11,3 km/h (2 Bft)
31.10.2019 14:48 3,8 °C 97 % 1019,8 hPa 0,0 mm 2,8 km/h (1 Bft) NO 41 ° 0 min 0,000 mm 0,0 UV-I 49 W/m² 3,4 °C 3,8 °C 4,8 km/h (1 Bft)
31.10.2019 14:49 3,8 °C 96 % 1019,8 hPa 0,0 mm 5,0 km/h (1 Bft) O 94 ° 0 min 0,000 mm 0,0 UV-I 49 W/m² 3,2 °C 2,7 °C 9,7 km/h (2 Bft)
31.10.2019 14:50 3,8 °C 96 % 1019,8 hPa 0,0 mm 5,8 km/h (2 Bft) NO 51 ° 0 min 0,000 mm 0,0 UV-I 49 W/m² 3,2 °C 2,4 °C 8,0 km/h (2 Bft)
31.10.2019 14:51 3,8 °C 97 % 1019,9 hPa 0,0 mm 5,4 km/h (1 Bft) NO 51 ° 0 min 0,000 mm 0,0 UV-I 47 W/m² 3,4 °C 2,6 °C 8,0 km/h (2 Bft)
31.10.2019 14:52 3,8 °C 97 % 1019,8 hPa 0,0 mm 4,5 km/h (1 Bft) N-NO 15 ° 0 min 0,000 mm 0,0 UV-I 53 W/m² 3,4 °C 3,8 °C 6,4 km/h (2 Bft)
31.10.2019 14:53 3,8 °C 97 % 1019,8 hPa 0,0 mm 4,5 km/h (1 Bft) NO 38 ° 0 min 0,000 mm 0,0 UV-I 53 W/m² 3,4 °C 3,8 °C 9,7 km/h (2 Bft)
31.10.2019 14:54 3,8 °C 97 % 1019,8 hPa 0,0 mm 7,4 km/h (2 Bft) N-NO 30 ° 0 min 0,000 mm 0,0 UV-I 54 W/m² 3,4 °C 1,9 °C 9,7 km/h (2 Bft)
31.10.2019 14:55 3,8 °C 97 % 1019,8 hPa 0,0 mm 6,9 km/h (2 Bft) O 89 ° 0 min 0,000 mm 0,0 UV-I 54 W/m² 3,4 °C 2,0 °C 9,7 km/h (2 Bft)
31.10.2019 14:56 3,8 °C 96 % 1019,8 hPa 0,0 mm 5,0 km/h (1 Bft) O 84 ° 0 min 0,000 mm 0,0 UV-I 54 W/m² 3,2 °C 2,7 °C 6,4 km/h (2 Bft)
31.10.2019 14:57 3,7 °C 97 % 1019,7 hPa 0,0 mm 5,4 km/h (1 Bft) NO 34 ° 0 min 0,000 mm 0,0 UV-I 56 W/m² 3,3 °C 2,4 °C 8,0 km/h (2 Bft)
31.10.2019 14:58 3,7 °C 96 % 1019,7 hPa 0,0 mm 6,1 km/h (2 Bft) N-NO 33 ° 0 min 0,000 mm 0,0 UV-I 54 W/m² 3,1 °C 2,2 °C 8,0 km/h (2 Bft)
31.10.2019 14:59 3,7 °C 96 % 1019,7 hPa 0,0 mm 5,2 km/h (1 Bft) NO 41 ° 0 min 0,000 mm 0,0 UV-I 53 W/m² 3,1 °C 2,5 °C 12,9 km/h (3 Bft)
31.10.2019 15:00 3,8 °C 96 % 1019,7 hPa 0,0 mm 4,7 km/h (1 Bft) NO 47 ° 0 min 0,000 mm 0,0 UV-I 54 W/m² 3,2 °C 2,8 °C 8,0 km/h (2 Bft)
31.10.2019 15:01 3,8 °C 96 % 1019,7 hPa 0,0 mm 7,2 km/h (2 Bft) O-NO 60 ° 0 min 0,026 mm 0,0 UV-I 53 W/m² 3,2 °C 2,0 °C 12,9 km/h (3 Bft)
31.10.2019 15:02 3,8 °C 96 % 1019,7 hPa 0,0 mm 7,8 km/h (2 Bft) O 87 ° 0 min 0,000 mm 0,0 UV-I 47 W/m² 3,2 °C 1,8 °C 14,5 km/h (3 Bft)
31.10.2019 15:03 3,7 °C 97 % 1019,7 hPa 0,0 mm 7,1 km/h (2 Bft) O 94 ° 0 min 0,000 mm 0,0 UV-I 46 W/m² 3,3 °C 1,9 °C 9,7 km/h (2 Bft)
31.10.2019 15:04 3,7 °C 97 % 1019,6 hPa 0,0 mm 4,1 km/h (1 Bft) NO 54 ° 0 min 0,000 mm 0,0 UV-I 49 W/m² 3,3 °C 3,7 °C 6,4 km/h (2 Bft)
31.10.2019 15:05 3,7 °C 96 % 1019,6 hPa 0,0 mm 3,9 km/h (1 Bft) NO 50 ° 0 min 0,000 mm 0,0 UV-I 47 W/m² 3,1 °C 3,7 °C 6,4 km/h (2 Bft)
31.10.2019 15:06 3,8 °C 97 % 1019,6 hPa 0,0 mm 4,8 km/h (1 Bft) NO 46 ° 0 min 0,000 mm 0,0 UV-I 46 W/m² 3,4 °C 2,8 °C 8,0 km/h (2 Bft)
31.10.2019 15:07 3,8 °C 97 % 1019,6 hPa 0,0 mm 4,8 km/h (1 Bft) NO 54 ° 0 min 0,000 mm 0,0 UV-I 49 W/m² 3,4 °C 2,8 °C 6,4 km/h (2 Bft)
31.10.2019 15:08 3,8 °C 97 % 1019,6 hPa 0,0 mm 7,4 km/h (2 Bft) NO 39 ° 0 min 0,000 mm 0,0 UV-I 53 W/m² 3,4 °C 1,9 °C 11,3 km/h (2 Bft)
31.10.2019 15:09 3,8 °C 97 % 1019,6 hPa 0,0 mm 8,1 km/h (2 Bft) O-NO 62 ° 0 min 0,000 mm 0,0 UV-I 51 W/m² 3,4 °C 1,7 °C 9,7 km/h (2 Bft)
31.10.2019 15:10 3,8 °C 97 % 1019,6 hPa 0,0 mm 6,8 km/h (2 Bft) O-NO 60 ° 0 min 0,000 mm 0,0 UV-I 47 W/m² 3,4 °C 2,1 °C 8,0 km/h (2 Bft)
31.10.2019 15:11 3,8 °C 97 % 1019,6 hPa 0,0 mm 4,6 km/h (1 Bft) O-NO 62 ° 0 min 0,000 mm 0,0 UV-I 49 W/m² 3,4 °C 2,9 °C 6,4 km/h (2 Bft)
31.10.2019 15:12 3,8 °C 97 % 1019,6 hPa 0,0 mm 3,2 km/h (1 Bft) O-NO 62 ° 0 min 0,000 mm 0,0 UV-I 47 W/m² 3,4 °C 3,8 °C 4,8 km/h (1 Bft)
31.10.2019 15:13 3,8 °C 97 % 1019,6 hPa 0,0 mm 4,0 km/h (1 Bft) O-NO 64 ° 0 min 0,000 mm 0,0 UV-I 44 W/m² 3,4 °C 3,8 °C 4,8 km/h (1 Bft)
31.10.2019 15:14 3,8 °C 97 % 1019,6 hPa 0,0 mm 4,0 km/h (1 Bft) NO 36 ° 0 min 0,000 mm 0,0 UV-I 42 W/m² 3,4 °C 3,8 °C 6,4 km/h (2 Bft)
31.10.2019 15:15 3,8 °C 97 % 1019,6 hPa 0,0 mm 3,4 km/h (1 Bft) NO 34 ° 0 min 0,000 mm 0,0 UV-I 42 W/m² 3,4 °C 3,8 °C 4,8 km/h (1 Bft)
31.10.2019 15:16 3,8 °C 97 % 1019,6 hPa 0,0 mm 4,7 km/h (1 Bft) O 82 ° 0 min 0,000 mm 0,0 UV-I 40 W/m² 3,4 °C 2,8 °C 6,4 km/h (2 Bft)
31.10.2019 15:17 3,9 °C 97 % 1019,6 hPa 0,0 mm 6,2 km/h (2 Bft) NO 49 ° 0 min 0,000 mm 0,0 UV-I 39 W/m² 3,5 °C 2,4 °C 8,0 km/h (2 Bft)
31.10.2019 15:18 3,9 °C 96 % 1019,7 hPa 0,0 mm 4,6 km/h (1 Bft) O-NO 74 ° 0 min 0,000 mm 0,0 UV-I 39 W/m² 3,3 °C 3,0 °C 9,7 km/h (2 Bft)
31.10.2019 15:19 3,9 °C 96 % 1019,7 hPa 0,0 mm 4,0 km/h (1 Bft) O-NO 67 ° 0 min 0,000 mm 0,0 UV-I 40 W/m² 3,3 °C 3,9 °C 4,8 km/h (1 Bft)
31.10.2019 15:20 3,9 °C 96 % 1019,6 hPa 0,0 mm 8,1 km/h (2 Bft) O-NO 74 ° 0 min 0,000 mm 0,0 UV-I 40 W/m² 3,3 °C 1,8 °C 11,3 km/h (2 Bft)
31.10.2019 15:21 3,9 °C 96 % 1019,6 hPa 0,0 mm 6,4 km/h (2 Bft) NO 51 ° 0 min 0,000 mm 0,0 UV-I 39 W/m² 3,3 °C 2,3 °C 9,7 km/h (2 Bft)
31.10.2019 15:22 3,9 °C 96 % 1019,6 hPa 0,0 mm 5,3 km/h (1 Bft) O-NO 59 ° 0 min 0,000 mm 0,0 UV-I 40 W/m² 3,3 °C 2,7 °C 8,0 km/h (2 Bft)
31.10.2019 15:23 3,9 °C 97 % 1019,6 hPa 0,0 mm 6,4 km/h (2 Bft) O 94 ° 0 min 0,000 mm 0,0 UV-I 39 W/m² 3,5 °C 2,3 °C 11,3 km/h (2 Bft)
31.10.2019 15:24 3,8 °C 96 % 1019,6 hPa 0,0 mm 2,9 km/h (1 Bft) NO 51 ° 0 min 0,000 mm 0,0 UV-I 37 W/m² 3,2 °C 3,8 °C 6,4 km/h (2 Bft)
31.10.2019 15:25 3,9 °C 96 % 1019,6 hPa 0,0 mm 4,6 km/h (1 Bft) O 89 ° 0 min 0,000 mm 0,0 UV-I 35 W/m² 3,3 °C 3,0 °C 11,3 km/h (2 Bft)
31.10.2019 15:26 3,8 °C 97 % 1019,6 hPa 0,0 mm 4,9 km/h (1 Bft) O-NO 57 ° 0 min 0,000 mm 0,0 UV-I 33 W/m² 3,4 °C 2,8 °C 8,0 km/h (2 Bft)
31.10.2019 15:27 3,8 °C 97 % 1019,6 hPa 0,0 mm 5,2 km/h (1 Bft) NO 55 ° 0 min 0,000 mm 0,0 UV-I 32 W/m² 3,4 °C 2,6 °C 8,0 km/h (2 Bft)
31.10.2019 15:28 3,8 °C 97 % 1019,6 hPa 0,0 mm 4,8 km/h (1 Bft) O-NO 57 ° 0 min 0,000 mm 0,0 UV-I 32 W/m² 3,4 °C 2,8 °C 8,0 km/h (2 Bft)
31.10.2019 15:29 3,8 °C 97 % 1019,6 hPa 0,0 mm 6,6 km/h (2 Bft) O-NO 71 ° 0 min 0,000 mm 0,0 UV-I 33 W/m² 3,4 °C 2,1 °C 9,7 km/h (2 Bft)
31.10.2019 15:30 3,8 °C 97 % 1019,6 hPa 0,0 mm 6,2 km/h (2 Bft) NO 56 ° 0 min 0,000 mm 0,0 UV-I 33 W/m² 3,4 °C 2,3 °C 9,7 km/h (2 Bft)
31.10.2019 15:31 3,8 °C 97 % 1019,6 hPa 0,0 mm 3,0 km/h (1 Bft) NO 54 ° 0 min 0,000 mm 0,0 UV-I 33 W/m² 3,4 °C 3,8 °C 6,4 km/h (2 Bft)
31.10.2019 15:32 3,8 °C 97 % 1019,6 hPa 0,0 mm 3,7 km/h (1 Bft) O-NO 73 ° 0 min 0,000 mm 0,0 UV-I 32 W/m² 3,4 °C 3,8 °C 6,4 km/h (2 Bft)
31.10.2019 15:33 3,8 °C 97 % 1019,6 hPa 0,0 mm 8,2 km/h (2 Bft) O 83 ° 0 min 0,000 mm 0,0 UV-I 28 W/m² 3,4 °C 1,7 °C 12,9 km/h (3 Bft)
31.10.2019 15:34 3,8 °C 97 % 1019,6 hPa 0,0 mm 6,8 km/h (2 Bft) NO 41 ° 0 min 0,000 mm 0,0 UV-I 26 W/m² 3,4 °C 2,1 °C 11,3 km/h (2 Bft)
31.10.2019 15:35 3,8 °C 97 % 1019,6 hPa 0,0 mm 6,2 km/h (2 Bft) NO 52 ° 0 min 0,000 mm 0,0 UV-I 28 W/m² 3,4 °C 2,3 °C 12,9 km/h (3 Bft)
31.10.2019 15:36 3,8 °C 97 % 1019,6 hPa 0,0 mm 6,8 km/h (2 Bft) O 84 ° 0 min 0,000 mm 0,0 UV-I 30 W/m² 3,4 °C 2,1 °C 11,3 km/h (2 Bft)
31.10.2019 15:37 3,8 °C 97 % 1019,6 hPa 0,0 mm 4,6 km/h (1 Bft) O 84 ° 0 min 0,000 mm 0,0 UV-I 30 W/m² 3,4 °C 2,9 °C 6,4 km/h (2 Bft)
31.10.2019 15:38 3,8 °C 97 % 1019,6 hPa 0,0 mm 5,0 km/h (1 Bft) O-NO 60 ° 0 min 0,000 mm 0,0 UV-I 30 W/m² 3,4 °C 2,7 °C 6,4 km/h (2 Bft)
31.10.2019 15:39 3,8 °C 97 % 1019,6 hPa 0,0 mm 4,8 km/h (1 Bft) O 86 ° 0 min 0,000 mm 0,0 UV-I 30 W/m² 3,4 °C 2,8 °C 8,0 km/h (2 Bft)
31.10.2019 15:40 3,8 °C 97 % 1019,6 hPa 0,0 mm 2,6 km/h (1 Bft) O 85 ° 0 min 0,000 mm 0,0 UV-I 30 W/m² 3,4 °C 3,8 °C 4,8 km/h (1 Bft)
31.10.2019 15:41 3,8 °C 97 % 1019,6 hPa 0,0 mm 4,0 km/h (1 Bft) O 88 ° 0 min 0,000 mm 0,0 UV-I 28 W/m² 3,4 °C 3,8 °C 8,0 km/h (2 Bft)
31.10.2019 15:42 3,8 °C 97 % 1019,6 hPa 0,0 mm 5,6 km/h (1 Bft) NO 47 ° 0 min 0,000 mm 0,0 UV-I 28 W/m² 3,4 °C 2,5 °C 8,0 km/h (2 Bft)
31.10.2019 15:43 3,8 °C 97 % 1019,6 hPa 0,0 mm 5,0 km/h (1 Bft) NO 36 ° 0 min 0,000 mm 0,0 UV-I 26 W/m² 3,4 °C 2,7 °C 6,4 km/h (2 Bft)
31.10.2019 15:44 3,8 °C 97 % 1019,6 hPa 0,0 mm 4,1 km/h (1 Bft) NO 46 ° 0 min 0,000 mm 0,0 UV-I 25 W/m² 3,4 °C 3,8 °C 6,4 km/h (2 Bft)
31.10.2019 15:45 3,8 °C 97 % 1019,6 hPa 0,0 mm 3,8 km/h (1 Bft) O-NO 78 ° 0 min 0,000 mm 0,0 UV-I 23 W/m² 3,4 °C 3,8 °C 4,8 km/h (1 Bft)
31.10.2019 15:46 3,9 °C 96 % 1019,6 hPa 0,0 mm 4,0 km/h (1 Bft) O-NO 68 ° 0 min 0,000 mm 0,0 UV-I 23 W/m² 3,3 °C 3,9 °C 4,8 km/h (1 Bft)
31.10.2019 15:47 3,9 °C 97 % 1019,6 hPa 0,0 mm 3,2 km/h (1 Bft) O-NO 67 ° 0 min 0,000 mm 0,0 UV-I 23 W/m² 3,5 °C 3,9 °C 6,4 km/h (2 Bft)
31.10.2019 15:48 3,9 °C 96 % 1019,7 hPa 0,0 mm 7,8 km/h (2 Bft) O 88 ° 0 min 0,000 mm 0,0 UV-I 23 W/m² 3,3 °C 1,9 °C 11,3 km/h (2 Bft)
31.10.2019 15:49 3,9 °C 96 % 1019,7 hPa 0,0 mm 5,8 km/h (2 Bft) O-NO 59 ° 0 min 0,000 mm 0,0 UV-I 23 W/m² 3,3 °C 2,5 °C 9,7 km/h (2 Bft)
31.10.2019 15:50 3,9 °C 96 % 1019,6 hPa 0,0 mm 4,6 km/h (1 Bft) O-NO 68 ° 0 min 0,000 mm 0,0 UV-I 21 W/m² 3,3 °C 3,0 °C 6,4 km/h (2 Bft)
31.10.2019 15:51 3,9 °C 96 % 1019,7 hPa 0,0 mm 6,9 km/h (2 Bft) O-NO 66 ° 0 min 0,000 mm 0,0 UV-I 21 W/m² 3,3 °C 2,2 °C 11,3 km/h (2 Bft)
31.10.2019 15:52 3,9 °C 97 % 1019,6 hPa 0,0 mm 7,6 km/h (2 Bft) O-NO 71 ° 0 min 0,000 mm 0,0 UV-I 21 W/m² 3,5 °C 2,0 °C 12,9 km/h (3 Bft)
31.10.2019 15:53 3,8 °C 96 % 1019,6 hPa 0,0 mm 6,0 km/h (2 Bft) NO 46 ° 0 min 0,000 mm 0,0 UV-I 21 W/m² 3,2 °C 2,3 °C 11,3 km/h (2 Bft)
31.10.2019 15:54 3,8 °C 97 % 1019,6 hPa 0,0 mm 6,5 km/h (2 Bft) O-NO 77 ° 0 min 0,000 mm 0,0 UV-I 19 W/m² 3,4 °C 2,2 °C 8,0 km/h (2 Bft)
31.10.2019 15:55 3,8 °C 97 % 1019,6 hPa 0,0 mm 4,2 km/h (1 Bft) O-NO 76 ° 0 min 0,000 mm 0,0 UV-I 19 W/m² 3,4 °C 3,8 °C 4,8 km/h (1 Bft)
31.10.2019 15:56 3,8 °C 97 % 1019,6 hPa 0,0 mm 7,0 km/h (2 Bft) O-NO 65 ° 0 min 0,000 mm 0,0 UV-I 19 W/m² 3,4 °C 2,0 °C 9,7 km/h (2 Bft)
31.10.2019 15:57 3,8 °C 97 % 1019,6 hPa 0,0 mm 6,2 km/h (2 Bft) O-NO 61 ° 0 min 0,000 mm 0,0 UV-I 19 W/m² 3,4 °C 2,3 °C 8,0 km/h (2 Bft)
31.10.2019 15:58 3,8 °C 97 % 1019,6 hPa 0,0 mm 7,5 km/h (2 Bft) O-NO 76 ° 0 min 0,000 mm 0,0 UV-I 19 W/m² 3,4 °C 1,9 °C 11,3 km/h (2 Bft)
31.10.2019 15:59 3,8 °C 97 % 1019,7 hPa 0,0 mm 7,5 km/h (2 Bft) O-NO 61 ° 0 min 0,000 mm 0,0 UV-I 18 W/m² 3,4 °C 1,9 °C 11,3 km/h (2 Bft)
31.10.2019 16:00 3,8 °C 97 % 1019,6 hPa 0,0 mm 6,6 km/h (2 Bft) O-NO 65 ° 0 min 0,000 mm 0,0 UV-I 18 W/m² 3,4 °C 2,1 °C 11,3 km/h (2 Bft)
31.10.2019 16:01 3,8 °C 97 % 1019,6 hPa 0,0 mm 2,8 km/h (1 Bft) O-NO 74 ° 0 min 0,025 mm 0,0 UV-I 16 W/m² 3,4 °C 3,8 °C 4,8 km/h (1 Bft)
31.10.2019 16:02 3,8 °C 97 % 1019,6 hPa 0,0 mm 3,0 km/h (1 Bft) O-NO 74 ° 0 min 0,000 mm 0,0 UV-I 16 W/m² 3,4 °C 3,8 °C 4,8 km/h (1 Bft)
31.10.2019 16:03 3,8 °C 97 % 1019,6 hPa 0,0 mm 2,5 km/h (1 Bft) O-SO 109 ° 0 min 0,000 mm 0,0 UV-I 16 W/m² 3,4 °C 3,8 °C 3,2 km/h (1 Bft)
31.10.2019 16:04 3,8 °C 97 % 1019,6 hPa 0,0 mm 3,3 km/h (1 Bft) O-NO 63 ° 0 min 0,000 mm 0,0 UV-I 16 W/m² 3,4 °C 3,8 °C 6,4 km/h (2 Bft)
31.10.2019 16:05 3,8 °C 97 % 1019,6 hPa 0,0 mm 4,0 km/h (1 Bft) O 80 ° 0 min 0,000 mm 0,0 UV-I 16 W/m² 3,4 °C 3,8 °C 6,4 km/h (2 Bft)
31.10.2019 16:06 3,8 °C 96 % 1019,6 hPa 0,0 mm 4,8 km/h (1 Bft) O-NO 65 ° 0 min 0,000 mm 0,0 UV-I 14 W/m² 3,2 °C 2,8 °C 8,0 km/h (2 Bft)
31.10.2019 16:07 3,8 °C 97 % 1019,6 hPa 0,0 mm 3,4 km/h (1 Bft) O-NO 65 ° 0 min 0,000 mm 0,0 UV-I 14 W/m² 3,4 °C 3,8 °C 6,4 km/h (2 Bft)
31.10.2019 16:08 3,8 °C 96 % 1019,6 hPa 0,0 mm 1,5 km/h (1 Bft) O-NO 65 ° 0 min 0,000 mm 0,0 UV-I 14 W/m² 3,2 °C 3,8 °C 4,8 km/h (1 Bft)
31.10.2019 16:09 3,9 °C 96 % 1019,6 hPa 0,0 mm 4,0 km/h (1 Bft) O-NO 68 ° 0 min 0,000 mm 0,0 UV-I 14 W/m² 3,3 °C 3,9 °C 4,8 km/h (1 Bft)
31.10.2019 16:10 3,8 °C 96 % 1019,6 hPa 0,0 mm 3,0 km/h (1 Bft) O-NO 67 ° 0 min 0,000 mm 0,0 UV-I 14 W/m² 3,2 °C 3,8 °C 4,8 km/h (1 Bft)
31.10.2019 16:11 3,9 °C 96 % 1019,6 hPa 0,0 mm 4,0 km/h (1 Bft) O-NO 67 ° 0 min 0,000 mm 0,0 UV-I 14 W/m² 3,3 °C 3,9 °C 6,4 km/h (2 Bft)
31.10.2019 16:12 3,9 °C 96 % 1019,6 hPa 0,0 mm 3,4 km/h (1 Bft) O-NO 67 ° 0 min 0,000 mm 0,0 UV-I 14 W/m² 3,3 °C 3,9 °C 4,8 km/h (1 Bft)
31.10.2019 16:13 3,8 °C 96 % 1019,6 hPa 0,0 mm 5,6 km/h (1 Bft) O-NO 63 ° 0 min 0,000 mm 0,0 UV-I 14 W/m² 3,2 °C 2,5 °C 8,0 km/h (2 Bft)
31.10.2019 16:14 3,9 °C 96 % 1019,6 hPa 0,0 mm 2,7 km/h (1 Bft) O-NO 63 ° 0 min 0,000 mm 0,0 UV-I 14 W/m² 3,3 °C 3,9 °C 4,8 km/h (1 Bft)
31.10.2019 16:15 3,8 °C 97 % 1019,6 hPa 0,0 mm 3,6 km/h (1 Bft) O-NO 66 ° 0 min 0,000 mm 0,0 UV-I 12 W/m² 3,4 °C 3,8 °C 4,8 km/h (1 Bft)
31.10.2019 16:16 3,9 °C 97 % 1019,6 hPa 0,0 mm 4,1 km/h (1 Bft) NO 49 ° 0 min 0,000 mm 0,0 UV-I 12 W/m² 3,5 °C 3,9 °C 9,7 km/h (2 Bft)
31.10.2019 16:17 3,9 °C 96 % 1019,6 hPa 0,0 mm 1,7 km/h (1 Bft) NO 49 ° 0 min 0,000 mm 0,0 UV-I 12 W/m² 3,3 °C 3,9 °C 4,8 km/h (1 Bft)
31.10.2019 16:18 3,9 °C 96 % 1019,6 hPa 0,0 mm 0,5 km/h (0 Bft) NO 49 ° 0 min 0,000 mm 0,0 UV-I 11 W/m² 3,3 °C 3,9 °C 3,2 km/h (1 Bft)
31.10.2019 16:19 3,9 °C 96 % 1019,6 hPa 0,0 mm 3,6 km/h (1 Bft) O-NO 75 ° 0 min 0,000 mm 0,0 UV-I 11 W/m² 3,3 °C 3,9 °C 6,4 km/h (2 Bft)
31.10.2019 16:20 3,9 °C 96 % 1019,6 hPa 0,0 mm 6,7 km/h (2 Bft) O-NO 72 ° 0 min 0,000 mm 0,0 UV-I 11 W/m² 3,3 °C 2,2 °C 11,3 km/h (2 Bft)
31.10.2019 16:21 3,9 °C 96 % 1019,6 hPa 0,0 mm 5,2 km/h (1 Bft) O-NO 65 ° 0 min 0,000 mm 0,0 UV-I 11 W/m² 3,3 °C 2,8 °C 8,0 km/h (2 Bft)
31.10.2019 16:22 3,9 °C 96 % 1019,6 hPa 0,0 mm 4,1 km/h (1 Bft) NO 55 ° 0 min 0,000 mm 0,0 UV-I 11 W/m² 3,3 °C 3,9 °C 6,4 km/h (2 Bft)
31.10.2019 16:23 3,8 °C 97 % 1019,6 hPa 0,0 mm 6,6 km/h (2 Bft) O-NO 71 ° 0 min 0,000 mm 0,0 UV-I 11 W/m² 3,4 °C 2,1 °C 11,3 km/h (2 Bft)
31.10.2019 16:24 3,8 °C 97 % 1019,6 hPa 0,0 mm 5,5 km/h (1 Bft) O-NO 69 ° 0 min 0,000 mm 0,0 UV-I 9 W/m² 3,4 °C 2,5 °C 8,0 km/h (2 Bft)
31.10.2019 16:25 3,8 °C 97 % 1019,6 hPa 0,0 mm 4,8 km/h (1 Bft) O-NO 63 ° 0 min 0,000 mm 0,0 UV-I 9 W/m² 3,4 °C 2,8 °C 8,0 km/h (2 Bft)
31.10.2019 16:26 3,8 °C 97 % 1019,7 hPa 0,0 mm 4,5 km/h (1 Bft) O-NO 63 ° 0 min 0,000 mm 0,0 UV-I 9 W/m² 3,4 °C 3,8 °C 8,0 km/h (2 Bft)
31.10.2019 16:27 3,8 °C 97 % 1019,6 hPa 0,0 mm 3,2 km/h (1 Bft) NO 44 ° 0 min 0,000 mm 0,0 UV-I 9 W/m² 3,4 °C 3,8 °C 4,8 km/h (1 Bft)
31.10.2019 16:28 3,8 °C 97 % 1019,6 hPa 0,0 mm 3,5 km/h (1 Bft) NO 46 ° 0 min 0,000 mm 0,0 UV-I 7 W/m² 3,4 °C 3,8 °C 4,8 km/h (1 Bft)
31.10.2019 16:29 3,8 °C 97 % 1019,6 hPa 0,0 mm 2,3 km/h (1 Bft) O 84 ° 0 min 0,000 mm 0,0 UV-I 7 W/m² 3,4 °C 3,8 °C 4,8 km/h (1 Bft)
31.10.2019 16:30 3,8 °C 97 % 1019,7 hPa 0,0 mm 4,4 km/h (1 Bft) NO 56 ° 0 min 0,000 mm 0,0 UV-I 7 W/m² 3,4 °C 3,8 °C 6,4 km/h (2 Bft)
31.10.2019 16:31 3,8 °C 97 % 1019,7 hPa 0,0 mm 4,0 km/h (1 Bft) O-NO 70 ° 0 min 0,000 mm 0,0 UV-I 7 W/m² 3,4 °C 3,8 °C 6,4 km/h (2 Bft)
31.10.2019 16:32 3,8 °C 97 % 1019,7 hPa 0,0 mm 3,5 km/h (1 Bft) O-NO 71 ° 0 min 0,000 mm 0,0 UV-I 7 W/m² 3,4 °C 3,8 °C 4,8 km/h (1 Bft)
31.10.2019 16:33 3,8 °C 97 % 1019,7 hPa 0,0 mm 4,2 km/h (1 Bft) O-NO 71 ° 0 min 0,000 mm 0,0 UV-I 7 W/m² 3,4 °C 3,8 °C 6,4 km/h (2 Bft)
31.10.2019 16:34 3,8 °C 97 % 1019,7 hPa 0,0 mm 4,0 km/h (1 Bft) NO 56 ° 0 min 0,000 mm 0,0 UV-I 7 W/m² 3,4 °C 3,8 °C 6,4 km/h (2 Bft)
31.10.2019 16:35 3,8 °C 97 % 1019,7 hPa 0,0 mm 4,5 km/h (1 Bft) O-NO 65 ° 0 min 0,000 mm 0,0 UV-I 7 W/m² 3,4 °C 3,8 °C 6,4 km/h (2 Bft)
31.10.2019 16:36 3,8 °C 97 % 1019,7 hPa 0,0 mm 1,7 km/h (1 Bft) O-NO 65 ° 0 min 0,000 mm 0,0 UV-I 7 W/m² 3,4 °C 3,8 °C 3,2 km/h (1 Bft)
31.10.2019 16:37 3,8 °C 97 % 1019,7 hPa 0,0 mm 2,3 km/h (1 Bft) O-NO 65 ° 0 min 0,000 mm 0,0 UV-I 7 W/m² 3,4 °C 3,8 °C 4,8 km/h (1 Bft)
31.10.2019 16:38 3,8 °C 97 % 1019,7 hPa 0,0 mm 4,2 km/h (1 Bft) O-NO 65 ° 0 min 0,000 mm 0,0 UV-I 5 W/m² 3,4 °C 3,8 °C 6,4 km/h (2 Bft)
31.10.2019 16:39 3,8 °C 97 % 1019,7 hPa 0,0 mm 3,1 km/h (1 Bft) NO 41 ° 0 min 0,000 mm 0,0 UV-I 5 W/m² 3,4 °C 3,8 °C 6,4 km/h (2 Bft)
31.10.2019 16:40 3,8 °C 97 % 1019,7 hPa 0,0 mm 2,2 km/h (1 Bft) NO 41 ° 0 min 0,000 mm 0,0 UV-I 5 W/m² 3,4 °C 3,8 °C 4,8 km/h (1 Bft)
31.10.2019 16:41 3,8 °C 97 % 1019,7 hPa 0,0 mm 1,8 km/h (1 Bft) NO 41 ° 0 min 0,000 mm 0,0 UV-I 5 W/m² 3,4 °C 3,8 °C 3,2 km/h (1 Bft)
31.10.2019 16:42 3,8 °C 97 % 1019,7 hPa 0,0 mm 2,1 km/h (1 Bft) NO 41 ° 0 min 0,000 mm 0,0 UV-I 5 W/m² 3,4 °C 3,8 °C 3,2 km/h (1 Bft)
31.10.2019 16:43 3,8 °C 97 % 1019,7 hPa 0,0 mm 3,3 km/h (1 Bft) O-SO 107 ° 0 min 0,000 mm 0,0 UV-I 5 W/m² 3,4 °C 3,8 °C 6,4 km/h (2 Bft)
31.10.2019 16:44 3,8 °C 97 % 1019,7 hPa 0,0 mm 2,8 km/h (1 Bft) O-SO 107 ° 0 min 0,000 mm 0,0 UV-I 5 W/m² 3,4 °C 3,8 °C 4,8 km/h (1 Bft)
31.10.2019 16:45 3,8 °C 97 % 1019,7 hPa 0,0 mm 2,7 km/h (1 Bft) N-NO 29 ° 0 min 0,000 mm 0,0 UV-I 0 W/m² 3,4 °C 3,8 °C 8,0 km/h (2 Bft)
31.10.2019 16:46 3,8 °C 97 % 1019,7 hPa 0,0 mm 4,4 km/h (1 Bft) O-NO 57 ° 0 min 0,000 mm 0,0 UV-I 0 W/m² 3,4 °C 3,8 °C 6,4 km/h (2 Bft)
31.10.2019 16:47 3,8 °C 97 % 1019,7 hPa 0,0 mm 2,9 km/h (1 Bft) O-NO 61 ° 0 min 0,000 mm 0,0 UV-I 0 W/m² 3,4 °C 3,8 °C 3,2 km/h (1 Bft)
31.10.2019 16:48 3,8 °C 97 % 1019,8 hPa 0,0 mm 2,5 km/h (1 Bft) O-NO 60 ° 0 min 0,000 mm 0,0 UV-I 0 W/m² 3,4 °C 3,8 °C 4,8 km/h (1 Bft)
31.10.2019 16:49 3,8 °C 97 % 1019,7 hPa 0,0 mm 2,5 km/h (1 Bft) O-NO 60 ° 0 min 0,000 mm 0,0 UV-I 0 W/m² 3,4 °C 3,8 °C 4,8 km/h (1 Bft)
31.10.2019 16:50 3,8 °C 97 % 1019,7 hPa 0,0 mm 3,6 km/h (1 Bft) N-NO 30 ° 0 min 0,000 mm 0,0 UV-I 0 W/m² 3,4 °C 3,8 °C 4,8 km/h (1 Bft)
31.10.2019 16:51 3,8 °C 97 % 1019,7 hPa 0,0 mm 4,2 km/h (1 Bft) NO 50 ° 0 min 0,000 mm 0,0 UV-I 0 W/m² 3,4 °C 3,8 °C 6,4 km/h (2 Bft)
31.10.2019 16:52 3,8 °C 97 % 1019,7 hPa 0,0 mm 6,7 km/h (2 Bft) O-NO 57 ° 0 min 0,000 mm 0,0 UV-I 0 W/m² 3,4 °C 2,1 °C 9,7 km/h (2 Bft)
31.10.2019 16:53 3,7 °C 97 % 1019,7 hPa 0,0 mm 4,4 km/h (1 Bft) O-NO 64 ° 0 min 0,000 mm 0,0 UV-I 0 W/m² 3,3 °C 3,7 °C 6,4 km/h (2 Bft)
31.10.2019 16:54 3,8 °C 97 % 1019,7 hPa 0,0 mm 4,2 km/h (1 Bft) O-NO 64 ° 0 min 0,000 mm 0,0 UV-I 0 W/m² 3,4 °C 3,8 °C 6,4 km/h (2 Bft)
31.10.2019 16:55 3,8 °C 97 % 1019,7 hPa 0,0 mm 2,9 km/h (1 Bft) O-NO 64 ° 0 min 0,000 mm 0,0 UV-I 0 W/m² 3,4 °C 3,8 °C 4,8 km/h (1 Bft)
31.10.2019 16:56 3,7 °C 97 % 1019,7 hPa 0,0 mm 4,4 km/h (1 Bft) NO 49 ° 0 min 0,000 mm 0,0 UV-I 0 W/m² 3,3 °C 3,7 °C 6,4 km/h (2 Bft)
31.10.2019 16:57 3,7 °C 97 % 1019,7 hPa 0,0 mm 5,0 km/h (1 Bft) O-NO 61 ° 0 min 0,000 mm 0,0 UV-I 0 W/m² 3,3 °C 2,6 °C 6,4 km/h (2 Bft)
31.10.2019 16:58 3,7 °C 97 % 1019,7 hPa 0,0 mm 4,1 km/h (1 Bft) O-NO 61 ° 0 min 0,000 mm 0,0 UV-I 0 W/m² 3,3 °C 3,7 °C 6,4 km/h (2 Bft)
31.10.2019 16:59 3,7 °C 97 % 1019,8 hPa 0,0 mm 3,7 km/h (1 Bft) O-NO 60 ° 0 min 0,000 mm 0,0 UV-I 0 W/m² 3,3 °C 3,7 °C 6,4 km/h (2 Bft)
31.10.2019 17:00 3,7 °C 97 % 1019,8 hPa 0,0 mm 3,5 km/h (1 Bft) O-NO 60 ° 0 min 0,000 mm 0,0 UV-I 0 W/m² 3,3 °C 3,7 °C 4,8 km/h (1 Bft)
31.10.2019 17:01 3,7 °C 97 % 1019,8 hPa 0,0 mm 4,0 km/h (1 Bft) NO 53 ° 0 min 0,000 mm 0,0 UV-I 0 W/m² 3,3 °C 3,7 °C 4,8 km/h (1 Bft)
31.10.2019 17:02 3,7 °C 97 % 1019,8 hPa 0,0 mm 3,5 km/h (1 Bft) O-NO 67 ° 0 min 0,000 mm 0,0 UV-I 0 W/m² 3,3 °C 3,7 °C 6,4 km/h (2 Bft)
31.10.2019 17:03 3,7 °C 97 % 1019,8 hPa 0,0 mm 3,5 km/h (1 Bft) O-NO 69 ° 0 min 0,000 mm 0,0 UV-I 0 W/m² 3,3 °C 3,7 °C 4,8 km/h (1 Bft)
31.10.2019 17:04 3,7 °C 97 % 1019,8 hPa 0,0 mm 0,5 km/h (0 Bft) O-NO 69 ° 0 min 0,000 mm 0,0 UV-I 0 W/m² 3,3 °C 3,7 °C 3,2 km/h (1 Bft)
31.10.2019 17:05 3,7 °C 97 % 1019,8 hPa 0,0 mm 7,3 km/h (2 Bft) N-NO 26 ° 0 min 0,000 mm 0,0 UV-I 0 W/m² 3,3 °C 1,8 °C 9,7 km/h (2 Bft)
31.10.2019 17:06 3,7 °C 97 % 1019,8 hPa 0,0 mm 3,6 km/h (1 Bft) N-NO 31 ° 0 min 0,000 mm 0,0 UV-I 0 W/m² 3,3 °C 3,7 °C 8,0 km/h (2 Bft)
31.10.2019 17:07 3,7 °C 97 % 1019,8 hPa 0,0 mm 3,7 km/h (1 Bft) N-NO 25 ° 0 min 0,000 mm 0,0 UV-I 0 W/m² 3,3 °C 3,7 °C 8,0 km/h (2 Bft)
31.10.2019 17:08 3,7 °C 96 % 1019,8 hPa 0,0 mm 4,2 km/h (1 Bft) O 89 ° 0 min 0,000 mm 0,0 UV-I 0 W/m² 3,1 °C 3,7 °C 8,0 km/h (2 Bft)
31.10.2019 17:09 3,7 °C 97 % 1019,8 hPa 0,0 mm 3,6 km/h (1 Bft) O-NO 59 ° 0 min 0,000 mm 0,0 UV-I 0 W/m² 3,3 °C 3,7 °C 6,4 km/h (2 Bft)
31.10.2019 17:10 3,7 °C 96 % 1019,8 hPa 0,0 mm 3,9 km/h (1 Bft) O-NO 69 ° 0 min 0,000 mm 0,0 UV-I 0 W/m² 3,1 °C 3,7 °C 4,8 km/h (1 Bft)
31.10.2019 17:11 3,6 °C 96 % 1019,8 hPa 0,0 mm 3,3 km/h (1 Bft) O-NO 69 ° 0 min 0,000 mm 0,0 UV-I 0 W/m² 3,0 °C 3,6 °C 4,8 km/h (1 Bft)
31.10.2019 17:12 3,7 °C 96 % 1019,8 hPa 0,0 mm 2,6 km/h (1 Bft) O-NO 73 ° 0 min 0,000 mm 0,0 UV-I 0 W/m² 3,1 °C 3,7 °C 4,8 km/h (1 Bft)
31.10.2019 17:13 3,7 °C 96 % 1019,8 hPa 0,0 mm 2,6 km/h (1 Bft) O-NO 63 ° 0 min 0,000 mm 0,0 UV-I 0 W/m² 3,1 °C 3,7 °C 4,8 km/h (1 Bft)
31.10.2019 17:14 3,6 °C 96 % 1019,8 hPa 0,0 mm 3,1 km/h (1 Bft) O-NO 63 ° 0 min 0,000 mm 0,0 UV-I 0 W/m² 3,0 °C 3,6 °C 4,8 km/h (1 Bft)
31.10.2019 17:15 3,6 °C 96 % 1019,8 hPa 0,0 mm 3,5 km/h (1 Bft) O-NO 63 ° 0 min 0,000 mm 0,0 UV-I 0 W/m² 3,0 °C 3,6 °C 6,4 km/h (2 Bft)
31.10.2019 17:16 3,6 °C 96 % 1019,8 hPa 0,0 mm 2,2 km/h (1 Bft) O-NO 63 ° 0 min 0,000 mm 0,0 UV-I 0 W/m² 3,0 °C 3,6 °C 4,8 km/h (1 Bft)
31.10.2019 17:17 3,6 °C 96 % 1019,8 hPa 0,0 mm 2,4 km/h (1 Bft) O-NO 62 ° 0 min 0,000 mm 0,0 UV-I 0 W/m² 3,0 °C 3,6 °C 4,8 km/h (1 Bft)
31.10.2019 17:18 3,6 °C 96 % 1019,8 hPa 0,0 mm 4,1 km/h (1 Bft) O-NO 63 ° 0 min 0,000 mm 0,0 UV-I 0 W/m² 3,0 °C 3,6 °C 6,4 km/h (2 Bft)
31.10.2019 17:19 3,6 °C 96 % 1019,7 hPa 0,0 mm 4,3 km/h (1 Bft) O-NO 69 ° 0 min 0,000 mm 0,0 UV-I 0 W/m² 3,0 °C 3,6 °C 6,4 km/h (2 Bft)
31.10.2019 17:20 3,6 °C 96 % 1019,8 hPa 0,0 mm 5,2 km/h (1 Bft) O 81 ° 0 min 0,000 mm 0,0 UV-I 0 W/m² 3,0 °C 2,4 °C 8,0 km/h (2 Bft)
31.10.2019 17:21 3,6 °C 96 % 1019,8 hPa 0,0 mm 2,7 km/h (1 Bft) O 81 ° 0 min 0,000 mm 0,0 UV-I 0 W/m² 3,0 °C 3,6 °C 3,2 km/h (1 Bft)
31.10.2019 17:22 3,6 °C 96 % 1019,7 hPa 0,0 mm 3,9 km/h (1 Bft) O-NO 57 ° 0 min 0,000 mm 0,0 UV-I 0 W/m² 3,0 °C 3,6 °C 6,4 km/h (2 Bft)
31.10.2019 17:23 3,6 °C 96 % 1019,8 hPa 0,0 mm 4,0 km/h (1 Bft) O-NO 57 ° 0 min 0,000 mm 0,0 UV-I 0 W/m² 3,0 °C 3,6 °C 4,8 km/h (1 Bft)
31.10.2019 17:24 3,6 °C 96 % 1019,8 hPa 0,0 mm 5,2 km/h (1 Bft) O-NO 66 ° 0 min 0,000 mm 0,0 UV-I 0 W/m² 3,0 °C 2,4 °C 8,0 km/h (2 Bft)
31.10.2019 17:25 3,6 °C 96 % 1019,9 hPa 0,0 mm 5,8 km/h (2 Bft) O-NO 74 ° 0 min 0,000 mm 0,0 UV-I 0 W/m² 3,0 °C 2,2 °C 8,0 km/h (2 Bft)
31.10.2019 17:26 3,6 °C 96 % 1019,8 hPa 0,0 mm 3,5 km/h (1 Bft) O-NO 73 ° 0 min 0,000 mm 0,0 UV-I 0 W/m² 3,0 °C 3,6 °C 4,8 km/h (1 Bft)
31.10.2019 17:27 3,6 °C 96 % 1019,8 hPa 0,0 mm 5,1 km/h (1 Bft) NO 44 ° 0 min 0,000 mm 0,0 UV-I 0 W/m² 3,0 °C 2,5 °C 8,0 km/h (2 Bft)
31.10.2019 17:28 3,6 °C 96 % 1019,8 hPa 0,0 mm 5,5 km/h (1 Bft) N-NO 19 ° 0 min 0,000 mm 0,0 UV-I 0 W/m² 3,0 °C 2,3 °C 6,4 km/h (2 Bft)
31.10.2019 17:29 3,6 °C 96 % 1019,9 hPa 0,0 mm 4,9 km/h (1 Bft) NO 49 ° 0 min 0,000 mm 0,0 UV-I 0 W/m² 3,0 °C 2,5 °C 6,4 km/h (2 Bft)
31.10.2019 17:30 3,5 °C 96 % 1019,8 hPa 0,0 mm 2,8 km/h (1 Bft) NO 51 ° 0 min 0,000 mm 0,0 UV-I 0 W/m² 2,9 °C 3,5 °C 4,8 km/h (1 Bft)
31.10.2019 17:31 3,5 °C 96 % 1019,9 hPa 0,0 mm 1,8 km/h (1 Bft) NO 51 ° 0 min 0,000 mm 0,0 UV-I 0 W/m² 2,9 °C 3,5 °C 3,2 km/h (1 Bft)
31.10.2019 17:32 3,5 °C 97 % 1019,8 hPa 0,0 mm 2,3 km/h (1 Bft) NO 51 ° 0 min 0,000 mm 0,0 UV-I 0 W/m² 3,1 °C 3,5 °C 4,8 km/h (1 Bft)
31.10.2019 17:33 3,5 °C 97 % 1019,9 hPa 0,0 mm 2,7 km/h (1 Bft) NO 52 ° 0 min 0,000 mm 0,0 UV-I 0 W/m² 3,1 °C 3,5 °C 4,8 km/h (1 Bft)
31.10.2019 17:34 3,5 °C 97 % 1019,8 hPa 0,0 mm 5,3 km/h (1 Bft) NO 53 ° 0 min 0,000 mm 0,0 UV-I 0 W/m² 3,1 °C 2,3 °C 8,0 km/h (2 Bft)
31.10.2019 17:35 3,5 °C 97 % 1019,9 hPa 0,0 mm 3,9 km/h (1 Bft) NO 53 ° 0 min 0,000 mm 0,0 UV-I 0 W/m² 3,1 °C 3,5 °C 4,8 km/h (1 Bft)
31.10.2019 17:36 3,5 °C 97 % 1019,9 hPa 0,0 mm 3,7 km/h (1 Bft) NO 54 ° 0 min 0,000 mm 0,0 UV-I 0 W/m² 3,1 °C 3,5 °C 6,4 km/h (2 Bft)
31.10.2019 17:37 3,5 °C 97 % 1019,9 hPa 0,0 mm 2,6 km/h (1 Bft) O-NO 66 ° 0 min 0,000 mm 0,0 UV-I 0 W/m² 3,1 °C 3,5 °C 6,4 km/h (2 Bft)
31.10.2019 17:38 3,5 °C 97 % 1019,9 hPa 0,0 mm 3,2 km/h (1 Bft) NO 53 ° 0 min 0,000 mm 0,0 UV-I 0 W/m² 3,1 °C 3,5 °C 6,4 km/h (2 Bft)
31.10.2019 17:39 3,5 °C 97 % 1019,9 hPa 0,0 mm 4,6 km/h (1 Bft) NO 51 ° 0 min 0,000 mm 0,0 UV-I 0 W/m² 3,1 °C 2,6 °C 6,4 km/h (2 Bft)
31.10.2019 17:40 3,5 °C 97 % 1019,9 hPa 0,0 mm 2,8 km/h (1 Bft) NO 51 ° 0 min 0,000 mm 0,0 UV-I 0 W/m² 3,1 °C 3,5 °C 4,8 km/h (1 Bft)
31.10.2019 17:41 3,5 °C 97 % 1019,9 hPa 0,0 mm 3,3 km/h (1 Bft) NO 51 ° 0 min 0,000 mm 0,0 UV-I 0 W/m² 3,1 °C 3,5 °C 4,8 km/h (1 Bft)
31.10.2019 17:42 3,5 °C 97 % 1019,9 hPa 0,0 mm 4,4 km/h (1 Bft) NO 51 ° 0 min 0,000 mm 0,0 UV-I 0 W/m² 3,1 °C 3,5 °C 6,4 km/h (2 Bft)
31.10.2019 17:43 3,5 °C 97 % 1019,9 hPa 0,0 mm 3,1 km/h (1 Bft) O-NO 67 ° 0 min 0,000 mm 0,0 UV-I 0 W/m² 3,1 °C 3,5 °C 4,8 km/h (1 Bft)
31.10.2019 17:44 3,5 °C 97 % 1019,9 hPa 0,0 mm 1,3 km/h (1 Bft) O-NO 67 ° 0 min 0,000 mm 0,0 UV-I 0 W/m² 3,1 °C 3,5 °C 3,2 km/h (1 Bft)
31.10.2019 17:45 3,5 °C 97 % 1020,0 hPa 0,0 mm 2,7 km/h (1 Bft) NO 55 ° 0 min 0,000 mm 0,0 UV-I 0 W/m² 3,1 °C 3,5 °C 4,8 km/h (1 Bft)
31.10.2019 17:46 3,6 °C 97 % 1020,0 hPa 0,0 mm 3,0 km/h (1 Bft) NO 55 ° 0 min 0,000 mm 0,0 UV-I 0 W/m² 3,2 °C 3,6 °C 4,8 km/h (1 Bft)
31.10.2019 17:47 3,5 °C 97 % 1020,0 hPa 0,0 mm 1,4 km/h (1 Bft) NO 55 ° 0 min 0,000 mm 0,0 UV-I 0 W/m² 3,1 °C 3,5 °C 3,2 km/h (1 Bft)
31.10.2019 17:48 3,5 °C 97 % 1020,0 hPa 0,0 mm 2,9 km/h (1 Bft) NO 55 ° 0 min 0,000 mm 0,0 UV-I 0 W/m² 3,1 °C 3,5 °C 4,8 km/h (1 Bft)
31.10.2019 17:49 3,5 °C 97 % 1020,0 hPa 0,0 mm 2,7 km/h (1 Bft) O-NO 63 ° 0 min 0,000 mm 0,0 UV-I 0 W/m² 3,1 °C 3,5 °C 4,8 km/h (1 Bft)
31.10.2019 17:50 3,6 °C 97 % 1020,0 hPa 0,0 mm 2,5 km/h (1 Bft) O 83 ° 0 min 0,000 mm 0,0 UV-I 0 W/m² 3,2 °C 3,6 °C 6,4 km/h (2 Bft)
31.10.2019 17:51 3,6 °C 97 % 1020,0 hPa 0,0 mm 4,5 km/h (1 Bft) O 83 ° 0 min 0,000 mm 0,0 UV-I 0 W/m² 3,2 °C 3,6 °C 8,0 km/h (2 Bft)
31.10.2019 17:52 3,5 °C 97 % 1020,0 hPa 0,0 mm 3,4 km/h (1 Bft) NO 52 ° 0 min 0,000 mm 0,0 UV-I 0 W/m² 3,1 °C 3,5 °C 4,8 km/h (1 Bft)
31.10.2019 17:53 3,6 °C 97 % 1020,0 hPa 0,0 mm 3,6 km/h (1 Bft) NO 50 ° 0 min 0,000 mm 0,0 UV-I 0 W/m² 3,2 °C 3,6 °C 4,8 km/h (1 Bft)
31.10.2019 17:54 3,5 °C 97 % 1020,0 hPa 0,0 mm 4,3 km/h (1 Bft) NO 54 ° 0 min 0,000 mm 0,0 UV-I 0 W/m² 3,1 °C 3,5 °C 6,4 km/h (2 Bft)
31.10.2019 17:55 3,5 °C 97 % 1020,0 hPa 0,0 mm 3,6 km/h (1 Bft) NO 52 ° 0 min 0,000 mm 0,0 UV-I 0 W/m² 3,1 °C 3,5 °C 6,4 km/h (2 Bft)
31.10.2019 17:56 3,5 °C 97 % 1020,0 hPa 0,0 mm 2,4 km/h (1 Bft) NO 51 ° 0 min 0,000 mm 0,0 UV-I 0 W/m² 3,1 °C 3,5 °C 4,8 km/h (1 Bft)
31.10.2019 17:57 3,5 °C 97 % 1020,0 hPa 0,0 mm 6,6 km/h (2 Bft) N-NO 24 ° 0 min 0,000 mm 0,0 UV-I 0 W/m² 3,1 °C 1,8 °C 8,0 km/h (2 Bft)
31.10.2019 17:58 3,5 °C 97 % 1020,0 hPa 0,0 mm 5,7 km/h (1 Bft) NO 53 ° 0 min 0,000 mm 0,0 UV-I 0 W/m² 3,1 °C 2,1 °C 8,0 km/h (2 Bft)
31.10.2019 17:59 3,5 °C 97 % 1020,0 hPa 0,0 mm 3,6 km/h (1 Bft) NO 42 ° 0 min 0,000 mm 0,0 UV-I 0 W/m² 3,1 °C 3,5 °C 6,4 km/h (2 Bft)
31.10.2019 18:00 3,5 °C 97 % 1020,0 hPa 0,0 mm 4,6 km/h (1 Bft) O-NO 61 ° 0 min 0,000 mm 0,0 UV-I 0 W/m² 3,1 °C 2,6 °C 6,4 km/h (2 Bft)
31.10.2019 18:01 3,5 °C 97 % 1020,0 hPa 0,0 mm 2,2 km/h (1 Bft) O-NO 61 ° 0 min 0,000 mm 0,0 UV-I 0 W/m² 3,1 °C 3,5 °C 3,2 km/h (1 Bft)
31.10.2019 18:02 3,5 °C 97 % 1020,0 hPa 0,0 mm 2,5 km/h (1 Bft) O-NO 61 ° 0 min 0,000 mm 0,0 UV-I 0 W/m² 3,1 °C 3,5 °C 3,2 km/h (1 Bft)
31.10.2019 18:03 3,5 °C 97 % 1020,0 hPa 0,0 mm 4,0 km/h (1 Bft) NO 51 ° 0 min 0,000 mm 0,0 UV-I 0 W/m² 3,1 °C 3,5 °C 4,8 km/h (1 Bft)
31.10.2019 18:04 3,5 °C 97 % 1020,0 hPa 0,0 mm 5,1 km/h (1 Bft) NO 45 ° 0 min 0,000 mm 0,0 UV-I 0 W/m² 3,1 °C 2,3 °C 6,4 km/h (2 Bft)
31.10.2019 18:05 3,5 °C 97 % 1020,1 hPa 0,0 mm 3,2 km/h (1 Bft) NO 45 ° 0 min 0,000 mm 0,0 UV-I 0 W/m² 3,1 °C 3,5 °C 6,4 km/h (2 Bft)
31.10.2019 18:06 3,5 °C 97 % 1020,0 hPa 0,0 mm 3,6 km/h (1 Bft) NO 46 ° 0 min 0,000 mm 0,0 UV-I 0 W/m² 3,1 °C 3,5 °C 4,8 km/h (1 Bft)
31.10.2019 18:07 3,4 °C 97 % 1020,1 hPa 0,0 mm 3,3 km/h (1 Bft) O-NO 76 ° 0 min 0,000 mm 0,0 UV-I 0 W/m² 3,0 °C 3,4 °C 4,8 km/h (1 Bft)
31.10.2019 18:08 3,4 °C 97 % 1020,1 hPa 0,0 mm 5,0 km/h (1 Bft) O-NO 60 ° 0 min 0,000 mm 0,0 UV-I 0 W/m² 3,0 °C 2,3 °C 8,0 km/h (2 Bft)
31.10.2019 18:09 3,4 °C 97 % 1020,1 hPa 0,0 mm 3,6 km/h (1 Bft) O-NO 76 ° 0 min 0,000 mm 0,0 UV-I 0 W/m² 3,0 °C 3,4 °C 6,4 km/h (2 Bft)
31.10.2019 18:10 3,5 °C 97 % 1020,1 hPa 0,0 mm 4,8 km/h (1 Bft) O-NO 59 ° 0 min 0,000 mm 0,0 UV-I 0 W/m² 3,1 °C 2,5 °C 6,4 km/h (2 Bft)
31.10.2019 18:11 3,4 °C 97 % 1020,1 hPa 0,0 mm 3,4 km/h (1 Bft) O-NO 59 ° 0 min 0,000 mm 0,0 UV-I 0 W/m² 3,0 °C 3,4 °C 4,8 km/h (1 Bft)
31.10.2019 18:12 3,4 °C 97 % 1020,1 hPa 0,0 mm 4,1 km/h (1 Bft) O-NO 73 ° 0 min 0,000 mm 0,0 UV-I 0 W/m² 3,0 °C 3,4 °C 4,8 km/h (1 Bft)
31.10.2019 18:13 3,4 °C 97 % 1020,1 hPa 0,0 mm 5,6 km/h (1 Bft) NO 36 ° 0 min 0,000 mm 0,0 UV-I 0 W/m² 3,0 °C 2,0 °C 9,7 km/h (2 Bft)
31.10.2019 18:14 3,4 °C 96 % 1020,1 hPa 0,0 mm 7,3 km/h (2 Bft) NO 53 ° 0 min 0,000 mm 0,0 UV-I 0 W/m² 2,8 °C 1,5 °C 9,7 km/h (2 Bft)
31.10.2019 18:15 3,4 °C 96 % 1020,1 hPa 0,0 mm 5,4 km/h (1 Bft) NO 53 ° 0 min 0,000 mm 0,0 UV-I 0 W/m² 2,8 °C 2,1 °C 8,0 km/h (2 Bft)
31.10.2019 18:16 3,4 °C 96 % 1020,1 hPa 0,0 mm 5,9 km/h (2 Bft) O-NO 61 ° 0 min 0,000 mm 0,0 UV-I 0 W/m² 2,8 °C 1,9 °C 9,7 km/h (2 Bft)
31.10.2019 18:17 3,4 °C 96 % 1020,1 hPa 0,0 mm 5,3 km/h (1 Bft) N-NO 30 ° 0 min 0,000 mm 0,0 UV-I 0 W/m² 2,8 °C 2,1 °C 6,4 km/h (2 Bft)
31.10.2019 18:18 3,4 °C 96 % 1020,1 hPa 0,0 mm 5,6 km/h (1 Bft) O-NO 76 ° 0 min 0,000 mm 0,0 UV-I 0 W/m² 2,8 °C 2,0 °C 9,7 km/h (2 Bft)
31.10.2019 18:19 3,4 °C 96 % 1020,1 hPa 0,0 mm 2,3 km/h (1 Bft) O-NO 67 ° 0 min 0,000 mm 0,0 UV-I 0 W/m² 2,8 °C 3,4 °C 4,8 km/h (1 Bft)
31.10.2019 18:20 3,4 °C 96 % 1020,1 hPa 0,0 mm 3,4 km/h (1 Bft) O-NO 72 ° 0 min 0,000 mm 0,0 UV-I 0 W/m² 2,8 °C 3,4 °C 6,4 km/h (2 Bft)
31.10.2019 18:21 3,4 °C 96 % 1020,1 hPa 0,0 mm 5,1 km/h (1 Bft) NO 55 ° 0 min 0,000 mm 0,0 UV-I 0 W/m² 2,8 °C 2,2 °C 6,4 km/h (2 Bft)
31.10.2019 18:22 3,4 °C 96 % 1020,2 hPa 0,0 mm 4,3 km/h (1 Bft) O-NO 61 ° 0 min 0,000 mm 0,0 UV-I 0 W/m² 2,8 °C 3,4 °C 6,4 km/h (2 Bft)
31.10.2019 18:23 3,3 °C 96 % 1020,1 hPa 0,0 mm 3,0 km/h (1 Bft) O-NO 61 ° 0 min 0,000 mm 0,0 UV-I 0 W/m² 2,7 °C 3,3 °C 6,4 km/h (2 Bft)
31.10.2019 18:24 3,3 °C 96 % 1020,1 hPa 0,0 mm 5,2 km/h (1 Bft) O-NO 61 ° 0 min 0,000 mm 0,0 UV-I 0 W/m² 2,7 °C 2,1 °C 8,0 km/h (2 Bft)
31.10.2019 18:25 3,3 °C 96 % 1020,1 hPa 0,0 mm 2,5 km/h (1 Bft) O-NO 61 ° 0 min 0,000 mm 0,0 UV-I 0 W/m² 2,7 °C 3,3 °C 3,2 km/h (1 Bft)
31.10.2019 18:26 3,3 °C 96 % 1020,1 hPa 0,0 mm 3,0 km/h (1 Bft) O-NO 74 ° 0 min 0,000 mm 0,0 UV-I 0 W/m² 2,7 °C 3,3 °C 4,8 km/h (1 Bft)
31.10.2019 18:27 3,3 °C 96 % 1020,1 hPa 0,0 mm 5,4 km/h (1 Bft) O-NO 65 ° 0 min 0,000 mm 0,0 UV-I 0 W/m² 2,7 °C 2,0 °C 6,4 km/h (2 Bft)
31.10.2019 18:28 3,3 °C 96 % 1020,1 hPa 0,0 mm 4,8 km/h (1 Bft) O-NO 77 ° 0 min 0,000 mm 0,0 UV-I 0 W/m² 2,7 °C 2,2 °C 8,0 km/h (2 Bft)
31.10.2019 18:29 3,3 °C 96 % 1020,1 hPa 0,0 mm 5,5 km/h (1 Bft) NO 53 ° 0 min 0,000 mm 0,0 UV-I 0 W/m² 2,7 °C 2,0 °C 6,4 km/h (2 Bft)
31.10.2019 18:30 3,3 °C 96 % 1020,1 hPa 0,0 mm 5,0 km/h (1 Bft) O-NO 74 ° 0 min 0,000 mm 0,0 UV-I 0 W/m² 2,7 °C 2,2 °C 6,4 km/h (2 Bft)
31.10.2019 18:31 3,3 °C 96 % 1020,1 hPa 0,0 mm 3,9 km/h (1 Bft) O-NO 68 ° 0 min 0,000 mm 0,0 UV-I 0 W/m² 2,7 °C 3,3 °C 4,8 km/h (1 Bft)
31.10.2019 18:32 3,3 °C 96 % 1020,1 hPa 0,0 mm 4,1 km/h (1 Bft) O-NO 71 ° 0 min 0,000 mm 0,0 UV-I 0 W/m² 2,7 °C 3,3 °C 6,4 km/h (2 Bft)
31.10.2019 18:33 3,3 °C 97 % 1020,1 hPa 0,0 mm 4,1 km/h (1 Bft) O-NO 73 ° 0 min 0,000 mm 0,0 UV-I 0 W/m² 2,9 °C 3,3 °C 6,4 km/h (2 Bft)
31.10.2019 18:34 3,3 °C 97 % 1020,1 hPa 0,0 mm 4,7 km/h (1 Bft) O 88 ° 0 min 0,000 mm 0,0 UV-I 0 W/m² 2,9 °C 2,3 °C 6,4 km/h (2 Bft)
31.10.2019 18:35 3,3 °C 97 % 1020,1 hPa 0,0 mm 5,2 km/h (1 Bft) O 81 ° 0 min 0,000 mm 0,0 UV-I 0 W/m² 2,9 °C 2,1 °C 6,4 km/h (2 Bft)
31.10.2019 18:36 3,3 °C 97 % 1020,1 hPa 0,0 mm 5,8 km/h (2 Bft) O 82 ° 0 min 0,000 mm 0,0 UV-I 0 W/m² 2,9 °C 1,8 °C 6,4 km/h (2 Bft)
31.10.2019 18:37 3,2 °C 97 % 1020,1 hPa 0,0 mm 5,0 km/h (1 Bft) NO 55 ° 0 min 0,000 mm 0,0 UV-I 0 W/m² 2,8 °C 2,0 °C 6,4 km/h (2 Bft)
31.10.2019 18:38 3,2 °C 97 % 1020,2 hPa 0,0 mm 5,8 km/h (2 Bft) NO 42 ° 0 min 0,000 mm 0,0 UV-I 0 W/m² 2,8 °C 1,7 °C 8,0 km/h (2 Bft)
31.10.2019 18:39 3,3 °C 97 % 1020,2 hPa 0,0 mm 5,2 km/h (1 Bft) O 82 ° 0 min 0,000 mm 0,0 UV-I 0 W/m² 2,9 °C 2,1 °C 6,4 km/h (2 Bft)
31.10.2019 18:40 3,2 °C 97 % 1020,2 hPa 0,0 mm 2,7 km/h (1 Bft) O 82 ° 0 min 0,000 mm 0,0 UV-I 0 W/m² 2,8 °C 3,2 °C 4,8 km/h (1 Bft)
31.10.2019 18:41 3,2 °C 97 % 1020,2 hPa 0,0 mm 4,1 km/h (1 Bft) NO 42 ° 0 min 0,000 mm 0,0 UV-I 0 W/m² 2,8 °C 3,2 °C 6,4 km/h (2 Bft)
31.10.2019 18:42 3,2 °C 97 % 1020,2 hPa 0,0 mm 5,0 km/h (1 Bft) NO 52 ° 0 min 0,000 mm 0,0 UV-I 0 W/m² 2,8 °C 2,0 °C 8,0 km/h (2 Bft)
31.10.2019 18:43 3,2 °C 97 % 1020,2 hPa 0,0 mm 4,9 km/h (1 Bft) O-NO 63 ° 0 min 0,000 mm 0,0 UV-I 0 W/m² 2,8 °C 2,1 °C 8,0 km/h (2 Bft)
31.10.2019 18:44 3,2 °C 97 % 1020,2 hPa 0,0 mm 2,3 km/h (1 Bft) O-NO 63 ° 0 min 0,000 mm 0,0 UV-I 0 W/m² 2,8 °C 3,2 °C 4,8 km/h (1 Bft)
31.10.2019 18:45 3,2 °C 97 % 1020,1 hPa 0,0 mm 3,9 km/h (1 Bft) O-SO 107 ° 0 min 0,000 mm 0,0 UV-I 0 W/m² 2,8 °C 3,2 °C 4,8 km/h (1 Bft)
31.10.2019 18:46 3,2 °C 97 % 1020,1 hPa 0,0 mm 2,2 km/h (1 Bft) O-SO 107 ° 0 min 0,000 mm 0,0 UV-I 0 W/m² 2,8 °C 3,2 °C 4,8 km/h (1 Bft)
31.10.2019 18:47 3,2 °C 97 % 1020,2 hPa 0,0 mm 3,0 km/h (1 Bft) O-NO 69 ° 0 min 0,000 mm 0,0 UV-I 0 W/m² 2,8 °C 3,2 °C 6,4 km/h (2 Bft)
31.10.2019 18:48 3,2 °C 97 % 1020,2 hPa 0,0 mm 1,4 km/h (1 Bft) O-NO 69 ° 0 min 0,000 mm 0,0 UV-I 0 W/m² 2,8 °C 3,2 °C 3,2 km/h (1 Bft)
31.10.2019 18:49 3,2 °C 97 % 1020,2 hPa 0,0 mm 2,4 km/h (1 Bft) O-NO 65 ° 0 min 0,000 mm 0,0 UV-I 0 W/m² 2,8 °C 3,2 °C 4,8 km/h (1 Bft)
31.10.2019 18:50 3,2 °C 97 % 1020,2 hPa 0,0 mm 2,7 km/h (1 Bft) O-NO 67 ° 0 min 0,000 mm 0,0 UV-I 0 W/m² 2,8 °C 3,2 °C 4,8 km/h (1 Bft)
31.10.2019 18:51 3,2 °C 97 % 1020,2 hPa 0,0 mm 6,4 km/h (2 Bft) O-NO 67 ° 0 min 0,000 mm 0,0 UV-I 0 W/m² 2,8 °C 1,5 °C 8,0 km/h (2 Bft)
31.10.2019 18:52 3,1 °C 97 % 1020,2 hPa 0,0 mm 2,5 km/h (1 Bft) O-NO 67 ° 0 min 0,000 mm 0,0 UV-I 0 W/m² 2,7 °C 3,1 °C 6,4 km/h (2 Bft)
31.10.2019 18:53 3,2 °C 97 % 1020,3 hPa 0,0 mm 4,3 km/h (1 Bft) NO 51 ° 0 min 0,000 mm 0,0 UV-I 0 W/m² 2,8 °C 3,2 °C 4,8 km/h (1 Bft)
31.10.2019 18:54 3,1 °C 97 % 1020,2 hPa 0,0 mm 3,0 km/h (1 Bft) NO 51 ° 0 min 0,000 mm 0,0 UV-I 0 W/m² 2,7 °C 3,1 °C 4,8 km/h (1 Bft)
31.10.2019 18:55 3,1 °C 97 % 1020,2 hPa 0,0 mm 2,3 km/h (1 Bft) NO 51 ° 0 min 0,000 mm 0,0 UV-I 0 W/m² 2,7 °C 3,1 °C 4,8 km/h (1 Bft)
31.10.2019 18:56 3,1 °C 97 % 1020,2 hPa 0,0 mm 5,0 km/h (1 Bft) NO 51 ° 0 min 0,000 mm 0,0 UV-I 0 W/m² 2,7 °C 1,9 °C 6,4 km/h (2 Bft)
31.10.2019 18:57 3,1 °C 97 % 1020,2 hPa 0,0 mm 4,4 km/h (1 Bft) O-NO 57 ° 0 min 0,000 mm 0,0 UV-I 0 W/m² 2,7 °C 3,1 °C 6,4 km/h (2 Bft)
31.10.2019 18:58 3,1 °C 97 % 1020,2 hPa 0,0 mm 3,9 km/h (1 Bft) NO 46 ° 0 min 0,000 mm 0,0 UV-I 0 W/m² 2,7 °C 3,1 °C 6,4 km/h (2 Bft)
31.10.2019 18:59 3,2 °C 97 % 1020,2 hPa 0,0 mm 4,3 km/h (1 Bft) NO 46 ° 0 min 0,000 mm 0,0 UV-I 0 W/m² 2,8 °C 3,2 °C 6,4 km/h (2 Bft)
31.10.2019 19:00 3,1 °C 97 % 1020,2 hPa 0,0 mm 2,6 km/h (1 Bft) NO 46 ° 0 min 0,000 mm 0,0 UV-I 0 W/m² 2,7 °C 3,1 °C 4,8 km/h (1 Bft)
31.10.2019 19:01 3,1 °C 97 % 1020,1 hPa 0,0 mm 3,6 km/h (1 Bft) O 81 ° 0 min 0,000 mm 0,0 UV-I 0 W/m² 2,7 °C 3,1 °C 4,8 km/h (1 Bft)
31.10.2019 19:02 3,1 °C 97 % 1020,2 hPa 0,0 mm 3,0 km/h (1 Bft) O 81 ° 0 min 0,000 mm 0,0 UV-I 0 W/m² 2,7 °C 3,1 °C 3,2 km/h (1 Bft)
31.10.2019 19:03 3,1 °C 97 % 1020,2 hPa 0,0 mm 3,1 km/h (1 Bft) O 81 ° 0 min 0,000 mm 0,0 UV-I 0 W/m² 2,7 °C 3,1 °C 3,2 km/h (1 Bft)
31.10.2019 19:04 3,1 °C 97 % 1020,2 hPa 0,0 mm 3,0 km/h (1 Bft) O 81 ° 0 min 0,000 mm 0,0 UV-I 0 W/m² 2,7 °C 3,1 °C 8,0 km/h (2 Bft)
31.10.2019 19:05 3,1 °C 97 % 1020,2 hPa 0,0 mm 5,6 km/h (1 Bft) O-NO 73 ° 0 min 0,000 mm 0,0 UV-I 0 W/m² 2,7 °C 1,7 °C 8,0 km/h (2 Bft)
31.10.2019 19:06 3,1 °C 97 % 1020,2 hPa 0,0 mm 5,0 km/h (1 Bft) NO 46 ° 0 min 0,000 mm 0,0 UV-I 0 W/m² 2,7 °C 1,9 °C 8,0 km/h (2 Bft)
31.10.2019 19:07 3,1 °C 96 % 1020,1 hPa 0,0 mm 3,7 km/h (1 Bft) NO 46 ° 0 min 0,000 mm 0,0 UV-I 0 W/m² 2,5 °C 3,1 °C 6,4 km/h (2 Bft)
31.10.2019 19:08 3,1 °C 96 % 1020,2 hPa 0,0 mm 2,5 km/h (1 Bft) NO 47 ° 0 min 0,000 mm 0,0 UV-I 0 W/m² 2,5 °C 3,1 °C 4,8 km/h (1 Bft)
31.10.2019 19:09 3,1 °C 96 % 1020,2 hPa 0,0 mm 3,7 km/h (1 Bft) NO 47 ° 0 min 0,000 mm 0,0 UV-I 0 W/m² 2,5 °C 3,1 °C 4,8 km/h (1 Bft)
31.10.2019 19:10 3,1 °C 96 % 1020,2 hPa 0,0 mm 5,1 km/h (1 Bft) NO 49 ° 0 min 0,000 mm 0,0 UV-I 0 W/m² 2,5 °C 1,9 °C 6,4 km/h (2 Bft)
31.10.2019 19:11 3,1 °C 96 % 1020,2 hPa 0,0 mm 3,4 km/h (1 Bft) NO 49 ° 0 min 0,000 mm 0,0 UV-I 0 W/m² 2,5 °C 3,1 °C 4,8 km/h (1 Bft)
31.10.2019 19:12 3,1 °C 96 % 1020,2 hPa 0,0 mm 3,3 km/h (1 Bft) NO 49 ° 0 min 0,000 mm 0,0 UV-I 0 W/m² 2,5 °C 3,1 °C 4,8 km/h (1 Bft)
31.10.2019 19:13 3,1 °C 96 % 1020,1 hPa 0,0 mm 4,0 km/h (1 Bft) NO 36 ° 0 min 0,000 mm 0,0 UV-I 0 W/m² 2,5 °C 3,1 °C 6,4 km/h (2 Bft)
31.10.2019 19:14 3,1 °C 96 % 1020,2 hPa 0,0 mm 5,4 km/h (1 Bft) O-NO 69 ° 0 min 0,000 mm 0,0 UV-I 0 W/m² 2,5 °C 1,8 °C 6,4 km/h (2 Bft)
31.10.2019 19:15 3,1 °C 96 % 1020,1 hPa 0,0 mm 5,9 km/h (2 Bft) NO 42 ° 0 min 0,000 mm 0,0 UV-I 0 W/m² 2,5 °C 1,6 °C 8,0 km/h (2 Bft)
31.10.2019 19:16 3,0 °C 96 % 1020,1 hPa 0,0 mm 5,2 km/h (1 Bft) O 86 ° 0 min 0,000 mm 0,0 UV-I 0 W/m² 2,4 °C 1,7 °C 8,0 km/h (2 Bft)
31.10.2019 19:17 3,1 °C 96 % 1020,1 hPa 0,0 mm 4,4 km/h (1 Bft) NO 41 ° 0 min 0,000 mm 0,0 UV-I 0 W/m² 2,5 °C 3,1 °C 4,8 km/h (1 Bft)
31.10.2019 19:18 3,1 °C 96 % 1020,1 hPa 0,0 mm 3,4 km/h (1 Bft) NO 41 ° 0 min 0,000 mm 0,0 UV-I 0 W/m² 2,5 °C 3,1 °C 4,8 km/h (1 Bft)
31.10.2019 19:19 3,0 °C 96 % 1020,1 hPa 0,0 mm 3,8 km/h (1 Bft) NO 41 ° 0 min 0,000 mm 0,0 UV-I 0 W/m² 2,4 °C 3,0 °C 4,8 km/h (1 Bft)
31.10.2019 19:20 3,0 °C 96 % 1020,1 hPa 0,0 mm 4,5 km/h (1 Bft) NO 41 ° 0 min 0,000 mm 0,0 UV-I 0 W/m² 2,4 °C 3,0 °C 8,0 km/h (2 Bft)
31.10.2019 19:21 3,0 °C 96 % 1020,1 hPa 0,0 mm 4,2 km/h (1 Bft) NO 41 ° 0 min 0,000 mm 0,0 UV-I 0 W/m² 2,4 °C 3,0 °C 6,4 km/h (2 Bft)
31.10.2019 19:22 3,0 °C 96 % 1020,1 hPa 0,0 mm 2,3 km/h (1 Bft) NO 50 ° 0 min 0,000 mm 0,0 UV-I 0 W/m² 2,4 °C 3,0 °C 6,4 km/h (2 Bft)
31.10.2019 19:23 3,0 °C 96 % 1020,1 hPa 0,0 mm 4,5 km/h (1 Bft) O-NO 65 ° 0 min 0,000 mm 0,0 UV-I 0 W/m² 2,4 °C 3,0 °C 4,8 km/h (1 Bft)
31.10.2019 19:24 3,0 °C 96 % 1020,1 hPa 0,0 mm 1,8 km/h (1 Bft) O-NO 65 ° 0 min 0,000 mm 0,0 UV-I 0 W/m² 2,4 °C 3,0 °C 4,8 km/h (1 Bft)
31.10.2019 19:25 3,0 °C 96 % 1020,1 hPa 0,0 mm 3,6 km/h (1 Bft) O-NO 60 ° 0 min 0,000 mm 0,0 UV-I 0 W/m² 2,4 °C 3,0 °C 6,4 km/h (2 Bft)
31.10.2019 19:26 3,0 °C 96 % 1020,1 hPa 0,0 mm 4,3 km/h (1 Bft) NO 40 ° 0 min 0,000 mm 0,0 UV-I 0 W/m² 2,4 °C 3,0 °C 4,8 km/h (1 Bft)
31.10.2019 19:27 3,0 °C 96 % 1020,1 hPa 0,0 mm 3,4 km/h (1 Bft) NO 40 ° 0 min 0,000 mm 0,0 UV-I 0 W/m² 2,4 °C 3,0 °C 4,8 km/h (1 Bft)
31.10.2019 19:28 3,0 °C 96 % 1020,1 hPa 0,0 mm 3,5 km/h (1 Bft) NO 40 ° 0 min 0,000 mm 0,0 UV-I 0 W/m² 2,4 °C 3,0 °C 4,8 km/h (1 Bft)
31.10.2019 19:29 3,0 °C 96 % 1020,1 hPa 0,0 mm 2,0 km/h (1 Bft) NO 40 ° 0 min 0,000 mm 0,0 UV-I 0 W/m² 2,4 °C 3,0 °C 4,8 km/h (1 Bft)
31.10.2019 19:30 3,0 °C 96 % 1020,1 hPa 0,0 mm 0,4 km/h (0 Bft) NO 40 ° 0 min 0,000 mm 0,0 UV-I 0 W/m² 2,4 °C 3,0 °C 1,6 km/h (1 Bft)
31.10.2019 19:31 3,0 °C 96 % 1020,1 hPa 0,0 mm 1,8 km/h (1 Bft) NO 40 ° 0 min 0,000 mm 0,0 UV-I 0 W/m² 2,4 °C 3,0 °C 3,2 km/h (1 Bft)
31.10.2019 19:32 3,0 °C 96 % 1020,1 hPa 0,0 mm 3,2 km/h (1 Bft) O-NO 76 ° 0 min 0,000 mm 0,0 UV-I 0 W/m² 2,4 °C 3,0 °C 4,8 km/h (1 Bft)
31.10.2019 19:33 3,0 °C 96 % 1020,0 hPa 0,0 mm 3,6 km/h (1 Bft) O 86 ° 0 min 0,000 mm 0,0 UV-I 0 W/m² 2,4 °C 3,0 °C 6,4 km/h (2 Bft)
31.10.2019 19:34 3,0 °C 96 % 1020,1 hPa 0,0 mm 2,2 km/h (1 Bft) O 86 ° 0 min 0,000 mm 0,0 UV-I 0 W/m² 2,4 °C 3,0 °C 3,2 km/h (1 Bft)
31.10.2019 19:35 3,0 °C 96 % 1020,0 hPa 0,0 mm 1,9 km/h (1 Bft) O 86 ° 0 min 0,000 mm 0,0 UV-I 0 W/m² 2,4 °C 3,0 °C 3,2 km/h (1 Bft)
31.10.2019 19:36 3,0 °C 96 % 1020,0 hPa 0,0 mm 1,4 km/h (1 Bft) O 86 ° 0 min 0,000 mm 0,0 UV-I 0 W/m² 2,4 °C 3,0 °C 3,2 km/h (1 Bft)
31.10.2019 19:37 3,0 °C 96 % 1020,0 hPa 0,0 mm 0,5 km/h (0 Bft) O 86 ° 0 min 0,000 mm 0,0 UV-I 0 W/m² 2,4 °C 3,0 °C 1,6 km/h (1 Bft)
31.10.2019 19:38 3,0 °C 96 % 1020,0 hPa 0,0 mm 0,1 km/h (0 Bft) O 86 ° 0 min 0,000 mm 0,0 UV-I 0 W/m² 2,4 °C 3,0 °C 1,6 km/h (1 Bft)
31.10.2019 19:39 3,0 °C 97 % 1020,0 hPa 0,0 mm 1,0 km/h (0 Bft) O 86 ° 0 min 0,000 mm 0,0 UV-I 0 W/m² 2,6 °C 3,0 °C 3,2 km/h (1 Bft)
31.10.2019 19:40 3,0 °C 96 % 1020,0 hPa 0,0 mm 1,1 km/h (1 Bft) O 86 ° 0 min 0,000 mm 0,0 UV-I 0 W/m² 2,4 °C 3,0 °C 1,6 km/h (1 Bft)
31.10.2019 19:41 3,0 °C 97 % 1020,0 hPa 0,0 mm 3,1 km/h (1 Bft) O 86 ° 0 min 0,000 mm 0,0 UV-I 0 W/m² 2,6 °C 3,0 °C 4,8 km/h (1 Bft)
31.10.2019 19:42 3,0 °C 96 % 1020,0 hPa 0,0 mm 2,7 km/h (1 Bft) O-NO 65 ° 0 min 0,000 mm 0,0 UV-I 0 W/m² 2,4 °C 3,0 °C 6,4 km/h (2 Bft)
31.10.2019 19:43 3,0 °C 96 % 1020,0 hPa 0,0 mm 2,9 km/h (1 Bft) NO 49 ° 0 min 0,000 mm 0,0 UV-I 0 W/m² 2,4 °C 3,0 °C 4,8 km/h (1 Bft)
31.10.2019 19:44 3,0 °C 97 % 1020,0 hPa 0,0 mm 3,2 km/h (1 Bft) NO 36 ° 0 min 0,000 mm 0,0 UV-I 0 W/m² 2,6 °C 3,0 °C 4,8 km/h (1 Bft)
31.10.2019 19:45 3,0 °C 96 % 1019,9 hPa 0,0 mm 3,1 km/h (1 Bft) NO 36 ° 0 min 0,000 mm 0,0 UV-I 0 W/m² 2,4 °C 3,0 °C 4,8 km/h (1 Bft)
31.10.2019 19:46 3,0 °C 97 % 1020,0 hPa 0,0 mm 2,7 km/h (1 Bft) NO 36 ° 0 min 0,000 mm 0,0 UV-I 0 W/m² 2,6 °C 3,0 °C 4,8 km/h (1 Bft)
31.10.2019 19:47 3,0 °C 96 % 1020,0 hPa 0,0 mm 3,8 km/h (1 Bft) NO 36 ° 0 min 0,000 mm 0,0 UV-I 0 W/m² 2,4 °C 3,0 °C 4,8 km/h (1 Bft)
31.10.2019 19:48 3,0 °C 96 % 1019,9 hPa 0,0 mm 4,0 km/h (1 Bft) NO 36 ° 0 min 0,000 mm 0,0 UV-I 0 W/m² 2,4 °C 3,0 °C 4,8 km/h (1 Bft)
31.10.2019 19:49 3,0 °C 97 % 1019,9 hPa 0,0 mm 1,7 km/h (1 Bft) NO 36 ° 0 min 0,000 mm 0,0 UV-I 0 W/m² 2,6 °C 3,0 °C 3,2 km/h (1 Bft)
31.10.2019 19:50 3,0 °C 97 % 1019,9 hPa 0,0 mm 2,5 km/h (1 Bft) NO 36 ° 0 min 0,000 mm 0,0 UV-I 0 W/m² 2,6 °C 3,0 °C 4,8 km/h (1 Bft)
31.10.2019 19:51 3,0 °C 97 % 1019,9 hPa 0,0 mm 1,8 km/h (1 Bft) NO 36 ° 0 min 0,000 mm 0,0 UV-I 0 W/m² 2,6 °C 3,0 °C 3,2 km/h (1 Bft)
31.10.2019 19:52 3,0 °C 97 % 1020,0 hPa 0,0 mm 1,8 km/h (1 Bft) NO 36 ° 0 min 0,000 mm 0,0 UV-I 0 W/m² 2,6 °C 3,0 °C 3,2 km/h (1 Bft)
31.10.2019 19:53 3,0 °C 97 % 1019,9 hPa 0,0 mm 4,2 km/h (1 Bft) NO 36 ° 0 min 0,000 mm 0,0 UV-I 0 W/m² 2,6 °C 3,0 °C 6,4 km/h (2 Bft)
31.10.2019 19:54 3,0 °C 97 % 1019,9 hPa 0,0 mm 2,1 km/h (1 Bft) NO 36 ° 0 min 0,000 mm 0,0 UV-I 0 W/m² 2,6 °C 3,0 °C 3,2 km/h (1 Bft)
31.10.2019 19:55 3,0 °C 97 % 1019,9 hPa 0,0 mm 0,1 km/h (0 Bft) NO 36 ° 0 min 0,000 mm 0,0 UV-I 0 W/m² 2,6 °C 3,0 °C 1,6 km/h (1 Bft)
31.10.2019 19:56 3,0 °C 96 % 1019,9 hPa 0,0 mm 0,0 km/h (0 Bft) NO 36 ° 0 min 0,000 mm 0,0 UV-I 0 W/m² 2,4 °C 3,0 °C 0,0 km/h (0 Bft)
31.10.2019 19:57 3,0 °C 97 % 1019,9 hPa 0,0 mm 0,0 km/h (0 Bft) NO 36 ° 0 min 0,000 mm 0,0 UV-I 0 W/m² 2,6 °C 3,0 °C 0,0 km/h (0 Bft)
31.10.2019 19:58 3,0 °C 97 % 1019,9 hPa 0,0 mm 0,0 km/h (0 Bft) NO 36 ° 0 min 0,000 mm 0,0 UV-I 0 W/m² 2,6 °C 3,0 °C 0,0 km/h (0 Bft)
31.10.2019 19:59 3,0 °C 96 % 1019,9 hPa 0,0 mm 1,1 km/h (1 Bft) NO 36 ° 0 min 0,000 mm 0,0 UV-I 0 W/m² 2,4 °C 3,0 °C 1,6 km/h (1 Bft)
31.10.2019 20:00 3,0 °C 97 % 1019,8 hPa 0,0 mm 2,2 km/h (1 Bft) NO 36 ° 0 min 0,000 mm 0,0 UV-I 0 W/m² 2,6 °C 3,0 °C 3,2 km/h (1 Bft)
31.10.2019 20:01 3,0 °C 97 % 1019,9 hPa 0,0 mm 0,6 km/h (0 Bft) NO 36 ° 0 min 0,000 mm 0,0 UV-I 0 W/m² 2,6 °C 3,0 °C 1,6 km/h (1 Bft)
31.10.2019 20:02 3,0 °C 97 % 1019,8 hPa 0,0 mm 0,0 km/h (0 Bft) NO 36 ° 0 min 0,000 mm 0,0 UV-I 0 W/m² 2,6 °C 3,0 °C 0,0 km/h (0 Bft)
31.10.2019 20:03 3,0 °C 97 % 1019,8 hPa 0,0 mm 0,3 km/h (0 Bft) NO 36 ° 0 min 0,000 mm 0,0 UV-I 0 W/m² 2,6 °C 3,0 °C 3,2 km/h (1 Bft)
31.10.2019 20:04 3,0 °C 97 % 1019,9 hPa 0,0 mm 1,1 km/h (1 Bft) NO 36 ° 0 min 0,000 mm 0,0 UV-I 0 W/m² 2,6 °C 3,0 °C 3,2 km/h (1 Bft)
31.10.2019 20:05 3,0 °C 97 % 1019,8 hPa 0,0 mm 3,2 km/h (1 Bft) NO 36 ° 0 min 0,000 mm 0,0 UV-I 0 W/m² 2,6 °C 3,0 °C 4,8 km/h (1 Bft)
31.10.2019 20:06 3,0 °C 97 % 1019,9 hPa 0,0 mm 1,8 km/h (1 Bft) NO 36 ° 0 min 0,000 mm 0,0 UV-I 0 W/m² 2,6 °C 3,0 °C 3,2 km/h (1 Bft)
31.10.2019 20:07 3,0 °C 97 % 1019,9 hPa 0,0 mm 2,8 km/h (1 Bft) NO 36 ° 0 min 0,000 mm 0,0 UV-I 0 W/m² 2,6 °C 3,0 °C 4,8 km/h (1 Bft)
31.10.2019 20:08 3,1 °C 97 % 1019,8 hPa 0,0 mm 2,4 km/h (1 Bft) NO 36 ° 0 min 0,000 mm 0,0 UV-I 0 W/m² 2,7 °C 3,1 °C 3,2 km/h (1 Bft)
31.10.2019 20:09 3,0 °C 97 % 1019,9 hPa 0,0 mm 2,9 km/h (1 Bft) NO 36 ° 0 min 0,000 mm 0,0 UV-I 0 W/m² 2,6 °C 3,0 °C 4,8 km/h (1 Bft)
31.10.2019 20:10 3,0 °C 97 % 1019,9 hPa 0,0 mm 2,1 km/h (1 Bft) NO 36 ° 0 min 0,000 mm 0,0 UV-I 0 W/m² 2,6 °C 3,0 °C 4,8 km/h (1 Bft)
31.10.2019 20:11 3,0 °C 97 % 1019,9 hPa 0,0 mm 3,6 km/h (1 Bft) NO 36 ° 0 min 0,000 mm 0,0 UV-I 0 W/m² 2,6 °C 3,0 °C 6,4 km/h (2 Bft)
31.10.2019 20:12 3,1 °C 97 % 1019,9 hPa 0,0 mm 4,0 km/h (1 Bft) O-NO 63 ° 0 min 0,000 mm 0,0 UV-I 0 W/m² 2,7 °C 3,1 °C 6,4 km/h (2 Bft)
31.10.2019 20:13 3,1 °C 97 % 1020,0 hPa 0,0 mm 3,4 km/h (1 Bft) O-NO 63 ° 0 min 0,000 mm 0,0 UV-I 0 W/m² 2,7 °C 3,1 °C 6,4 km/h (2 Bft)
31.10.2019 20:14 3,1 °C 97 % 1019,9 hPa 0,0 mm 1,7 km/h (1 Bft) O 87 ° 0 min 0,000 mm 0,0 UV-I 0 W/m² 2,7 °C 3,1 °C 4,8 km/h (1 Bft)
31.10.2019 20:15 3,1 °C 97 % 1019,9 hPa 0,0 mm 1,5 km/h (1 Bft) O 87 ° 0 min 0,000 mm 0,0 UV-I 0 W/m² 2,7 °C 3,1 °C 3,2 km/h (1 Bft)
31.10.2019 20:16 3,1 °C 97 % 1020,0 hPa 0,0 mm 2,8 km/h (1 Bft) O 87 ° 0 min 0,000 mm 0,0 UV-I 0 W/m² 2,7 °C 3,1 °C 4,8 km/h (1 Bft)
31.10.2019 20:17 3,1 °C 97 % 1019,9 hPa 0,0 mm 2,8 km/h (1 Bft) O 87 ° 0 min 0,000 mm 0,0 UV-I 0 W/m² 2,7 °C 3,1 °C 4,8 km/h (1 Bft)
31.10.2019 20:18 3,1 °C 97 % 1020,0 hPa 0,0 mm 3,1 km/h (1 Bft) NO 47 ° 0 min 0,000 mm 0,0 UV-I 0 W/m² 2,7 °C 3,1 °C 4,8 km/h (1 Bft)
31.10.2019 20:19 3,1 °C 97 % 1019,9 hPa 0,0 mm 3,3 km/h (1 Bft) NO 51 ° 0 min 0,000 mm 0,0 UV-I 0 W/m² 2,7 °C 3,1 °C 4,8 km/h (1 Bft)
31.10.2019 20:20 3,1 °C 97 % 1019,9 hPa 0,0 mm 1,5 km/h (1 Bft) NO 51 ° 0 min 0,000 mm 0,0 UV-I 0 W/m² 2,7 °C 3,1 °C 3,2 km/h (1 Bft)
31.10.2019 20:21 3,1 °C 97 % 1019,9 hPa 0,0 mm 2,6 km/h (1 Bft) O-NO 74 ° 0 min 0,000 mm 0,0 UV-I 0 W/m² 2,7 °C 3,1 °C 6,4 km/h (2 Bft)
31.10.2019 20:22 3,1 °C 97 % 1019,9 hPa 0,0 mm 4,8 km/h (1 Bft) O-NO 70 ° 0 min 0,000 mm 0,0 UV-I 0 W/m² 2,7 °C 2,0 °C 6,4 km/h (2 Bft)
31.10.2019 20:23 3,1 °C 97 % 1019,9 hPa 0,0 mm 1,8 km/h (1 Bft) O-NO 61 ° 0 min 0,000 mm 0,0 UV-I 0 W/m² 2,7 °C 3,1 °C 3,2 km/h (1 Bft)
31.10.2019 20:24 3,1 °C 97 % 1020,0 hPa 0,0 mm 3,2 km/h (1 Bft) O-NO 61 ° 0 min 0,000 mm 0,0 UV-I 0 W/m² 2,7 °C 3,1 °C 4,8 km/h (1 Bft)
31.10.2019 20:25 3,1 °C 97 % 1019,9 hPa 0,0 mm 5,3 km/h (1 Bft) NO 54 ° 0 min 0,000 mm 0,0 UV-I 0 W/m² 2,7 °C 1,8 °C 6,4 km/h (2 Bft)
31.10.2019 20:26 3,1 °C 97 % 1019,9 hPa 0,0 mm 1,8 km/h (1 Bft) NO 54 ° 0 min 0,000 mm 0,0 UV-I 0 W/m² 2,7 °C 3,1 °C 4,8 km/h (1 Bft)
31.10.2019 20:27 3,1 °C 97 % 1019,9 hPa 0,0 mm 3,8 km/h (1 Bft) O 85 ° 0 min 0,000 mm 0,0 UV-I 0 W/m² 2,7 °C 3,1 °C 6,4 km/h (2 Bft)
31.10.2019 20:28 3,1 °C 97 % 1019,9 hPa 0,0 mm 3,4 km/h (1 Bft) O-NO 59 ° 0 min 0,000 mm 0,0 UV-I 0 W/m² 2,7 °C 3,1 °C 6,4 km/h (2 Bft)
31.10.2019 20:29 3,1 °C 97 % 1019,9 hPa 0,0 mm 3,5 km/h (1 Bft) O-NO 59 ° 0 min 0,000 mm 0,0 UV-I 0 W/m² 2,7 °C 3,1 °C 4,8 km/h (1 Bft)
31.10.2019 20:30 3,1 °C 97 % 1019,8 hPa 0,0 mm 1,9 km/h (1 Bft) O-NO 59 ° 0 min 0,000 mm 0,0 UV-I 0 W/m² 2,7 °C 3,1 °C 3,2 km/h (1 Bft)
31.10.2019 20:31 3,1 °C 97 % 1019,8 hPa 0,0 mm 4,0 km/h (1 Bft) O-NO 68 ° 0 min 0,000 mm 0,0 UV-I 0 W/m² 2,7 °C 3,1 °C 6,4 km/h (2 Bft)
31.10.2019 20:32 3,1 °C 97 % 1019,8 hPa 0,0 mm 5,6 km/h (1 Bft) O-NO 78 ° 0 min 0,000 mm 0,0 UV-I 0 W/m² 2,7 °C 1,7 °C 8,0 km/h (2 Bft)
31.10.2019 20:33 3,1 °C 97 % 1019,9 hPa 0,0 mm 3,7 km/h (1 Bft) O-NO 59 ° 0 min 0,000 mm 0,0 UV-I 0 W/m² 2,7 °C 3,1 °C 6,4 km/h (2 Bft)
31.10.2019 20:34 3,1 °C 97 % 1019,9 hPa 0,0 mm 2,0 km/h (1 Bft) O-NO 59 ° 0 min 0,000 mm 0,0 UV-I 0 W/m² 2,7 °C 3,1 °C 3,2 km/h (1 Bft)
31.10.2019 20:35 3,1 °C 97 % 1019,9 hPa 0,0 mm 4,6 km/h (1 Bft) O-NO 75 ° 0 min 0,000 mm 0,0 UV-I 0 W/m² 2,7 °C 2,1 °C 6,4 km/h (2 Bft)
31.10.2019 20:36 3,1 °C 97 % 1019,9 hPa 0,0 mm 3,5 km/h (1 Bft) O-NO 75 ° 0 min 0,000 mm 0,0 UV-I 0 W/m² 2,7 °C 3,1 °C 4,8 km/h (1 Bft)
31.10.2019 20:37 3,1 °C 97 % 1019,9 hPa 0,0 mm 3,2 km/h (1 Bft) NO 51 ° 0 min 0,000 mm 0,0 UV-I 0 W/m² 2,7 °C 3,1 °C 6,4 km/h (2 Bft)
31.10.2019 20:38 3,1 °C 97 % 1019,8 hPa 0,0 mm 3,2 km/h (1 Bft) NO 51 ° 0 min 0,000 mm 0,0 UV-I 0 W/m² 2,7 °C 3,1 °C 3,2 km/h (1 Bft)
31.10.2019 20:39 3,1 °C 97 % 1019,9 hPa 0,0 mm 1,2 km/h (1 Bft) NO 51 ° 0 min 0,000 mm 0,0 UV-I 0 W/m² 2,7 °C 3,1 °C 3,2 km/h (1 Bft)
31.10.2019 20:40 3,1 °C 97 % 1019,9 hPa 0,0 mm 4,0 km/h (1 Bft) NO 51 ° 0 min 0,000 mm 0,0 UV-I 0 W/m² 2,7 °C 3,1 °C 6,4 km/h (2 Bft)
31.10.2019 20:41 3,0 °C 97 % 1019,9 hPa 0,0 mm 4,4 km/h (1 Bft) N-NO 24 ° 0 min 0,000 mm 0,0 UV-I 0 W/m² 2,6 °C 3,0 °C 6,4 km/h (2 Bft)
31.10.2019 20:42 3,1 °C 97 % 1019,9 hPa 0,0 mm 4,8 km/h (1 Bft) O-NO 59 ° 0 min 0,000 mm 0,0 UV-I 0 W/m² 2,7 °C 2,0 °C 6,4 km/h (2 Bft)
31.10.2019 20:43 3,1 °C 97 % 1019,9 hPa 0,0 mm 3,2 km/h (1 Bft) O-NO 59 ° 0 min 0,000 mm 0,0 UV-I 0 W/m² 2,7 °C 3,1 °C 6,4 km/h (2 Bft)
31.10.2019 20:44 3,1 °C 97 % 1019,9 hPa 0,0 mm 3,4 km/h (1 Bft) NO 46 ° 0 min 0,000 mm 0,0 UV-I 0 W/m² 2,7 °C 3,1 °C 4,8 km/h (1 Bft)
31.10.2019 20:45 3,1 °C 97 % 1019,9 hPa 0,0 mm 1,0 km/h (0 Bft) NO 46 ° 0 min 0,000 mm 0,0 UV-I 0 W/m² 2,7 °C 3,1 °C 3,2 km/h (1 Bft)
31.10.2019 20:46 3,1 °C 97 % 1019,8 hPa 0,0 mm 4,6 km/h (1 Bft) O-NO 61 ° 0 min 0,000 mm 0,0 UV-I 0 W/m² 2,7 °C 2,1 °C 6,4 km/h (2 Bft)
31.10.2019 20:47 3,1 °C 97 % 1019,8 hPa 0,0 mm 2,7 km/h (1 Bft) O-NO 61 ° 0 min 0,000 mm 0,0 UV-I 0 W/m² 2,7 °C 3,1 °C 4,8 km/h (1 Bft)
31.10.2019 20:48 3,1 °C 97 % 1019,8 hPa 0,0 mm 1,8 km/h (1 Bft) O-NO 61 ° 0 min 0,000 mm 0,0 UV-I 0 W/m² 2,7 °C 3,1 °C 3,2 km/h (1 Bft)
31.10.2019 20:49 3,1 °C 97 % 1019,8 hPa 0,0 mm 1,9 km/h (1 Bft) O-NO 61 ° 0 min 0,000 mm 0,0 UV-I 0 W/m² 2,7 °C 3,1 °C 3,2 km/h (1 Bft)
31.10.2019 20:50 3,1 °C 97 % 1019,8 hPa 0,0 mm 3,2 km/h (1 Bft) O-NO 61 ° 0 min 0,000 mm 0,0 UV-I 0 W/m² 2,7 °C 3,1 °C 6,4 km/h (2 Bft)
31.10.2019 20:51 3,1 °C 97 % 1019,8 hPa 0,0 mm 3,9 km/h (1 Bft) O-NO 61 ° 0 min 0,000 mm 0,0 UV-I 0 W/m² 2,7 °C 3,1 °C 4,8 km/h (1 Bft)
31.10.2019 20:52 3,1 °C 97 % 1019,8 hPa 0,0 mm 2,8 km/h (1 Bft) O-NO 61 ° 0 min 0,000 mm 0,0 UV-I 0 W/m² 2,7 °C 3,1 °C 4,8 km/h (1 Bft)
31.10.2019 20:53 3,1 °C 97 % 1019,8 hPa 0,0 mm 1,5 km/h (1 Bft) O-NO 61 ° 0 min 0,000 mm 0,0 UV-I 0 W/m² 2,7 °C 3,1 °C 3,2 km/h (1 Bft)
31.10.2019 20:54 3,1 °C 97 % 1019,8 hPa 0,0 mm 2,6 km/h (1 Bft) O-NO 61 ° 0 min 0,000 mm 0,0 UV-I 0 W/m² 2,7 °C 3,1 °C 4,8 km/h (1 Bft)
31.10.2019 20:55 3,1 °C 97 % 1019,8 hPa 0,0 mm 1,8 km/h (1 Bft) O-NO 61 ° 0 min 0,000 mm 0,0 UV-I 0 W/m² 2,7 °C 3,1 °C 3,2 km/h (1 Bft)
31.10.2019 20:56 3,1 °C 97 % 1019,8 hPa 0,0 mm 3,3 km/h (1 Bft) O-NO 61 ° 0 min 0,000 mm 0,0 UV-I 0 W/m² 2,7 °C 3,1 °C 4,8 km/h (1 Bft)
31.10.2019 20:57 3,1 °C 97 % 1019,8 hPa 0,0 mm 1,9 km/h (1 Bft) O-NO 61 ° 0 min 0,000 mm 0,0 UV-I 0 W/m² 2,7 °C 3,1 °C 4,8 km/h (1 Bft)
31.10.2019 20:58 3,1 °C 97 % 1019,8 hPa 0,0 mm 2,6 km/h (1 Bft) O-NO 61 ° 0 min 0,000 mm 0,0 UV-I 0 W/m² 2,7 °C 3,1 °C 4,8 km/h (1 Bft)
31.10.2019 20:59 3,1 °C 97 % 1019,8 hPa 0,0 mm 1,8 km/h (1 Bft) O-NO 61 ° 0 min 0,000 mm 0,0 UV-I 0 W/m² 2,7 °C 3,1 °C 3,2 km/h (1 Bft)
31.10.2019 21:00 3,1 °C 97 % 1019,8 hPa 0,0 mm 1,8 km/h (1 Bft) O-NO 61 ° 0 min 0,000 mm 0,0 UV-I 0 W/m² 2,7 °C 3,1 °C 3,2 km/h (1 Bft)
31.10.2019 21:01 3,1 °C 97 % 1019,8 hPa 0,0 mm 1,7 km/h (1 Bft) O-NO 61 ° 0 min 0,000 mm 0,0 UV-I 0 W/m² 2,7 °C 3,1 °C 3,2 km/h (1 Bft)
31.10.2019 21:02 3,1 °C 97 % 1019,7 hPa 0,0 mm 2,7 km/h (1 Bft) O-NO 61 ° 0 min 0,000 mm 0,0 UV-I 0 W/m² 2,7 °C 3,1 °C 4,8 km/h (1 Bft)
31.10.2019 21:03 3,1 °C 97 % 1019,7 hPa 0,0 mm 1,8 km/h (1 Bft) O-NO 61 ° 0 min 0,000 mm 0,0 UV-I 0 W/m² 2,7 °C 3,1 °C 4,8 km/h (1 Bft)
31.10.2019 21:04 3,1 °C 97 % 1019,7 hPa 0,0 mm 4,8 km/h (1 Bft) O-NO 78 ° 0 min 0,000 mm 0,0 UV-I 0 W/m² 2,7 °C 2,0 °C 6,4 km/h (2 Bft)
31.10.2019 21:05 3,1 °C 97 % 1019,7 hPa 0,0 mm 3,2 km/h (1 Bft) O-NO 78 ° 0 min 0,000 mm 0,0 UV-I 0 W/m² 2,7 °C 3,1 °C 4,8 km/h (1 Bft)
31.10.2019 21:06 3,1 °C 97 % 1019,7 hPa 0,0 mm 1,8 km/h (1 Bft) O-NO 78 ° 0 min 0,000 mm 0,0 UV-I 0 W/m² 2,7 °C 3,1 °C 3,2 km/h (1 Bft)
31.10.2019 21:07 3,1 °C 97 % 1019,7 hPa 0,0 mm 2,5 km/h (1 Bft) O-NO 78 ° 0 min 0,000 mm 0,0 UV-I 0 W/m² 2,7 °C 3,1 °C 3,2 km/h (1 Bft)
31.10.2019 21:08 3,1 °C 97 % 1019,7 hPa 0,0 mm 0,3 km/h (0 Bft) O-NO 78 ° 0 min 0,000 mm 0,0 UV-I 0 W/m² 2,7 °C 3,1 °C 1,6 km/h (1 Bft)
31.10.2019 21:09 3,1 °C 97 % 1019,7 hPa 0,0 mm 0,0 km/h (0 Bft) O-NO 78 ° 0 min 0,000 mm 0,0 UV-I 0 W/m² 2,7 °C 3,1 °C 0,0 km/h (0 Bft)
31.10.2019 21:10 3,1 °C 97 % 1019,7 hPa 0,0 mm 2,0 km/h (1 Bft) O-NO 65 ° 0 min 0,000 mm 0,0 UV-I 0 W/m² 2,7 °C 3,1 °C 4,8 km/h (1 Bft)
31.10.2019 21:11 3,1 °C 97 % 1019,7 hPa 0,0 mm 1,8 km/h (1 Bft) O-NO 65 ° 0 min 0,000 mm 0,0 UV-I 0 W/m² 2,7 °C 3,1 °C 3,2 km/h (1 Bft)
31.10.2019 21:12 3,1 °C 97 % 1019,7 hPa 0,0 mm 5,1 km/h (1 Bft) O-NO 66 ° 0 min 0,000 mm 0,0 UV-I 0 W/m² 2,7 °C 1,9 °C 6,4 km/h (2 Bft)
31.10.2019 21:13 3,1 °C 97 % 1019,7 hPa 0,0 mm 4,0 km/h (1 Bft) O-NO 63 ° 0 min 0,000 mm 0,0 UV-I 0 W/m² 2,7 °C 3,1 °C 4,8 km/h (1 Bft)
31.10.2019 21:14 3,1 °C 97 % 1019,7 hPa 0,0 mm 3,2 km/h (1 Bft) O-SO 107 ° 0 min 0,000 mm 0,0 UV-I 0 W/m² 2,7 °C 3,1 °C 4,8 km/h (1 Bft)
31.10.2019 21:15 3,1 °C 97 % 1019,7 hPa 0,0 mm 2,1 km/h (1 Bft) O-NO 74 ° 0 min 0,000 mm 0,0 UV-I 0 W/m² 2,7 °C 3,1 °C 4,8 km/h (1 Bft)
31.10.2019 21:16 3,1 °C 97 % 1019,7 hPa 0,0 mm 2,9 km/h (1 Bft) O-NO 74 ° 0 min 0,000 mm 0,0 UV-I 0 W/m² 2,7 °C 3,1 °C 4,8 km/h (1 Bft)
31.10.2019 21:17 3,1 °C 97 % 1019,7 hPa 0,0 mm 1,5 km/h (1 Bft) O-NO 74 ° 0 min 0,000 mm 0,0 UV-I 0 W/m² 2,7 °C 3,1 °C 3,2 km/h (1 Bft)
31.10.2019 21:18 3,1 °C 97 % 1019,7 hPa 0,0 mm 0,4 km/h (0 Bft) O-NO 74 ° 0 min 0,000 mm 0,0 UV-I 0 W/m² 2,7 °C 3,1 °C 3,2 km/h (1 Bft)
31.10.2019 21:19 3,1 °C 97 % 1019,7 hPa 0,0 mm 3,4 km/h (1 Bft) O-NO 74 ° 0 min 0,000 mm 0,0 UV-I 0 W/m² 2,7 °C 3,1 °C 4,8 km/h (1 Bft)
31.10.2019 21:20 3,1 °C 97 % 1019,7 hPa 0,0 mm 3,1 km/h (1 Bft) O-NO 74 ° 0 min 0,000 mm 0,0 UV-I 0 W/m² 2,7 °C 3,1 °C 4,8 km/h (1 Bft)
31.10.2019 21:21 3,1 °C 97 % 1019,7 hPa 0,0 mm 1,8 km/h (1 Bft) O-NO 74 ° 0 min 0,000 mm 0,0 UV-I 0 W/m² 2,7 °C 3,1 °C 4,8 km/h (1 Bft)
31.10.2019 21:22 3,1 °C 97 % 1019,7 hPa 0,0 mm 3,2 km/h (1 Bft) O-NO 74 ° 0 min 0,000 mm 0,0 UV-I 0 W/m² 2,7 °C 3,1 °C 4,8 km/h (1 Bft)
31.10.2019 21:23 3,1 °C 97 % 1019,7 hPa 0,0 mm 0,6 km/h (0 Bft) O-NO 74 ° 0 min 0,000 mm 0,0 UV-I 0 W/m² 2,7 °C 3,1 °C 3,2 km/h (1 Bft)
31.10.2019 21:24 3,1 °C 97 % 1019,6 hPa 0,0 mm 0,3 km/h (0 Bft) O-NO 74 ° 0 min 0,000 mm 0,0 UV-I 0 W/m² 2,7 °C 3,1 °C 3,2 km/h (1 Bft)
31.10.2019 21:25 3,1 °C 97 % 1019,6 hPa 0,0 mm 4,3 km/h (1 Bft) O-NO 74 ° 0 min 0,000 mm 0,0 UV-I 0 W/m² 2,7 °C 3,1 °C 6,4 km/h (2 Bft)
31.10.2019 21:26 3,1 °C 97 % 1019,6 hPa 0,0 mm 3,0 km/h (1 Bft) O-NO 74 ° 0 min 0,000 mm 0,0 UV-I 0 W/m² 2,7 °C 3,1 °C 4,8 km/h (1 Bft)
31.10.2019 21:27 3,1 °C 97 % 1019,6 hPa 0,0 mm 0,2 km/h (0 Bft) O-NO 74 ° 0 min 0,000 mm 0,0 UV-I 0 W/m² 2,7 °C 3,1 °C 1,6 km/h (1 Bft)
31.10.2019 21:28 3,1 °C 97 % 1019,6 hPa 0,0 mm 0,4 km/h (0 Bft) O-NO 74 ° 0 min 0,000 mm 0,0 UV-I 0 W/m² 2,7 °C 3,1 °C 1,6 km/h (1 Bft)
31.10.2019 21:29 3,1 °C 97 % 1019,6 hPa 0,0 mm 0,1 km/h (0 Bft) O-NO 74 ° 0 min 0,000 mm 0,0 UV-I 0 W/m² 2,7 °C 3,1 °C 1,6 km/h (1 Bft)
31.10.2019 21:30 3,1 °C 97 % 1019,6 hPa 0,0 mm 2,6 km/h (1 Bft) O-NO 74 ° 0 min 0,000 mm 0,0 UV-I 0 W/m² 2,7 °C 3,1 °C 4,8 km/h (1 Bft)
31.10.2019 21:31 3,1 °C 97 % 1019,6 hPa 0,0 mm 2,9 km/h (1 Bft) O-NO 74 ° 0 min 0,000 mm 0,0 UV-I 0 W/m² 2,7 °C 3,1 °C 4,8 km/h (1 Bft)
31.10.2019 21:32 3,1 °C 97 % 1019,6 hPa 0,0 mm 4,3 km/h (1 Bft) O-NO 74 ° 0 min 0,000 mm 0,0 UV-I 0 W/m² 2,7 °C 3,1 °C 4,8 km/h (1 Bft)
31.10.2019 21:33 3,2 °C 97 % 1019,6 hPa 0,0 mm 4,1 km/h (1 Bft) O-NO 74 ° 0 min 0,000 mm 0,0 UV-I 0 W/m² 2,8 °C 3,2 °C 6,4 km/h (2 Bft)
31.10.2019 21:34 3,1 °C 97 % 1019,6 hPa 0,0 mm 4,2 km/h (1 Bft) O-NO 74 ° 0 min 0,000 mm 0,0 UV-I 0 W/m² 2,7 °C 3,1 °C 6,4 km/h (2 Bft)
31.10.2019 21:35 3,1 °C 97 % 1019,6 hPa 0,0 mm 3,2 km/h (1 Bft) O-NO 74 ° 0 min 0,000 mm 0,0 UV-I 0 W/m² 2,7 °C 3,1 °C 4,8 km/h (1 Bft)
31.10.2019 21:36 3,1 °C 97 % 1019,6 hPa 0,0 mm 3,2 km/h (1 Bft) O-NO 74 ° 0 min 0,000 mm 0,0 UV-I 0 W/m² 2,7 °C 3,1 °C 4,8 km/h (1 Bft)
31.10.2019 21:37 3,1 °C 97 % 1019,6 hPa 0,0 mm 1,7 km/h (1 Bft) O-NO 74 ° 0 min 0,000 mm 0,0 UV-I 0 W/m² 2,7 °C 3,1 °C 3,2 km/h (1 Bft)
31.10.2019 21:38 3,1 °C 97 % 1019,6 hPa 0,0 mm 2,5 km/h (1 Bft) O-NO 74 ° 0 min 0,000 mm 0,0 UV-I 0 W/m² 2,7 °C 3,1 °C 3,2 km/h (1 Bft)
31.10.2019 21:39 3,1 °C 97 % 1019,6 hPa 0,0 mm 3,8 km/h (1 Bft) O-NO 74 ° 0 min 0,000 mm 0,0 UV-I 0 W/m² 2,7 °C 3,1 °C 4,8 km/h (1 Bft)
31.10.2019 21:40 3,1 °C 97 % 1019,5 hPa 0,0 mm 2,5 km/h (1 Bft) O-NO 74 ° 0 min 0,000 mm 0,0 UV-I 0 W/m² 2,7 °C 3,1 °C 3,2 km/h (1 Bft)
31.10.2019 21:41 3,1 °C 97 % 1019,6 hPa 0,0 mm 1,0 km/h (0 Bft) O-NO 74 ° 0 min 0,000 mm 0,0 UV-I 0 W/m² 2,7 °C 3,1 °C 1,6 km/h (1 Bft)
31.10.2019 21:42 3,1 °C 97 % 1019,6 hPa 0,0 mm 1,7 km/h (1 Bft) O-NO 74 ° 0 min 0,000 mm 0,0 UV-I 0 W/m² 2,7 °C 3,1 °C 3,2 km/h (1 Bft)
31.10.2019 21:43 3,1 °C 97 % 1019,5 hPa 0,0 mm 1,1 km/h (1 Bft) O-NO 74 ° 0 min 0,000 mm 0,0 UV-I 0 W/m² 2,7 °C 3,1 °C 3,2 km/h (1 Bft)
31.10.2019 21:44 3,1 °C 97 % 1019,6 hPa 0,0 mm 2,3 km/h (1 Bft) O-NO 74 ° 0 min 0,000 mm 0,0 UV-I 0 W/m² 2,7 °C 3,1 °C 4,8 km/h (1 Bft)
31.10.2019 21:45 3,1 °C 97 % 1019,5 hPa 0,0 mm 3,0 km/h (1 Bft) O-NO 74 ° 0 min 0,000 mm 0,0 UV-I 0 W/m² 2,7 °C 3,1 °C 4,8 km/h (1 Bft)
31.10.2019 21:46 3,1 °C 97 % 1019,5 hPa 0,0 mm 2,3 km/h (1 Bft) O-NO 74 ° 0 min 0,000 mm 0,0 UV-I 0 W/m² 2,7 °C 3,1 °C 3,2 km/h (1 Bft)
31.10.2019 21:47 3,1 °C 97 % 1019,5 hPa 0,0 mm 1,8 km/h (1 Bft) O-NO 74 ° 0 min 0,000 mm 0,0 UV-I 0 W/m² 2,7 °C 3,1 °C 4,8 km/h (1 Bft)
31.10.2019 21:48 3,1 °C 97 % 1019,6 hPa 0,0 mm 1,7 km/h (1 Bft) O-NO 74 ° 0 min 0,000 mm 0,0 UV-I 0 W/m² 2,7 °C 3,1 °C 3,2 km/h (1 Bft)
31.10.2019 21:49 3,1 °C 97 % 1019,6 hPa 0,0 mm 2,1 km/h (1 Bft) O-NO 74 ° 0 min 0,000 mm 0,0 UV-I 0 W/m² 2,7 °C 3,1 °C 3,2 km/h (1 Bft)
31.10.2019 21:50 3,1 °C 97 % 1019,5 hPa 0,0 mm 1,1 km/h (1 Bft) O-NO 74 ° 0 min 0,000 mm 0,0 UV-I 0 W/m² 2,7 °C 3,1 °C 3,2 km/h (1 Bft)
31.10.2019 21:51 3,1 °C 97 % 1019,5 hPa 0,0 mm 2,1 km/h (1 Bft) O-NO 74 ° 0 min 0,000 mm 0,0 UV-I 0 W/m² 2,7 °C 3,1 °C 3,2 km/h (1 Bft)
31.10.2019 21:52 3,2 °C 97 % 1019,4 hPa 0,0 mm 1,5 km/h (1 Bft) O-NO 74 ° 0 min 0,000 mm 0,0 UV-I 0 W/m² 2,8 °C 3,2 °C 3,2 km/h (1 Bft)
31.10.2019 21:53 3,1 °C 97 % 1019,5 hPa 0,0 mm 2,4 km/h (1 Bft) O-NO 74 ° 0 min 0,000 mm 0,0 UV-I 0 W/m² 2,7 °C 3,1 °C 3,2 km/h (1 Bft)
31.10.2019 21:54 3,1 °C 97 % 1019,4 hPa 0,0 mm 2,0 km/h (1 Bft) O-NO 74 ° 0 min 0,000 mm 0,0 UV-I 0 W/m² 2,7 °C 3,1 °C 3,2 km/h (1 Bft)
31.10.2019 21:55 3,2 °C 97 % 1019,4 hPa 0,0 mm 0,3 km/h (0 Bft) O-NO 74 ° 0 min 0,000 mm 0,0 UV-I 0 W/m² 2,8 °C 3,2 °C 1,6 km/h (1 Bft)
31.10.2019 21:56 3,1 °C 97 % 1019,4 hPa 0,0 mm 0,5 km/h (0 Bft) O-NO 74 ° 0 min 0,000 mm 0,0 UV-I 0 W/m² 2,7 °C 3,1 °C 1,6 km/h (1 Bft)
31.10.2019 21:57 3,2 °C 97 % 1019,4 hPa 0,0 mm 1,2 km/h (1 Bft) O-NO 74 ° 0 min 0,000 mm 0,0 UV-I 0 W/m² 2,8 °C 3,2 °C 3,2 km/h (1 Bft)
31.10.2019 21:58 3,1 °C 97 % 1019,4 hPa 0,0 mm 1,9 km/h (1 Bft) O-NO 74 ° 0 min 0,000 mm 0,0 UV-I 0 W/m² 2,7 °C 3,1 °C 3,2 km/h (1 Bft)
31.10.2019 21:59 3,1 °C 97 % 1019,4 hPa 0,0 mm 2,1 km/h (1 Bft) O-NO 74 ° 0 min 0,000 mm 0,0 UV-I 0 W/m² 2,7 °C 3,1 °C 3,2 km/h (1 Bft)
31.10.2019 22:00 3,1 °C 97 % 1019,3 hPa 0,0 mm 0,1 km/h (0 Bft) O-NO 74 ° 0 min 0,000 mm 0,0 UV-I 0 W/m² 2,7 °C 3,1 °C 1,6 km/h (1 Bft)
31.10.2019 22:01 3,1 °C 97 % 1019,4 hPa 0,0 mm 0,0 km/h (0 Bft) O-NO 74 ° 0 min 0,000 mm 0,0 UV-I 0 W/m² 2,7 °C 3,1 °C 0,0 km/h (0 Bft)
31.10.2019 22:02 3,2 °C 97 % 1019,4 hPa 0,0 mm 0,0 km/h (0 Bft) O-NO 74 ° 0 min 0,000 mm 0,0 UV-I 0 W/m² 2,8 °C 3,2 °C 0,0 km/h (0 Bft)
31.10.2019 22:03 3,1 °C 97 % 1019,4 hPa 0,0 mm 0,0 km/h (0 Bft) O-NO 74 ° 0 min 0,000 mm 0,0 UV-I 0 W/m² 2,7 °C 3,1 °C 0,0 km/h (0 Bft)
31.10.2019 22:04 3,2 °C 97 % 1019,4 hPa 0,0 mm 1,7 km/h (1 Bft) O-NO 74 ° 0 min 0,000 mm 0,0 UV-I 0 W/m² 2,8 °C 3,2 °C 3,2 km/h (1 Bft)
31.10.2019 22:05 3,2 °C 97 % 1019,3 hPa 0,0 mm 2,7 km/h (1 Bft) O-NO 74 ° 0 min 0,000 mm 0,0 UV-I 0 W/m² 2,8 °C 3,2 °C 4,8 km/h (1 Bft)
31.10.2019 22:06 3,2 °C 97 % 1019,4 hPa 0,0 mm 0,2 km/h (0 Bft) O-NO 74 ° 0 min 0,000 mm 0,0 UV-I 0 W/m² 2,8 °C 3,2 °C 1,6 km/h (1 Bft)
31.10.2019 22:07 3,1 °C 97 % 1019,4 hPa 0,0 mm 1,2 km/h (1 Bft) O-NO 74 ° 0 min 0,000 mm 0,0 UV-I 0 W/m² 2,7 °C 3,1 °C 3,2 km/h (1 Bft)
31.10.2019 22:08 3,2 °C 97 % 1019,4 hPa 0,0 mm 2,5 km/h (1 Bft) O-NO 74 ° 0 min 0,000 mm 0,0 UV-I 0 W/m² 2,8 °C 3,2 °C 4,8 km/h (1 Bft)
31.10.2019 22:09 3,1 °C 97 % 1019,4 hPa 0,0 mm 3,7 km/h (1 Bft) O-NO 74 ° 0 min 0,000 mm 0,0 UV-I 0 W/m² 2,7 °C 3,1 °C 6,4 km/h (2 Bft)
31.10.2019 22:10 3,1 °C 97 % 1019,4 hPa 0,0 mm 1,5 km/h (1 Bft) O-NO 74 ° 0 min 0,000 mm 0,0 UV-I 0 W/m² 2,7 °C 3,1 °C 3,2 km/h (1 Bft)
31.10.2019 22:11 3,2 °C 97 % 1019,4 hPa 0,0 mm 0,6 km/h (0 Bft) O-NO 74 ° 0 min 0,000 mm 0,0 UV-I 0 W/m² 2,8 °C 3,2 °C 1,6 km/h (1 Bft)
31.10.2019 22:12 3,2 °C 97 % 1019,4 hPa 0,0 mm 1,0 km/h (0 Bft) O-NO 74 ° 0 min 0,000 mm 0,0 UV-I 0 W/m² 2,8 °C 3,2 °C 4,8 km/h (1 Bft)
31.10.2019 22:13 3,1 °C 97 % 1019,4 hPa 0,0 mm 1,6 km/h (1 Bft) O-NO 74 ° 0 min 0,000 mm 0,0 UV-I 0 W/m² 2,7 °C 3,1 °C 3,2 km/h (1 Bft)
31.10.2019 22:14 3,2 °C 97 % 1019,4 hPa 0,0 mm 1,0 km/h (0 Bft) O-NO 74 ° 0 min 0,000 mm 0,0 UV-I 0 W/m² 2,8 °C 3,2 °C 1,6 km/h (1 Bft)
31.10.2019 22:15 3,2 °C 97 % 1019,5 hPa 0,0 mm 2,8 km/h (1 Bft) O-NO 74 ° 0 min 0,000 mm 0,0 UV-I 0 W/m² 2,8 °C 3,2 °C 4,8 km/h (1 Bft)
31.10.2019 22:16 3,2 °C 97 % 1019,5 hPa 0,0 mm 2,4 km/h (1 Bft) O-NO 74 ° 0 min 0,000 mm 0,0 UV-I 0 W/m² 2,8 °C 3,2 °C 3,2 km/h (1 Bft)
31.10.2019 22:17 3,2 °C 97 % 1019,5 hPa 0,0 mm 1,5 km/h (1 Bft) O-NO 74 ° 0 min 0,000 mm 0,0 UV-I 0 W/m² 2,8 °C 3,2 °C 3,2 km/h (1 Bft)
31.10.2019 22:18 3,2 °C 97 % 1019,5 hPa 0,0 mm 0,0 km/h (0 Bft) O-NO 74 ° 0 min 0,000 mm 0,0 UV-I 0 W/m² 2,8 °C 3,2 °C 0,0 km/h (0 Bft)
31.10.2019 22:19 3,2 °C 97 % 1019,4 hPa 0,0 mm 0,0 km/h (0 Bft) O-NO 74 ° 0 min 0,000 mm 0,0 UV-I 0 W/m² 2,8 °C 3,2 °C 0,0 km/h (0 Bft)
31.10.2019 22:20 3,2 °C 97 % 1019,4 hPa 0,0 mm 0,0 km/h (0 Bft) O-NO 74 ° 0 min 0,000 mm 0,0 UV-I 0 W/m² 2,8 °C 3,2 °C 0,0 km/h (0 Bft)
31.10.2019 22:21 3,2 °C 97 % 1019,4 hPa 0,0 mm 0,0 km/h (0 Bft) O-NO 74 ° 0 min 0,000 mm 0,0 UV-I 0 W/m² 2,8 °C 3,2 °C 0,0 km/h (0 Bft)
31.10.2019 22:22 3,2 °C 97 % 1019,4 hPa 0,0 mm 0,0 km/h (0 Bft) O-NO 74 ° 0 min 0,000 mm 0,0 UV-I 0 W/m² 2,8 °C 3,2 °C 0,0 km/h (0 Bft)
31.10.2019 22:23 3,2 °C 97 % 1019,4 hPa 0,0 mm 0,0 km/h (0 Bft) O-NO 74 ° 0 min 0,000 mm 0,0 UV-I 0 W/m² 2,8 °C 3,2 °C 0,0 km/h (0 Bft)
31.10.2019 22:24 3,2 °C 97 % 1019,4 hPa 0,0 mm 0,0 km/h (0 Bft) O-NO 74 ° 0 min 0,000 mm 0,0 UV-I 0 W/m² 2,8 °C 3,2 °C 0,0 km/h (0 Bft)
31.10.2019 22:25 3,2 °C 97 % 1019,3 hPa 0,0 mm 2,2 km/h (1 Bft) O-NO 74 ° 0 min 0,000 mm 0,0 UV-I 0 W/m² 2,8 °C 3,2 °C 4,8 km/h (1 Bft)
31.10.2019 22:26 3,2 °C 97 % 1019,3 hPa 0,0 mm 2,9 km/h (1 Bft) O-NO 74 ° 0 min 0,000 mm 0,0 UV-I 0 W/m² 2,8 °C 3,2 °C 4,8 km/h (1 Bft)
31.10.2019 22:27 3,2 °C 97 % 1019,3 hPa 0,0 mm 2,7 km/h (1 Bft) O-NO 74 ° 0 min 0,000 mm 0,0 UV-I 0 W/m² 2,8 °C 3,2 °C 3,2 km/h (1 Bft)
31.10.2019 22:28 3,2 °C 97 % 1019,3 hPa 0,0 mm 2,4 km/h (1 Bft) O-NO 74 ° 0 min 0,000 mm 0,0 UV-I 0 W/m² 2,8 °C 3,2 °C 3,2 km/h (1 Bft)
31.10.2019 22:29 3,2 °C 97 % 1019,4 hPa 0,0 mm 1,3 km/h (1 Bft) O-NO 74 ° 0 min 0,000 mm 0,0 UV-I 0 W/m² 2,8 °C 3,2 °C 3,2 km/h (1 Bft)
31.10.2019 22:30 3,2 °C 97 % 1019,3 hPa 0,0 mm 0,8 km/h (0 Bft) O-NO 74 ° 0 min 0,000 mm 0,0 UV-I 0 W/m² 2,8 °C 3,2 °C 1,6 km/h (1 Bft)
31.10.2019 22:31 3,2 °C 97 % 1019,3 hPa 0,0 mm 0,7 km/h (0 Bft) O-NO 74 ° 0 min 0,000 mm 0,0 UV-I 0 W/m² 2,8 °C 3,2 °C 1,6 km/h (1 Bft)
31.10.2019 22:32 3,2 °C 97 % 1019,3 hPa 0,0 mm 0,3 km/h (0 Bft) O-NO 74 ° 0 min 0,000 mm 0,0 UV-I 0 W/m² 2,8 °C 3,2 °C 1,6 km/h (1 Bft)
31.10.2019 22:33 3,2 °C 97 % 1019,3 hPa 0,0 mm 0,0 km/h (0 Bft) O-NO 74 ° 0 min 0,000 mm 0,0 UV-I 0 W/m² 2,8 °C 3,2 °C 0,0 km/h (0 Bft)
31.10.2019 22:34 3,2 °C 97 % 1019,3 hPa 0,0 mm 0,3 km/h (0 Bft) O-NO 74 ° 0 min 0,000 mm 0,0 UV-I 0 W/m² 2,8 °C 3,2 °C 1,6 km/h (1 Bft)
31.10.2019 22:35 3,2 °C 97 % 1019,3 hPa 0,0 mm 2,3 km/h (1 Bft) O-NO 74 ° 0 min 0,000 mm 0,0 UV-I 0 W/m² 2,8 °C 3,2 °C 3,2 km/h (1 Bft)
31.10.2019 22:36 3,2 °C 97 % 1019,3 hPa 0,0 mm 2,0 km/h (1 Bft) O-NO 74 ° 0 min 0,000 mm 0,0 UV-I 0 W/m² 2,8 °C 3,2 °C 4,8 km/h (1 Bft)
31.10.2019 22:37 3,2 °C 97 % 1019,3 hPa 0,0 mm 3,6 km/h (1 Bft) O-NO 74 ° 0 min 0,000 mm 0,0 UV-I 0 W/m² 2,8 °C 3,2 °C 4,8 km/h (1 Bft)
31.10.2019 22:38 3,2 °C 97 % 1019,2 hPa 0,0 mm 2,7 km/h (1 Bft) O-NO 74 ° 0 min 0,000 mm 0,0 UV-I 0 W/m² 2,8 °C 3,2 °C 4,8 km/h (1 Bft)
31.10.2019 22:39 3,2 °C 97 % 1019,2 hPa 0,0 mm 2,7 km/h (1 Bft) O-NO 74 ° 0 min 0,000 mm 0,0 UV-I 0 W/m² 2,8 °C 3,2 °C 4,8 km/h (1 Bft)
31.10.2019 22:40 3,2 °C 97 % 1019,2 hPa 0,0 mm 2,5 km/h (1 Bft) O-NO 74 ° 0 min 0,000 mm 0,0 UV-I 0 W/m² 2,8 °C 3,2 °C 3,2 km/h (1 Bft)
31.10.2019 22:41 3,2 °C 97 % 1019,2 hPa 0,0 mm 3,9 km/h (1 Bft) O-NO 74 ° 0 min 0,000 mm 0,0 UV-I 0 W/m² 2,8 °C 3,2 °C 4,8 km/h (1 Bft)
31.10.2019 22:42 3,2 °C 97 % 1019,2 hPa 0,0 mm 2,6 km/h (1 Bft) O-NO 74 ° 0 min 0,000 mm 0,0 UV-I 0 W/m² 2,8 °C 3,2 °C 3,2 km/h (1 Bft)
31.10.2019 22:43 3,2 °C 97 % 1019,2 hPa 0,0 mm 3,1 km/h (1 Bft) O-NO 74 ° 0 min 0,000 mm 0,0 UV-I 0 W/m² 2,8 °C 3,2 °C 4,8 km/h (1 Bft)
31.10.2019 22:44 3,2 °C 97 % 1019,2 hPa 0,0 mm 1,8 km/h (1 Bft) O-NO 74 ° 0 min 0,000 mm 0,0 UV-I 0 W/m² 2,8 °C 3,2 °C 3,2 km/h (1 Bft)
31.10.2019 22:45 3,2 °C 97 % 1019,2 hPa 0,0 mm 2,7 km/h (1 Bft) O-NO 74 ° 0 min 0,000 mm 0,0 UV-I 0 W/m² 2,8 °C 3,2 °C 3,2 km/h (1 Bft)
31.10.2019 22:46 3,2 °C 97 % 1019,2 hPa 0,0 mm 0,3 km/h (0 Bft) O-NO 74 ° 0 min 0,000 mm 0,0 UV-I 0 W/m² 2,8 °C 3,2 °C 1,6 km/h (1 Bft)
31.10.2019 22:47 3,2 °C 97 % 1019,2 hPa 0,0 mm 0,3 km/h (0 Bft) O-NO 74 ° 0 min 0,000 mm 0,0 UV-I 0 W/m² 2,8 °C 3,2 °C 1,6 km/h (1 Bft)
31.10.2019 22:48 3,2 °C 97 % 1019,2 hPa 0,0 mm 0,5 km/h (0 Bft) O-NO 74 ° 0 min 0,000 mm 0,0 UV-I 0 W/m² 2,8 °C 3,2 °C 1,6 km/h (1 Bft)
31.10.2019 22:49 3,2 °C 97 % 1019,2 hPa 0,0 mm 0,4 km/h (0 Bft) O-NO 74 ° 0 min 0,000 mm 0,0 UV-I 0 W/m² 2,8 °C 3,2 °C 1,6 km/h (1 Bft)
31.10.2019 22:50 3,2 °C 97 % 1019,2 hPa 0,0 mm 2,2 km/h (1 Bft) O-NO 74 ° 0 min 0,000 mm 0,0 UV-I 0 W/m² 2,8 °C 3,2 °C 3,2 km/h (1 Bft)
31.10.2019 22:51 3,2 °C 97 % 1019,2 hPa 0,0 mm 1,8 km/h (1 Bft) O-NO 74 ° 0 min 0,000 mm 0,0 UV-I 0 W/m² 2,8 °C 3,2 °C 3,2 km/h (1 Bft)
31.10.2019 22:52 3,2 °C 97 % 1019,2 hPa 0,0 mm 1,7 km/h (1 Bft) O-NO 74 ° 0 min 0,000 mm 0,0 UV-I 0 W/m² 2,8 °C 3,2 °C 3,2 km/h (1 Bft)
31.10.2019 22:53 3,2 °C 97 % 1019,2 hPa 0,0 mm 1,3 km/h (1 Bft) O-NO 74 ° 0 min 0,000 mm 0,0 UV-I 0 W/m² 2,8 °C 3,2 °C 1,6 km/h (1 Bft)
31.10.2019 22:54 3,2 °C 97 % 1019,2 hPa 0,0 mm 0,2 km/h (0 Bft) O-NO 74 ° 0 min 0,000 mm 0,0 UV-I 0 W/m² 2,8 °C 3,2 °C 1,6 km/h (1 Bft)
31.10.2019 22:55 3,2 °C 97 % 1019,2 hPa 0,0 mm 0,7 km/h (0 Bft) O-NO 74 ° 0 min 0,000 mm 0,0 UV-I 0 W/m² 2,8 °C 3,2 °C 3,2 km/h (1 Bft)
31.10.2019 22:56 3,2 °C 97 % 1019,2 hPa 0,0 mm 2,1 km/h (1 Bft) O-NO 74 ° 0 min 0,000 mm 0,0 UV-I 0 W/m² 2,8 °C 3,2 °C 3,2 km/h (1 Bft)
31.10.2019 22:57 3,2 °C 97 % 1019,1 hPa 0,0 mm 1,3 km/h (1 Bft) O-NO 74 ° 0 min 0,000 mm 0,0 UV-I 0 W/m² 2,8 °C 3,2 °C 1,6 km/h (1 Bft)
31.10.2019 22:58 3,2 °C 97 % 1019,2 hPa 0,0 mm 0,9 km/h (0 Bft) O-NO 74 ° 0 min 0,000 mm 0,0 UV-I 0 W/m² 2,8 °C 3,2 °C 1,6 km/h (1 Bft)
31.10.2019 22:59 3,2 °C 97 % 1019,2 hPa 0,0 mm 0,1 km/h (0 Bft) O-NO 74 ° 0 min 0,000 mm 0,0 UV-I 0 W/m² 2,8 °C 3,2 °C 1,6 km/h (1 Bft)
31.10.2019 23:00 3,2 °C 97 % 1019,2 hPa 0,0 mm 0,0 km/h (0 Bft) O-NO 74 ° 0 min 0,000 mm 0,0 UV-I 0 W/m² 2,8 °C 3,2 °C 0,0 km/h (0 Bft)
31.10.2019 23:01 3,2 °C 97 % 1019,2 hPa 0,0 mm 0,8 km/h (0 Bft) O-NO 74 ° 0 min 0,000 mm 0,0 UV-I 0 W/m² 2,8 °C 3,2 °C 3,2 km/h (1 Bft)
31.10.2019 23:02 3,2 °C 97 % 1019,1 hPa 0,0 mm 0,0 km/h (0 Bft) O-NO 74 ° 0 min 0,000 mm 0,0 UV-I 0 W/m² 2,8 °C 3,2 °C 0,0 km/h (0 Bft)
31.10.2019 23:03 3,2 °C 97 % 1019,2 hPa 0,0 mm 0,0 km/h (0 Bft) O-NO 74 ° 0 min 0,000 mm 0,0 UV-I 0 W/m² 2,8 °C 3,2 °C 0,0 km/h (0 Bft)
31.10.2019 23:04 3,2 °C 97 % 1019,2 hPa 0,0 mm 0,8 km/h (0 Bft) O-NO 74 ° 0 min 0,000 mm 0,0 UV-I 0 W/m² 2,8 °C 3,2 °C 1,6 km/h (1 Bft)
31.10.2019 23:05 3,2 °C 97 % 1019,1 hPa 0,0 mm 0,0 km/h (0 Bft) O-NO 74 ° 0 min 0,000 mm 0,0 UV-I 0 W/m² 2,8 °C 3,2 °C 0,0 km/h (0 Bft)
31.10.2019 23:06 3,2 °C 97 % 1019,2 hPa 0,0 mm 0,6 km/h (0 Bft) O-NO 74 ° 0 min 0,000 mm 0,0 UV-I 0 W/m² 2,8 °C 3,2 °C 3,2 km/h (1 Bft)
31.10.2019 23:07 3,2 °C 97 % 1019,2 hPa 0,0 mm 1,6 km/h (1 Bft) O-NO 74 ° 0 min 0,000 mm 0,0 UV-I 0 W/m² 2,8 °C 3,2 °C 3,2 km/h (1 Bft)
31.10.2019 23:08 3,2 °C 97 % 1019,1 hPa 0,0 mm 0,1 km/h (0 Bft) O-NO 74 ° 0 min 0,000 mm 0,0 UV-I 0 W/m² 2,8 °C 3,2 °C 1,6 km/h (1 Bft)
31.10.2019 23:09 3,2 °C 97 % 1019,2 hPa 0,2 mm 0,7 km/h (0 Bft) O-NO 74 ° 0 min 0,000 mm 0,0 UV-I 0 W/m² 2,8 °C 3,2 °C 1,6 km/h (1 Bft)
31.10.2019 23:10 3,2 °C 97 % 1019,2 hPa 0,0 mm 1,5 km/h (1 Bft) O-NO 74 ° 0 min 0,000 mm 0,0 UV-I 0 W/m² 2,8 °C 3,2 °C 3,2 km/h (1 Bft)
31.10.2019 23:11 3,2 °C 97 % 1019,1 hPa 0,0 mm 1,4 km/h (1 Bft) O-NO 74 ° 0 min 0,000 mm 0,0 UV-I 0 W/m² 2,8 °C 3,2 °C 3,2 km/h (1 Bft)
31.10.2019 23:12 3,2 °C 97 % 1019,2 hPa 0,0 mm 0,9 km/h (0 Bft) O-NO 74 ° 0 min 0,000 mm 0,0 UV-I 0 W/m² 2,8 °C 3,2 °C 3,2 km/h (1 Bft)
31.10.2019 23:13 3,2 °C 97 % 1019,1 hPa 0,0 mm 0,0 km/h (0 Bft) O-NO 74 ° 0 min 0,000 mm 0,0 UV-I 0 W/m² 2,8 °C 3,2 °C 0,0 km/h (0 Bft)
31.10.2019 23:14 3,2 °C 97 % 1019,2 hPa 0,0 mm 0,7 km/h (0 Bft) O-NO 74 ° 0 min 0,000 mm 0,0 UV-I 0 W/m² 2,8 °C 3,2 °C 3,2 km/h (1 Bft)
31.10.2019 23:15 3,2 °C 97 % 1019,2 hPa 0,0 mm 0,7 km/h (0 Bft) O-NO 74 ° 0 min 0,000 mm 0,0 UV-I 0 W/m² 2,8 °C 3,2 °C 1,6 km/h (1 Bft)
31.10.2019 23:16 3,2 °C 97 % 1019,2 hPa 0,0 mm 0,6 km/h (0 Bft) O-NO 74 ° 0 min 0,000 mm 0,0 UV-I 0 W/m² 2,8 °C 3,2 °C 3,2 km/h (1 Bft)
31.10.2019 23:17 3,2 °C 97 % 1019,1 hPa 0,0 mm 0,9 km/h (0 Bft) O-NO 74 ° 0 min 0,000 mm 0,0 UV-I 0 W/m² 2,8 °C 3,2 °C 3,2 km/h (1 Bft)
31.10.2019 23:18 3,2 °C 97 % 1019,2 hPa 0,0 mm 0,3 km/h (0 Bft) O-NO 74 ° 0 min 0,000 mm 0,0 UV-I 0 W/m² 2,8 °C 3,2 °C 1,6 km/h (1 Bft)
31.10.2019 23:19 3,2 °C 97 % 1019,2 hPa 0,0 mm 0,5 km/h (0 Bft) O-NO 74 ° 0 min 0,000 mm 0,0 UV-I 0 W/m² 2,8 °C 3,2 °C 1,6 km/h (1 Bft)
31.10.2019 23:20 3,2 °C 97 % 1019,2 hPa 0,0 mm 0,0 km/h (0 Bft) O-NO 74 ° 0 min 0,000 mm 0,0 UV-I 0 W/m² 2,8 °C 3,2 °C 0,0 km/h (0 Bft)
31.10.2019 23:21 3,2 °C 97 % 1019,2 hPa 0,0 mm 0,0 km/h (0 Bft) O-NO 74 ° 0 min 0,000 mm 0,0 UV-I 0 W/m² 2,8 °C 3,2 °C 0,0 km/h (0 Bft)
31.10.2019 23:22 3,2 °C 97 % 1019,2 hPa 0,0 mm 0,0 km/h (0 Bft) O-NO 74 ° 0 min 0,000 mm 0,0 UV-I 0 W/m² 2,8 °C 3,2 °C 0,0 km/h (0 Bft)
31.10.2019 23:23 3,2 °C 97 % 1019,2 hPa 0,0 mm 0,0 km/h (0 Bft) O-NO 74 ° 0 min 0,000 mm 0,0 UV-I 0 W/m² 2,8 °C 3,2 °C 0,0 km/h (0 Bft)
31.10.2019 23:24 3,2 °C 97 % 1019,2 hPa 0,0 mm 0,0 km/h (0 Bft) O-NO 74 ° 0 min 0,000 mm 0,0 UV-I 0 W/m² 2,8 °C 3,2 °C 0,0 km/h (0 Bft)
31.10.2019 23:25 3,2 °C 97 % 1019,2 hPa 0,0 mm 0,0 km/h (0 Bft) O-NO 74 ° 0 min 0,000 mm 0,0 UV-I 0 W/m² 2,8 °C 3,2 °C 0,0 km/h (0 Bft)
31.10.2019 23:26 3,2 °C 97 % 1019,2 hPa 0,0 mm 0,0 km/h (0 Bft) O-NO 74 ° 0 min 0,000 mm 0,0 UV-I 0 W/m² 2,8 °C 3,2 °C 0,0 km/h (0 Bft)
31.10.2019 23:27 3,2 °C 97 % 1019,2 hPa 0,0 mm 0,0 km/h (0 Bft) O-NO 74 ° 0 min 0,000 mm 0,0 UV-I 0 W/m² 2,8 °C 3,2 °C 0,0 km/h (0 Bft)
31.10.2019 23:28 3,2 °C 97 % 1019,2 hPa 0,0 mm 0,0 km/h (0 Bft) O-NO 74 ° 0 min 0,000 mm 0,0 UV-I 0 W/m² 2,8 °C 3,2 °C 0,0 km/h (0 Bft)
31.10.2019 23:29 3,2 °C 97 % 1019,3 hPa 0,0 mm 0,0 km/h (0 Bft) O-NO 74 ° 0 min 0,000 mm 0,0 UV-I 0 W/m² 2,8 °C 3,2 °C 0,0 km/h (0 Bft)
31.10.2019 23:30 3,2 °C 97 % 1019,3 hPa 0,0 mm 0,0 km/h (0 Bft) O-NO 74 ° 0 min 0,000 mm 0,0 UV-I 0 W/m² 2,8 °C 3,2 °C 0,0 km/h (0 Bft)
31.10.2019 23:31 3,2 °C 97 % 1019,3 hPa 0,0 mm 0,0 km/h (0 Bft) O-NO 74 ° 0 min 0,000 mm 0,0 UV-I 0 W/m² 2,8 °C 3,2 °C 0,0 km/h (0 Bft)
31.10.2019 23:32 3,2 °C 97 % 1019,3 hPa 0,0 mm 0,0 km/h (0 Bft) O-NO 74 ° 0 min 0,000 mm 0,0 UV-I 0 W/m² 2,8 °C 3,2 °C 0,0 km/h (0 Bft)
31.10.2019 23:33 3,2 °C 97 % 1019,3 hPa 0,0 mm 0,0 km/h (0 Bft) O-NO 74 ° 0 min 0,000 mm 0,0 UV-I 0 W/m² 2,8 °C 3,2 °C 0,0 km/h (0 Bft)
31.10.2019 23:34 3,2 °C 97 % 1019,3 hPa 0,0 mm 0,0 km/h (0 Bft) O-NO 74 ° 0 min 0,000 mm 0,0 UV-I 0 W/m² 2,8 °C 3,2 °C 0,0 km/h (0 Bft)
31.10.2019 23:35 3,2 °C 97 % 1019,3 hPa 0,0 mm 0,0 km/h (0 Bft) O-NO 74 ° 0 min 0,000 mm 0,0 UV-I 0 W/m² 2,8 °C 3,2 °C 0,0 km/h (0 Bft)
31.10.2019 23:36 3,2 °C 97 % 1019,3 hPa 0,0 mm 0,0 km/h (0 Bft) O-NO 74 ° 0 min 0,000 mm 0,0 UV-I 0 W/m² 2,8 °C 3,2 °C 0,0 km/h (0 Bft)
31.10.2019 23:37 3,2 °C 97 % 1019,2 hPa 0,0 mm 0,0 km/h (0 Bft) O-NO 74 ° 0 min 0,000 mm 0,0 UV-I 0 W/m² 2,8 °C 3,2 °C 0,0 km/h (0 Bft)
31.10.2019 23:38 3,2 °C 97 % 1019,2 hPa 0,0 mm 0,0 km/h (0 Bft) O-NO 74 ° 0 min 0,000 mm 0,0 UV-I 0 W/m² 2,8 °C 3,2 °C 0,0 km/h (0 Bft)
31.10.2019 23:39 3,2 °C 97 % 1019,2 hPa 0,0 mm 0,0 km/h (0 Bft) O-NO 74 ° 0 min 0,000 mm 0,0 UV-I 0 W/m² 2,8 °C 3,2 °C 0,0 km/h (0 Bft)
31.10.2019 23:40 3,2 °C 97 % 1019,2 hPa 0,0 mm 0,0 km/h (0 Bft) O-NO 74 ° 0 min 0,000 mm 0,0 UV-I 0 W/m² 2,8 °C 3,2 °C 0,0 km/h (0 Bft)
31.10.2019 23:41 3,2 °C 97 % 1019,3 hPa 0,0 mm 0,0 km/h (0 Bft) O-NO 74 ° 0 min 0,000 mm 0,0 UV-I 0 W/m² 2,8 °C 3,2 °C 0,0 km/h (0 Bft)
31.10.2019 23:42 3,2 °C 97 % 1019,2 hPa 0,0 mm 0,0 km/h (0 Bft) O-NO 74 ° 0 min 0,000 mm 0,0 UV-I 0 W/m² 2,8 °C 3,2 °C 0,0 km/h (0 Bft)
31.10.2019 23:43 3,3 °C 97 % 1019,2 hPa 0,0 mm 0,0 km/h (0 Bft) O-NO 74 ° 0 min 0,000 mm 0,0 UV-I 0 W/m² 2,9 °C 3,3 °C 0,0 km/h (0 Bft)
31.10.2019 23:44 3,2 °C 97 % 1019,2 hPa 0,0 mm 0,0 km/h (0 Bft) O-NO 74 ° 0 min 0,000 mm 0,0 UV-I 0 W/m² 2,8 °C 3,2 °C 0,0 km/h (0 Bft)
31.10.2019 23:45 3,2 °C 97 % 1019,1 hPa 0,0 mm 0,0 km/h (0 Bft) O-NO 74 ° 0 min 0,000 mm 0,0 UV-I 0 W/m² 2,8 °C 3,2 °C 0,0 km/h (0 Bft)
31.10.2019 23:46 3,2 °C 97 % 1019,2 hPa 0,0 mm 0,0 km/h (0 Bft) O-NO 74 ° 0 min 0,000 mm 0,0 UV-I 0 W/m² 2,8 °C 3,2 °C 0,0 km/h (0 Bft)
31.10.2019 23:47 3,3 °C 97 % 1019,2 hPa 0,0 mm 0,0 km/h (0 Bft) O-NO 74 ° 0 min 0,000 mm 0,0 UV-I 0 W/m² 2,9 °C 3,3 °C 0,0 km/h (0 Bft)
31.10.2019 23:48 3,2 °C 97 % 1019,2 hPa 0,0 mm 0,0 km/h (0 Bft) O-NO 74 ° 0 min 0,000 mm 0,0 UV-I 0 W/m² 2,8 °C 3,2 °C 0,0 km/h (0 Bft)
31.10.2019 23:49 3,3 °C 97 % 1019,2 hPa 0,0 mm 0,0 km/h (0 Bft) O-NO 74 ° 0 min 0,000 mm 0,0 UV-I 0 W/m² 2,9 °C 3,3 °C 0,0 km/h (0 Bft)
31.10.2019 23:50 3,3 °C 97 % 1019,1 hPa 0,0 mm 0,0 km/h (0 Bft) O-NO 74 ° 0 min 0,000 mm 0,0 UV-I 0 W/m² 2,9 °C 3,3 °C 0,0 km/h (0 Bft)
31.10.2019 23:51 3,3 °C 97 % 1019,1 hPa 0,0 mm 0,0 km/h (0 Bft) O-NO 74 ° 0 min 0,000 mm 0,0 UV-I 0 W/m² 2,9 °C 3,3 °C 0,0 km/h (0 Bft)
31.10.2019 23:52 3,3 °C 97 % 1019,2 hPa 0,0 mm 0,0 km/h (0 Bft) O-NO 74 ° 0 min 0,000 mm 0,0 UV-I 0 W/m² 2,9 °C 3,3 °C 0,0 km/h (0 Bft)
31.10.2019 23:53 3,3 °C 97 % 1019,1 hPa 0,0 mm 0,0 km/h (0 Bft) O-NO 74 ° 0 min 0,000 mm 0,0 UV-I 0 W/m² 2,9 °C 3,3 °C 0,0 km/h (0 Bft)
31.10.2019 23:54 3,3 °C 97 % 1019,1 hPa 0,0 mm 0,8 km/h (0 Bft) O-NO 74 ° 0 min 0,000 mm 0,0 UV-I 0 W/m² 2,9 °C 3,3 °C 3,2 km/h (1 Bft)
31.10.2019 23:55 3,3 °C 97 % 1019,2 hPa 0,0 mm 1,5 km/h (1 Bft) O-NO 74 ° 0 min 0,000 mm 0,0 UV-I 0 W/m² 2,9 °C 3,3 °C 3,2 km/h (1 Bft)
31.10.2019 23:56 3,3 °C 97 % 1019,2 hPa 0,0 mm 0,1 km/h (0 Bft) O-NO 74 ° 0 min 0,000 mm 0,0 UV-I 0 W/m² 2,9 °C 3,3 °C 1,6 km/h (1 Bft)
31.10.2019 23:57 3,3 °C 97 % 1019,1 hPa 0,0 mm 0,0 km/h (0 Bft) O-NO 74 ° 0 min 0,000 mm 0,0 UV-I 0 W/m² 2,9 °C 3,3 °C 0,0 km/h (0 Bft)
31.10.2019 23:58 3,3 °C 97 % 1019,2 hPa 0,0 mm 0,0 km/h (0 Bft) O-NO 74 ° 0 min 0,000 mm 0,0 UV-I 0 W/m² 2,9 °C 3,3 °C 0,0 km/h (0 Bft)
31.10.2019 23:59 3,3 °C 97 % 1019,2 hPa 0,0 mm 0,0 km/h (0 Bft) O-NO 74 ° 0 min 0,000 mm 0,0 UV-I 0 W/m² 2,9 °C 3,3 °C 0,0 km/h (0 Bft)
_ Min-Zeit 08:49 00:43 23:57 - 23:59 - - - - - - 08:49 07:55 23:59
Minimum _ 2,2 °C 95 % 1019,1 hPa - 0,0 km/h (0 Bft) - - - - - - 1,6 °C -0,5 °C 0,0 km/h (0 Bft)
_ Max-Zeit 12:54 23:59 00:19 23:09 13:38 - - 23:59 14:00 10:48 12:23 12:54 12:53 15:02
Maximum _ 4,3 °C 97 % 1022,1 hPa 0,2 mm 9,1 km/h
O (2 Bft)
- - 0 min 0,051 mm 1,2 UV-I 162 W/m² 3,7 °C 4,3 °C 14,5 km/h
O (3 Bft)
Durchschnitt _ 3,1 °C 96 % 1020,4 hPa #0,4 mm 3,2 km/h (1 Bft) O-NO - #0 min. #0,254 mm 0,8 UV-I 27 W/m² 2,5 °C 2,7 °C 5,1 km/h (1 Bft)